<?xml version="1.0" encoding="UTF-8" standalone="no" ?>
<gpx xmlns="http://www.topografix.com/GPX/1/1" xmlns:xsi="http://www.w3.org/2001/XMLSchema-instance" xsi:schemaLocation="http://www.topografix.com/GPX/1/1 http://www.topografix.com/GPX/1/1/gpx.xsd" version="1.1" creator="VisuGPX - https://www.visugpx.com">
  <metadata>
    <name>GR®54 Tour des massifs de l'Oisans et des Ecrins (Isère, Hautes-Alpes) (2021)</name>
    <desc><![CDATA[Randonnée sur le GR®54 Isère et Hautes-Alpes, Tour des massifs de l'Oisans et des Ecrins, depuis Bourg-d'Oisans.]]></desc>
  </metadata>
  <trk>
    <name><![CDATA[GR®54 Tour des massifs de l'Oisans et des Ecrins (Isère, Hautes-Alpes) (2021)]]></name>
    <cmt><![CDATA[Randonnée sur le GR®54 Isère et Hautes-Alpes, Tour des massifs de l'Oisans et des Ecrins, depuis Bourg-d'Oisans. Gîtes d'étapes, Chambres d'hôtes, Maison d'hôtes, Hôtels, Camping, Refuges, Auberges.]]></cmt>
    <desc><![CDATA[Randonnée sur le GR®54 Isère et Hautes-Alpes, Tour des massifs de l'Oisans et des Ecrins, depuis Bourg-d'Oisans. Gîtes d'étapes, Chambres d'hôtes, Maison d'hôtes, Hôtels, Camping, Refuges, Auberges.]]></desc>
    <trkseg>
      <trkpt lat="45.0546" lon="6.03152">
        <ele>719.011</ele>
        <time>2020-04-05T10:37:30Z</time>
      </trkpt>
      <trkpt lat="45.05481" lon="6.03218">
        <ele>719.021</ele>
        <time>2020-04-05T10:37:50Z</time>
      </trkpt>
      <trkpt lat="45.05512" lon="6.03277">
        <ele>718.003</ele>
        <time>2020-04-05T10:38:10Z</time>
      </trkpt>
      <trkpt lat="45.05815" lon="6.03621">
        <ele>715.408</ele>
        <time>2020-04-05T10:38:30Z</time>
      </trkpt>
      <trkpt lat="45.05918" lon="6.03785">
        <ele>716.057</ele>
        <time>2020-04-05T10:38:50Z</time>
      </trkpt>
      <trkpt lat="45.06013" lon="6.03776">
        <ele>716.095</ele>
        <time>2020-04-05T10:39:10Z</time>
      </trkpt>
      <trkpt lat="45.06163" lon="6.03733">
        <ele>717.083</ele>
        <time>2020-04-05T10:39:30Z</time>
      </trkpt>
      <trkpt lat="45.06235" lon="6.037">
        <ele>717.057</ele>
        <time>2020-04-05T10:39:50Z</time>
      </trkpt>
      <trkpt lat="45.06289" lon="6.03707">
        <ele>718.068</ele>
        <time>2020-04-05T10:40:10Z</time>
      </trkpt>
      <trkpt lat="45.06425" lon="6.03898">
        <ele>721.315</ele>
        <time>2020-04-05T10:40:30Z</time>
      </trkpt>
      <trkpt lat="45.06512" lon="6.04014">
        <ele>735.399</ele>
        <time>2021-01-20T14:10:55Z</time>
      </trkpt>
      <trkpt lat="45.06681" lon="6.03954">
        <ele>745.946</ele>
        <time>2021-01-20T14:11:15Z</time>
      </trkpt>
      <trkpt lat="45.06774" lon="6.03948">
        <ele>762.665</ele>
        <time>2021-01-20T14:11:35Z</time>
      </trkpt>
      <trkpt lat="45.06788" lon="6.0394">
        <ele>761.668</ele>
        <time>2021-01-20T14:11:55Z</time>
      </trkpt>
      <trkpt lat="45.06805" lon="6.03956">
        <ele>771.414</ele>
        <time>2021-01-20T14:12:15Z</time>
      </trkpt>
      <trkpt lat="45.0684" lon="6.03948">
        <ele>774.808</ele>
        <time>2021-01-20T14:12:35Z</time>
      </trkpt>
      <trkpt lat="45.06874" lon="6.03956">
        <ele>785.992</ele>
        <time>2021-01-20T14:12:55Z</time>
      </trkpt>
      <trkpt lat="45.06874" lon="6.0398">
        <ele>796.09</ele>
        <time>2021-01-20T14:13:15Z</time>
      </trkpt>
      <trkpt lat="45.06887" lon="6.04024">
        <ele>820.288</ele>
        <time>2021-01-20T14:13:35Z</time>
      </trkpt>
      <trkpt lat="45.069" lon="6.04045">
        <ele>833.622</ele>
        <time>2021-01-20T14:13:55Z</time>
      </trkpt>
      <trkpt lat="45.06898" lon="6.04057">
        <ele>839.073</ele>
        <time>2021-01-20T14:14:15Z</time>
      </trkpt>
      <trkpt lat="45.06878" lon="6.04069">
        <ele>842.71</ele>
        <time>2021-01-20T14:14:35Z</time>
      </trkpt>
      <trkpt lat="45.0691" lon="6.04088">
        <ele>857.484</ele>
        <time>2021-01-20T14:14:55Z</time>
      </trkpt>
      <trkpt lat="45.06879" lon="6.04094">
        <ele>856.831</ele>
        <time>2021-01-20T14:15:15Z</time>
      </trkpt>
      <trkpt lat="45.06874" lon="6.04108">
        <ele>864.312</ele>
        <time>2021-01-20T14:15:35Z</time>
      </trkpt>
      <trkpt lat="45.06881" lon="6.04115">
        <ele>869.232</ele>
        <time>2021-01-20T14:15:55Z</time>
      </trkpt>
      <trkpt lat="45.06846" lon="6.04125">
        <ele>868.605</ele>
        <time>2021-01-20T14:16:15Z</time>
      </trkpt>
      <trkpt lat="45.06823" lon="6.04156">
        <ele>880.208</ele>
        <time>2021-01-20T14:16:35Z</time>
      </trkpt>
      <trkpt lat="45.06797" lon="6.04181">
        <ele>891.747</ele>
        <time>2021-01-20T14:16:55Z</time>
      </trkpt>
      <trkpt lat="45.06866" lon="6.04199">
        <ele>919.985</ele>
        <time>2021-01-20T14:17:15Z</time>
      </trkpt>
      <trkpt lat="45.06866" lon="6.04209">
        <ele>926.793</ele>
        <time>2021-01-20T14:17:35Z</time>
      </trkpt>
      <trkpt lat="45.06853" lon="6.0421">
        <ele>924.757</ele>
        <time>2021-01-20T14:17:55Z</time>
      </trkpt>
      <trkpt lat="45.06816" lon="6.0423">
        <ele>930.258</ele>
        <time>2021-01-20T14:18:15Z</time>
      </trkpt>
      <trkpt lat="45.0679" lon="6.04226">
        <ele>920.065</ele>
        <time>2021-01-20T14:18:35Z</time>
      </trkpt>
      <trkpt lat="45.0676" lon="6.04242">
        <ele>921.129</ele>
        <time>2021-01-20T14:18:55Z</time>
      </trkpt>
      <trkpt lat="45.06758" lon="6.0427">
        <ele>935.446</ele>
        <time>2021-01-20T14:19:15Z</time>
      </trkpt>
      <trkpt lat="45.06734" lon="6.0431">
        <ele>949.221</ele>
        <time>2021-01-20T14:19:35Z</time>
      </trkpt>
      <trkpt lat="45.06706" lon="6.04341">
        <ele>952.541</ele>
        <time>2021-01-20T14:19:55Z</time>
      </trkpt>
      <trkpt lat="45.06702" lon="6.04378">
        <ele>958.205</ele>
        <time>2021-01-20T14:20:15Z</time>
      </trkpt>
      <trkpt lat="45.06718" lon="6.04389">
        <ele>965.508</ele>
        <time>2021-01-20T14:20:35Z</time>
      </trkpt>
      <trkpt lat="45.06734" lon="6.04411">
        <ele>974.378</ele>
        <time>2021-01-20T14:20:55Z</time>
      </trkpt>
      <trkpt lat="45.06734" lon="6.04434">
        <ele>972.896</ele>
        <time>2021-01-20T14:21:15Z</time>
      </trkpt>
      <trkpt lat="45.06758" lon="6.04479">
        <ele>972.344</ele>
        <time>2021-01-20T14:21:35Z</time>
      </trkpt>
      <trkpt lat="45.0681" lon="6.04494">
        <ele>977.938</ele>
        <time>2021-01-20T14:21:55Z</time>
      </trkpt>
      <trkpt lat="45.06834" lon="6.04529">
        <ele>974.649</ele>
        <time>2021-01-20T14:22:15Z</time>
      </trkpt>
      <trkpt lat="45.06859" lon="6.04578">
        <ele>970.236</ele>
        <time>2021-01-20T14:22:35Z</time>
      </trkpt>
      <trkpt lat="45.06946" lon="6.04638">
        <ele>974.36</ele>
        <time>2021-01-20T14:22:55Z</time>
      </trkpt>
      <trkpt lat="45.06969" lon="6.04667">
        <ele>974.347</ele>
        <time>2021-01-20T14:23:15Z</time>
      </trkpt>
      <trkpt lat="45.07011" lon="6.04777">
        <ele>970.553</ele>
        <time>2021-01-20T14:23:35Z</time>
      </trkpt>
      <trkpt lat="45.07027" lon="6.04842">
        <ele>967.204</ele>
        <time>2021-01-20T14:23:55Z</time>
      </trkpt>
      <trkpt lat="45.07067" lon="6.04842">
        <ele>980.414</ele>
        <time>2021-01-20T14:24:15Z</time>
      </trkpt>
      <trkpt lat="45.07073" lon="6.04862">
        <ele>982.308</ele>
        <time>2021-01-20T14:24:35Z</time>
      </trkpt>
      <trkpt lat="45.07066" lon="6.04882">
        <ele>979.411</ele>
        <time>2021-01-20T14:24:55Z</time>
      </trkpt>
      <trkpt lat="45.07039" lon="6.04906">
        <ele>967.979</ele>
        <time>2021-01-20T14:25:15Z</time>
      </trkpt>
      <trkpt lat="45.07039" lon="6.04956">
        <ele>968.797</ele>
        <time>2021-01-20T14:25:35Z</time>
      </trkpt>
      <trkpt lat="45.07065" lon="6.05048">
        <ele>985.531</ele>
        <time>2021-01-20T14:25:55Z</time>
      </trkpt>
      <trkpt lat="45.07028" lon="6.05117">
        <ele>974.412</ele>
        <time>2021-01-20T14:26:15Z</time>
      </trkpt>
      <trkpt lat="45.07008" lon="6.05131">
        <ele>967.339</ele>
        <time>2021-01-20T14:26:35Z</time>
      </trkpt>
      <trkpt lat="45.06991" lon="6.05123">
        <ele>965.223</ele>
        <time>2021-01-20T14:26:55Z</time>
      </trkpt>
      <trkpt lat="45.06998" lon="6.05088">
        <ele>958.26</ele>
        <time>2021-01-20T14:27:15Z</time>
      </trkpt>
      <trkpt lat="45.06983" lon="6.05052">
        <ele>958.788</ele>
        <time>2021-01-20T14:27:35Z</time>
      </trkpt>
      <trkpt lat="45.06913" lon="6.05004">
        <ele>963.824</ele>
        <time>2021-01-20T14:27:55Z</time>
      </trkpt>
      <trkpt lat="45.06864" lon="6.0499">
        <ele>976.326</ele>
        <time>2021-01-20T14:28:15Z</time>
      </trkpt>
      <trkpt lat="45.06833" lon="6.04947">
        <ele>978.108</ele>
        <time>2021-01-20T14:28:35Z</time>
      </trkpt>
      <trkpt lat="45.06685" lon="6.04846">
        <ele>997.834</ele>
        <time>2020-04-05T10:51:30Z</time>
      </trkpt>
      <trkpt lat="45.06655" lon="6.04896">
        <ele>1015.622</ele>
        <time>2020-04-05T10:51:50Z</time>
      </trkpt>
      <trkpt lat="45.06678" lon="6.04979">
        <ele>1027.48</ele>
        <time>2020-04-05T10:52:10Z</time>
      </trkpt>
      <trkpt lat="45.06711" lon="6.05128">
        <ele>1046.994</ele>
        <time>2020-04-05T10:52:30Z</time>
      </trkpt>
      <trkpt lat="45.06699" lon="6.05292">
        <ele>1087.345</ele>
        <time>2020-04-05T10:52:50Z</time>
      </trkpt>
      <trkpt lat="45.06677" lon="6.05311">
        <ele>1108.132</ele>
        <time>2020-04-05T10:53:10Z</time>
      </trkpt>
      <trkpt lat="45.06656" lon="6.05244">
        <ele>1110.976</ele>
        <time>2020-04-05T10:53:30Z</time>
      </trkpt>
      <trkpt lat="45.06635" lon="6.05227">
        <ele>1118.133</ele>
        <time>2020-04-05T10:53:50Z</time>
      </trkpt>
      <trkpt lat="45.06612" lon="6.05189">
        <ele>1122.912</ele>
        <time>2020-04-05T10:54:10Z</time>
      </trkpt>
      <trkpt lat="45.06596" lon="6.05174">
        <ele>1128.232</ele>
        <time>2020-04-05T10:54:30Z</time>
      </trkpt>
      <trkpt lat="45.06551" lon="6.05136">
        <ele>1138.205</ele>
        <time>2020-04-05T10:54:50Z</time>
      </trkpt>
      <trkpt lat="45.0653" lon="6.05091">
        <ele>1140.508</ele>
        <time>2020-04-05T10:55:10Z</time>
      </trkpt>
      <trkpt lat="45.06521" lon="6.05058">
        <ele>1139.797</ele>
        <time>2020-04-05T10:55:30Z</time>
      </trkpt>
      <trkpt lat="45.06495" lon="6.05036">
        <ele>1144.595</ele>
        <time>2020-04-05T10:55:50Z</time>
      </trkpt>
      <trkpt lat="45.0647" lon="6.05032">
        <ele>1146.133</ele>
        <time>2020-04-05T10:56:10Z</time>
      </trkpt>
      <trkpt lat="45.06425" lon="6.05044">
        <ele>1155.857</ele>
        <time>2020-04-05T10:56:30Z</time>
      </trkpt>
      <trkpt lat="45.06395" lon="6.05034">
        <ele>1166.478</ele>
        <time>2020-04-05T10:56:50Z</time>
      </trkpt>
      <trkpt lat="45.06358" lon="6.04994">
        <ele>1169.465</ele>
        <time>2020-04-05T10:57:10Z</time>
      </trkpt>
      <trkpt lat="45.0631" lon="6.04978">
        <ele>1183.959</ele>
        <time>2020-04-05T10:57:30Z</time>
      </trkpt>
      <trkpt lat="45.06279" lon="6.04993">
        <ele>1197.676</ele>
        <time>2020-04-05T10:57:50Z</time>
      </trkpt>
      <trkpt lat="45.06262" lon="6.05011">
        <ele>1200.438</ele>
        <time>2020-04-05T10:58:10Z</time>
      </trkpt>
      <trkpt lat="45.06281" lon="6.05012">
        <ele>1204.67</ele>
        <time>2020-04-05T10:58:30Z</time>
      </trkpt>
      <trkpt lat="45.06263" lon="6.05038">
        <ele>1209.117</ele>
        <time>2020-04-05T10:58:50Z</time>
      </trkpt>
      <trkpt lat="45.06269" lon="6.05052">
        <ele>1215.308</ele>
        <time>2020-04-05T10:59:10Z</time>
      </trkpt>
      <trkpt lat="45.06295" lon="6.05044">
        <ele>1215.869</ele>
        <time>2020-04-05T10:59:30Z</time>
      </trkpt>
      <trkpt lat="45.06307" lon="6.05048">
        <ele>1217.577</ele>
        <time>2020-04-05T10:59:50Z</time>
      </trkpt>
      <trkpt lat="45.06289" lon="6.05073">
        <ele>1227.555</ele>
        <time>2020-04-05T11:00:10Z</time>
      </trkpt>
      <trkpt lat="45.06307" lon="6.051">
        <ele>1239.999</ele>
        <time>2020-04-05T11:00:30Z</time>
      </trkpt>
      <trkpt lat="45.06308" lon="6.05127">
        <ele>1249.45</ele>
        <time>2020-04-05T11:00:50Z</time>
      </trkpt>
      <trkpt lat="45.06318" lon="6.05153">
        <ele>1256.327</ele>
        <time>2020-04-05T11:01:10Z</time>
      </trkpt>
      <trkpt lat="45.06304" lon="6.05149">
        <ele>1257.521</ele>
        <time>2020-04-05T11:01:30Z</time>
      </trkpt>
      <trkpt lat="45.06324" lon="6.05212">
        <ele>1280.458</ele>
        <time>2020-04-05T11:01:50Z</time>
      </trkpt>
      <trkpt lat="45.06384" lon="6.05274">
        <ele>1293.659</ele>
        <time>2020-04-05T11:02:10Z</time>
      </trkpt>
      <trkpt lat="45.06418" lon="6.0529">
        <ele>1298.503</ele>
        <time>2020-04-05T11:02:30Z</time>
      </trkpt>
      <trkpt lat="45.06436" lon="6.05321">
        <ele>1307.123</ele>
        <time>2020-04-05T11:02:50Z</time>
      </trkpt>
      <trkpt lat="45.0641" lon="6.054">
        <ele>1327.208</ele>
        <time>2020-04-05T11:03:10Z</time>
      </trkpt>
      <trkpt lat="45.06407" lon="6.05425">
        <ele>1327.931</ele>
        <time>2020-04-05T11:03:30Z</time>
      </trkpt>
      <trkpt lat="45.06397" lon="6.05446">
        <ele>1337.389</ele>
        <time>2020-04-05T11:03:50Z</time>
      </trkpt>
      <trkpt lat="45.06401" lon="6.05487">
        <ele>1340.317</ele>
        <time>2020-04-05T11:04:10Z</time>
      </trkpt>
      <trkpt lat="45.06429" lon="6.05529">
        <ele>1338.211</ele>
        <time>2020-04-05T11:04:30Z</time>
      </trkpt>
      <trkpt lat="45.06435" lon="6.05558">
        <ele>1338.732</ele>
        <time>2020-04-05T11:04:50Z</time>
      </trkpt>
      <trkpt lat="45.06432" lon="6.05606">
        <ele>1343.779</ele>
        <time>2020-04-05T11:05:10Z</time>
      </trkpt>
      <trkpt lat="45.06417" lon="6.05629">
        <ele>1358.043</ele>
        <time>2020-04-05T11:05:30Z</time>
      </trkpt>
      <trkpt lat="45.06413" lon="6.05657">
        <ele>1363.16</ele>
        <time>2020-04-05T11:05:50Z</time>
      </trkpt>
      <trkpt lat="45.06418" lon="6.05671">
        <ele>1362.887</ele>
        <time>2020-04-05T11:06:10Z</time>
      </trkpt>
      <trkpt lat="45.06452" lon="6.05693">
        <ele>1357.542</ele>
        <time>2020-04-05T11:06:30Z</time>
      </trkpt>
      <trkpt lat="45.06458" lon="6.05714">
        <ele>1362.026</ele>
        <time>2020-04-05T11:06:50Z</time>
      </trkpt>
      <trkpt lat="45.06447" lon="6.05803">
        <ele>1387.908</ele>
        <time>2020-04-05T11:07:10Z</time>
      </trkpt>
      <trkpt lat="45.06456" lon="6.0588">
        <ele>1388.134</ele>
        <time>2020-04-05T11:07:30Z</time>
      </trkpt>
      <trkpt lat="45.06472" lon="6.05961">
        <ele>1390.582</ele>
        <time>2020-04-05T11:07:50Z</time>
      </trkpt>
      <trkpt lat="45.06497" lon="6.06019">
        <ele>1385.36</ele>
        <time>2020-04-05T11:08:10Z</time>
      </trkpt>
      <trkpt lat="45.06491" lon="6.06029">
        <ele>1387.854</ele>
        <time>2020-04-05T11:08:30Z</time>
      </trkpt>
      <trkpt lat="45.06485" lon="6.06026">
        <ele>1389.945</ele>
        <time>2020-04-05T11:08:50Z</time>
      </trkpt>
      <trkpt lat="45.06482" lon="6.06013">
        <ele>1390.152</ele>
        <time>2020-04-05T11:09:10Z</time>
      </trkpt>
      <trkpt lat="45.06462" lon="6.05971">
        <ele>1395.286</ele>
        <time>2020-04-05T11:09:30Z</time>
      </trkpt>
      <trkpt lat="45.06454" lon="6.05976">
        <ele>1399.473</ele>
        <time>2020-04-05T11:09:50Z</time>
      </trkpt>
      <trkpt lat="45.06456" lon="6.05992">
        <ele>1400.266</ele>
        <time>2020-04-05T11:10:10Z</time>
      </trkpt>
      <trkpt lat="45.0647" lon="6.06017">
        <ele>1395.129</ele>
        <time>2020-04-05T11:10:30Z</time>
      </trkpt>
      <trkpt lat="45.06479" lon="6.06061">
        <ele>1393.221</ele>
        <time>2020-04-05T11:10:50Z</time>
      </trkpt>
      <trkpt lat="45.06462" lon="6.06094">
        <ele>1402.108</ele>
        <time>2020-04-05T11:11:10Z</time>
      </trkpt>
      <trkpt lat="45.06462" lon="6.06117">
        <ele>1403.582</ele>
        <time>2020-04-05T11:11:30Z</time>
      </trkpt>
      <trkpt lat="45.06469" lon="6.06127">
        <ele>1403.26</ele>
        <time>2020-04-05T11:11:50Z</time>
      </trkpt>
      <trkpt lat="45.06499" lon="6.06123">
        <ele>1397.898</ele>
        <time>2020-04-05T11:12:10Z</time>
      </trkpt>
      <trkpt lat="45.06555" lon="6.06135">
        <ele>1404.842</ele>
        <time>2020-04-05T11:12:30Z</time>
      </trkpt>
      <trkpt lat="45.06627" lon="6.06129">
        <ele>1411.273</ele>
        <time>2020-04-05T11:12:50Z</time>
      </trkpt>
      <trkpt lat="45.06667" lon="6.06083">
        <ele>1413.05</ele>
        <time>2020-04-05T11:13:10Z</time>
      </trkpt>
      <trkpt lat="45.06752" lon="6.06029">
        <ele>1423.724</ele>
        <time>2020-04-05T11:13:30Z</time>
      </trkpt>
      <trkpt lat="45.06796" lon="6.06014">
        <ele>1431.941</ele>
        <time>2020-04-05T11:13:50Z</time>
      </trkpt>
      <trkpt lat="45.06823" lon="6.06072">
        <ele>1429.328</ele>
        <time>2020-04-05T11:14:10Z</time>
      </trkpt>
      <trkpt lat="45.06781" lon="6.06145">
        <ele>1430.289</ele>
        <time>2020-04-05T11:14:30Z</time>
      </trkpt>
      <trkpt lat="45.06767" lon="6.06199">
        <ele>1435.117</ele>
        <time>2020-04-05T11:14:50Z</time>
      </trkpt>
      <trkpt lat="45.06779" lon="6.06269">
        <ele>1443.708</ele>
        <time>2020-04-05T11:15:10Z</time>
      </trkpt>
      <trkpt lat="45.0677" lon="6.06323">
        <ele>1448.798</ele>
        <time>2020-04-05T11:15:30Z</time>
      </trkpt>
      <trkpt lat="45.0677" lon="6.06381">
        <ele>1454.416</ele>
        <time>2020-04-05T11:15:50Z</time>
      </trkpt>
      <trkpt lat="45.0684" lon="6.06379">
        <ele>1452.754</ele>
        <time>2020-04-05T11:16:10Z</time>
      </trkpt>
      <trkpt lat="45.06869" lon="6.06364">
        <ele>1454.918</ele>
        <time>2020-04-05T11:16:30Z</time>
      </trkpt>
      <trkpt lat="45.0691" lon="6.06362">
        <ele>1458.839</ele>
        <time>2020-04-05T11:16:50Z</time>
      </trkpt>
      <trkpt lat="45.06967" lon="6.06411">
        <ele>1465.836</ele>
        <time>2020-04-05T11:17:10Z</time>
      </trkpt>
      <trkpt lat="45.07119" lon="6.06439">
        <ele>1474.59</ele>
        <time>2020-04-05T11:17:30Z</time>
      </trkpt>
      <trkpt lat="45.07178" lon="6.0643">
        <ele>1476.327</ele>
        <time>2020-04-05T11:17:50Z</time>
      </trkpt>
      <trkpt lat="45.07248" lon="6.06426">
        <ele>1478.158</ele>
        <time>2020-04-05T11:18:10Z</time>
      </trkpt>
      <trkpt lat="45.07288" lon="6.06443">
        <ele>1482.052</ele>
        <time>2020-04-05T11:18:30Z</time>
      </trkpt>
      <trkpt lat="45.07346" lon="6.06417">
        <ele>1484.017</ele>
        <time>2020-04-05T11:18:50Z</time>
      </trkpt>
      <trkpt lat="45.07373" lon="6.06396">
        <ele>1481.308</ele>
        <time>2020-04-05T11:19:10Z</time>
      </trkpt>
      <trkpt lat="45.07429" lon="6.06407">
        <ele>1482.311</ele>
        <time>2020-04-05T11:19:30Z</time>
      </trkpt>
      <trkpt lat="45.07454" lon="6.06362">
        <ele>1481.419</ele>
        <time>2020-04-05T11:19:50Z</time>
      </trkpt>
      <trkpt lat="45.07457" lon="6.06321">
        <ele>1478.367</ele>
        <time>2020-04-05T11:20:10Z</time>
      </trkpt>
      <trkpt lat="45.07484" lon="6.06291">
        <ele>1483.981</ele>
        <time>2020-04-05T11:20:30Z</time>
      </trkpt>
      <trkpt lat="45.07542" lon="6.06308">
        <ele>1496.322</ele>
        <time>2020-04-05T11:20:50Z</time>
      </trkpt>
      <trkpt lat="45.07584" lon="6.06274">
        <ele>1494.379</ele>
        <time>2020-04-05T11:21:10Z</time>
      </trkpt>
      <trkpt lat="45.07678" lon="6.06293">
        <ele>1505.253</ele>
        <time>2020-04-05T11:21:30Z</time>
      </trkpt>
      <trkpt lat="45.07757" lon="6.06329">
        <ele>1508.09</ele>
        <time>2020-04-05T11:21:50Z</time>
      </trkpt>
      <trkpt lat="45.07787" lon="6.0636">
        <ele>1516.069</ele>
        <time>2020-04-05T11:22:10Z</time>
      </trkpt>
      <trkpt lat="45.07872" lon="6.06422">
        <ele>1517.504</ele>
        <time>2020-04-05T11:22:30Z</time>
      </trkpt>
      <trkpt lat="45.07917" lon="6.06426">
        <ele>1511.324</ele>
        <time>2020-04-05T11:22:50Z</time>
      </trkpt>
      <trkpt lat="45.07919" lon="6.06493">
        <ele>1520.108</ele>
        <time>2020-04-05T11:23:10Z</time>
      </trkpt>
      <trkpt lat="45.07926" lon="6.0652">
        <ele>1516.542</ele>
        <time>2020-04-05T11:23:30Z</time>
      </trkpt>
      <trkpt lat="45.07954" lon="6.06574">
        <ele>1505.16</ele>
        <time>2020-04-05T11:23:50Z</time>
      </trkpt>
      <trkpt lat="45.07967" lon="6.06617">
        <ele>1509.858</ele>
        <time>2020-04-05T11:24:10Z</time>
      </trkpt>
      <trkpt lat="45.07978" lon="6.06649">
        <ele>1508.052</ele>
        <time>2020-04-05T11:24:30Z</time>
      </trkpt>
      <trkpt lat="45.08011" lon="6.06678">
        <ele>1474.623</ele>
        <time>2020-04-05T11:24:50Z</time>
      </trkpt>
      <trkpt lat="45.08016" lon="6.06699">
        <ele>1472.78</ele>
        <time>2020-04-05T11:25:10Z</time>
      </trkpt>
      <trkpt lat="45.08023" lon="6.06706">
        <ele>1465.994</ele>
        <time>2020-04-05T11:25:30Z</time>
      </trkpt>
      <trkpt lat="45.08014" lon="6.06726">
        <ele>1478.291</ele>
        <time>2020-04-05T11:25:50Z</time>
      </trkpt>
      <trkpt lat="45.0803" lon="6.06785">
        <ele>1466.669</ele>
        <time>2020-04-05T11:26:10Z</time>
      </trkpt>
      <trkpt lat="45.08037" lon="6.06826">
        <ele>1461.904</ele>
        <time>2020-04-05T11:26:30Z</time>
      </trkpt>
      <trkpt lat="45.08059" lon="6.06835">
        <ele>1443.624</ele>
        <time>2020-04-05T11:26:50Z</time>
      </trkpt>
      <trkpt lat="45.0807" lon="6.06869">
        <ele>1439.008</ele>
        <time>2020-04-05T11:27:10Z</time>
      </trkpt>
      <trkpt lat="45.08074" lon="6.06849">
        <ele>1434.442</ele>
        <time>2020-04-05T11:27:30Z</time>
      </trkpt>
      <trkpt lat="45.0809" lon="6.06874">
        <ele>1427.57</ele>
        <time>2020-04-05T11:27:50Z</time>
      </trkpt>
      <trkpt lat="45.0811" lon="6.06917">
        <ele>1418.698</ele>
        <time>2020-04-05T11:28:10Z</time>
      </trkpt>
      <trkpt lat="45.08137" lon="6.06915">
        <ele>1422.512</ele>
        <time>2020-04-05T11:28:30Z</time>
      </trkpt>
      <trkpt lat="45.08128" lon="6.06993">
        <ele>1427.043</ele>
        <time>2020-04-05T11:28:50Z</time>
      </trkpt>
      <trkpt lat="45.08131" lon="6.0705">
        <ele>1431.19</ele>
        <time>2020-04-05T11:29:10Z</time>
      </trkpt>
      <trkpt lat="45.08144" lon="6.07105">
        <ele>1437.944</ele>
        <time>2020-04-05T11:29:30Z</time>
      </trkpt>
      <trkpt lat="45.08151" lon="6.07159">
        <ele>1441.481</ele>
        <time>2020-04-05T11:29:50Z</time>
      </trkpt>
      <trkpt lat="45.08164" lon="6.07184">
        <ele>1444.636</ele>
        <time>2020-04-05T11:30:10Z</time>
      </trkpt>
      <trkpt lat="45.08169" lon="6.07213">
        <ele>1446.917</ele>
        <time>2020-04-05T11:30:30Z</time>
      </trkpt>
      <trkpt lat="45.08183" lon="6.07249">
        <ele>1451.318</ele>
        <time>2020-04-05T11:30:50Z</time>
      </trkpt>
      <trkpt lat="45.08192" lon="6.07293">
        <ele>1453.108</ele>
        <time>2020-04-05T11:31:10Z</time>
      </trkpt>
      <trkpt lat="45.08203" lon="6.07303">
        <ele>1457.829</ele>
        <time>2020-04-05T11:31:30Z</time>
      </trkpt>
      <trkpt lat="45.08205" lon="6.07332">
        <ele>1459.777</ele>
        <time>2020-04-05T11:31:50Z</time>
      </trkpt>
      <trkpt lat="45.08225" lon="6.07411">
        <ele>1468.935</ele>
        <time>2020-04-05T11:32:10Z</time>
      </trkpt>
      <trkpt lat="45.08204" lon="6.07497">
        <ele>1469.879</ele>
        <time>2020-04-05T11:32:30Z</time>
      </trkpt>
      <trkpt lat="45.08198" lon="6.07544">
        <ele>1475.05</ele>
        <time>2020-04-05T11:32:50Z</time>
      </trkpt>
      <trkpt lat="45.08196" lon="6.07637">
        <ele>1483.877</ele>
        <time>2020-04-05T11:33:10Z</time>
      </trkpt>
      <trkpt lat="45.08189" lon="6.07691">
        <ele>1483.951</ele>
        <time>2020-04-05T11:33:30Z</time>
      </trkpt>
      <trkpt lat="45.0819" lon="6.07756">
        <ele>1489.068</ele>
        <time>2020-04-05T11:33:50Z</time>
      </trkpt>
      <trkpt lat="45.08183" lon="6.07828">
        <ele>1492.881</ele>
        <time>2020-04-05T11:34:10Z</time>
      </trkpt>
      <trkpt lat="45.0819" lon="6.07966">
        <ele>1504.361</ele>
        <time>2020-04-05T11:34:30Z</time>
      </trkpt>
      <trkpt lat="45.08156" lon="6.08171">
        <ele>1512.817</ele>
        <time>2020-04-05T11:34:50Z</time>
      </trkpt>
      <trkpt lat="45.08158" lon="6.08279">
        <ele>1523.008</ele>
        <time>2020-04-05T11:35:10Z</time>
      </trkpt>
      <trkpt lat="45.08154" lon="6.0831">
        <ele>1524.684</ele>
        <time>2020-04-05T11:35:30Z</time>
      </trkpt>
      <trkpt lat="45.08136" lon="6.08335">
        <ele>1521.862</ele>
        <time>2020-04-05T11:35:50Z</time>
      </trkpt>
      <trkpt lat="45.08132" lon="6.08367">
        <ele>1522.87</ele>
        <time>2020-04-05T11:36:10Z</time>
      </trkpt>
      <trkpt lat="45.08148" lon="6.0841">
        <ele>1526.394</ele>
        <time>2020-04-05T11:36:30Z</time>
      </trkpt>
      <trkpt lat="45.08145" lon="6.08461">
        <ele>1528.825</ele>
        <time>2020-04-05T11:36:50Z</time>
      </trkpt>
      <trkpt lat="45.08135" lon="6.08499">
        <ele>1529.662</ele>
        <time>2020-04-05T11:37:10Z</time>
      </trkpt>
      <trkpt lat="45.08133" lon="6.08549">
        <ele>1534.376</ele>
        <time>2020-04-05T11:37:30Z</time>
      </trkpt>
      <trkpt lat="45.08126" lon="6.08579">
        <ele>1536.323</ele>
        <time>2020-04-05T11:37:50Z</time>
      </trkpt>
      <trkpt lat="45.08132" lon="6.08616">
        <ele>1537.578</ele>
        <time>2020-04-05T11:38:10Z</time>
      </trkpt>
      <trkpt lat="45.0813" lon="6.0863">
        <ele>1538.033</ele>
        <time>2020-04-05T11:38:30Z</time>
      </trkpt>
      <trkpt lat="45.08135" lon="6.08678">
        <ele>1542.626</ele>
        <time>2020-04-05T11:38:50Z</time>
      </trkpt>
      <trkpt lat="45.0813" lon="6.087">
        <ele>1545.908</ele>
        <time>2020-04-05T11:39:10Z</time>
      </trkpt>
      <trkpt lat="45.0812" lon="6.08725">
        <ele>1548.463</ele>
        <time>2020-04-05T11:39:30Z</time>
      </trkpt>
      <trkpt lat="45.08098" lon="6.0875">
        <ele>1548.561</ele>
        <time>2020-04-05T11:39:50Z</time>
      </trkpt>
      <trkpt lat="45.08083" lon="6.08785">
        <ele>1549.099</ele>
        <time>2020-04-05T11:40:10Z</time>
      </trkpt>
      <trkpt lat="45.08076" lon="6.08839">
        <ele>1551.933</ele>
        <time>2020-04-05T11:40:30Z</time>
      </trkpt>
      <trkpt lat="45.08064" lon="6.0888">
        <ele>1553.214</ele>
        <time>2020-04-05T11:40:50Z</time>
      </trkpt>
      <trkpt lat="45.08066" lon="6.08941">
        <ele>1556.731</ele>
        <time>2020-04-05T11:41:10Z</time>
      </trkpt>
      <trkpt lat="45.0806" lon="6.08976">
        <ele>1556.725</ele>
        <time>2020-04-05T11:41:30Z</time>
      </trkpt>
      <trkpt lat="45.08058" lon="6.09063">
        <ele>1558.032</ele>
        <time>2020-04-05T11:41:50Z</time>
      </trkpt>
      <trkpt lat="45.08085" lon="6.09134">
        <ele>1564.263</ele>
        <time>2020-04-05T11:42:10Z</time>
      </trkpt>
      <trkpt lat="45.08083" lon="6.09184">
        <ele>1563.644</ele>
        <time>2020-04-05T11:42:30Z</time>
      </trkpt>
      <trkpt lat="45.08069" lon="6.09244">
        <ele>1565.818</ele>
        <time>2020-04-05T11:42:50Z</time>
      </trkpt>
      <trkpt lat="45.08067" lon="6.0929">
        <ele>1567.308</ele>
        <time>2020-04-05T11:43:10Z</time>
      </trkpt>
      <trkpt lat="45.08077" lon="6.09341">
        <ele>1569.142</ele>
        <time>2020-04-05T11:43:30Z</time>
      </trkpt>
      <trkpt lat="45.08083" lon="6.09399">
        <ele>1571.79</ele>
        <time>2020-04-05T11:43:50Z</time>
      </trkpt>
      <trkpt lat="45.081" lon="6.09457">
        <ele>1577.718</ele>
        <time>2020-04-05T11:44:10Z</time>
      </trkpt>
      <trkpt lat="45.0812" lon="6.09478">
        <ele>1581.482</ele>
        <time>2020-04-05T11:44:30Z</time>
      </trkpt>
      <trkpt lat="45.08122" lon="6.0952">
        <ele>1582.793</ele>
        <time>2020-04-05T11:44:50Z</time>
      </trkpt>
      <trkpt lat="45.08128" lon="6.09548">
        <ele>1585.65</ele>
        <time>2020-04-05T11:45:10Z</time>
      </trkpt>
      <trkpt lat="45.08126" lon="6.09575">
        <ele>1587.074</ele>
        <time>2020-04-05T11:45:30Z</time>
      </trkpt>
      <trkpt lat="45.08128" lon="6.09585">
        <ele>1587.981</ele>
        <time>2020-04-05T11:45:50Z</time>
      </trkpt>
      <trkpt lat="45.08128" lon="6.09605">
        <ele>1588.517</ele>
        <time>2020-04-05T11:46:10Z</time>
      </trkpt>
      <trkpt lat="45.0815" lon="6.09679">
        <ele>1592.287</ele>
        <time>2020-04-05T11:46:30Z</time>
      </trkpt>
      <trkpt lat="45.08151" lon="6.09741">
        <ele>1594.615</ele>
        <time>2020-04-05T11:46:50Z</time>
      </trkpt>
      <trkpt lat="45.08136" lon="6.09868">
        <ele>1600.008</ele>
        <time>2020-04-05T11:47:10Z</time>
      </trkpt>
      <trkpt lat="45.08122" lon="6.09897">
        <ele>1602.437</ele>
        <time>2020-04-05T11:47:30Z</time>
      </trkpt>
      <trkpt lat="45.08119" lon="6.09925">
        <ele>1604.375</ele>
        <time>2020-04-05T11:47:50Z</time>
      </trkpt>
      <trkpt lat="45.08122" lon="6.09969">
        <ele>1610.633</ele>
        <time>2020-04-05T11:48:10Z</time>
      </trkpt>
      <trkpt lat="45.08111" lon="6.10011">
        <ele>1611.237</ele>
        <time>2020-04-05T11:48:30Z</time>
      </trkpt>
      <trkpt lat="45.08102" lon="6.10073">
        <ele>1617.478</ele>
        <time>2020-04-05T11:48:50Z</time>
      </trkpt>
      <trkpt lat="45.08089" lon="6.10104">
        <ele>1619.125</ele>
        <time>2020-04-05T11:49:10Z</time>
      </trkpt>
      <trkpt lat="45.08076" lon="6.10126">
        <ele>1621.539</ele>
        <time>2020-04-05T11:49:30Z</time>
      </trkpt>
      <trkpt lat="45.08057" lon="6.10218">
        <ele>1629.896</ele>
        <time>2020-04-05T11:49:50Z</time>
      </trkpt>
      <trkpt lat="45.0805" lon="6.10233">
        <ele>1631.462</ele>
        <time>2020-04-05T11:50:10Z</time>
      </trkpt>
      <trkpt lat="45.08041" lon="6.10263">
        <ele>1634.883</ele>
        <time>2020-04-05T11:50:30Z</time>
      </trkpt>
      <trkpt lat="45.07987" lon="6.10325">
        <ele>1640.611</ele>
        <time>2020-04-05T11:50:50Z</time>
      </trkpt>
      <trkpt lat="45.0796" lon="6.10397">
        <ele>1642.908</ele>
        <time>2020-04-05T11:51:10Z</time>
      </trkpt>
      <trkpt lat="45.07905" lon="6.10462">
        <ele>1645.862</ele>
        <time>2020-04-05T11:51:30Z</time>
      </trkpt>
      <trkpt lat="45.07877" lon="6.10533">
        <ele>1649.48</ele>
        <time>2020-04-05T11:51:50Z</time>
      </trkpt>
      <trkpt lat="45.07837" lon="6.10636">
        <ele>1658.318</ele>
        <time>2020-04-05T11:52:10Z</time>
      </trkpt>
      <trkpt lat="45.07825" lon="6.10717">
        <ele>1666.612</ele>
        <time>2020-04-05T11:52:30Z</time>
      </trkpt>
      <trkpt lat="45.07836" lon="6.10771">
        <ele>1668.963</ele>
        <time>2020-04-05T11:52:50Z</time>
      </trkpt>
      <trkpt lat="45.07871" lon="6.10816">
        <ele>1677.13</ele>
        <time>2020-04-05T11:53:10Z</time>
      </trkpt>
      <trkpt lat="45.07898" lon="6.10876">
        <ele>1678.864</ele>
        <time>2020-04-05T11:53:30Z</time>
      </trkpt>
      <trkpt lat="45.07913" lon="6.10937">
        <ele>1684.421</ele>
        <time>2020-04-05T11:53:50Z</time>
      </trkpt>
      <trkpt lat="45.07905" lon="6.11026">
        <ele>1689.867</ele>
        <time>2020-04-05T11:54:10Z</time>
      </trkpt>
      <trkpt lat="45.07905" lon="6.11106">
        <ele>1694.381</ele>
        <time>2020-04-05T11:54:30Z</time>
      </trkpt>
      <trkpt lat="45.07874" lon="6.1126">
        <ele>1698.519</ele>
        <time>2020-04-05T11:54:50Z</time>
      </trkpt>
      <trkpt lat="45.0787" lon="6.11332">
        <ele>1702.808</ele>
        <time>2020-04-05T11:55:10Z</time>
      </trkpt>
      <trkpt lat="45.07851" lon="6.11457">
        <ele>1707.122</ele>
        <time>2020-04-05T11:55:30Z</time>
      </trkpt>
      <trkpt lat="45.07855" lon="6.11546">
        <ele>1713.79</ele>
        <time>2020-04-05T11:55:50Z</time>
      </trkpt>
      <trkpt lat="45.07846" lon="6.11637">
        <ele>1714.478</ele>
        <time>2020-04-05T11:56:10Z</time>
      </trkpt>
      <trkpt lat="45.0782" lon="6.11735">
        <ele>1721.622</ele>
        <time>2020-04-05T11:56:30Z</time>
      </trkpt>
      <trkpt lat="45.07821" lon="6.11772">
        <ele>1724.413</ele>
        <time>2020-04-05T11:56:50Z</time>
      </trkpt>
      <trkpt lat="45.07808" lon="6.11831">
        <ele>1724.42</ele>
        <time>2020-04-05T11:57:10Z</time>
      </trkpt>
      <trkpt lat="45.07803" lon="6.11898">
        <ele>1727.394</ele>
        <time>2020-04-05T11:57:30Z</time>
      </trkpt>
      <trkpt lat="45.07812" lon="6.11969">
        <ele>1732.551</ele>
        <time>2020-04-05T11:57:50Z</time>
      </trkpt>
      <trkpt lat="45.07813" lon="6.12044">
        <ele>1742.539</ele>
        <time>2020-04-05T11:58:10Z</time>
      </trkpt>
      <trkpt lat="45.07832" lon="6.1208">
        <ele>1742.201</ele>
        <time>2020-04-05T11:58:30Z</time>
      </trkpt>
      <trkpt lat="45.07865" lon="6.1234">
        <ele>1756.621</ele>
        <time>2020-04-05T11:58:50Z</time>
      </trkpt>
      <trkpt lat="45.07908" lon="6.12405">
        <ele>1760.708</ele>
        <time>2020-04-05T11:59:10Z</time>
      </trkpt>
      <trkpt lat="45.07916" lon="6.12472">
        <ele>1767.159</ele>
        <time>2020-04-05T11:59:30Z</time>
      </trkpt>
      <trkpt lat="45.07932" lon="6.12509">
        <ele>1769.447</ele>
        <time>2020-04-05T11:59:50Z</time>
      </trkpt>
      <trkpt lat="45.07944" lon="6.12543">
        <ele>1772.635</ele>
        <time>2020-04-05T12:00:10Z</time>
      </trkpt>
      <trkpt lat="45.07983" lon="6.12587">
        <ele>1774.839</ele>
        <time>2020-04-05T12:00:30Z</time>
      </trkpt>
      <trkpt lat="45.08024" lon="6.12673">
        <ele>1782.33</ele>
        <time>2020-04-05T12:00:50Z</time>
      </trkpt>
      <trkpt lat="45.08056" lon="6.12712">
        <ele>1786.517</ele>
        <time>2020-04-05T12:01:10Z</time>
      </trkpt>
      <trkpt lat="45.08079" lon="6.12759">
        <ele>1791.821</ele>
        <time>2020-04-05T12:01:30Z</time>
      </trkpt>
      <trkpt lat="45.08105" lon="6.12802">
        <ele>1794.188</ele>
        <time>2020-04-05T12:01:50Z</time>
      </trkpt>
      <trkpt lat="45.08132" lon="6.12894">
        <ele>1799.788</ele>
        <time>2020-04-05T12:02:10Z</time>
      </trkpt>
      <trkpt lat="45.08133" lon="6.12973">
        <ele>1806.724</ele>
        <time>2020-04-05T12:02:30Z</time>
      </trkpt>
      <trkpt lat="45.08085" lon="6.13059">
        <ele>1816.926</ele>
        <time>2020-04-05T12:02:50Z</time>
      </trkpt>
      <trkpt lat="45.08081" lon="6.13094">
        <ele>1818.808</ele>
        <time>2020-04-05T12:03:10Z</time>
      </trkpt>
      <trkpt lat="45.0811" lon="6.13156">
        <ele>1820.054</ele>
        <time>2020-04-05T12:03:30Z</time>
      </trkpt>
      <trkpt lat="45.08141" lon="6.13179">
        <ele>1826.062</ele>
        <time>2020-04-05T12:03:50Z</time>
      </trkpt>
      <trkpt lat="45.08099" lon="6.13212">
        <ele>1829.23</ele>
        <time>2020-04-05T12:04:10Z</time>
      </trkpt>
      <trkpt lat="45.08058" lon="6.1321">
        <ele>1832.394</ele>
        <time>2020-04-05T12:04:30Z</time>
      </trkpt>
      <trkpt lat="45.08027" lon="6.13164">
        <ele>1832.115</ele>
        <time>2020-04-05T12:04:50Z</time>
      </trkpt>
      <trkpt lat="45.08009" lon="6.13116">
        <ele>1839.412</ele>
        <time>2020-04-05T12:05:10Z</time>
      </trkpt>
      <trkpt lat="45.08008" lon="6.1309">
        <ele>1842.396</ele>
        <time>2020-04-05T12:05:30Z</time>
      </trkpt>
      <trkpt lat="45.07993" lon="6.13094">
        <ele>1847.183</ele>
        <time>2020-04-05T12:05:50Z</time>
      </trkpt>
      <trkpt lat="45.07969" lon="6.13179">
        <ele>1848.937</ele>
        <time>2020-04-05T12:06:10Z</time>
      </trkpt>
      <trkpt lat="45.0797" lon="6.13259">
        <ele>1854.349</ele>
        <time>2020-04-05T12:06:30Z</time>
      </trkpt>
      <trkpt lat="45.07993" lon="6.13311">
        <ele>1858.113</ele>
        <time>2020-04-05T12:06:50Z</time>
      </trkpt>
      <trkpt lat="45.08064" lon="6.13568">
        <ele>1878.808</ele>
        <time>2020-04-05T12:07:10Z</time>
      </trkpt>
      <trkpt lat="45.08076" lon="6.13742">
        <ele>1892.389</ele>
        <time>2020-04-05T12:07:30Z</time>
      </trkpt>
      <trkpt lat="45.08102" lon="6.13904">
        <ele>1906.017</ele>
        <time>2020-04-05T12:07:50Z</time>
      </trkpt>
      <trkpt lat="45.08171" lon="6.14108">
        <ele>1922.635</ele>
        <time>2020-04-05T12:08:10Z</time>
      </trkpt>
      <trkpt lat="45.08189" lon="6.14202">
        <ele>1933.089</ele>
        <time>2020-04-05T12:08:30Z</time>
      </trkpt>
      <trkpt lat="45.0825" lon="6.14298">
        <ele>1941.05</ele>
        <time>2020-04-05T12:08:50Z</time>
      </trkpt>
      <trkpt lat="45.08277" lon="6.14348">
        <ele>1947.097</ele>
        <time>2020-04-05T12:09:10Z</time>
      </trkpt>
      <trkpt lat="45.08349" lon="6.14454">
        <ele>1958.851</ele>
        <time>2020-04-05T12:09:30Z</time>
      </trkpt>
      <trkpt lat="45.08402" lon="6.14547">
        <ele>1966.358</ele>
        <time>2020-04-05T12:09:50Z</time>
      </trkpt>
      <trkpt lat="45.08517" lon="6.14719">
        <ele>1979.213</ele>
        <time>2020-04-05T12:10:10Z</time>
      </trkpt>
      <trkpt lat="45.0858" lon="6.14776">
        <ele>1984.043</ele>
        <time>2020-04-05T12:10:30Z</time>
      </trkpt>
      <trkpt lat="45.08619" lon="6.14836">
        <ele>1988.207</ele>
        <time>2020-04-05T12:10:50Z</time>
      </trkpt>
      <trkpt lat="45.08674" lon="6.14882">
        <ele>1996.208</ele>
        <time>2020-04-05T12:11:10Z</time>
      </trkpt>
      <trkpt lat="45.08716" lon="6.14904">
        <ele>1999.197</ele>
        <time>2020-04-05T12:11:30Z</time>
      </trkpt>
      <trkpt lat="45.08799" lon="6.14916">
        <ele>1996.085</ele>
        <time>2020-04-05T12:11:50Z</time>
      </trkpt>
      <trkpt lat="45.08872" lon="6.14945">
        <ele>1990.043</ele>
        <time>2020-04-05T12:12:10Z</time>
      </trkpt>
      <trkpt lat="45.08909" lon="6.14913">
        <ele>1989.027</ele>
        <time>2020-04-05T12:12:30Z</time>
      </trkpt>
      <trkpt lat="45.08951" lon="6.14921">
        <ele>1982.488</ele>
        <time>2020-04-05T12:12:50Z</time>
      </trkpt>
      <trkpt lat="45.09024" lon="6.14867">
        <ele>1983.895</ele>
        <time>2020-04-05T12:13:10Z</time>
      </trkpt>
      <trkpt lat="45.09045" lon="6.14869">
        <ele>1980.639</ele>
        <time>2020-04-05T12:13:30Z</time>
      </trkpt>
      <trkpt lat="45.08994" lon="6.14927">
        <ele>1972.646</ele>
        <time>2020-04-05T12:13:50Z</time>
      </trkpt>
      <trkpt lat="45.08996" lon="6.14952">
        <ele>1965.588</ele>
        <time>2020-04-05T12:14:10Z</time>
      </trkpt>
      <trkpt lat="45.09008" lon="6.14945">
        <ele>1961.824</ele>
        <time>2020-04-05T12:14:30Z</time>
      </trkpt>
      <trkpt lat="45.09025" lon="6.14919">
        <ele>1964.226</ele>
        <time>2020-04-05T12:14:50Z</time>
      </trkpt>
      <trkpt lat="45.09093" lon="6.14896">
        <ele>1958.008</ele>
        <time>2020-04-05T12:15:10Z</time>
      </trkpt>
      <trkpt lat="45.09128" lon="6.14921">
        <ele>1953.994</ele>
        <time>2020-04-05T12:15:30Z</time>
      </trkpt>
      <trkpt lat="45.09176" lon="6.14979">
        <ele>1943.872</ele>
        <time>2020-04-05T12:15:50Z</time>
      </trkpt>
      <trkpt lat="45.09125" lon="6.14989">
        <ele>1920.68</ele>
        <time>2020-04-05T12:16:10Z</time>
      </trkpt>
      <trkpt lat="45.09149" lon="6.15035">
        <ele>1911.794</ele>
        <time>2020-04-05T12:16:30Z</time>
      </trkpt>
      <trkpt lat="45.09156" lon="6.15106">
        <ele>1891.475</ele>
        <time>2020-04-05T12:16:50Z</time>
      </trkpt>
      <trkpt lat="45.09178" lon="6.15117">
        <ele>1892.482</ele>
        <time>2020-04-05T12:17:10Z</time>
      </trkpt>
      <trkpt lat="45.09208" lon="6.15125">
        <ele>1891.216</ele>
        <time>2020-04-05T12:17:30Z</time>
      </trkpt>
      <trkpt lat="45.09184" lon="6.15148">
        <ele>1878.753</ele>
        <time>2020-04-05T12:17:50Z</time>
      </trkpt>
      <trkpt lat="45.09198" lon="6.15153">
        <ele>1875.824</ele>
        <time>2020-04-05T12:18:10Z</time>
      </trkpt>
      <trkpt lat="45.09188" lon="6.1516">
        <ele>1872.404</ele>
        <time>2020-04-05T12:18:30Z</time>
      </trkpt>
      <trkpt lat="45.09198" lon="6.15163">
        <ele>1871.214</ele>
        <time>2020-04-05T12:18:50Z</time>
      </trkpt>
      <trkpt lat="45.09185" lon="6.15179">
        <ele>1863.308</ele>
        <time>2020-04-05T12:19:10Z</time>
      </trkpt>
      <trkpt lat="45.09219" lon="6.1519">
        <ele>1858.958</ele>
        <time>2020-04-05T12:19:30Z</time>
      </trkpt>
      <trkpt lat="45.09228" lon="6.15211">
        <ele>1848.766</ele>
        <time>2020-04-05T12:19:50Z</time>
      </trkpt>
      <trkpt lat="45.0926" lon="6.15227">
        <ele>1841.114</ele>
        <time>2020-04-05T12:20:10Z</time>
      </trkpt>
      <trkpt lat="45.09291" lon="6.15259">
        <ele>1826.368</ele>
        <time>2020-04-05T12:20:30Z</time>
      </trkpt>
      <trkpt lat="45.09269" lon="6.15283">
        <ele>1810.549</ele>
        <time>2020-04-05T12:20:50Z</time>
      </trkpt>
      <trkpt lat="45.09233" lon="6.15297">
        <ele>1799.896</ele>
        <time>2020-04-05T12:21:10Z</time>
      </trkpt>
      <trkpt lat="45.09203" lon="6.15296">
        <ele>1794.79</ele>
        <time>2020-04-05T12:21:30Z</time>
      </trkpt>
      <trkpt lat="45.09237" lon="6.15326">
        <ele>1786.127</ele>
        <time>2020-04-05T12:21:50Z</time>
      </trkpt>
      <trkpt lat="45.09216" lon="6.15329">
        <ele>1781.143</ele>
        <time>2020-04-05T12:22:10Z</time>
      </trkpt>
      <trkpt lat="45.09233" lon="6.15346">
        <ele>1776.564</ele>
        <time>2020-04-05T12:22:30Z</time>
      </trkpt>
      <trkpt lat="45.09216" lon="6.15361">
        <ele>1767.01</ele>
        <time>2020-04-05T12:22:50Z</time>
      </trkpt>
      <trkpt lat="45.09197" lon="6.15365">
        <ele>1760.808</ele>
        <time>2020-04-05T12:23:10Z</time>
      </trkpt>
      <trkpt lat="45.09174" lon="6.15377">
        <ele>1751.75</ele>
        <time>2020-04-05T12:23:30Z</time>
      </trkpt>
      <trkpt lat="45.09142" lon="6.15374">
        <ele>1746.868</ele>
        <time>2020-04-05T12:23:50Z</time>
      </trkpt>
      <trkpt lat="45.09199" lon="6.15451">
        <ele>1727.196</ele>
        <time>2020-04-05T12:24:10Z</time>
      </trkpt>
      <trkpt lat="45.09243" lon="6.15484">
        <ele>1721.56</ele>
        <time>2020-04-05T12:24:30Z</time>
      </trkpt>
      <trkpt lat="45.09215" lon="6.15488">
        <ele>1714.041</ele>
        <time>2020-04-05T12:24:50Z</time>
      </trkpt>
      <trkpt lat="45.09185" lon="6.15481">
        <ele>1711.488</ele>
        <time>2020-04-05T12:25:10Z</time>
      </trkpt>
      <trkpt lat="45.09207" lon="6.15514">
        <ele>1701.752</ele>
        <time>2020-04-05T12:25:30Z</time>
      </trkpt>
      <trkpt lat="45.09239" lon="6.1555">
        <ele>1694.919</ele>
        <time>2020-04-05T12:25:50Z</time>
      </trkpt>
      <trkpt lat="45.09243" lon="6.1557">
        <ele>1689.881</ele>
        <time>2020-04-05T12:26:10Z</time>
      </trkpt>
      <trkpt lat="45.09232" lon="6.15608">
        <ele>1676.361</ele>
        <time>2020-04-05T12:26:30Z</time>
      </trkpt>
      <trkpt lat="45.09226" lon="6.15613">
        <ele>1673.417</ele>
        <time>2020-04-05T12:26:50Z</time>
      </trkpt>
      <trkpt lat="45.09222" lon="6.15626">
        <ele>1668.508</ele>
        <time>2020-04-05T12:27:10Z</time>
      </trkpt>
      <trkpt lat="45.09208" lon="6.15643">
        <ele>1660.954</ele>
        <time>2020-04-05T12:27:30Z</time>
      </trkpt>
      <trkpt lat="45.09184" lon="6.15713">
        <ele>1640.692</ele>
        <time>2020-04-05T12:27:50Z</time>
      </trkpt>
      <trkpt lat="45.09154" lon="6.15746">
        <ele>1632.32</ele>
        <time>2020-04-05T12:28:10Z</time>
      </trkpt>
      <trkpt lat="45.09162" lon="6.1576">
        <ele>1629.864</ele>
        <time>2020-04-05T12:28:30Z</time>
      </trkpt>
      <trkpt lat="45.09159" lon="6.15774">
        <ele>1627.175</ele>
        <time>2020-04-05T12:28:50Z</time>
      </trkpt>
      <trkpt lat="45.09173" lon="6.15777">
        <ele>1626.032</ele>
        <time>2020-04-05T12:29:10Z</time>
      </trkpt>
      <trkpt lat="45.09157" lon="6.15817">
        <ele>1617.056</ele>
        <time>2020-04-05T12:29:30Z</time>
      </trkpt>
      <trkpt lat="45.09168" lon="6.15839">
        <ele>1611.233</ele>
        <time>2020-04-05T12:29:50Z</time>
      </trkpt>
      <trkpt lat="45.09165" lon="6.15858">
        <ele>1607.869</ele>
        <time>2020-04-05T12:30:10Z</time>
      </trkpt>
      <trkpt lat="45.09146" lon="6.15864">
        <ele>1609.504</ele>
        <time>2020-04-05T12:30:30Z</time>
      </trkpt>
      <trkpt lat="45.09128" lon="6.15904">
        <ele>1602.724</ele>
        <time>2020-04-05T12:30:50Z</time>
      </trkpt>
      <trkpt lat="45.09141" lon="6.15941">
        <ele>1593.008</ele>
        <time>2020-04-05T12:31:10Z</time>
      </trkpt>
      <trkpt lat="45.09098" lon="6.16064">
        <ele>1563.392</ele>
        <time>2020-04-05T12:31:30Z</time>
      </trkpt>
      <trkpt lat="45.09096" lon="6.16105">
        <ele>1549.44</ele>
        <time>2020-04-05T12:31:50Z</time>
      </trkpt>
      <trkpt lat="45.09058" lon="6.16232">
        <ele>1524.118</ele>
        <time>2020-04-05T12:32:10Z</time>
      </trkpt>
      <trkpt lat="45.09048" lon="6.1625">
        <ele>1520.042</ele>
        <time>2020-04-05T12:32:30Z</time>
      </trkpt>
      <trkpt lat="45.09047" lon="6.16307">
        <ele>1504.313</ele>
        <time>2020-04-05T12:32:50Z</time>
      </trkpt>
      <trkpt lat="45.09036" lon="6.16344">
        <ele>1497.23</ele>
        <time>2020-04-05T12:33:10Z</time>
      </trkpt>
      <trkpt lat="45.09021" lon="6.16376">
        <ele>1491.914</ele>
        <time>2020-04-05T12:33:30Z</time>
      </trkpt>
      <trkpt lat="45.09012" lon="6.16401">
        <ele>1486.721</ele>
        <time>2020-04-05T12:33:50Z</time>
      </trkpt>
      <trkpt lat="45.08975" lon="6.16429">
        <ele>1478.675</ele>
        <time>2020-04-05T12:34:10Z</time>
      </trkpt>
      <trkpt lat="45.08952" lon="6.16429">
        <ele>1473.328</ele>
        <time>2020-04-05T12:34:30Z</time>
      </trkpt>
      <trkpt lat="45.08894" lon="6.16372">
        <ele>1463.72</ele>
        <time>2020-04-05T12:34:50Z</time>
      </trkpt>
      <trkpt lat="45.08862" lon="6.1635">
        <ele>1460.408</ele>
        <time>2020-04-05T12:35:10Z</time>
      </trkpt>
      <trkpt lat="45.08818" lon="6.16339">
        <ele>1453.873</ele>
        <time>2020-04-05T12:35:30Z</time>
      </trkpt>
      <trkpt lat="45.08747" lon="6.16287">
        <ele>1448.821</ele>
        <time>2020-04-05T12:35:50Z</time>
      </trkpt>
      <trkpt lat="45.08724" lon="6.16284">
        <ele>1445.189</ele>
        <time>2020-04-05T12:36:10Z</time>
      </trkpt>
      <trkpt lat="45.08701" lon="6.16298">
        <ele>1441.023</ele>
        <time>2020-04-05T12:36:30Z</time>
      </trkpt>
      <trkpt lat="45.08687" lon="6.16337">
        <ele>1437.074</ele>
        <time>2020-04-05T12:36:50Z</time>
      </trkpt>
      <trkpt lat="45.08665" lon="6.16348">
        <ele>1430.391</ele>
        <time>2020-04-05T12:37:10Z</time>
      </trkpt>
      <trkpt lat="45.08641" lon="6.16341">
        <ele>1423.955</ele>
        <time>2020-04-05T12:37:30Z</time>
      </trkpt>
      <trkpt lat="45.08621" lon="6.16317">
        <ele>1419.822</ele>
        <time>2020-04-05T12:37:50Z</time>
      </trkpt>
      <trkpt lat="45.08581" lon="6.16292">
        <ele>1414.395</ele>
        <time>2020-04-05T12:38:10Z</time>
      </trkpt>
      <trkpt lat="45.08558" lon="6.16294">
        <ele>1412.149</ele>
        <time>2020-04-05T12:38:30Z</time>
      </trkpt>
      <trkpt lat="45.08439" lon="6.16291">
        <ele>1402.923</ele>
        <time>2020-04-05T12:38:50Z</time>
      </trkpt>
      <trkpt lat="45.08414" lon="6.16309">
        <ele>1398.508</ele>
        <time>2020-04-05T12:39:10Z</time>
      </trkpt>
      <trkpt lat="45.08359" lon="6.16279">
        <ele>1397.645</ele>
        <time>2020-04-05T12:39:30Z</time>
      </trkpt>
      <trkpt lat="45.08284" lon="6.16185">
        <ele>1402.243</ele>
        <time>2020-04-05T12:39:50Z</time>
      </trkpt>
      <trkpt lat="45.08249" lon="6.16157">
        <ele>1400.231</ele>
        <time>2020-04-05T12:40:10Z</time>
      </trkpt>
      <trkpt lat="45.08244" lon="6.16133">
        <ele>1403.465</ele>
        <time>2020-04-05T12:40:30Z</time>
      </trkpt>
      <trkpt lat="45.08188" lon="6.16087">
        <ele>1403.736</ele>
        <time>2020-04-05T12:40:50Z</time>
      </trkpt>
      <trkpt lat="45.08163" lon="6.1604">
        <ele>1406.513</ele>
        <time>2020-04-05T12:41:10Z</time>
      </trkpt>
      <trkpt lat="45.08121" lon="6.15946">
        <ele>1412.047</ele>
        <time>2020-04-05T12:41:30Z</time>
      </trkpt>
      <trkpt lat="45.08062" lon="6.15924">
        <ele>1409.974</ele>
        <time>2020-04-05T12:41:50Z</time>
      </trkpt>
      <trkpt lat="45.07924" lon="6.15796">
        <ele>1417.949</ele>
        <time>2020-04-05T12:42:10Z</time>
      </trkpt>
      <trkpt lat="45.07881" lon="6.15781">
        <ele>1414.502</ele>
        <time>2020-04-05T12:42:30Z</time>
      </trkpt>
      <trkpt lat="45.07833" lon="6.15746">
        <ele>1412.722</ele>
        <time>2020-04-05T12:42:50Z</time>
      </trkpt>
      <trkpt lat="45.07798" lon="6.15735">
        <ele>1409.508</ele>
        <time>2020-04-05T12:43:10Z</time>
      </trkpt>
      <trkpt lat="45.07707" lon="6.15761">
        <ele>1399.02</ele>
        <time>2020-04-05T12:43:30Z</time>
      </trkpt>
      <trkpt lat="45.07622" lon="6.15741">
        <ele>1405.178</ele>
        <time>2020-04-05T12:43:50Z</time>
      </trkpt>
      <trkpt lat="45.07571" lon="6.15713">
        <ele>1409.436</ele>
        <time>2020-04-05T12:44:10Z</time>
      </trkpt>
      <trkpt lat="45.07541" lon="6.15718">
        <ele>1408.34</ele>
        <time>2020-04-05T12:44:30Z</time>
      </trkpt>
      <trkpt lat="45.07502" lon="6.15749">
        <ele>1403.181</ele>
        <time>2020-04-05T12:44:50Z</time>
      </trkpt>
      <trkpt lat="45.07471" lon="6.15749">
        <ele>1400.838</ele>
        <time>2020-04-05T12:45:10Z</time>
      </trkpt>
      <trkpt lat="45.07365" lon="6.15671">
        <ele>1386.842</ele>
        <time>2020-04-05T12:45:30Z</time>
      </trkpt>
      <trkpt lat="45.0731" lon="6.15678">
        <ele>1375.539</ele>
        <time>2020-04-05T12:45:50Z</time>
      </trkpt>
      <trkpt lat="45.0719" lon="6.15584">
        <ele>1366.662</ele>
        <time>2020-04-05T12:46:10Z</time>
      </trkpt>
      <trkpt lat="45.07155" lon="6.15542">
        <ele>1361.783</ele>
        <time>2020-04-05T12:46:30Z</time>
      </trkpt>
      <trkpt lat="45.07148" lon="6.1552">
        <ele>1363.111</ele>
        <time>2020-04-05T12:46:50Z</time>
      </trkpt>
      <trkpt lat="45.07132" lon="6.15512">
        <ele>1362.208</ele>
        <time>2020-04-05T12:47:10Z</time>
      </trkpt>
      <trkpt lat="45.07112" lon="6.15508">
        <ele>1361.272</ele>
        <time>2020-04-05T12:47:30Z</time>
      </trkpt>
      <trkpt lat="45.07102" lon="6.15515">
        <ele>1358.78</ele>
        <time>2020-04-05T12:47:50Z</time>
      </trkpt>
      <trkpt lat="45.07095" lon="6.15541">
        <ele>1353.778</ele>
        <time>2020-04-05T12:48:10Z</time>
      </trkpt>
      <trkpt lat="45.07108" lon="6.15558">
        <ele>1352.762</ele>
        <time>2020-04-05T12:48:30Z</time>
      </trkpt>
      <trkpt lat="45.07118" lon="6.15586">
        <ele>1347.333</ele>
        <time>2020-04-05T12:48:50Z</time>
      </trkpt>
      <trkpt lat="45.07111" lon="6.15595">
        <ele>1342.67</ele>
        <time>2020-04-05T12:49:10Z</time>
      </trkpt>
      <trkpt lat="45.07061" lon="6.15579">
        <ele>1338.284</ele>
        <time>2020-04-05T12:49:30Z</time>
      </trkpt>
      <trkpt lat="45.07054" lon="6.15564">
        <ele>1341.321</ele>
        <time>2020-04-05T12:49:50Z</time>
      </trkpt>
      <trkpt lat="45.07041" lon="6.15565">
        <ele>1338.611</ele>
        <time>2020-04-05T12:50:10Z</time>
      </trkpt>
      <trkpt lat="45.07014" lon="6.15558">
        <ele>1333.721</ele>
        <time>2020-04-05T12:50:30Z</time>
      </trkpt>
      <trkpt lat="45.07003" lon="6.15545">
        <ele>1334.103</ele>
        <time>2020-04-05T12:50:50Z</time>
      </trkpt>
      <trkpt lat="45.06987" lon="6.15541">
        <ele>1330.608</ele>
        <time>2020-04-05T12:51:10Z</time>
      </trkpt>
      <trkpt lat="45.06979" lon="6.15556">
        <ele>1323.877</ele>
        <time>2020-04-05T12:51:30Z</time>
      </trkpt>
      <trkpt lat="45.06981" lon="6.15591">
        <ele>1316.975</ele>
        <time>2020-04-05T12:51:50Z</time>
      </trkpt>
      <trkpt lat="45.06975" lon="6.15617">
        <ele>1310.213</ele>
        <time>2020-04-05T12:52:10Z</time>
      </trkpt>
      <trkpt lat="45.06949" lon="6.15627">
        <ele>1301.527</ele>
        <time>2020-04-05T12:52:30Z</time>
      </trkpt>
      <trkpt lat="45.06924" lon="6.1564">
        <ele>1291.248</ele>
        <time>2020-04-05T12:52:50Z</time>
      </trkpt>
      <trkpt lat="45.06908" lon="6.15638">
        <ele>1286.045</ele>
        <time>2020-04-05T12:53:10Z</time>
      </trkpt>
      <trkpt lat="45.06868" lon="6.15618">
        <ele>1277.689</ele>
        <time>2020-04-05T12:53:30Z</time>
      </trkpt>
      <trkpt lat="45.06836" lon="6.15586">
        <ele>1274.696</ele>
        <time>2020-04-05T12:53:50Z</time>
      </trkpt>
      <trkpt lat="45.06847" lon="6.15614">
        <ele>1272.777</ele>
        <time>2020-04-05T12:54:10Z</time>
      </trkpt>
      <trkpt lat="45.06876" lon="6.15647">
        <ele>1272.761</ele>
        <time>2020-04-05T12:54:30Z</time>
      </trkpt>
      <trkpt lat="45.06903" lon="6.15661">
        <ele>1277.627</ele>
        <time>2020-04-05T12:54:50Z</time>
      </trkpt>
      <trkpt lat="45.0691" lon="6.15678">
        <ele>1275.008</ele>
        <time>2020-04-05T12:55:10Z</time>
      </trkpt>
      <trkpt lat="45.06899" lon="6.15752">
        <ele>1279.193</ele>
        <time>2020-04-05T12:55:30Z</time>
      </trkpt>
      <trkpt lat="45.06913" lon="6.15719">
        <ele>1273.961</ele>
        <time>2020-04-05T12:55:50Z</time>
      </trkpt>
      <trkpt lat="45.06929" lon="6.15722">
        <ele>1273.729</ele>
        <time>2020-04-05T12:56:10Z</time>
      </trkpt>
      <trkpt lat="45.06923" lon="6.15733">
        <ele>1280.323</ele>
        <time>2020-04-05T12:56:30Z</time>
      </trkpt>
      <trkpt lat="45.06938" lon="6.15733">
        <ele>1278.624</ele>
        <time>2020-04-05T12:56:50Z</time>
      </trkpt>
      <trkpt lat="45.06929" lon="6.15746">
        <ele>1287.291</ele>
        <time>2020-04-05T12:57:10Z</time>
      </trkpt>
      <trkpt lat="45.06942" lon="6.15746">
        <ele>1286.125</ele>
        <time>2020-04-05T12:57:30Z</time>
      </trkpt>
      <trkpt lat="45.06946" lon="6.15766">
        <ele>1297.372</ele>
        <time>2020-04-05T12:57:50Z</time>
      </trkpt>
      <trkpt lat="45.06972" lon="6.15778">
        <ele>1297.913</ele>
        <time>2020-04-05T12:58:10Z</time>
      </trkpt>
      <trkpt lat="45.06975" lon="6.15788">
        <ele>1303.743</ele>
        <time>2020-04-05T12:58:30Z</time>
      </trkpt>
      <trkpt lat="45.06986" lon="6.15788">
        <ele>1301.707</ele>
        <time>2020-04-05T12:58:50Z</time>
      </trkpt>
      <trkpt lat="45.06998" lon="6.15806">
        <ele>1314.208</ele>
        <time>2020-04-05T12:59:10Z</time>
      </trkpt>
      <trkpt lat="45.07029" lon="6.15881">
        <ele>1352.667</ele>
        <time>2020-04-05T12:59:30Z</time>
      </trkpt>
      <trkpt lat="45.07053" lon="6.15908">
        <ele>1363.335</ele>
        <time>2020-04-05T12:59:50Z</time>
      </trkpt>
      <trkpt lat="45.07075" lon="6.15911">
        <ele>1359.843</ele>
        <time>2020-04-05T13:00:10Z</time>
      </trkpt>
      <trkpt lat="45.07078" lon="6.15945">
        <ele>1386.177</ele>
        <time>2020-04-05T13:00:30Z</time>
      </trkpt>
      <trkpt lat="45.07072" lon="6.15982">
        <ele>1399.748</ele>
        <time>2020-04-05T13:00:50Z</time>
      </trkpt>
      <trkpt lat="45.07077" lon="6.16032">
        <ele>1414.315</ele>
        <time>2020-04-05T13:01:10Z</time>
      </trkpt>
      <trkpt lat="45.07079" lon="6.16087">
        <ele>1426.919</ele>
        <time>2020-04-05T13:01:30Z</time>
      </trkpt>
      <trkpt lat="45.07099" lon="6.16148">
        <ele>1443.256</ele>
        <time>2020-04-05T13:01:50Z</time>
      </trkpt>
      <trkpt lat="45.07098" lon="6.16169">
        <ele>1444.945</ele>
        <time>2020-04-05T13:02:10Z</time>
      </trkpt>
      <trkpt lat="45.07109" lon="6.16201">
        <ele>1452.147</ele>
        <time>2020-04-05T13:02:30Z</time>
      </trkpt>
      <trkpt lat="45.07104" lon="6.16296">
        <ele>1459.311</ele>
        <time>2020-04-05T13:02:50Z</time>
      </trkpt>
      <trkpt lat="45.07111" lon="6.16316">
        <ele>1462.708</ele>
        <time>2020-04-05T13:03:10Z</time>
      </trkpt>
      <trkpt lat="45.07116" lon="6.16385">
        <ele>1470.99</ele>
        <time>2020-04-05T13:03:30Z</time>
      </trkpt>
      <trkpt lat="45.07106" lon="6.1641">
        <ele>1471.028</ele>
        <time>2020-04-05T13:03:50Z</time>
      </trkpt>
      <trkpt lat="45.07109" lon="6.16474">
        <ele>1473.616</ele>
        <time>2020-04-05T13:04:10Z</time>
      </trkpt>
      <trkpt lat="45.07129" lon="6.16504">
        <ele>1478.11</ele>
        <time>2020-04-05T13:04:30Z</time>
      </trkpt>
      <trkpt lat="45.07152" lon="6.16554">
        <ele>1486.661</ele>
        <time>2020-04-05T13:04:50Z</time>
      </trkpt>
      <trkpt lat="45.07137" lon="6.16584">
        <ele>1484.928</ele>
        <time>2020-04-05T13:05:10Z</time>
      </trkpt>
      <trkpt lat="45.07131" lon="6.16752">
        <ele>1512.252</ele>
        <time>2020-04-05T13:05:30Z</time>
      </trkpt>
      <trkpt lat="45.07111" lon="6.16822">
        <ele>1520.419</ele>
        <time>2020-04-05T13:05:50Z</time>
      </trkpt>
      <trkpt lat="45.07102" lon="6.16875">
        <ele>1526.612</ele>
        <time>2020-04-05T13:06:10Z</time>
      </trkpt>
      <trkpt lat="45.07096" lon="6.16885">
        <ele>1527.332</ele>
        <time>2020-04-05T13:06:30Z</time>
      </trkpt>
      <trkpt lat="45.07137" lon="6.16971">
        <ele>1548.405</ele>
        <time>2020-04-05T13:06:50Z</time>
      </trkpt>
      <trkpt lat="45.07151" lon="6.16979">
        <ele>1550.708</ele>
        <time>2020-04-05T13:07:10Z</time>
      </trkpt>
      <trkpt lat="45.07153" lon="6.1702">
        <ele>1548.267</ele>
        <time>2020-04-05T13:07:30Z</time>
      </trkpt>
      <trkpt lat="45.07181" lon="6.17114">
        <ele>1549.595</ele>
        <time>2020-04-05T13:07:50Z</time>
      </trkpt>
      <trkpt lat="45.07198" lon="6.17212">
        <ele>1548.733</ele>
        <time>2020-04-05T13:08:10Z</time>
      </trkpt>
      <trkpt lat="45.07236" lon="6.17293">
        <ele>1554.957</ele>
        <time>2020-04-05T13:08:30Z</time>
      </trkpt>
      <trkpt lat="45.0729" lon="6.17406">
        <ele>1561.798</ele>
        <time>2020-04-05T13:08:50Z</time>
      </trkpt>
      <trkpt lat="45.07315" lon="6.17466">
        <ele>1562.365</ele>
        <time>2020-04-05T13:09:10Z</time>
      </trkpt>
      <trkpt lat="45.0741" lon="6.17609">
        <ele>1565.799</ele>
        <time>2020-04-05T13:09:30Z</time>
      </trkpt>
      <trkpt lat="45.07488" lon="6.17682">
        <ele>1567.366</ele>
        <time>2020-04-05T13:09:50Z</time>
      </trkpt>
      <trkpt lat="45.07585" lon="6.17827">
        <ele>1563.875</ele>
        <time>2020-04-05T13:10:10Z</time>
      </trkpt>
      <trkpt lat="45.07707" lon="6.17923">
        <ele>1564.028</ele>
        <time>2020-04-05T13:10:30Z</time>
      </trkpt>
      <trkpt lat="45.07769" lon="6.1798">
        <ele>1559.62</ele>
        <time>2020-04-05T13:10:50Z</time>
      </trkpt>
      <trkpt lat="45.07823" lon="6.17976">
        <ele>1562.908</ele>
        <time>2020-04-05T13:11:10Z</time>
      </trkpt>
      <trkpt lat="45.07845" lon="6.17986">
        <ele>1563.753</ele>
        <time>2020-04-05T13:11:30Z</time>
      </trkpt>
      <trkpt lat="45.0784" lon="6.18022">
        <ele>1559.931</ele>
        <time>2020-04-05T13:11:50Z</time>
      </trkpt>
      <trkpt lat="45.07862" lon="6.181">
        <ele>1562.369</ele>
        <time>2020-04-05T13:12:10Z</time>
      </trkpt>
      <trkpt lat="45.07893" lon="6.1815">
        <ele>1564.753</ele>
        <time>2020-04-05T13:12:30Z</time>
      </trkpt>
      <trkpt lat="45.07923" lon="6.18181">
        <ele>1568.294</ele>
        <time>2020-04-05T13:12:50Z</time>
      </trkpt>
      <trkpt lat="45.07934" lon="6.18224">
        <ele>1575.541</ele>
        <time>2020-04-05T13:13:10Z</time>
      </trkpt>
      <trkpt lat="45.07953" lon="6.1828">
        <ele>1582.995</ele>
        <time>2020-04-05T13:13:30Z</time>
      </trkpt>
      <trkpt lat="45.07955" lon="6.18325">
        <ele>1593.392</ele>
        <time>2020-04-05T13:13:50Z</time>
      </trkpt>
      <trkpt lat="45.07975" lon="6.18352">
        <ele>1592.021</ele>
        <time>2020-04-05T13:14:10Z</time>
      </trkpt>
      <trkpt lat="45.07954" lon="6.18347">
        <ele>1598.441</ele>
        <time>2020-04-05T13:14:30Z</time>
      </trkpt>
      <trkpt lat="45.07956" lon="6.18363">
        <ele>1601.305</ele>
        <time>2020-04-05T13:14:50Z</time>
      </trkpt>
      <trkpt lat="45.07937" lon="6.18352">
        <ele>1606.308</ele>
        <time>2020-04-05T13:15:10Z</time>
      </trkpt>
      <trkpt lat="45.07946" lon="6.18407">
        <ele>1618.028</ele>
        <time>2020-04-05T13:15:30Z</time>
      </trkpt>
      <trkpt lat="45.07948" lon="6.18439">
        <ele>1626.186</ele>
        <time>2020-04-05T13:15:50Z</time>
      </trkpt>
      <trkpt lat="45.07964" lon="6.1851">
        <ele>1639.194</ele>
        <time>2020-04-05T13:16:10Z</time>
      </trkpt>
      <trkpt lat="45.07969" lon="6.18618">
        <ele>1658.818</ele>
        <time>2020-04-05T13:16:30Z</time>
      </trkpt>
      <trkpt lat="45.07959" lon="6.18748">
        <ele>1681.829</ele>
        <time>2020-04-05T13:16:50Z</time>
      </trkpt>
      <trkpt lat="45.07945" lon="6.18823">
        <ele>1693.446</ele>
        <time>2020-04-05T13:17:10Z</time>
      </trkpt>
      <trkpt lat="45.07944" lon="6.18911">
        <ele>1698.06</ele>
        <time>2020-04-05T13:17:30Z</time>
      </trkpt>
      <trkpt lat="45.0794" lon="6.18957">
        <ele>1702.947</ele>
        <time>2020-04-05T13:17:50Z</time>
      </trkpt>
      <trkpt lat="45.07945" lon="6.18984">
        <ele>1701.664</ele>
        <time>2020-04-05T13:18:10Z</time>
      </trkpt>
      <trkpt lat="45.07927" lon="6.19138">
        <ele>1725.506</ele>
        <time>2020-04-05T13:18:30Z</time>
      </trkpt>
      <trkpt lat="45.0792" lon="6.19141">
        <ele>1731.016</ele>
        <time>2020-04-05T13:18:50Z</time>
      </trkpt>
      <trkpt lat="45.07905" lon="6.19242">
        <ele>1746.008</ele>
        <time>2020-04-05T13:19:10Z</time>
      </trkpt>
      <trkpt lat="45.07903" lon="6.19325">
        <ele>1753.412</ele>
        <time>2020-04-05T13:19:30Z</time>
      </trkpt>
      <trkpt lat="45.07898" lon="6.1936">
        <ele>1760.23</ele>
        <time>2020-04-05T13:19:50Z</time>
      </trkpt>
      <trkpt lat="45.07896" lon="6.1944">
        <ele>1771.848</ele>
        <time>2020-04-05T13:20:10Z</time>
      </trkpt>
      <trkpt lat="45.07891" lon="6.19438">
        <ele>1775.692</ele>
        <time>2020-04-05T13:20:30Z</time>
      </trkpt>
      <trkpt lat="45.07892" lon="6.19474">
        <ele>1779.083</ele>
        <time>2020-04-05T13:20:50Z</time>
      </trkpt>
      <trkpt lat="45.07886" lon="6.19516">
        <ele>1788.22</ele>
        <time>2020-04-05T13:21:10Z</time>
      </trkpt>
      <trkpt lat="45.07877" lon="6.19536">
        <ele>1796.044</ele>
        <time>2020-04-05T13:21:30Z</time>
      </trkpt>
      <trkpt lat="45.07885" lon="6.19553">
        <ele>1791.341</ele>
        <time>2020-04-05T13:21:50Z</time>
      </trkpt>
      <trkpt lat="45.07891" lon="6.19598">
        <ele>1797.451</ele>
        <time>2020-04-05T13:22:10Z</time>
      </trkpt>
      <trkpt lat="45.07882" lon="6.19591">
        <ele>1802.001</ele>
        <time>2020-04-05T13:22:30Z</time>
      </trkpt>
      <trkpt lat="45.07887" lon="6.1963">
        <ele>1807.411</ele>
        <time>2020-04-05T13:22:50Z</time>
      </trkpt>
      <trkpt lat="45.07879" lon="6.19619">
        <ele>1809.508</ele>
        <time>2020-04-05T13:23:10Z</time>
      </trkpt>
      <trkpt lat="45.07875" lon="6.19628">
        <ele>1813.681</ele>
        <time>2020-04-05T13:23:30Z</time>
      </trkpt>
      <trkpt lat="45.07853" lon="6.19596">
        <ele>1821.989</ele>
        <time>2020-04-05T13:23:50Z</time>
      </trkpt>
      <trkpt lat="45.07853" lon="6.1962">
        <ele>1826.367</ele>
        <time>2020-04-05T13:24:10Z</time>
      </trkpt>
      <trkpt lat="45.07837" lon="6.19583">
        <ele>1830.611</ele>
        <time>2020-04-05T13:24:30Z</time>
      </trkpt>
      <trkpt lat="45.07829" lon="6.19584">
        <ele>1836.182</ele>
        <time>2020-04-05T13:24:50Z</time>
      </trkpt>
      <trkpt lat="45.07822" lon="6.19565">
        <ele>1836.919</ele>
        <time>2020-04-05T13:25:10Z</time>
      </trkpt>
      <trkpt lat="45.07806" lon="6.19545">
        <ele>1848.313</ele>
        <time>2020-04-05T13:25:30Z</time>
      </trkpt>
      <trkpt lat="45.07806" lon="6.19523">
        <ele>1848.77</ele>
        <time>2020-04-05T13:25:50Z</time>
      </trkpt>
      <trkpt lat="45.07801" lon="6.19513">
        <ele>1851.592</ele>
        <time>2020-04-05T13:26:10Z</time>
      </trkpt>
      <trkpt lat="45.07789" lon="6.19537">
        <ele>1859.973</ele>
        <time>2020-04-05T13:26:30Z</time>
      </trkpt>
      <trkpt lat="45.07786" lon="6.19503">
        <ele>1861.92</ele>
        <time>2020-04-05T13:26:50Z</time>
      </trkpt>
      <trkpt lat="45.07779" lon="6.19471">
        <ele>1865.708</ele>
        <time>2020-04-05T13:27:10Z</time>
      </trkpt>
      <trkpt lat="45.07773" lon="6.19509">
        <ele>1870.755</ele>
        <time>2020-04-05T13:27:30Z</time>
      </trkpt>
      <trkpt lat="45.07768" lon="6.19494">
        <ele>1874.013</ele>
        <time>2020-04-05T13:27:50Z</time>
      </trkpt>
      <trkpt lat="45.07763" lon="6.19511">
        <ele>1876.981</ele>
        <time>2020-04-05T13:28:10Z</time>
      </trkpt>
      <trkpt lat="45.0776" lon="6.19489">
        <ele>1879.465</ele>
        <time>2020-04-05T13:28:30Z</time>
      </trkpt>
      <trkpt lat="45.07752" lon="6.19506">
        <ele>1884.486</ele>
        <time>2020-04-05T13:28:50Z</time>
      </trkpt>
      <trkpt lat="45.07746" lon="6.19476">
        <ele>1888.913</ele>
        <time>2020-04-05T13:29:10Z</time>
      </trkpt>
      <trkpt lat="45.0774" lon="6.19468">
        <ele>1891.957</ele>
        <time>2020-04-05T13:29:30Z</time>
      </trkpt>
      <trkpt lat="45.07733" lon="6.19496">
        <ele>1894.314</ele>
        <time>2020-04-05T13:29:50Z</time>
      </trkpt>
      <trkpt lat="45.07728" lon="6.19488">
        <ele>1897.043</ele>
        <time>2020-04-05T13:30:10Z</time>
      </trkpt>
      <trkpt lat="45.07715" lon="6.19502">
        <ele>1899.564</ele>
        <time>2020-04-05T13:30:30Z</time>
      </trkpt>
      <trkpt lat="45.07694" lon="6.19512">
        <ele>1901.91</ele>
        <time>2020-04-05T13:30:50Z</time>
      </trkpt>
      <trkpt lat="45.07651" lon="6.19563">
        <ele>1914.908</ele>
        <time>2020-04-05T13:31:10Z</time>
      </trkpt>
      <trkpt lat="45.07643" lon="6.19555">
        <ele>1914.33</ele>
        <time>2020-04-05T13:31:30Z</time>
      </trkpt>
      <trkpt lat="45.07635" lon="6.19563">
        <ele>1916.998</ele>
        <time>2020-04-05T13:31:50Z</time>
      </trkpt>
      <trkpt lat="45.07634" lon="6.19579">
        <ele>1920.826</ele>
        <time>2020-04-05T13:32:10Z</time>
      </trkpt>
      <trkpt lat="45.07623" lon="6.19581">
        <ele>1922.58</ele>
        <time>2020-04-05T13:32:30Z</time>
      </trkpt>
      <trkpt lat="45.07612" lon="6.19597">
        <ele>1928.331</ele>
        <time>2020-04-05T13:32:50Z</time>
      </trkpt>
      <trkpt lat="45.07621" lon="6.19604">
        <ele>1928.818</ele>
        <time>2020-04-05T13:33:10Z</time>
      </trkpt>
      <trkpt lat="45.07621" lon="6.1962">
        <ele>1933.362</ele>
        <time>2020-04-05T13:33:30Z</time>
      </trkpt>
      <trkpt lat="45.07635" lon="6.19642">
        <ele>1938.399</ele>
        <time>2020-04-05T13:33:50Z</time>
      </trkpt>
      <trkpt lat="45.07629" lon="6.19649">
        <ele>1941.754</ele>
        <time>2020-04-05T13:34:10Z</time>
      </trkpt>
      <trkpt lat="45.0764" lon="6.19667">
        <ele>1944.556</ele>
        <time>2020-04-05T13:34:30Z</time>
      </trkpt>
      <trkpt lat="45.07662" lon="6.19723">
        <ele>1955.011</ele>
        <time>2020-04-05T13:34:50Z</time>
      </trkpt>
      <trkpt lat="45.07654" lon="6.19724">
        <ele>1958.908</ele>
        <time>2020-04-05T13:35:10Z</time>
      </trkpt>
      <trkpt lat="45.07656" lon="6.19739">
        <ele>1962.841</ele>
        <time>2020-04-05T13:35:30Z</time>
      </trkpt>
      <trkpt lat="45.07621" lon="6.19727">
        <ele>1971.489</ele>
        <time>2020-04-05T13:35:50Z</time>
      </trkpt>
      <trkpt lat="45.07589" lon="6.19729">
        <ele>1982.867</ele>
        <time>2020-04-05T13:36:10Z</time>
      </trkpt>
      <trkpt lat="45.07551" lon="6.19717">
        <ele>1984.321</ele>
        <time>2020-04-05T13:36:30Z</time>
      </trkpt>
      <trkpt lat="45.07564" lon="6.19733">
        <ele>1989.562</ele>
        <time>2020-04-05T13:36:50Z</time>
      </trkpt>
      <trkpt lat="45.07531" lon="6.19748">
        <ele>1997.179</ele>
        <time>2020-04-05T13:37:10Z</time>
      </trkpt>
      <trkpt lat="45.07534" lon="6.19757">
        <ele>2000.513</ele>
        <time>2020-04-05T13:37:30Z</time>
      </trkpt>
      <trkpt lat="45.07521" lon="6.19773">
        <ele>2005.12</ele>
        <time>2020-04-05T13:37:50Z</time>
      </trkpt>
      <trkpt lat="45.07539" lon="6.19778">
        <ele>2008.176</ele>
        <time>2020-04-05T13:38:10Z</time>
      </trkpt>
      <trkpt lat="45.07535" lon="6.19789">
        <ele>2012.29</ele>
        <time>2020-04-05T13:38:30Z</time>
      </trkpt>
      <trkpt lat="45.07546" lon="6.19809">
        <ele>2019.019</ele>
        <time>2020-04-05T13:38:50Z</time>
      </trkpt>
      <trkpt lat="45.07534" lon="6.19824">
        <ele>2023.408</ele>
        <time>2020-04-05T13:39:10Z</time>
      </trkpt>
      <trkpt lat="45.07539" lon="6.1984">
        <ele>2028.363</ele>
        <time>2020-04-05T13:39:30Z</time>
      </trkpt>
      <trkpt lat="45.07543" lon="6.19864">
        <ele>2036.441</ele>
        <time>2020-04-05T13:39:50Z</time>
      </trkpt>
      <trkpt lat="45.07558" lon="6.19875">
        <ele>2038.139</ele>
        <time>2020-04-05T13:40:10Z</time>
      </trkpt>
      <trkpt lat="45.07541" lon="6.19894">
        <ele>2044.953</ele>
        <time>2020-04-05T13:40:30Z</time>
      </trkpt>
      <trkpt lat="45.07566" lon="6.19934">
        <ele>2054.444</ele>
        <time>2020-04-05T13:40:50Z</time>
      </trkpt>
      <trkpt lat="45.07576" lon="6.19959">
        <ele>2061.311</ele>
        <time>2020-04-05T13:41:10Z</time>
      </trkpt>
      <trkpt lat="45.07595" lon="6.19981">
        <ele>2064.045</ele>
        <time>2020-04-05T13:41:30Z</time>
      </trkpt>
      <trkpt lat="45.07603" lon="6.20009">
        <ele>2071.332</ele>
        <time>2020-04-05T13:41:50Z</time>
      </trkpt>
      <trkpt lat="45.07615" lon="6.2003">
        <ele>2073.424</ele>
        <time>2020-04-05T13:42:10Z</time>
      </trkpt>
      <trkpt lat="45.07624" lon="6.2006">
        <ele>2079.004</ele>
        <time>2020-04-05T13:42:30Z</time>
      </trkpt>
      <trkpt lat="45.07639" lon="6.20094">
        <ele>2082.114</ele>
        <time>2020-04-05T13:42:50Z</time>
      </trkpt>
      <trkpt lat="45.07619" lon="6.20081">
        <ele>2087.608</ele>
        <time>2020-04-05T13:43:10Z</time>
      </trkpt>
      <trkpt lat="45.07624" lon="6.20106">
        <ele>2091.868</ele>
        <time>2020-04-05T13:43:30Z</time>
      </trkpt>
      <trkpt lat="45.07599" lon="6.20086">
        <ele>2097.646</ele>
        <time>2020-04-05T13:43:50Z</time>
      </trkpt>
      <trkpt lat="45.07604" lon="6.2011">
        <ele>2101.654</ele>
        <time>2020-04-05T13:44:10Z</time>
      </trkpt>
      <trkpt lat="45.0757" lon="6.20072">
        <ele>2104.218</ele>
        <time>2020-04-05T13:44:30Z</time>
      </trkpt>
      <trkpt lat="45.07571" lon="6.20099">
        <ele>2112.589</ele>
        <time>2020-04-05T13:44:50Z</time>
      </trkpt>
      <trkpt lat="45.07559" lon="6.20091">
        <ele>2114.956</ele>
        <time>2020-04-05T13:45:10Z</time>
      </trkpt>
      <trkpt lat="45.0755" lon="6.20093">
        <ele>2118.35</ele>
        <time>2020-04-05T13:45:30Z</time>
      </trkpt>
      <trkpt lat="45.07534" lon="6.20081">
        <ele>2120.347</ele>
        <time>2020-04-05T13:45:50Z</time>
      </trkpt>
      <trkpt lat="45.07513" lon="6.2008">
        <ele>2124.617</ele>
        <time>2020-04-05T13:46:10Z</time>
      </trkpt>
      <trkpt lat="45.07511" lon="6.20093">
        <ele>2129.387</ele>
        <time>2020-04-05T13:46:30Z</time>
      </trkpt>
      <trkpt lat="45.07495" lon="6.20088">
        <ele>2131.115</ele>
        <time>2020-04-05T13:46:50Z</time>
      </trkpt>
      <trkpt lat="45.07474" lon="6.20104">
        <ele>2140.108</ele>
        <time>2020-04-05T13:47:10Z</time>
      </trkpt>
      <trkpt lat="45.07497" lon="6.20136">
        <ele>2145.727</ele>
        <time>2020-04-05T13:47:30Z</time>
      </trkpt>
      <trkpt lat="45.07502" lon="6.20147">
        <ele>2147.975</ele>
        <time>2020-04-05T13:47:50Z</time>
      </trkpt>
      <trkpt lat="45.07518" lon="6.2016">
        <ele>2147.663</ele>
        <time>2020-04-05T13:48:10Z</time>
      </trkpt>
      <trkpt lat="45.07527" lon="6.2018">
        <ele>2151.537</ele>
        <time>2020-04-05T13:48:30Z</time>
      </trkpt>
      <trkpt lat="45.07542" lon="6.20195">
        <ele>2151.288</ele>
        <time>2020-04-05T13:48:50Z</time>
      </trkpt>
      <trkpt lat="45.07563" lon="6.20241">
        <ele>2160.615</ele>
        <time>2020-04-05T13:49:10Z</time>
      </trkpt>
      <trkpt lat="45.07555" lon="6.20249">
        <ele>2167.879</ele>
        <time>2020-04-05T13:49:30Z</time>
      </trkpt>
      <trkpt lat="45.0757" lon="6.20268">
        <ele>2167.796</ele>
        <time>2020-04-05T13:49:50Z</time>
      </trkpt>
      <trkpt lat="45.07519" lon="6.20244">
        <ele>2179.639</ele>
        <time>2020-04-05T13:50:10Z</time>
      </trkpt>
      <trkpt lat="45.07494" lon="6.20229">
        <ele>2182.701</ele>
        <time>2020-04-05T13:50:30Z</time>
      </trkpt>
      <trkpt lat="45.07463" lon="6.20229">
        <ele>2191.121</ele>
        <time>2020-04-05T13:50:50Z</time>
      </trkpt>
      <trkpt lat="45.07473" lon="6.2025">
        <ele>2199.708</ele>
        <time>2020-04-05T13:51:10Z</time>
      </trkpt>
      <trkpt lat="45.07425" lon="6.20242">
        <ele>2204.649</ele>
        <time>2020-04-05T13:51:30Z</time>
      </trkpt>
      <trkpt lat="45.07389" lon="6.20262">
        <ele>2214.087</ele>
        <time>2020-04-05T13:51:50Z</time>
      </trkpt>
      <trkpt lat="45.07348" lon="6.20315">
        <ele>2227.125</ele>
        <time>2020-04-05T13:52:10Z</time>
      </trkpt>
      <trkpt lat="45.07331" lon="6.20369">
        <ele>2236.329</ele>
        <time>2020-04-05T13:52:30Z</time>
      </trkpt>
      <trkpt lat="45.07344" lon="6.20442">
        <ele>2246.31</ele>
        <time>2020-04-05T13:52:50Z</time>
      </trkpt>
      <trkpt lat="45.07367" lon="6.20534">
        <ele>2253.017</ele>
        <time>2020-04-05T13:53:10Z</time>
      </trkpt>
      <trkpt lat="45.07315" lon="6.20554">
        <ele>2249.871</ele>
        <time>2020-04-05T13:53:30Z</time>
      </trkpt>
      <trkpt lat="45.07236" lon="6.20571">
        <ele>2241.088</ele>
        <time>2020-04-05T13:53:50Z</time>
      </trkpt>
      <trkpt lat="45.07206" lon="6.20581">
        <ele>2240.614</ele>
        <time>2020-04-05T13:54:10Z</time>
      </trkpt>
      <trkpt lat="45.0717" lon="6.20584">
        <ele>2241.854</ele>
        <time>2020-04-05T13:54:30Z</time>
      </trkpt>
      <trkpt lat="45.07143" lon="6.20599">
        <ele>2242.509</ele>
        <time>2020-04-05T13:54:50Z</time>
      </trkpt>
      <trkpt lat="45.071" lon="6.20638">
        <ele>2236.008</ele>
        <time>2020-04-05T13:55:10Z</time>
      </trkpt>
      <trkpt lat="45.07083" lon="6.20683">
        <ele>2225.757</ele>
        <time>2020-04-05T13:55:30Z</time>
      </trkpt>
      <trkpt lat="45.07075" lon="6.20778">
        <ele>2217.615</ele>
        <time>2020-04-05T13:55:50Z</time>
      </trkpt>
      <trkpt lat="45.07065" lon="6.20834">
        <ele>2215.973</ele>
        <time>2020-04-05T13:56:10Z</time>
      </trkpt>
      <trkpt lat="45.07046" lon="6.20886">
        <ele>2215.857</ele>
        <time>2020-04-05T13:56:30Z</time>
      </trkpt>
      <trkpt lat="45.07036" lon="6.20926">
        <ele>2215.978</ele>
        <time>2020-04-05T13:56:50Z</time>
      </trkpt>
      <trkpt lat="45.07014" lon="6.20995">
        <ele>2214.355</ele>
        <time>2020-04-05T13:57:10Z</time>
      </trkpt>
      <trkpt lat="45.0697" lon="6.21059">
        <ele>2209.129</ele>
        <time>2020-04-05T13:57:30Z</time>
      </trkpt>
      <trkpt lat="45.06953" lon="6.21101">
        <ele>2208.726</ele>
        <time>2020-04-05T13:57:50Z</time>
      </trkpt>
      <trkpt lat="45.06931" lon="6.21139">
        <ele>2209.036</ele>
        <time>2020-04-05T13:58:10Z</time>
      </trkpt>
      <trkpt lat="45.06908" lon="6.21202">
        <ele>2208.317</ele>
        <time>2020-04-05T13:58:30Z</time>
      </trkpt>
      <trkpt lat="45.06875" lon="6.2132">
        <ele>2209.518</ele>
        <time>2020-04-05T13:58:50Z</time>
      </trkpt>
      <trkpt lat="45.06827" lon="6.21398">
        <ele>2210.008</ele>
        <time>2020-04-05T13:59:10Z</time>
      </trkpt>
      <trkpt lat="45.06804" lon="6.21421">
        <ele>2209.129</ele>
        <time>2020-04-05T13:59:30Z</time>
      </trkpt>
      <trkpt lat="45.06788" lon="6.21455">
        <ele>2209.647</ele>
        <time>2020-04-05T13:59:50Z</time>
      </trkpt>
      <trkpt lat="45.06759" lon="6.21497">
        <ele>2211.495</ele>
        <time>2020-04-05T14:00:10Z</time>
      </trkpt>
      <trkpt lat="45.0673" lon="6.21552">
        <ele>2210.089</ele>
        <time>2020-04-05T14:00:30Z</time>
      </trkpt>
      <trkpt lat="45.06705" lon="6.21586">
        <ele>2209.66</ele>
        <time>2020-04-05T14:00:50Z</time>
      </trkpt>
      <trkpt lat="45.06689" lon="6.21625">
        <ele>2210.147</ele>
        <time>2020-04-05T14:01:10Z</time>
      </trkpt>
      <trkpt lat="45.06595" lon="6.21764">
        <ele>2209.451</ele>
        <time>2020-04-05T14:01:30Z</time>
      </trkpt>
      <trkpt lat="45.06585" lon="6.21807">
        <ele>2206.058</ele>
        <time>2020-04-05T14:01:50Z</time>
      </trkpt>
      <trkpt lat="45.0657" lon="6.21949">
        <ele>2193.528</ele>
        <time>2020-04-05T14:02:10Z</time>
      </trkpt>
      <trkpt lat="45.06576" lon="6.21976">
        <ele>2191.689</ele>
        <time>2020-04-05T14:02:30Z</time>
      </trkpt>
      <trkpt lat="45.06575" lon="6.22">
        <ele>2192.117</ele>
        <time>2020-04-05T14:02:50Z</time>
      </trkpt>
      <trkpt lat="45.06561" lon="6.22038">
        <ele>2192.208</ele>
        <time>2020-04-05T14:03:10Z</time>
      </trkpt>
      <trkpt lat="45.06511" lon="6.22118">
        <ele>2202.738</ele>
        <time>2020-04-05T14:03:30Z</time>
      </trkpt>
      <trkpt lat="45.06505" lon="6.22218">
        <ele>2215.616</ele>
        <time>2020-04-05T14:03:50Z</time>
      </trkpt>
      <trkpt lat="45.06505" lon="6.22268">
        <ele>2220.854</ele>
        <time>2020-04-05T14:04:10Z</time>
      </trkpt>
      <trkpt lat="45.06492" lon="6.2232">
        <ele>2229.848</ele>
        <time>2020-04-05T14:04:30Z</time>
      </trkpt>
      <trkpt lat="45.06464" lon="6.22363">
        <ele>2238.459</ele>
        <time>2020-04-05T14:04:50Z</time>
      </trkpt>
      <trkpt lat="45.06457" lon="6.22455">
        <ele>2248.476</ele>
        <time>2020-04-05T14:05:10Z</time>
      </trkpt>
      <trkpt lat="45.06421" lon="6.22557">
        <ele>2259.26</ele>
        <time>2020-04-05T14:05:30Z</time>
      </trkpt>
      <trkpt lat="45.06412" lon="6.22621">
        <ele>2262.167</ele>
        <time>2020-04-05T14:05:50Z</time>
      </trkpt>
      <trkpt lat="45.06385" lon="6.22713">
        <ele>2267.459</ele>
        <time>2020-04-05T14:06:10Z</time>
      </trkpt>
      <trkpt lat="45.06351" lon="6.22744">
        <ele>2271.203</ele>
        <time>2020-04-05T14:06:30Z</time>
      </trkpt>
      <trkpt lat="45.06327" lon="6.2281">
        <ele>2272.223</ele>
        <time>2020-04-05T14:06:50Z</time>
      </trkpt>
      <trkpt lat="45.06316" lon="6.22828">
        <ele>2274.508</ele>
        <time>2020-04-05T14:07:10Z</time>
      </trkpt>
      <trkpt lat="45.0632" lon="6.22866">
        <ele>2277.511</ele>
        <time>2020-04-05T14:07:30Z</time>
      </trkpt>
      <trkpt lat="45.06318" lon="6.22937">
        <ele>2283.319</ele>
        <time>2020-04-05T14:07:50Z</time>
      </trkpt>
      <trkpt lat="45.06327" lon="6.23023">
        <ele>2289.597</ele>
        <time>2020-04-05T14:08:10Z</time>
      </trkpt>
      <trkpt lat="45.06319" lon="6.23081">
        <ele>2295.431</ele>
        <time>2020-04-05T14:08:30Z</time>
      </trkpt>
      <trkpt lat="45.06303" lon="6.23125">
        <ele>2299.672</ele>
        <time>2020-04-05T14:08:50Z</time>
      </trkpt>
      <trkpt lat="45.063" lon="6.23157">
        <ele>2301.439</ele>
        <time>2020-04-05T14:09:10Z</time>
      </trkpt>
      <trkpt lat="45.06289" lon="6.23206">
        <ele>2304.153</ele>
        <time>2020-04-05T14:09:30Z</time>
      </trkpt>
      <trkpt lat="45.06288" lon="6.23231">
        <ele>2303.89</ele>
        <time>2020-04-05T14:09:50Z</time>
      </trkpt>
      <trkpt lat="45.06282" lon="6.23259">
        <ele>2306.327</ele>
        <time>2020-04-05T14:10:10Z</time>
      </trkpt>
      <trkpt lat="45.06287" lon="6.23274">
        <ele>2305.568</ele>
        <time>2020-04-05T14:10:30Z</time>
      </trkpt>
      <trkpt lat="45.06288" lon="6.23311">
        <ele>2307.114</ele>
        <time>2020-04-05T14:10:50Z</time>
      </trkpt>
      <trkpt lat="45.06298" lon="6.2335">
        <ele>2306.408</ele>
        <time>2020-04-05T14:11:10Z</time>
      </trkpt>
      <trkpt lat="45.0628" lon="6.23428">
        <ele>2310.968</ele>
        <time>2020-04-05T14:11:30Z</time>
      </trkpt>
      <trkpt lat="45.06286" lon="6.23449">
        <ele>2310.866</ele>
        <time>2020-04-05T14:11:50Z</time>
      </trkpt>
      <trkpt lat="45.06288" lon="6.23478">
        <ele>2312.174</ele>
        <time>2020-04-05T14:12:10Z</time>
      </trkpt>
      <trkpt lat="45.06284" lon="6.23499">
        <ele>2312.918</ele>
        <time>2020-04-05T14:12:30Z</time>
      </trkpt>
      <trkpt lat="45.06293" lon="6.23559">
        <ele>2314.549</ele>
        <time>2020-04-05T14:12:50Z</time>
      </trkpt>
      <trkpt lat="45.06275" lon="6.23641">
        <ele>2322.626</ele>
        <time>2020-04-05T14:13:10Z</time>
      </trkpt>
      <trkpt lat="45.06263" lon="6.23654">
        <ele>2325.56</ele>
        <time>2020-04-05T14:13:30Z</time>
      </trkpt>
      <trkpt lat="45.06252" lon="6.23673">
        <ele>2328.167</ele>
        <time>2020-04-05T14:13:50Z</time>
      </trkpt>
      <trkpt lat="45.06247" lon="6.2369">
        <ele>2330.569</ele>
        <time>2020-04-05T14:14:10Z</time>
      </trkpt>
      <trkpt lat="45.06226" lon="6.23701">
        <ele>2335.304</ele>
        <time>2020-04-05T14:14:30Z</time>
      </trkpt>
      <trkpt lat="45.06215" lon="6.23717">
        <ele>2337.324</ele>
        <time>2020-04-05T14:14:50Z</time>
      </trkpt>
      <trkpt lat="45.0619" lon="6.23733">
        <ele>2341.808</ele>
        <time>2020-04-05T14:15:10Z</time>
      </trkpt>
      <trkpt lat="45.06159" lon="6.23775">
        <ele>2349.442</ele>
        <time>2020-04-05T14:15:30Z</time>
      </trkpt>
      <trkpt lat="45.06133" lon="6.23793">
        <ele>2354.61</ele>
        <time>2020-04-05T14:15:50Z</time>
      </trkpt>
      <trkpt lat="45.06109" lon="6.23806">
        <ele>2358.598</ele>
        <time>2020-04-05T14:16:10Z</time>
      </trkpt>
      <trkpt lat="45.06074" lon="6.23831">
        <ele>2366.332</ele>
        <time>2020-04-05T14:16:30Z</time>
      </trkpt>
      <trkpt lat="45.06037" lon="6.23844">
        <ele>2368.713</ele>
        <time>2020-04-05T14:16:50Z</time>
      </trkpt>
      <trkpt lat="45.06013" lon="6.23862">
        <ele>2366.42</ele>
        <time>2020-04-05T14:17:10Z</time>
      </trkpt>
      <trkpt lat="45.0596" lon="6.23869">
        <ele>2359.324</ele>
        <time>2020-04-05T14:17:30Z</time>
      </trkpt>
      <trkpt lat="45.05929" lon="6.23869">
        <ele>2354.111</ele>
        <time>2020-04-05T14:17:50Z</time>
      </trkpt>
      <trkpt lat="45.05908" lon="6.23878">
        <ele>2350.742</ele>
        <time>2020-04-05T14:18:10Z</time>
      </trkpt>
      <trkpt lat="45.05895" lon="6.23876">
        <ele>2348.922</ele>
        <time>2020-04-05T14:18:30Z</time>
      </trkpt>
      <trkpt lat="45.05862" lon="6.23881">
        <ele>2342.914</ele>
        <time>2020-04-05T14:18:50Z</time>
      </trkpt>
      <trkpt lat="45.05793" lon="6.23919">
        <ele>2330.008</ele>
        <time>2020-04-05T14:19:10Z</time>
      </trkpt>
      <trkpt lat="45.05775" lon="6.23943">
        <ele>2326.96</ele>
        <time>2020-04-05T14:19:30Z</time>
      </trkpt>
      <trkpt lat="45.05761" lon="6.23967">
        <ele>2319.188</ele>
        <time>2020-04-05T14:19:50Z</time>
      </trkpt>
      <trkpt lat="45.05755" lon="6.23999">
        <ele>2312.536</ele>
        <time>2020-04-05T14:20:10Z</time>
      </trkpt>
      <trkpt lat="45.05749" lon="6.24012">
        <ele>2309.67</ele>
        <time>2020-04-05T14:20:30Z</time>
      </trkpt>
      <trkpt lat="45.05741" lon="6.24047">
        <ele>2305.941</ele>
        <time>2020-04-05T14:20:50Z</time>
      </trkpt>
      <trkpt lat="45.05725" lon="6.24085">
        <ele>2302.298</ele>
        <time>2020-04-05T14:21:10Z</time>
      </trkpt>
      <trkpt lat="45.05728" lon="6.24132">
        <ele>2299.742</ele>
        <time>2020-04-05T14:21:30Z</time>
      </trkpt>
      <trkpt lat="45.05716" lon="6.24193">
        <ele>2294.049</ele>
        <time>2020-04-05T14:21:50Z</time>
      </trkpt>
      <trkpt lat="45.05716" lon="6.24245">
        <ele>2288.897</ele>
        <time>2020-04-05T14:22:10Z</time>
      </trkpt>
      <trkpt lat="45.05713" lon="6.24302">
        <ele>2281.323</ele>
        <time>2020-04-05T14:22:30Z</time>
      </trkpt>
      <trkpt lat="45.05727" lon="6.24412">
        <ele>2270.025</ele>
        <time>2020-04-05T14:22:50Z</time>
      </trkpt>
      <trkpt lat="45.05727" lon="6.24444">
        <ele>2266.608</ele>
        <time>2020-04-05T14:23:10Z</time>
      </trkpt>
      <trkpt lat="45.05733" lon="6.24497">
        <ele>2261.645</ele>
        <time>2020-04-05T14:23:30Z</time>
      </trkpt>
      <trkpt lat="45.05722" lon="6.24536">
        <ele>2256.263</ele>
        <time>2020-04-05T14:23:50Z</time>
      </trkpt>
      <trkpt lat="45.05707" lon="6.24634">
        <ele>2249.731</ele>
        <time>2020-04-05T14:24:10Z</time>
      </trkpt>
      <trkpt lat="45.05706" lon="6.24698">
        <ele>2244.675</ele>
        <time>2020-04-05T14:24:30Z</time>
      </trkpt>
      <trkpt lat="45.0569" lon="6.24779">
        <ele>2238.216</ele>
        <time>2020-04-05T14:24:50Z</time>
      </trkpt>
      <trkpt lat="45.05688" lon="6.24826">
        <ele>2233.583</ele>
        <time>2020-04-05T14:25:10Z</time>
      </trkpt>
      <trkpt lat="45.05681" lon="6.24863">
        <ele>2229.887</ele>
        <time>2020-04-05T14:25:30Z</time>
      </trkpt>
      <trkpt lat="45.05696" lon="6.24958">
        <ele>2221.184</ele>
        <time>2020-04-05T14:25:50Z</time>
      </trkpt>
      <trkpt lat="45.05688" lon="6.24998">
        <ele>2217.634</ele>
        <time>2020-04-05T14:26:10Z</time>
      </trkpt>
      <trkpt lat="45.05692" lon="6.25045">
        <ele>2213.955</ele>
        <time>2020-04-05T14:26:30Z</time>
      </trkpt>
      <trkpt lat="45.05703" lon="6.25069">
        <ele>2212.41</ele>
        <time>2020-04-05T14:26:50Z</time>
      </trkpt>
      <trkpt lat="45.05704" lon="6.25103">
        <ele>2208.608</ele>
        <time>2020-04-05T14:27:10Z</time>
      </trkpt>
      <trkpt lat="45.05709" lon="6.25132">
        <ele>2206.389</ele>
        <time>2020-04-05T14:27:30Z</time>
      </trkpt>
      <trkpt lat="45.05712" lon="6.25156">
        <ele>2204.287</ele>
        <time>2020-04-05T14:27:50Z</time>
      </trkpt>
      <trkpt lat="45.05726" lon="6.25164">
        <ele>2206.155</ele>
        <time>2020-04-05T14:28:10Z</time>
      </trkpt>
      <trkpt lat="45.05728" lon="6.25196">
        <ele>2201.289</ele>
        <time>2020-04-05T14:28:30Z</time>
      </trkpt>
      <trkpt lat="45.05736" lon="6.25212">
        <ele>2200.13</ele>
        <time>2020-04-05T14:28:50Z</time>
      </trkpt>
      <trkpt lat="45.05736" lon="6.25245">
        <ele>2199.217</ele>
        <time>2020-04-05T14:29:10Z</time>
      </trkpt>
      <trkpt lat="45.05698" lon="6.25247">
        <ele>2197.281</ele>
        <time>2020-04-05T14:29:30Z</time>
      </trkpt>
      <trkpt lat="45.05628" lon="6.25303">
        <ele>2203.078</ele>
        <time>2020-04-05T14:29:50Z</time>
      </trkpt>
      <trkpt lat="45.05611" lon="6.2532">
        <ele>2204.153</ele>
        <time>2020-04-05T14:30:10Z</time>
      </trkpt>
      <trkpt lat="45.05594" lon="6.25326">
        <ele>2201.804</ele>
        <time>2020-04-05T14:30:30Z</time>
      </trkpt>
      <trkpt lat="45.05553" lon="6.25373">
        <ele>2206.814</ele>
        <time>2020-04-05T14:30:50Z</time>
      </trkpt>
      <trkpt lat="45.05527" lon="6.25379">
        <ele>2203.408</ele>
        <time>2020-04-05T14:31:10Z</time>
      </trkpt>
      <trkpt lat="45.05512" lon="6.25397">
        <ele>2206.721</ele>
        <time>2020-04-05T14:31:30Z</time>
      </trkpt>
      <trkpt lat="45.05487" lon="6.254">
        <ele>2204.839</ele>
        <time>2020-04-05T14:31:50Z</time>
      </trkpt>
      <trkpt lat="45.05397" lon="6.25439">
        <ele>2215.517</ele>
        <time>2020-04-05T14:32:10Z</time>
      </trkpt>
      <trkpt lat="45.05343" lon="6.25469">
        <ele>2217.961</ele>
        <time>2020-04-05T14:32:30Z</time>
      </trkpt>
      <trkpt lat="45.05295" lon="6.25527">
        <ele>2223.662</ele>
        <time>2020-04-05T14:32:50Z</time>
      </trkpt>
      <trkpt lat="45.05276" lon="6.2554">
        <ele>2223.969</ele>
        <time>2020-04-05T14:33:10Z</time>
      </trkpt>
      <trkpt lat="45.05227" lon="6.25623">
        <ele>2223.653</ele>
        <time>2020-04-05T14:33:30Z</time>
      </trkpt>
      <trkpt lat="45.05197" lon="6.25691">
        <ele>2222.58</ele>
        <time>2020-04-05T14:33:50Z</time>
      </trkpt>
      <trkpt lat="45.05184" lon="6.25757">
        <ele>2219.746</ele>
        <time>2020-04-05T14:34:10Z</time>
      </trkpt>
      <trkpt lat="45.05188" lon="6.25813">
        <ele>2215.588</ele>
        <time>2020-04-05T14:34:30Z</time>
      </trkpt>
      <trkpt lat="45.05201" lon="6.25894">
        <ele>2209.616</ele>
        <time>2020-04-05T14:34:50Z</time>
      </trkpt>
      <trkpt lat="45.05213" lon="6.2593">
        <ele>2206.908</ele>
        <time>2020-04-05T14:35:10Z</time>
      </trkpt>
      <trkpt lat="45.05221" lon="6.26012">
        <ele>2198.49</ele>
        <time>2020-04-05T14:35:30Z</time>
      </trkpt>
      <trkpt lat="45.05244" lon="6.26111">
        <ele>2190.498</ele>
        <time>2020-04-05T14:35:50Z</time>
      </trkpt>
      <trkpt lat="45.05265" lon="6.26159">
        <ele>2184.726</ele>
        <time>2020-04-05T14:36:10Z</time>
      </trkpt>
      <trkpt lat="45.05254" lon="6.262">
        <ele>2175.38</ele>
        <time>2020-04-05T14:36:30Z</time>
      </trkpt>
      <trkpt lat="45.05264" lon="6.26268">
        <ele>2177.491</ele>
        <time>2020-04-05T14:36:50Z</time>
      </trkpt>
      <trkpt lat="45.05262" lon="6.26317">
        <ele>2169.958</ele>
        <time>2020-04-05T14:37:10Z</time>
      </trkpt>
      <trkpt lat="45.05297" lon="6.26363">
        <ele>2170.942</ele>
        <time>2020-04-05T14:37:30Z</time>
      </trkpt>
      <trkpt lat="45.053" lon="6.26416">
        <ele>2166.469</ele>
        <time>2020-04-05T14:37:50Z</time>
      </trkpt>
      <trkpt lat="45.05332" lon="6.26562">
        <ele>2161.575</ele>
        <time>2020-04-05T14:38:10Z</time>
      </trkpt>
      <trkpt lat="45.05324" lon="6.26613">
        <ele>2161.928</ele>
        <time>2020-04-05T14:38:30Z</time>
      </trkpt>
      <trkpt lat="45.05324" lon="6.26656">
        <ele>2160.82</ele>
        <time>2020-04-05T14:38:50Z</time>
      </trkpt>
      <trkpt lat="45.0531" lon="6.26688">
        <ele>2155.908</ele>
        <time>2020-04-05T14:39:10Z</time>
      </trkpt>
      <trkpt lat="45.05309" lon="6.26731">
        <ele>2145.973</ele>
        <time>2020-04-05T14:39:30Z</time>
      </trkpt>
      <trkpt lat="45.05279" lon="6.26825">
        <ele>2129.381</ele>
        <time>2020-04-05T14:39:50Z</time>
      </trkpt>
      <trkpt lat="45.05285" lon="6.26873">
        <ele>2122.469</ele>
        <time>2020-04-05T14:40:10Z</time>
      </trkpt>
      <trkpt lat="45.05275" lon="6.26906">
        <ele>2119.363</ele>
        <time>2020-04-05T14:40:30Z</time>
      </trkpt>
      <trkpt lat="45.05274" lon="6.26934">
        <ele>2114.584</ele>
        <time>2020-04-05T14:40:50Z</time>
      </trkpt>
      <trkpt lat="45.0525" lon="6.26964">
        <ele>2111.371</ele>
        <time>2020-04-05T14:41:10Z</time>
      </trkpt>
      <trkpt lat="45.0524" lon="6.26989">
        <ele>2106.385</ele>
        <time>2020-04-05T14:41:30Z</time>
      </trkpt>
      <trkpt lat="45.05225" lon="6.27006">
        <ele>2105.792</ele>
        <time>2020-04-05T14:41:50Z</time>
      </trkpt>
      <trkpt lat="45.05202" lon="6.27077">
        <ele>2094.898</ele>
        <time>2020-04-05T14:42:10Z</time>
      </trkpt>
      <trkpt lat="45.05176" lon="6.27165">
        <ele>2088.115</ele>
        <time>2020-04-05T14:42:30Z</time>
      </trkpt>
      <trkpt lat="45.05176" lon="6.27213">
        <ele>2079.026</ele>
        <time>2020-04-05T14:42:50Z</time>
      </trkpt>
      <trkpt lat="45.05159" lon="6.2723">
        <ele>2081.808</ele>
        <time>2020-04-05T14:43:10Z</time>
      </trkpt>
      <trkpt lat="45.05147" lon="6.27265">
        <ele>2078.545</ele>
        <time>2020-04-05T14:43:30Z</time>
      </trkpt>
      <trkpt lat="45.05138" lon="6.27309">
        <ele>2070.023</ele>
        <time>2020-04-05T14:43:50Z</time>
      </trkpt>
      <trkpt lat="45.05105" lon="6.27333">
        <ele>2065.891</ele>
        <time>2020-04-05T14:44:10Z</time>
      </trkpt>
      <trkpt lat="45.05083" lon="6.27359">
        <ele>2059.795</ele>
        <time>2020-04-05T14:44:30Z</time>
      </trkpt>
      <trkpt lat="45.05091" lon="6.27364">
        <ele>2057.446</ele>
        <time>2020-04-05T14:44:50Z</time>
      </trkpt>
      <trkpt lat="45.05083" lon="6.27376">
        <ele>2055.353</ele>
        <time>2020-04-05T14:45:10Z</time>
      </trkpt>
      <trkpt lat="45.05057" lon="6.27379">
        <ele>2050.437</ele>
        <time>2020-04-05T14:45:30Z</time>
      </trkpt>
      <trkpt lat="45.05039" lon="6.274">
        <ele>2045.284</ele>
        <time>2020-04-05T14:45:50Z</time>
      </trkpt>
      <trkpt lat="45.05053" lon="6.27427">
        <ele>2039.465</ele>
        <time>2020-04-05T14:46:10Z</time>
      </trkpt>
      <trkpt lat="45.0503" lon="6.27442">
        <ele>2035.568</ele>
        <time>2020-04-05T14:46:30Z</time>
      </trkpt>
      <trkpt lat="45.05039" lon="6.27457">
        <ele>2031.414</ele>
        <time>2020-04-05T14:46:50Z</time>
      </trkpt>
      <trkpt lat="45.05054" lon="6.27459">
        <ele>2031.008</ele>
        <time>2020-04-05T14:47:10Z</time>
      </trkpt>
      <trkpt lat="45.05042" lon="6.27476">
        <ele>2026.142</ele>
        <time>2020-04-05T14:47:30Z</time>
      </trkpt>
      <trkpt lat="45.05047" lon="6.27489">
        <ele>2022.77</ele>
        <time>2020-04-05T14:47:50Z</time>
      </trkpt>
      <trkpt lat="45.05038" lon="6.27491">
        <ele>2021.868</ele>
        <time>2020-04-05T14:48:10Z</time>
      </trkpt>
      <trkpt lat="45.05049" lon="6.27511">
        <ele>2017.892</ele>
        <time>2020-04-05T14:48:30Z</time>
      </trkpt>
      <trkpt lat="45.05066" lon="6.27505">
        <ele>2018.363</ele>
        <time>2020-04-05T14:48:50Z</time>
      </trkpt>
      <trkpt lat="45.05085" lon="6.27518">
        <ele>2014.65</ele>
        <time>2020-04-05T14:49:10Z</time>
      </trkpt>
      <trkpt lat="45.05084" lon="6.27538">
        <ele>2011.544</ele>
        <time>2020-04-05T14:49:30Z</time>
      </trkpt>
      <trkpt lat="45.0509" lon="6.27547">
        <ele>2009.551</ele>
        <time>2020-04-05T14:49:50Z</time>
      </trkpt>
      <trkpt lat="45.05105" lon="6.27544">
        <ele>2008.326</ele>
        <time>2020-04-05T14:50:10Z</time>
      </trkpt>
      <trkpt lat="45.05098" lon="6.27576">
        <ele>2003.447</ele>
        <time>2020-04-05T14:50:30Z</time>
      </trkpt>
      <trkpt lat="45.05115" lon="6.27576">
        <ele>2002.311</ele>
        <time>2020-04-05T14:50:50Z</time>
      </trkpt>
      <trkpt lat="45.05099" lon="6.27603">
        <ele>1998.308</ele>
        <time>2020-04-05T14:51:10Z</time>
      </trkpt>
      <trkpt lat="45.05119" lon="6.27616">
        <ele>1995.698</ele>
        <time>2020-04-05T14:51:30Z</time>
      </trkpt>
      <trkpt lat="45.05131" lon="6.27615">
        <ele>1993.276</ele>
        <time>2020-04-05T14:51:50Z</time>
      </trkpt>
      <trkpt lat="45.05126" lon="6.27646">
        <ele>1989.444</ele>
        <time>2020-04-05T14:52:10Z</time>
      </trkpt>
      <trkpt lat="45.05129" lon="6.27672">
        <ele>1985.098</ele>
        <time>2020-04-05T14:52:30Z</time>
      </trkpt>
      <trkpt lat="45.05118" lon="6.27683">
        <ele>1983.139</ele>
        <time>2020-04-05T14:52:50Z</time>
      </trkpt>
      <trkpt lat="45.05132" lon="6.27691">
        <ele>1981.316</ele>
        <time>2020-04-05T14:53:10Z</time>
      </trkpt>
      <trkpt lat="45.05147" lon="6.2769">
        <ele>1979.19</ele>
        <time>2020-04-05T14:53:30Z</time>
      </trkpt>
      <trkpt lat="45.0514" lon="6.27719">
        <ele>1974.597</ele>
        <time>2020-04-05T14:53:50Z</time>
      </trkpt>
      <trkpt lat="45.05165" lon="6.27707">
        <ele>1970.626</ele>
        <time>2020-04-05T14:54:10Z</time>
      </trkpt>
      <trkpt lat="45.05199" lon="6.27671">
        <ele>1962.547</ele>
        <time>2020-04-05T14:54:30Z</time>
      </trkpt>
      <trkpt lat="45.05246" lon="6.27663">
        <ele>1954.211</ele>
        <time>2020-04-05T14:54:50Z</time>
      </trkpt>
      <trkpt lat="45.0525" lon="6.27681">
        <ele>1950.408</ele>
        <time>2020-04-05T14:55:10Z</time>
      </trkpt>
      <trkpt lat="45.05224" lon="6.27717">
        <ele>1948.618</ele>
        <time>2020-04-05T14:55:30Z</time>
      </trkpt>
      <trkpt lat="45.05222" lon="6.27743">
        <ele>1944.496</ele>
        <time>2020-04-05T14:55:50Z</time>
      </trkpt>
      <trkpt lat="45.05236" lon="6.27747">
        <ele>1940.244</ele>
        <time>2020-04-05T14:56:10Z</time>
      </trkpt>
      <trkpt lat="45.05226" lon="6.27771">
        <ele>1937.628</ele>
        <time>2020-04-05T14:56:30Z</time>
      </trkpt>
      <trkpt lat="45.05253" lon="6.27779">
        <ele>1930.959</ele>
        <time>2020-04-05T14:56:50Z</time>
      </trkpt>
      <trkpt lat="45.053" lon="6.27754">
        <ele>1921.646</ele>
        <time>2020-04-05T14:57:10Z</time>
      </trkpt>
      <trkpt lat="45.05307" lon="6.27731">
        <ele>1921.21</ele>
        <time>2020-04-05T14:57:30Z</time>
      </trkpt>
      <trkpt lat="45.05311" lon="6.27751">
        <ele>1918.297</ele>
        <time>2020-04-05T14:57:50Z</time>
      </trkpt>
      <trkpt lat="45.05305" lon="6.27779">
        <ele>1915.114</ele>
        <time>2020-04-05T14:58:10Z</time>
      </trkpt>
      <trkpt lat="45.05327" lon="6.2776">
        <ele>1908.654</ele>
        <time>2020-04-05T14:58:30Z</time>
      </trkpt>
      <trkpt lat="45.05311" lon="6.2786">
        <ele>1893.509</ele>
        <time>2020-04-05T14:58:50Z</time>
      </trkpt>
      <trkpt lat="45.05329" lon="6.27843">
        <ele>1891.008</ele>
        <time>2020-04-05T14:59:10Z</time>
      </trkpt>
      <trkpt lat="45.05363" lon="6.27792">
        <ele>1884.477</ele>
        <time>2020-04-05T14:59:30Z</time>
      </trkpt>
      <trkpt lat="45.05353" lon="6.27863">
        <ele>1875.055</ele>
        <time>2020-04-05T14:59:50Z</time>
      </trkpt>
      <trkpt lat="45.05352" lon="6.2792">
        <ele>1864.043</ele>
        <time>2020-04-05T15:00:10Z</time>
      </trkpt>
      <trkpt lat="45.05358" lon="6.27918">
        <ele>1862.657</ele>
        <time>2020-04-05T15:00:30Z</time>
      </trkpt>
      <trkpt lat="45.05407" lon="6.27827">
        <ele>1854.648</ele>
        <time>2020-04-05T15:00:50Z</time>
      </trkpt>
      <trkpt lat="45.05411" lon="6.27866">
        <ele>1846.795</ele>
        <time>2020-04-05T15:01:10Z</time>
      </trkpt>
      <trkpt lat="45.05409" lon="6.279">
        <ele>1842.169</ele>
        <time>2020-04-05T15:01:30Z</time>
      </trkpt>
      <trkpt lat="45.05411" lon="6.27939">
        <ele>1835.586</ele>
        <time>2020-04-05T15:01:50Z</time>
      </trkpt>
      <trkpt lat="45.05427" lon="6.2792">
        <ele>1831.928</ele>
        <time>2020-04-05T15:02:10Z</time>
      </trkpt>
      <trkpt lat="45.05432" lon="6.27954">
        <ele>1823.889</ele>
        <time>2020-04-05T15:02:30Z</time>
      </trkpt>
      <trkpt lat="45.05405" lon="6.27997">
        <ele>1819.417</ele>
        <time>2020-04-05T15:02:50Z</time>
      </trkpt>
      <trkpt lat="45.05385" lon="6.28049">
        <ele>1811.708</ele>
        <time>2020-04-05T15:03:10Z</time>
      </trkpt>
      <trkpt lat="45.05423" lon="6.2804">
        <ele>1801.328</ele>
        <time>2020-04-05T15:03:30Z</time>
      </trkpt>
      <trkpt lat="45.05477" lon="6.28007">
        <ele>1793.846</ele>
        <time>2020-04-05T15:03:50Z</time>
      </trkpt>
      <trkpt lat="45.05508" lon="6.28019">
        <ele>1783.044</ele>
        <time>2020-04-05T15:04:10Z</time>
      </trkpt>
      <trkpt lat="45.05515" lon="6.28033">
        <ele>1777.388</ele>
        <time>2020-04-05T15:04:30Z</time>
      </trkpt>
      <trkpt lat="45.05529" lon="6.28031">
        <ele>1773.719</ele>
        <time>2020-04-05T15:04:50Z</time>
      </trkpt>
      <trkpt lat="45.05534" lon="6.28052">
        <ele>1767.296</ele>
        <time>2020-04-05T15:05:10Z</time>
      </trkpt>
      <trkpt lat="45.05556" lon="6.28021">
        <ele>1767.09</ele>
        <time>2020-04-05T15:05:30Z</time>
      </trkpt>
      <trkpt lat="45.05568" lon="6.28022">
        <ele>1762.337</ele>
        <time>2020-04-05T15:05:50Z</time>
      </trkpt>
      <trkpt lat="45.05593" lon="6.27982">
        <ele>1758.196</ele>
        <time>2020-04-05T15:06:10Z</time>
      </trkpt>
      <trkpt lat="45.05603" lon="6.27992">
        <ele>1752.331</ele>
        <time>2020-04-05T15:06:30Z</time>
      </trkpt>
      <trkpt lat="45.05635" lon="6.27986">
        <ele>1744.924</ele>
        <time>2020-04-05T15:06:50Z</time>
      </trkpt>
      <trkpt lat="45.05677" lon="6.28002">
        <ele>1737.208</ele>
        <time>2020-04-05T15:07:10Z</time>
      </trkpt>
      <trkpt lat="45.05701" lon="6.28005">
        <ele>1737.045</ele>
        <time>2020-04-05T15:07:30Z</time>
      </trkpt>
      <trkpt lat="45.05706" lon="6.2804">
        <ele>1736.983</ele>
        <time>2020-04-05T15:07:50Z</time>
      </trkpt>
      <trkpt lat="45.05682" lon="6.28069">
        <ele>1736.791</ele>
        <time>2020-04-05T15:08:10Z</time>
      </trkpt>
      <trkpt lat="45.05663" lon="6.28113">
        <ele>1744.975</ele>
        <time>2020-04-05T15:08:30Z</time>
      </trkpt>
      <trkpt lat="45.05618" lon="6.28194">
        <ele>1752.396</ele>
        <time>2020-04-05T15:08:50Z</time>
      </trkpt>
      <trkpt lat="45.05547" lon="6.28301">
        <ele>1757.363</ele>
        <time>2020-04-05T15:09:10Z</time>
      </trkpt>
      <trkpt lat="45.05481" lon="6.2839">
        <ele>1769.267</ele>
        <time>2020-04-05T15:09:30Z</time>
      </trkpt>
      <trkpt lat="45.05464" lon="6.28409">
        <ele>1773.214</ele>
        <time>2020-04-05T15:09:50Z</time>
      </trkpt>
      <trkpt lat="45.05441" lon="6.28422">
        <ele>1777.072</ele>
        <time>2020-04-05T15:10:10Z</time>
      </trkpt>
      <trkpt lat="45.0542" lon="6.28453">
        <ele>1783.213</ele>
        <time>2020-04-05T15:10:30Z</time>
      </trkpt>
      <trkpt lat="45.05394" lon="6.2864">
        <ele>1796.614</ele>
        <time>2020-04-05T15:10:50Z</time>
      </trkpt>
      <trkpt lat="45.05367" lon="6.28678">
        <ele>1795.308</ele>
        <time>2020-04-05T15:11:10Z</time>
      </trkpt>
      <trkpt lat="45.05315" lon="6.28722">
        <ele>1792.073</ele>
        <time>2020-04-05T15:11:30Z</time>
      </trkpt>
      <trkpt lat="45.05278" lon="6.28777">
        <ele>1797.111</ele>
        <time>2020-04-05T15:11:50Z</time>
      </trkpt>
      <trkpt lat="45.05248" lon="6.28842">
        <ele>1805.279</ele>
        <time>2020-04-05T15:12:10Z</time>
      </trkpt>
      <trkpt lat="45.05204" lon="6.28866">
        <ele>1804.843</ele>
        <time>2020-04-05T15:12:30Z</time>
      </trkpt>
      <trkpt lat="45.05122" lon="6.28886">
        <ele>1806.444</ele>
        <time>2020-04-05T15:12:50Z</time>
      </trkpt>
      <trkpt lat="45.05092" lon="6.28906">
        <ele>1813.691</ele>
        <time>2020-04-05T15:13:10Z</time>
      </trkpt>
      <trkpt lat="45.05059" lon="6.28906">
        <ele>1812.065</ele>
        <time>2020-04-05T15:13:30Z</time>
      </trkpt>
      <trkpt lat="45.04893" lon="6.28964">
        <ele>1826.812</ele>
        <time>2020-04-05T15:13:50Z</time>
      </trkpt>
      <trkpt lat="45.0486" lon="6.29015">
        <ele>1825.361</ele>
        <time>2020-04-05T15:14:10Z</time>
      </trkpt>
      <trkpt lat="45.04845" lon="6.29074">
        <ele>1825.921</ele>
        <time>2020-04-05T15:14:30Z</time>
      </trkpt>
      <trkpt lat="45.04828" lon="6.29093">
        <ele>1816.713</ele>
        <time>2020-04-05T15:14:50Z</time>
      </trkpt>
      <trkpt lat="45.04836" lon="6.29156">
        <ele>1818.808</ele>
        <time>2020-04-05T15:15:10Z</time>
      </trkpt>
      <trkpt lat="45.04882" lon="6.29255">
        <ele>1806.212</ele>
        <time>2020-04-05T15:15:30Z</time>
      </trkpt>
      <trkpt lat="45.04907" lon="6.29327">
        <ele>1794.16</ele>
        <time>2020-04-05T15:15:50Z</time>
      </trkpt>
      <trkpt lat="45.04915" lon="6.29391">
        <ele>1784.278</ele>
        <time>2020-04-05T15:16:10Z</time>
      </trkpt>
      <trkpt lat="45.04935" lon="6.29423">
        <ele>1785.172</ele>
        <time>2020-04-05T15:16:30Z</time>
      </trkpt>
      <trkpt lat="45.04936" lon="6.29438">
        <ele>1781.933</ele>
        <time>2020-04-05T15:16:50Z</time>
      </trkpt>
      <trkpt lat="45.04956" lon="6.29466">
        <ele>1780.82</ele>
        <time>2020-04-05T15:17:10Z</time>
      </trkpt>
      <trkpt lat="45.04962" lon="6.29511">
        <ele>1773.274</ele>
        <time>2020-04-05T15:17:30Z</time>
      </trkpt>
      <trkpt lat="45.04948" lon="6.29533">
        <ele>1766.871</ele>
        <time>2020-04-05T15:17:50Z</time>
      </trkpt>
      <trkpt lat="45.04946" lon="6.29525">
        <ele>1766.749</ele>
        <time>2020-04-05T15:18:10Z</time>
      </trkpt>
      <trkpt lat="45.04931" lon="6.29536">
        <ele>1761.602</ele>
        <time>2020-04-05T15:18:30Z</time>
      </trkpt>
      <trkpt lat="45.04928" lon="6.29552">
        <ele>1759.422</ele>
        <time>2020-04-05T15:18:50Z</time>
      </trkpt>
      <trkpt lat="45.04891" lon="6.29552">
        <ele>1747.408</ele>
        <time>2020-04-05T15:19:10Z</time>
      </trkpt>
      <trkpt lat="45.04885" lon="6.29533">
        <ele>1748.02</ele>
        <time>2020-04-05T15:19:30Z</time>
      </trkpt>
      <trkpt lat="45.04863" lon="6.29532">
        <ele>1740.228</ele>
        <time>2020-04-05T15:19:50Z</time>
      </trkpt>
      <trkpt lat="45.04856" lon="6.2954">
        <ele>1736.536</ele>
        <time>2020-04-05T15:20:10Z</time>
      </trkpt>
      <trkpt lat="45.04849" lon="6.29538">
        <ele>1734.43</ele>
        <time>2020-04-05T15:20:30Z</time>
      </trkpt>
      <trkpt lat="45.04844" lon="6.29547">
        <ele>1731.591</ele>
        <time>2020-04-05T15:20:50Z</time>
      </trkpt>
      <trkpt lat="45.04836" lon="6.29613">
        <ele>1717.978</ele>
        <time>2020-04-05T15:21:10Z</time>
      </trkpt>
      <trkpt lat="45.04836" lon="6.29645">
        <ele>1713.492</ele>
        <time>2020-04-05T15:21:30Z</time>
      </trkpt>
      <trkpt lat="45.04832" lon="6.29657">
        <ele>1709.739</ele>
        <time>2020-04-05T15:21:50Z</time>
      </trkpt>
      <trkpt lat="45.04824" lon="6.29734">
        <ele>1696.069</ele>
        <time>2020-04-05T15:22:10Z</time>
      </trkpt>
      <trkpt lat="45.04827" lon="6.29797">
        <ele>1687.104</ele>
        <time>2020-04-05T15:22:30Z</time>
      </trkpt>
      <trkpt lat="45.04832" lon="6.29825">
        <ele>1682.624</ele>
        <time>2020-04-05T15:22:50Z</time>
      </trkpt>
      <trkpt lat="45.04836" lon="6.29902">
        <ele>1666.908</ele>
        <time>2020-04-05T15:23:10Z</time>
      </trkpt>
      <trkpt lat="45.04844" lon="6.29929">
        <ele>1662.722</ele>
        <time>2020-04-05T15:23:30Z</time>
      </trkpt>
      <trkpt lat="45.04845" lon="6.29957">
        <ele>1656.06</ele>
        <time>2020-04-05T15:23:50Z</time>
      </trkpt>
      <trkpt lat="45.04853" lon="6.3">
        <ele>1648.358</ele>
        <time>2020-04-05T15:24:10Z</time>
      </trkpt>
      <trkpt lat="45.04864" lon="6.30028">
        <ele>1644.692</ele>
        <time>2020-04-05T15:24:30Z</time>
      </trkpt>
      <trkpt lat="45.04866" lon="6.30052">
        <ele>1641.133</ele>
        <time>2020-04-05T15:24:50Z</time>
      </trkpt>
      <trkpt lat="45.04852" lon="6.30073">
        <ele>1635.13</ele>
        <time>2020-04-05T15:25:10Z</time>
      </trkpt>
      <trkpt lat="45.04853" lon="6.30113">
        <ele>1623.964</ele>
        <time>2020-04-05T15:25:30Z</time>
      </trkpt>
      <trkpt lat="45.04835" lon="6.30148">
        <ele>1614.841</ele>
        <time>2020-04-05T15:25:50Z</time>
      </trkpt>
      <trkpt lat="45.04826" lon="6.30169">
        <ele>1608.483</ele>
        <time>2020-04-05T15:26:10Z</time>
      </trkpt>
      <trkpt lat="45.04803" lon="6.30175">
        <ele>1609.725</ele>
        <time>2020-04-05T15:26:30Z</time>
      </trkpt>
      <trkpt lat="45.04771" lon="6.30175">
        <ele>1603.317</ele>
        <time>2020-04-05T15:26:50Z</time>
      </trkpt>
      <trkpt lat="45.04752" lon="6.30187">
        <ele>1597.408</ele>
        <time>2020-04-05T15:27:10Z</time>
      </trkpt>
      <trkpt lat="45.04733" lon="6.30212">
        <ele>1589.354</ele>
        <time>2020-04-05T15:27:30Z</time>
      </trkpt>
      <trkpt lat="45.04692" lon="6.30235">
        <ele>1576.782</ele>
        <time>2020-04-05T15:27:50Z</time>
      </trkpt>
      <trkpt lat="45.04687" lon="6.30247">
        <ele>1573.36</ele>
        <time>2020-04-05T15:28:10Z</time>
      </trkpt>
      <trkpt lat="45.04706" lon="6.3029">
        <ele>1568.614</ele>
        <time>2020-04-05T15:28:30Z</time>
      </trkpt>
      <trkpt lat="45.04725" lon="6.30305">
        <ele>1567.865</ele>
        <time>2020-04-05T15:28:50Z</time>
      </trkpt>
      <trkpt lat="45.0474" lon="6.30307">
        <ele>1565.612</ele>
        <time>2020-04-05T15:29:10Z</time>
      </trkpt>
      <trkpt lat="45.04753" lon="6.303">
        <ele>1567.376</ele>
        <time>2020-04-05T15:29:30Z</time>
      </trkpt>
      <trkpt lat="45.04771" lon="6.30298">
        <ele>1566.213</ele>
        <time>2020-04-05T15:29:50Z</time>
      </trkpt>
      <trkpt lat="45.04789" lon="6.30287">
        <ele>1570.475</ele>
        <time>2020-04-05T15:30:10Z</time>
      </trkpt>
      <trkpt lat="45.0481" lon="6.30293">
        <ele>1568.228</ele>
        <time>2020-04-05T15:30:30Z</time>
      </trkpt>
      <trkpt lat="45.04793" lon="6.30305">
        <ele>1562.72</ele>
        <time>2020-04-05T15:30:50Z</time>
      </trkpt>
      <trkpt lat="45.04765" lon="6.30317">
        <ele>1558.608</ele>
        <time>2020-04-05T15:31:10Z</time>
      </trkpt>
      <trkpt lat="45.04737" lon="6.30347">
        <ele>1550.073</ele>
        <time>2020-04-05T15:31:30Z</time>
      </trkpt>
      <trkpt lat="45.04721" lon="6.3035">
        <ele>1551.181</ele>
        <time>2020-04-05T15:31:50Z</time>
      </trkpt>
      <trkpt lat="45.04699" lon="6.30347">
        <ele>1551.979</ele>
        <time>2020-04-05T15:32:10Z</time>
      </trkpt>
      <trkpt lat="45.04693" lon="6.3035">
        <ele>1549.733</ele>
        <time>2020-04-05T15:32:30Z</time>
      </trkpt>
      <trkpt lat="45.04695" lon="6.30362">
        <ele>1544.374</ele>
        <time>2020-04-05T15:32:50Z</time>
      </trkpt>
      <trkpt lat="45.04715" lon="6.30362">
        <ele>1544.781</ele>
        <time>2020-04-05T15:33:10Z</time>
      </trkpt>
      <trkpt lat="45.04735" lon="6.30368">
        <ele>1541.995</ele>
        <time>2020-04-05T15:33:30Z</time>
      </trkpt>
      <trkpt lat="45.04749" lon="6.3036">
        <ele>1542.862</ele>
        <time>2020-04-05T15:33:50Z</time>
      </trkpt>
      <trkpt lat="45.04758" lon="6.30365">
        <ele>1545.098</ele>
        <time>2020-04-05T15:34:10Z</time>
      </trkpt>
      <trkpt lat="45.04759" lon="6.30377">
        <ele>1545.915</ele>
        <time>2020-04-05T15:34:30Z</time>
      </trkpt>
      <trkpt lat="45.04742" lon="6.30398">
        <ele>1539.526</ele>
        <time>2020-04-05T15:34:50Z</time>
      </trkpt>
      <trkpt lat="45.0472" lon="6.30438">
        <ele>1531.408</ele>
        <time>2020-04-05T15:35:10Z</time>
      </trkpt>
      <trkpt lat="45.0471" lon="6.30488">
        <ele>1527.565</ele>
        <time>2020-04-05T15:35:30Z</time>
      </trkpt>
      <trkpt lat="45.04686" lon="6.30534">
        <ele>1521.073</ele>
        <time>2020-04-05T15:35:50Z</time>
      </trkpt>
      <trkpt lat="45.0467" lon="6.30542">
        <ele>1519.811</ele>
        <time>2020-04-05T15:36:10Z</time>
      </trkpt>
      <trkpt lat="45.04635" lon="6.30544">
        <ele>1520.195</ele>
        <time>2020-04-05T15:36:30Z</time>
      </trkpt>
      <trkpt lat="45.04614" lon="6.30527">
        <ele>1519.776</ele>
        <time>2020-04-05T15:36:50Z</time>
      </trkpt>
      <trkpt lat="45.04589" lon="6.3052">
        <ele>1513.743</ele>
        <time>2020-04-05T15:37:10Z</time>
      </trkpt>
      <trkpt lat="45.04565" lon="6.3053">
        <ele>1506.137</ele>
        <time>2020-04-05T15:37:30Z</time>
      </trkpt>
      <trkpt lat="45.04542" lon="6.30531">
        <ele>1496.464</ele>
        <time>2020-04-05T15:37:50Z</time>
      </trkpt>
      <trkpt lat="45.04532" lon="6.3057">
        <ele>1489.472</ele>
        <time>2020-04-05T15:38:10Z</time>
      </trkpt>
      <trkpt lat="45.04519" lon="6.30602">
        <ele>1482.613</ele>
        <time>2020-04-05T15:38:30Z</time>
      </trkpt>
      <trkpt lat="45.04501" lon="6.30627">
        <ele>1475.614</ele>
        <time>2020-04-05T15:38:50Z</time>
      </trkpt>
      <trkpt lat="45.04517" lon="6.30656">
        <ele>1476.008</ele>
        <time>2020-04-05T15:39:10Z</time>
      </trkpt>
      <trkpt lat="45.04626" lon="6.3074">
        <ele>1482.123</ele>
        <time>2020-04-05T15:39:30Z</time>
      </trkpt>
      <trkpt lat="45.04641" lon="6.30808">
        <ele>1481.971</ele>
        <time>2020-04-05T15:39:50Z</time>
      </trkpt>
      <trkpt lat="45.04647" lon="6.31042">
        <ele>1476.569</ele>
        <time>2020-04-05T15:40:10Z</time>
      </trkpt>
      <trkpt lat="45.04629" lon="6.31122">
        <ele>1471.733</ele>
        <time>2020-04-05T15:40:30Z</time>
      </trkpt>
      <trkpt lat="45.04596" lon="6.31188">
        <ele>1471.734</ele>
        <time>2020-04-05T15:40:50Z</time>
      </trkpt>
      <trkpt lat="45.04539" lon="6.31276">
        <ele>1468.041</ele>
        <time>2020-04-05T15:41:10Z</time>
      </trkpt>
      <trkpt lat="45.0451" lon="6.31348">
        <ele>1454.185</ele>
        <time>2020-04-05T15:41:30Z</time>
      </trkpt>
      <trkpt lat="45.04528" lon="6.31388">
        <ele>1460.122</ele>
        <time>2020-04-05T15:41:50Z</time>
      </trkpt>
      <trkpt lat="45.04524" lon="6.31433">
        <ele>1460.419</ele>
        <time>2020-04-05T15:42:10Z</time>
      </trkpt>
      <trkpt lat="45.04536" lon="6.31465">
        <ele>1460.509</ele>
        <time>2020-04-05T15:42:30Z</time>
      </trkpt>
      <trkpt lat="45.04527" lon="6.31513">
        <ele>1467.519</ele>
        <time>2020-04-05T15:42:50Z</time>
      </trkpt>
      <trkpt lat="45.04545" lon="6.31539">
        <ele>1470.708</ele>
        <time>2020-04-05T15:43:10Z</time>
      </trkpt>
      <trkpt lat="45.04548" lon="6.31551">
        <ele>1473.697</ele>
        <time>2020-04-05T15:43:30Z</time>
      </trkpt>
      <trkpt lat="45.04543" lon="6.31566">
        <ele>1478.215</ele>
        <time>2020-04-05T15:43:50Z</time>
      </trkpt>
      <trkpt lat="45.04546" lon="6.31584">
        <ele>1482.263</ele>
        <time>2020-04-05T15:44:10Z</time>
      </trkpt>
      <trkpt lat="45.04557" lon="6.31611">
        <ele>1483.747</ele>
        <time>2020-04-05T15:44:30Z</time>
      </trkpt>
      <trkpt lat="45.04573" lon="6.31691">
        <ele>1490.318</ele>
        <time>2020-04-05T15:44:50Z</time>
      </trkpt>
      <trkpt lat="45.04567" lon="6.31708">
        <ele>1494.225</ele>
        <time>2020-04-05T15:45:10Z</time>
      </trkpt>
      <trkpt lat="45.04557" lon="6.31726">
        <ele>1499.389</ele>
        <time>2020-04-05T15:45:30Z</time>
      </trkpt>
      <trkpt lat="45.04557" lon="6.31743">
        <ele>1502.636</ele>
        <time>2020-04-05T15:45:50Z</time>
      </trkpt>
      <trkpt lat="45.04547" lon="6.31775">
        <ele>1510.413</ele>
        <time>2020-04-05T15:46:10Z</time>
      </trkpt>
      <trkpt lat="45.04552" lon="6.31799">
        <ele>1514.543</ele>
        <time>2020-04-05T15:46:30Z</time>
      </trkpt>
      <trkpt lat="45.04539" lon="6.31796">
        <ele>1516.807</ele>
        <time>2020-04-05T15:46:50Z</time>
      </trkpt>
      <trkpt lat="45.04533" lon="6.318">
        <ele>1519.208</ele>
        <time>2020-04-05T15:47:10Z</time>
      </trkpt>
      <trkpt lat="45.04538" lon="6.31819">
        <ele>1522.617</ele>
        <time>2020-04-05T15:47:30Z</time>
      </trkpt>
      <trkpt lat="45.04538" lon="6.31827">
        <ele>1524.435</ele>
        <time>2020-04-05T15:47:50Z</time>
      </trkpt>
      <trkpt lat="45.04544" lon="6.31836">
        <ele>1524.543</ele>
        <time>2020-04-05T15:48:10Z</time>
      </trkpt>
      <trkpt lat="45.04543" lon="6.31862">
        <ele>1527.157</ele>
        <time>2020-04-05T15:48:30Z</time>
      </trkpt>
      <trkpt lat="45.0453" lon="6.3193">
        <ele>1535.368</ele>
        <time>2020-04-05T15:48:50Z</time>
      </trkpt>
      <trkpt lat="45.04532" lon="6.3195">
        <ele>1536.315</ele>
        <time>2020-04-05T15:49:10Z</time>
      </trkpt>
      <trkpt lat="45.04516" lon="6.31981">
        <ele>1543.769</ele>
        <time>2020-04-05T15:49:30Z</time>
      </trkpt>
      <trkpt lat="45.04518" lon="6.32007">
        <ele>1545.996</ele>
        <time>2020-04-05T15:49:50Z</time>
      </trkpt>
      <trkpt lat="45.04508" lon="6.32034">
        <ele>1552.635</ele>
        <time>2020-04-05T15:50:10Z</time>
      </trkpt>
      <trkpt lat="45.04508" lon="6.32063">
        <ele>1556.086</ele>
        <time>2020-04-05T15:50:30Z</time>
      </trkpt>
      <trkpt lat="45.04507" lon="6.32113">
        <ele>1559.814</ele>
        <time>2020-04-05T15:50:50Z</time>
      </trkpt>
      <trkpt lat="45.04498" lon="6.32154">
        <ele>1561.708</ele>
        <time>2020-04-05T15:51:10Z</time>
      </trkpt>
      <trkpt lat="45.04458" lon="6.32232">
        <ele>1571.099</ele>
        <time>2020-04-05T15:51:30Z</time>
      </trkpt>
      <trkpt lat="45.04457" lon="6.32243">
        <ele>1571.557</ele>
        <time>2020-04-05T15:51:50Z</time>
      </trkpt>
      <trkpt lat="45.04464" lon="6.32261">
        <ele>1571.365</ele>
        <time>2020-04-05T15:52:10Z</time>
      </trkpt>
      <trkpt lat="45.04465" lon="6.323">
        <ele>1574.289</ele>
        <time>2020-04-05T15:52:30Z</time>
      </trkpt>
      <trkpt lat="45.04452" lon="6.32308">
        <ele>1577.48</ele>
        <time>2020-04-05T15:52:50Z</time>
      </trkpt>
      <trkpt lat="45.04438" lon="6.32311">
        <ele>1580.717</ele>
        <time>2020-04-05T15:53:10Z</time>
      </trkpt>
      <trkpt lat="45.04421" lon="6.32323">
        <ele>1586.381</ele>
        <time>2020-04-05T15:53:30Z</time>
      </trkpt>
      <trkpt lat="45.04394" lon="6.32317">
        <ele>1596.338</ele>
        <time>2020-04-05T15:53:50Z</time>
      </trkpt>
      <trkpt lat="45.04378" lon="6.32324">
        <ele>1602.971</ele>
        <time>2020-04-05T15:54:10Z</time>
      </trkpt>
      <trkpt lat="45.04359" lon="6.32324">
        <ele>1607.841</ele>
        <time>2020-04-05T15:54:30Z</time>
      </trkpt>
      <trkpt lat="45.04318" lon="6.3234">
        <ele>1619.415</ele>
        <time>2020-04-05T15:54:50Z</time>
      </trkpt>
      <trkpt lat="45.04304" lon="6.32337">
        <ele>1623.108</ele>
        <time>2020-04-05T15:55:10Z</time>
      </trkpt>
      <trkpt lat="45.04291" lon="6.32327">
        <ele>1628.543</ele>
        <time>2020-04-05T15:55:30Z</time>
      </trkpt>
      <trkpt lat="45.04283" lon="6.32327">
        <ele>1631.911</ele>
        <time>2020-04-05T15:55:50Z</time>
      </trkpt>
      <trkpt lat="45.04274" lon="6.32314">
        <ele>1635.879</ele>
        <time>2020-04-05T15:56:10Z</time>
      </trkpt>
      <trkpt lat="45.04252" lon="6.32316">
        <ele>1641.433</ele>
        <time>2020-04-05T15:56:30Z</time>
      </trkpt>
      <trkpt lat="45.04242" lon="6.32319">
        <ele>1644.144</ele>
        <time>2020-04-05T15:56:50Z</time>
      </trkpt>
      <trkpt lat="45.04221" lon="6.32311">
        <ele>1653.211</ele>
        <time>2020-04-05T15:57:10Z</time>
      </trkpt>
      <trkpt lat="45.04203" lon="6.32314">
        <ele>1660.825</ele>
        <time>2020-04-05T15:57:30Z</time>
      </trkpt>
      <trkpt lat="45.04221" lon="6.32279">
        <ele>1666.772</ele>
        <time>2020-04-05T15:57:50Z</time>
      </trkpt>
      <trkpt lat="45.04208" lon="6.32275">
        <ele>1673.467</ele>
        <time>2020-04-05T15:58:10Z</time>
      </trkpt>
      <trkpt lat="45.04214" lon="6.32258">
        <ele>1677.681</ele>
        <time>2020-04-05T15:58:30Z</time>
      </trkpt>
      <trkpt lat="45.04166" lon="6.32256">
        <ele>1692.319</ele>
        <time>2020-04-05T15:58:50Z</time>
      </trkpt>
      <trkpt lat="45.04156" lon="6.3228">
        <ele>1692.808</ele>
        <time>2020-04-05T15:59:10Z</time>
      </trkpt>
      <trkpt lat="45.04138" lon="6.32287">
        <ele>1699.622</ele>
        <time>2020-04-05T15:59:30Z</time>
      </trkpt>
      <trkpt lat="45.04092" lon="6.32364">
        <ele>1721.81</ele>
        <time>2020-04-05T15:59:50Z</time>
      </trkpt>
      <trkpt lat="45.04061" lon="6.32365">
        <ele>1732.698</ele>
        <time>2020-04-05T16:00:10Z</time>
      </trkpt>
      <trkpt lat="45.04031" lon="6.32394">
        <ele>1739.172</ele>
        <time>2020-04-05T16:00:30Z</time>
      </trkpt>
      <trkpt lat="45.04033" lon="6.32402">
        <ele>1739.413</ele>
        <time>2020-04-05T16:00:50Z</time>
      </trkpt>
      <trkpt lat="45.04093" lon="6.32409">
        <ele>1732.93</ele>
        <time>2020-04-05T16:01:10Z</time>
      </trkpt>
      <trkpt lat="45.04113" lon="6.32429">
        <ele>1727.264</ele>
        <time>2020-04-05T16:01:30Z</time>
      </trkpt>
      <trkpt lat="45.04108" lon="6.32471">
        <ele>1728.761</ele>
        <time>2020-04-05T16:01:50Z</time>
      </trkpt>
      <trkpt lat="45.04111" lon="6.3249">
        <ele>1724.224</ele>
        <time>2020-04-05T16:02:10Z</time>
      </trkpt>
      <trkpt lat="45.04072" lon="6.32545">
        <ele>1717.404</ele>
        <time>2020-04-05T16:02:30Z</time>
      </trkpt>
      <trkpt lat="45.04064" lon="6.3262">
        <ele>1710.514</ele>
        <time>2020-04-05T16:02:50Z</time>
      </trkpt>
      <trkpt lat="45.04075" lon="6.32644">
        <ele>1708.008</ele>
        <time>2020-04-05T16:03:10Z</time>
      </trkpt>
      <trkpt lat="45.04098" lon="6.32655">
        <ele>1704.078</ele>
        <time>2020-04-05T16:03:30Z</time>
      </trkpt>
      <trkpt lat="45.0414" lon="6.32714">
        <ele>1696.826</ele>
        <time>2020-04-05T16:03:50Z</time>
      </trkpt>
      <trkpt lat="45.0414" lon="6.32739">
        <ele>1694.634</ele>
        <time>2020-04-05T16:04:10Z</time>
      </trkpt>
      <trkpt lat="45.04163" lon="6.32814">
        <ele>1682.658</ele>
        <time>2020-04-05T16:04:30Z</time>
      </trkpt>
      <trkpt lat="45.04165" lon="6.32868">
        <ele>1676.649</ele>
        <time>2020-04-05T16:04:50Z</time>
      </trkpt>
      <trkpt lat="45.04172" lon="6.32908">
        <ele>1671.396</ele>
        <time>2020-04-05T16:05:10Z</time>
      </trkpt>
      <trkpt lat="45.04176" lon="6.32973">
        <ele>1662.28</ele>
        <time>2020-04-05T16:05:30Z</time>
      </trkpt>
      <trkpt lat="45.04168" lon="6.33003">
        <ele>1660.897</ele>
        <time>2020-04-05T16:05:50Z</time>
      </trkpt>
      <trkpt lat="45.04136" lon="6.3303">
        <ele>1661.248</ele>
        <time>2020-04-05T16:06:10Z</time>
      </trkpt>
      <trkpt lat="45.04133" lon="6.3305">
        <ele>1656.561</ele>
        <time>2020-04-05T16:06:30Z</time>
      </trkpt>
      <trkpt lat="45.0414" lon="6.33092">
        <ele>1642.517</ele>
        <time>2020-04-05T16:06:50Z</time>
      </trkpt>
      <trkpt lat="45.04136" lon="6.33144">
        <ele>1633.408</ele>
        <time>2020-04-05T16:07:10Z</time>
      </trkpt>
      <trkpt lat="45.04138" lon="6.33199">
        <ele>1629.99</ele>
        <time>2020-04-05T16:07:30Z</time>
      </trkpt>
      <trkpt lat="45.04148" lon="6.33261">
        <ele>1622.728</ele>
        <time>2020-04-05T16:07:50Z</time>
      </trkpt>
      <trkpt lat="45.04145" lon="6.33317">
        <ele>1620.816</ele>
        <time>2020-04-05T16:08:10Z</time>
      </trkpt>
      <trkpt lat="45.04159" lon="6.33365">
        <ele>1609.04</ele>
        <time>2020-04-05T16:08:30Z</time>
      </trkpt>
      <trkpt lat="45.04136" lon="6.3342">
        <ele>1618.381</ele>
        <time>2020-04-05T16:08:50Z</time>
      </trkpt>
      <trkpt lat="45.04126" lon="6.33496">
        <ele>1620.978</ele>
        <time>2020-04-05T16:09:10Z</time>
      </trkpt>
      <trkpt lat="45.04132" lon="6.33539">
        <ele>1620.652</ele>
        <time>2020-04-05T16:09:30Z</time>
      </trkpt>
      <trkpt lat="45.04109" lon="6.33571">
        <ele>1623.529</ele>
        <time>2020-04-05T16:09:50Z</time>
      </trkpt>
      <trkpt lat="45.04052" lon="6.33637">
        <ele>1635.791</ele>
        <time>2020-04-05T16:10:10Z</time>
      </trkpt>
      <trkpt lat="45.04003" lon="6.3367">
        <ele>1655.981</ele>
        <time>2020-04-05T16:10:30Z</time>
      </trkpt>
      <trkpt lat="45.03992" lon="6.33694">
        <ele>1658.419</ele>
        <time>2020-04-05T16:10:50Z</time>
      </trkpt>
      <trkpt lat="45.03992" lon="6.33774">
        <ele>1644.408</ele>
        <time>2020-04-05T16:11:10Z</time>
      </trkpt>
      <trkpt lat="45.03933" lon="6.33984">
        <ele>1644.015</ele>
        <time>2020-04-05T16:11:30Z</time>
      </trkpt>
      <trkpt lat="45.03902" lon="6.3407">
        <ele>1648.843</ele>
        <time>2020-04-05T16:11:50Z</time>
      </trkpt>
      <trkpt lat="45.03908" lon="6.34122">
        <ele>1644.531</ele>
        <time>2020-04-05T16:12:10Z</time>
      </trkpt>
      <trkpt lat="45.03884" lon="6.34173">
        <ele>1650.335</ele>
        <time>2020-04-05T16:12:30Z</time>
      </trkpt>
      <trkpt lat="45.03871" lon="6.34241">
        <ele>1645.856</ele>
        <time>2020-04-05T16:12:50Z</time>
      </trkpt>
      <trkpt lat="45.0385" lon="6.3428">
        <ele>1647.413</ele>
        <time>2020-04-05T16:13:10Z</time>
      </trkpt>
      <trkpt lat="45.03843" lon="6.34309">
        <ele>1644.227</ele>
        <time>2020-04-05T16:13:30Z</time>
      </trkpt>
      <trkpt lat="45.03829" lon="6.34325">
        <ele>1646.794</ele>
        <time>2020-04-05T16:13:50Z</time>
      </trkpt>
      <trkpt lat="45.03824" lon="6.34396">
        <ele>1643.953</ele>
        <time>2020-04-05T16:14:10Z</time>
      </trkpt>
      <trkpt lat="45.03815" lon="6.34469">
        <ele>1646.704</ele>
        <time>2020-04-05T16:14:30Z</time>
      </trkpt>
      <trkpt lat="45.03825" lon="6.34505">
        <ele>1643.514</ele>
        <time>2020-04-05T16:14:50Z</time>
      </trkpt>
      <trkpt lat="45.03818" lon="6.34563">
        <ele>1644.208</ele>
        <time>2020-04-05T16:15:10Z</time>
      </trkpt>
      <trkpt lat="45.03786" lon="6.34659">
        <ele>1643.881</ele>
        <time>2020-04-05T16:15:30Z</time>
      </trkpt>
      <trkpt lat="45.03796" lon="6.34692">
        <ele>1641.039</ele>
        <time>2020-04-05T16:15:50Z</time>
      </trkpt>
      <trkpt lat="45.03786" lon="6.34743">
        <ele>1641.287</ele>
        <time>2020-04-05T16:16:10Z</time>
      </trkpt>
      <trkpt lat="45.03791" lon="6.34785">
        <ele>1642.751</ele>
        <time>2020-04-05T16:16:30Z</time>
      </trkpt>
      <trkpt lat="45.03778" lon="6.34822">
        <ele>1643.072</ele>
        <time>2020-04-05T16:16:50Z</time>
      </trkpt>
      <trkpt lat="45.03763" lon="6.3483">
        <ele>1647.289</ele>
        <time>2020-04-05T16:17:10Z</time>
      </trkpt>
      <trkpt lat="45.0375" lon="6.34825">
        <ele>1650.783</ele>
        <time>2020-04-05T16:17:30Z</time>
      </trkpt>
      <trkpt lat="45.0373" lon="6.34834">
        <ele>1656.03</ele>
        <time>2020-04-05T16:17:50Z</time>
      </trkpt>
      <trkpt lat="45.03708" lon="6.34827">
        <ele>1658.444</ele>
        <time>2020-04-05T16:18:10Z</time>
      </trkpt>
      <trkpt lat="45.03698" lon="6.34854">
        <ele>1658.905</ele>
        <time>2020-04-05T16:18:30Z</time>
      </trkpt>
      <trkpt lat="45.0369" lon="6.34858">
        <ele>1659.015</ele>
        <time>2020-04-05T16:18:50Z</time>
      </trkpt>
      <trkpt lat="45.03675" lon="6.34909">
        <ele>1659.008</ele>
        <time>2020-04-05T16:19:10Z</time>
      </trkpt>
      <trkpt lat="45.03664" lon="6.34918">
        <ele>1660.13</ele>
        <time>2020-04-05T16:19:30Z</time>
      </trkpt>
      <trkpt lat="45.0363" lon="6.35052">
        <ele>1659.818</ele>
        <time>2020-04-05T16:19:50Z</time>
      </trkpt>
      <trkpt lat="45.03613" lon="6.3507">
        <ele>1659.556</ele>
        <time>2020-04-05T16:20:10Z</time>
      </trkpt>
      <trkpt lat="45.03595" lon="6.35073">
        <ele>1660.83</ele>
        <time>2020-04-05T16:20:30Z</time>
      </trkpt>
      <trkpt lat="45.03565" lon="6.35114">
        <ele>1659.051</ele>
        <time>2020-04-05T16:20:50Z</time>
      </trkpt>
      <trkpt lat="45.03554" lon="6.3515">
        <ele>1659.068</ele>
        <time>2020-04-05T16:21:10Z</time>
      </trkpt>
      <trkpt lat="45.03525" lon="6.35185">
        <ele>1659.012</ele>
        <time>2020-04-05T16:21:30Z</time>
      </trkpt>
      <trkpt lat="45.03496" lon="6.35236">
        <ele>1659.079</ele>
        <time>2020-04-05T16:21:50Z</time>
      </trkpt>
      <trkpt lat="45.03493" lon="6.35263">
        <ele>1659.028</ele>
        <time>2020-04-05T16:22:10Z</time>
      </trkpt>
      <trkpt lat="45.0347" lon="6.35292">
        <ele>1659.089</ele>
        <time>2020-04-05T16:22:30Z</time>
      </trkpt>
      <trkpt lat="45.0345" lon="6.35333">
        <ele>1660.017</ele>
        <time>2020-04-05T16:22:50Z</time>
      </trkpt>
      <trkpt lat="45.03438" lon="6.35381">
        <ele>1660.008</ele>
        <time>2020-04-05T16:23:10Z</time>
      </trkpt>
      <trkpt lat="45.03399" lon="6.35459">
        <ele>1660.068</ele>
        <time>2020-04-05T16:23:30Z</time>
      </trkpt>
      <trkpt lat="45.03373" lon="6.3547">
        <ele>1660.266</ele>
        <time>2020-04-05T16:23:50Z</time>
      </trkpt>
      <trkpt lat="45.03328" lon="6.35513">
        <ele>1660.614</ele>
        <time>2020-04-05T16:24:10Z</time>
      </trkpt>
      <trkpt lat="45.03292" lon="6.35564">
        <ele>1660.368</ele>
        <time>2020-04-05T16:24:30Z</time>
      </trkpt>
      <trkpt lat="45.03277" lon="6.35598">
        <ele>1660.069</ele>
        <time>2020-04-05T16:24:50Z</time>
      </trkpt>
      <trkpt lat="45.03261" lon="6.3562">
        <ele>1660.046</ele>
        <time>2020-04-05T16:25:10Z</time>
      </trkpt>
      <trkpt lat="45.03229" lon="6.35727">
        <ele>1660.02</ele>
        <time>2020-04-05T16:25:30Z</time>
      </trkpt>
      <trkpt lat="45.03204" lon="6.3577">
        <ele>1660.957</ele>
        <time>2020-04-05T16:25:50Z</time>
      </trkpt>
      <trkpt lat="45.03194" lon="6.35806">
        <ele>1660.174</ele>
        <time>2020-04-05T16:26:10Z</time>
      </trkpt>
      <trkpt lat="45.03194" lon="6.35825">
        <ele>1660.056</ele>
        <time>2020-04-05T16:26:30Z</time>
      </trkpt>
      <trkpt lat="45.03213" lon="6.35833">
        <ele>1660.021</ele>
        <time>2020-04-05T16:26:50Z</time>
      </trkpt>
      <trkpt lat="45.03237" lon="6.35857">
        <ele>1661.908</ele>
        <time>2020-04-05T16:27:10Z</time>
      </trkpt>
      <trkpt lat="45.03218" lon="6.35901">
        <ele>1661.293</ele>
        <time>2020-04-05T16:27:30Z</time>
      </trkpt>
      <trkpt lat="45.03213" lon="6.35974">
        <ele>1662.461</ele>
        <time>2020-04-05T16:27:50Z</time>
      </trkpt>
      <trkpt lat="45.0318" lon="6.36059">
        <ele>1664.789</ele>
        <time>2020-04-05T16:28:10Z</time>
      </trkpt>
      <trkpt lat="45.03133" lon="6.36194">
        <ele>1670.043</ele>
        <time>2020-04-05T16:28:30Z</time>
      </trkpt>
      <trkpt lat="45.03067" lon="6.36336">
        <ele>1670.084</ele>
        <time>2020-04-05T16:28:50Z</time>
      </trkpt>
      <trkpt lat="45.0303" lon="6.36356">
        <ele>1670.081</ele>
        <time>2020-04-05T16:29:10Z</time>
      </trkpt>
      <trkpt lat="45.02985" lon="6.36403">
        <ele>1670.745</ele>
        <time>2020-04-05T16:29:30Z</time>
      </trkpt>
      <trkpt lat="45.02958" lon="6.36446">
        <ele>1671.932</ele>
        <time>2020-04-05T16:29:50Z</time>
      </trkpt>
      <trkpt lat="45.02947" lon="6.36486">
        <ele>1681.587</ele>
        <time>2020-04-05T16:30:10Z</time>
      </trkpt>
      <trkpt lat="45.02905" lon="6.36534">
        <ele>1684.442</ele>
        <time>2020-04-05T16:30:30Z</time>
      </trkpt>
      <trkpt lat="45.02868" lon="6.36554">
        <ele>1676.326</ele>
        <time>2020-04-05T16:30:50Z</time>
      </trkpt>
      <trkpt lat="45.02852" lon="6.36578">
        <ele>1678.708</ele>
        <time>2020-04-05T16:31:10Z</time>
      </trkpt>
      <trkpt lat="45.0282" lon="6.366">
        <ele>1677.914</ele>
        <time>2020-04-05T16:31:30Z</time>
      </trkpt>
      <trkpt lat="45.02789" lon="6.3663">
        <ele>1682.142</ele>
        <time>2020-04-05T16:31:50Z</time>
      </trkpt>
      <trkpt lat="45.02753" lon="6.36646">
        <ele>1682.53</ele>
        <time>2020-04-05T16:32:10Z</time>
      </trkpt>
      <trkpt lat="45.02734" lon="6.3666">
        <ele>1684.974</ele>
        <time>2020-04-05T16:32:30Z</time>
      </trkpt>
      <trkpt lat="45.0271" lon="6.36667">
        <ele>1683.735</ele>
        <time>2020-04-05T16:32:50Z</time>
      </trkpt>
      <trkpt lat="45.0268" lon="6.36686">
        <ele>1688.752</ele>
        <time>2020-04-05T16:33:10Z</time>
      </trkpt>
      <trkpt lat="45.02668" lon="6.36687">
        <ele>1688.336</ele>
        <time>2020-04-05T16:33:30Z</time>
      </trkpt>
      <trkpt lat="45.02652" lon="6.36692">
        <ele>1689.023</ele>
        <time>2020-04-05T16:33:50Z</time>
      </trkpt>
      <trkpt lat="45.02606" lon="6.36687">
        <ele>1686.341</ele>
        <time>2020-04-05T16:34:10Z</time>
      </trkpt>
      <trkpt lat="45.02543" lon="6.36715">
        <ele>1698.081</ele>
        <time>2020-04-05T16:34:30Z</time>
      </trkpt>
      <trkpt lat="45.02517" lon="6.36746">
        <ele>1702.009</ele>
        <time>2020-04-05T16:34:50Z</time>
      </trkpt>
      <trkpt lat="45.02496" lon="6.36756">
        <ele>1701.108</ele>
        <time>2020-04-05T16:35:10Z</time>
      </trkpt>
      <trkpt lat="45.02467" lon="6.36783">
        <ele>1702.87</ele>
        <time>2020-04-05T16:35:30Z</time>
      </trkpt>
      <trkpt lat="45.02443" lon="6.36797">
        <ele>1702.118</ele>
        <time>2020-04-05T16:35:50Z</time>
      </trkpt>
      <trkpt lat="45.02388" lon="6.36871">
        <ele>1711.066</ele>
        <time>2020-04-05T16:36:10Z</time>
      </trkpt>
      <trkpt lat="45.02358" lon="6.36878">
        <ele>1705.25</ele>
        <time>2020-04-05T16:36:30Z</time>
      </trkpt>
      <trkpt lat="45.02305" lon="6.36928">
        <ele>1706.991</ele>
        <time>2020-04-05T16:36:50Z</time>
      </trkpt>
      <trkpt lat="45.0225" lon="6.36997">
        <ele>1710.968</ele>
        <time>2020-04-05T16:37:10Z</time>
      </trkpt>
      <trkpt lat="45.02223" lon="6.37">
        <ele>1709.072</ele>
        <time>2020-04-05T16:37:30Z</time>
      </trkpt>
      <trkpt lat="45.0221" lon="6.37008">
        <ele>1712.849</ele>
        <time>2020-04-05T16:37:50Z</time>
      </trkpt>
      <trkpt lat="45.02196" lon="6.37003">
        <ele>1709.767</ele>
        <time>2020-04-05T16:38:10Z</time>
      </trkpt>
      <trkpt lat="45.02175" lon="6.37018">
        <ele>1710.881</ele>
        <time>2020-04-05T16:38:30Z</time>
      </trkpt>
      <trkpt lat="45.02174" lon="6.37037">
        <ele>1717.519</ele>
        <time>2020-04-05T16:38:50Z</time>
      </trkpt>
      <trkpt lat="45.02157" lon="6.37037">
        <ele>1712.708</ele>
        <time>2020-04-05T16:39:10Z</time>
      </trkpt>
      <trkpt lat="45.02136" lon="6.37061">
        <ele>1714.852</ele>
        <time>2020-04-05T16:39:30Z</time>
      </trkpt>
      <trkpt lat="45.02123" lon="6.37095">
        <ele>1720.41</ele>
        <time>2020-04-05T16:39:50Z</time>
      </trkpt>
      <trkpt lat="45.02104" lon="6.37106">
        <ele>1719.688</ele>
        <time>2020-04-05T16:40:10Z</time>
      </trkpt>
      <trkpt lat="45.02085" lon="6.37098">
        <ele>1715.862</ele>
        <time>2020-04-05T16:40:30Z</time>
      </trkpt>
      <trkpt lat="45.02057" lon="6.37123">
        <ele>1716.933</ele>
        <time>2020-04-05T16:40:50Z</time>
      </trkpt>
      <trkpt lat="45.02047" lon="6.37138">
        <ele>1717.95</ele>
        <time>2020-04-05T16:41:10Z</time>
      </trkpt>
      <trkpt lat="45.0203" lon="6.3715">
        <ele>1717.694</ele>
        <time>2020-04-05T16:41:30Z</time>
      </trkpt>
      <trkpt lat="45.02006" lon="6.37148">
        <ele>1717.781</ele>
        <time>2020-04-05T16:41:50Z</time>
      </trkpt>
      <trkpt lat="45.01983" lon="6.37158">
        <ele>1718.629</ele>
        <time>2020-04-05T16:42:10Z</time>
      </trkpt>
      <trkpt lat="45.01961" lon="6.37141">
        <ele>1717.5</ele>
        <time>2020-04-05T16:42:30Z</time>
      </trkpt>
      <trkpt lat="45.01895" lon="6.37161">
        <ele>1719.02</ele>
        <time>2020-04-05T16:42:50Z</time>
      </trkpt>
      <trkpt lat="45.01853" lon="6.37178">
        <ele>1719.008</ele>
        <time>2020-04-05T16:43:10Z</time>
      </trkpt>
      <trkpt lat="45.01764" lon="6.37193">
        <ele>1721.848</ele>
        <time>2020-04-05T16:43:30Z</time>
      </trkpt>
      <trkpt lat="45.01716" lon="6.37193">
        <ele>1728.266</ele>
        <time>2020-04-05T16:43:50Z</time>
      </trkpt>
      <trkpt lat="45.01695" lon="6.37212">
        <ele>1732.544</ele>
        <time>2020-04-05T16:44:10Z</time>
      </trkpt>
      <trkpt lat="45.01677" lon="6.37213">
        <ele>1734.728</ele>
        <time>2020-04-05T16:44:30Z</time>
      </trkpt>
      <trkpt lat="45.01641" lon="6.37169">
        <ele>1735.049</ele>
        <time>2020-04-05T16:44:50Z</time>
      </trkpt>
      <trkpt lat="45.01609" lon="6.37144">
        <ele>1741.986</ele>
        <time>2020-04-05T16:45:10Z</time>
      </trkpt>
      <trkpt lat="45.01572" lon="6.37138">
        <ele>1750.19</ele>
        <time>2020-04-05T16:45:30Z</time>
      </trkpt>
      <trkpt lat="45.01531" lon="6.37103">
        <ele>1756.867</ele>
        <time>2020-04-05T16:45:50Z</time>
      </trkpt>
      <trkpt lat="45.01518" lon="6.37132">
        <ele>1769.872</ele>
        <time>2020-04-05T16:46:10Z</time>
      </trkpt>
      <trkpt lat="45.01499" lon="6.37139">
        <ele>1772.913</ele>
        <time>2020-04-05T16:46:30Z</time>
      </trkpt>
      <trkpt lat="45.01461" lon="6.37196">
        <ele>1778.614</ele>
        <time>2020-04-05T16:46:50Z</time>
      </trkpt>
      <trkpt lat="45.0144" lon="6.37247">
        <ele>1779.708</ele>
        <time>2020-04-05T16:47:10Z</time>
      </trkpt>
      <trkpt lat="45.01427" lon="6.37299">
        <ele>1784.443</ele>
        <time>2020-04-05T16:47:30Z</time>
      </trkpt>
      <trkpt lat="45.01398" lon="6.37328">
        <ele>1779.211</ele>
        <time>2020-04-05T16:47:50Z</time>
      </trkpt>
      <trkpt lat="45.01385" lon="6.37369">
        <ele>1788.499</ele>
        <time>2020-04-05T16:48:10Z</time>
      </trkpt>
      <trkpt lat="45.01368" lon="6.37368">
        <ele>1780.663</ele>
        <time>2020-04-05T16:48:30Z</time>
      </trkpt>
      <trkpt lat="45.01366" lon="6.374">
        <ele>1786.464</ele>
        <time>2020-04-05T16:48:50Z</time>
      </trkpt>
      <trkpt lat="45.01352" lon="6.37395">
        <ele>1787.441</ele>
        <time>2020-04-05T16:49:10Z</time>
      </trkpt>
      <trkpt lat="45.01364" lon="6.37436">
        <ele>1795.675</ele>
        <time>2020-04-05T16:49:30Z</time>
      </trkpt>
      <trkpt lat="45.0134" lon="6.37424">
        <ele>1801.232</ele>
        <time>2020-04-05T16:49:50Z</time>
      </trkpt>
      <trkpt lat="45.01346" lon="6.3745">
        <ele>1807.282</ele>
        <time>2020-04-05T16:50:10Z</time>
      </trkpt>
      <trkpt lat="45.0132" lon="6.37431">
        <ele>1814.443</ele>
        <time>2020-04-05T16:50:30Z</time>
      </trkpt>
      <trkpt lat="45.01322" lon="6.37395">
        <ele>1808.817</ele>
        <time>2020-04-05T16:50:50Z</time>
      </trkpt>
      <trkpt lat="45.01315" lon="6.37378">
        <ele>1813.508</ele>
        <time>2020-04-05T16:51:10Z</time>
      </trkpt>
      <trkpt lat="45.01296" lon="6.37374">
        <ele>1822.364</ele>
        <time>2020-04-05T16:51:30Z</time>
      </trkpt>
      <trkpt lat="45.01293" lon="6.37384">
        <ele>1825.492</ele>
        <time>2020-04-05T16:51:50Z</time>
      </trkpt>
      <trkpt lat="45.01303" lon="6.37399">
        <ele>1823.18</ele>
        <time>2020-04-05T16:52:10Z</time>
      </trkpt>
      <trkpt lat="45.01287" lon="6.3741">
        <ele>1831.564</ele>
        <time>2020-04-05T16:52:30Z</time>
      </trkpt>
      <trkpt lat="45.01295" lon="6.37426">
        <ele>1828.245</ele>
        <time>2020-04-05T16:52:50Z</time>
      </trkpt>
      <trkpt lat="45.0127" lon="6.37441">
        <ele>1840.422</ele>
        <time>2020-04-05T16:53:10Z</time>
      </trkpt>
      <trkpt lat="45.01279" lon="6.37457">
        <ele>1842.486</ele>
        <time>2020-04-05T16:53:30Z</time>
      </trkpt>
      <trkpt lat="45.0128" lon="6.37478">
        <ele>1849.863</ele>
        <time>2020-04-05T16:53:50Z</time>
      </trkpt>
      <trkpt lat="45.0127" lon="6.37501">
        <ele>1860.565</ele>
        <time>2020-04-05T16:54:10Z</time>
      </trkpt>
      <trkpt lat="45.01286" lon="6.37505">
        <ele>1860.968</ele>
        <time>2020-04-05T16:54:30Z</time>
      </trkpt>
      <trkpt lat="45.01271" lon="6.37542">
        <ele>1874.814</ele>
        <time>2020-04-05T16:54:50Z</time>
      </trkpt>
      <trkpt lat="45.01308" lon="6.37548">
        <ele>1881.908</ele>
        <time>2020-04-05T16:55:10Z</time>
      </trkpt>
      <trkpt lat="45.01286" lon="6.37573">
        <ele>1889.732</ele>
        <time>2020-04-05T16:55:30Z</time>
      </trkpt>
      <trkpt lat="45.01248" lon="6.37593">
        <ele>1895.19</ele>
        <time>2020-04-05T16:55:50Z</time>
      </trkpt>
      <trkpt lat="45.01282" lon="6.37609">
        <ele>1906.098</ele>
        <time>2020-04-05T16:56:10Z</time>
      </trkpt>
      <trkpt lat="45.01254" lon="6.3762">
        <ele>1910.412</ele>
        <time>2020-04-05T16:56:30Z</time>
      </trkpt>
      <trkpt lat="45.01264" lon="6.37627">
        <ele>1915.593</ele>
        <time>2020-04-05T16:56:50Z</time>
      </trkpt>
      <trkpt lat="45.01249" lon="6.37641">
        <ele>1923.06</ele>
        <time>2020-04-05T16:57:10Z</time>
      </trkpt>
      <trkpt lat="45.01222" lon="6.37654">
        <ele>1929.834</ele>
        <time>2020-04-05T16:57:30Z</time>
      </trkpt>
      <trkpt lat="45.01209" lon="6.37649">
        <ele>1928.221</ele>
        <time>2020-04-05T16:57:50Z</time>
      </trkpt>
      <trkpt lat="45.01193" lon="6.37663">
        <ele>1937.055</ele>
        <time>2020-04-05T16:58:10Z</time>
      </trkpt>
      <trkpt lat="45.01175" lon="6.37665">
        <ele>1939.107</ele>
        <time>2020-04-05T16:58:30Z</time>
      </trkpt>
      <trkpt lat="45.01164" lon="6.37668">
        <ele>1941.417</ele>
        <time>2020-04-05T16:58:50Z</time>
      </trkpt>
      <trkpt lat="45.01154" lon="6.37654">
        <ele>1940.508</ele>
        <time>2020-04-05T16:59:10Z</time>
      </trkpt>
      <trkpt lat="45.0112" lon="6.37644">
        <ele>1951.131</ele>
        <time>2020-04-05T16:59:30Z</time>
      </trkpt>
      <trkpt lat="45.01139" lon="6.37674">
        <ele>1950.639</ele>
        <time>2020-04-05T16:59:50Z</time>
      </trkpt>
      <trkpt lat="45.01134" lon="6.37697">
        <ele>1958.167</ele>
        <time>2020-04-05T17:00:10Z</time>
      </trkpt>
      <trkpt lat="45.01126" lon="6.37683">
        <ele>1957.351</ele>
        <time>2020-04-05T17:00:30Z</time>
      </trkpt>
      <trkpt lat="45.01102" lon="6.37684">
        <ele>1966.012</ele>
        <time>2020-04-05T17:00:50Z</time>
      </trkpt>
      <trkpt lat="45.01104" lon="6.37712">
        <ele>1971.559</ele>
        <time>2020-04-05T17:01:10Z</time>
      </trkpt>
      <trkpt lat="45.01098" lon="6.37755">
        <ele>1988.433</ele>
        <time>2020-04-05T17:01:30Z</time>
      </trkpt>
      <trkpt lat="45.01067" lon="6.37756">
        <ele>1993.22</ele>
        <time>2020-04-05T17:01:50Z</time>
      </trkpt>
      <trkpt lat="45.01038" lon="6.37772">
        <ele>1998.532</ele>
        <time>2020-04-05T17:02:10Z</time>
      </trkpt>
      <trkpt lat="45.01013" lon="6.37793">
        <ele>2006.092</ele>
        <time>2020-04-05T17:02:30Z</time>
      </trkpt>
      <trkpt lat="45.0099" lon="6.37801">
        <ele>2009.511</ele>
        <time>2020-04-05T17:02:50Z</time>
      </trkpt>
      <trkpt lat="45.00971" lon="6.37807">
        <ele>2011.408</ele>
        <time>2020-04-05T17:03:10Z</time>
      </trkpt>
      <trkpt lat="45.00956" lon="6.37806">
        <ele>2013.489</ele>
        <time>2020-04-05T17:03:30Z</time>
      </trkpt>
      <trkpt lat="45.0094" lon="6.37813">
        <ele>2016.447</ele>
        <time>2020-04-05T17:03:50Z</time>
      </trkpt>
      <trkpt lat="45.00917" lon="6.37807">
        <ele>2019.055</ele>
        <time>2020-04-05T17:04:10Z</time>
      </trkpt>
      <trkpt lat="45.00774" lon="6.37913">
        <ele>2043.679</ele>
        <time>2020-04-05T17:04:30Z</time>
      </trkpt>
      <trkpt lat="45.00661" lon="6.37999">
        <ele>2058.22</ele>
        <time>2020-04-05T17:04:50Z</time>
      </trkpt>
      <trkpt lat="45.00606" lon="6.38027">
        <ele>2060.017</ele>
        <time>2020-04-05T17:05:10Z</time>
      </trkpt>
      <trkpt lat="45.0053" lon="6.38109">
        <ele>2055.151</ele>
        <time>2020-04-05T17:05:30Z</time>
      </trkpt>
      <trkpt lat="45.00502" lon="6.3814">
        <ele>2054.348</ele>
        <time>2020-04-05T17:05:50Z</time>
      </trkpt>
      <trkpt lat="45.0048" lon="6.3818">
        <ele>2059.266</ele>
        <time>2020-04-05T17:06:10Z</time>
      </trkpt>
      <trkpt lat="45.00431" lon="6.38203">
        <ele>2058.429</ele>
        <time>2020-04-05T17:06:30Z</time>
      </trkpt>
      <trkpt lat="45.00395" lon="6.38212">
        <ele>2058.521</ele>
        <time>2020-04-05T17:06:50Z</time>
      </trkpt>
      <trkpt lat="45.0037" lon="6.38228">
        <ele>2061.508</ele>
        <time>2020-04-05T17:07:10Z</time>
      </trkpt>
      <trkpt lat="45.00336" lon="6.38241">
        <ele>2064.482</ele>
        <time>2020-04-05T17:07:30Z</time>
      </trkpt>
      <trkpt lat="45.00277" lon="6.38296">
        <ele>2071.92</ele>
        <time>2020-04-05T17:07:50Z</time>
      </trkpt>
      <trkpt lat="45.00256" lon="6.38299">
        <ele>2072.668</ele>
        <time>2020-04-05T17:08:10Z</time>
      </trkpt>
      <trkpt lat="45.00201" lon="6.38341">
        <ele>2078.372</ele>
        <time>2020-04-05T17:08:30Z</time>
      </trkpt>
      <trkpt lat="45.00167" lon="6.38359">
        <ele>2087.623</ele>
        <time>2020-04-05T17:08:50Z</time>
      </trkpt>
      <trkpt lat="45.00103" lon="6.38401">
        <ele>2091.13</ele>
        <time>2020-04-05T17:09:10Z</time>
      </trkpt>
      <trkpt lat="45.00067" lon="6.38417">
        <ele>2088.714</ele>
        <time>2020-04-05T17:09:30Z</time>
      </trkpt>
      <trkpt lat="45.0005" lon="6.38434">
        <ele>2088.261</ele>
        <time>2020-04-05T17:09:50Z</time>
      </trkpt>
      <trkpt lat="45.00036" lon="6.3844">
        <ele>2086.758</ele>
        <time>2020-04-05T17:10:10Z</time>
      </trkpt>
      <trkpt lat="45.00021" lon="6.38458">
        <ele>2087.252</ele>
        <time>2020-04-05T17:10:30Z</time>
      </trkpt>
      <trkpt lat="44.99981" lon="6.38474">
        <ele>2085.317</ele>
        <time>2020-04-05T17:10:50Z</time>
      </trkpt>
      <trkpt lat="44.99949" lon="6.38506">
        <ele>2085.508</ele>
        <time>2020-04-05T17:11:10Z</time>
      </trkpt>
      <trkpt lat="44.99916" lon="6.38526">
        <ele>2082.671</ele>
        <time>2020-04-05T17:11:30Z</time>
      </trkpt>
      <trkpt lat="44.99898" lon="6.38548">
        <ele>2082.859</ele>
        <time>2020-04-05T17:11:50Z</time>
      </trkpt>
      <trkpt lat="44.99881" lon="6.38574">
        <ele>2084.087</ele>
        <time>2020-04-05T17:12:10Z</time>
      </trkpt>
      <trkpt lat="44.99832" lon="6.38618">
        <ele>2086.571</ele>
        <time>2020-04-05T17:12:30Z</time>
      </trkpt>
      <trkpt lat="44.99817" lon="6.38621">
        <ele>2085.112</ele>
        <time>2020-04-05T17:12:50Z</time>
      </trkpt>
      <trkpt lat="44.99808" lon="6.38633">
        <ele>2086.989</ele>
        <time>2020-04-05T17:13:10Z</time>
      </trkpt>
      <trkpt lat="44.99757" lon="6.38662">
        <ele>2090.133</ele>
        <time>2020-04-05T17:13:30Z</time>
      </trkpt>
      <trkpt lat="44.9972" lon="6.38696">
        <ele>2098.42</ele>
        <time>2020-04-05T17:13:50Z</time>
      </trkpt>
      <trkpt lat="44.99689" lon="6.38732">
        <ele>2107.764</ele>
        <time>2020-04-05T17:14:10Z</time>
      </trkpt>
      <trkpt lat="44.99672" lon="6.38737">
        <ele>2108.606</ele>
        <time>2020-04-05T17:14:30Z</time>
      </trkpt>
      <trkpt lat="44.99639" lon="6.38768">
        <ele>2114.916</ele>
        <time>2020-04-05T17:14:50Z</time>
      </trkpt>
      <trkpt lat="44.99617" lon="6.38779">
        <ele>2115.208</ele>
        <time>2020-04-05T17:15:10Z</time>
      </trkpt>
      <trkpt lat="44.9961" lon="6.38796">
        <ele>2120.542</ele>
        <time>2020-04-05T17:15:30Z</time>
      </trkpt>
      <trkpt lat="44.99575" lon="6.38798">
        <ele>2119.05</ele>
        <time>2020-04-05T17:15:50Z</time>
      </trkpt>
      <trkpt lat="44.99566" lon="6.38822">
        <ele>2126.918</ele>
        <time>2020-04-05T17:16:10Z</time>
      </trkpt>
      <trkpt lat="44.99535" lon="6.38819">
        <ele>2129.012</ele>
        <time>2020-04-05T17:16:30Z</time>
      </trkpt>
      <trkpt lat="44.99514" lon="6.38826">
        <ele>2132.833</ele>
        <time>2020-04-05T17:16:50Z</time>
      </trkpt>
      <trkpt lat="44.99487" lon="6.38829">
        <ele>2133.54</ele>
        <time>2020-04-05T17:17:10Z</time>
      </trkpt>
      <trkpt lat="44.99447" lon="6.38843">
        <ele>2135.924</ele>
        <time>2020-04-05T17:17:30Z</time>
      </trkpt>
      <trkpt lat="44.9938" lon="6.38881">
        <ele>2141.711</ele>
        <time>2020-04-05T17:17:50Z</time>
      </trkpt>
      <trkpt lat="44.99359" lon="6.38899">
        <ele>2145.156</ele>
        <time>2020-04-05T17:18:10Z</time>
      </trkpt>
      <trkpt lat="44.99305" lon="6.38913">
        <ele>2143.459</ele>
        <time>2020-04-05T17:18:30Z</time>
      </trkpt>
      <trkpt lat="44.99291" lon="6.38933">
        <ele>2145.914</ele>
        <time>2020-04-05T17:18:50Z</time>
      </trkpt>
      <trkpt lat="44.99244" lon="6.38999">
        <ele>2154.908</ele>
        <time>2020-04-05T17:19:10Z</time>
      </trkpt>
      <trkpt lat="44.99198" lon="6.39041">
        <ele>2160.391</ele>
        <time>2020-04-05T17:19:30Z</time>
      </trkpt>
      <trkpt lat="44.99147" lon="6.3907">
        <ele>2162.419</ele>
        <time>2020-04-05T17:19:50Z</time>
      </trkpt>
      <trkpt lat="44.99129" lon="6.39106">
        <ele>2166.037</ele>
        <time>2020-04-05T17:20:10Z</time>
      </trkpt>
      <trkpt lat="44.99077" lon="6.39167">
        <ele>2170.811</ele>
        <time>2020-04-05T17:20:30Z</time>
      </trkpt>
      <trkpt lat="44.99008" lon="6.39226">
        <ele>2174.842</ele>
        <time>2020-04-05T17:20:50Z</time>
      </trkpt>
      <trkpt lat="44.98878" lon="6.39378">
        <ele>2185.049</ele>
        <time>2020-04-05T17:21:10Z</time>
      </trkpt>
      <trkpt lat="44.98814" lon="6.39437">
        <ele>2189.373</ele>
        <time>2020-04-05T17:21:30Z</time>
      </trkpt>
      <trkpt lat="44.98799" lon="6.39477">
        <ele>2191.46</ele>
        <time>2020-04-05T17:21:50Z</time>
      </trkpt>
      <trkpt lat="44.98761" lon="6.39524">
        <ele>2193.436</ele>
        <time>2020-04-05T17:22:10Z</time>
      </trkpt>
      <trkpt lat="44.98732" lon="6.39548">
        <ele>2194.717</ele>
        <time>2020-04-05T17:22:30Z</time>
      </trkpt>
      <trkpt lat="44.98709" lon="6.39582">
        <ele>2196.918</ele>
        <time>2020-04-05T17:22:50Z</time>
      </trkpt>
      <trkpt lat="44.98663" lon="6.39615">
        <ele>2199.408</ele>
        <time>2020-04-05T17:23:10Z</time>
      </trkpt>
      <trkpt lat="44.9857" lon="6.3975">
        <ele>2211.579</ele>
        <time>2020-04-05T17:23:30Z</time>
      </trkpt>
      <trkpt lat="44.98516" lon="6.398">
        <ele>2215.167</ele>
        <time>2020-04-05T17:23:50Z</time>
      </trkpt>
      <trkpt lat="44.98487" lon="6.39871">
        <ele>2220.115</ele>
        <time>2020-04-05T17:24:10Z</time>
      </trkpt>
      <trkpt lat="44.98443" lon="6.39941">
        <ele>2223.879</ele>
        <time>2020-04-05T17:24:30Z</time>
      </trkpt>
      <trkpt lat="44.98434" lon="6.39985">
        <ele>2226.13</ele>
        <time>2020-04-05T17:24:50Z</time>
      </trkpt>
      <trkpt lat="44.98423" lon="6.39988">
        <ele>2226.537</ele>
        <time>2020-04-05T17:25:10Z</time>
      </trkpt>
      <trkpt lat="44.98408" lon="6.40032">
        <ele>2229.331</ele>
        <time>2020-04-05T17:25:30Z</time>
      </trkpt>
      <trkpt lat="44.98371" lon="6.40079">
        <ele>2232.188</ele>
        <time>2020-04-05T17:25:50Z</time>
      </trkpt>
      <trkpt lat="44.98348" lon="6.4012">
        <ele>2233.614</ele>
        <time>2020-04-05T17:26:10Z</time>
      </trkpt>
      <trkpt lat="44.98309" lon="6.40158">
        <ele>2235.754</ele>
        <time>2020-04-05T17:26:30Z</time>
      </trkpt>
      <trkpt lat="44.98269" lon="6.40217">
        <ele>2238.109</ele>
        <time>2020-04-05T17:26:50Z</time>
      </trkpt>
      <trkpt lat="44.9825" lon="6.4024">
        <ele>2240.308</ele>
        <time>2020-04-05T17:27:10Z</time>
      </trkpt>
      <trkpt lat="44.9822" lon="6.40292">
        <ele>2244.957</ele>
        <time>2020-04-05T17:27:30Z</time>
      </trkpt>
      <trkpt lat="44.98178" lon="6.40314">
        <ele>2245.615</ele>
        <time>2020-04-05T17:27:50Z</time>
      </trkpt>
      <trkpt lat="44.9816" lon="6.40345">
        <ele>2247.713</ele>
        <time>2020-04-05T17:28:10Z</time>
      </trkpt>
      <trkpt lat="44.98135" lon="6.40358">
        <ele>2248.167</ele>
        <time>2020-04-05T17:28:30Z</time>
      </trkpt>
      <trkpt lat="44.98088" lon="6.40413">
        <ele>2250.838</ele>
        <time>2020-04-05T17:28:50Z</time>
      </trkpt>
      <trkpt lat="44.98056" lon="6.40439">
        <ele>2254.425</ele>
        <time>2020-04-05T17:29:10Z</time>
      </trkpt>
      <trkpt lat="44.9803" lon="6.40475">
        <ele>2258.459</ele>
        <time>2020-04-05T17:29:30Z</time>
      </trkpt>
      <trkpt lat="44.98027" lon="6.40492">
        <ele>2260.176</ele>
        <time>2020-04-05T17:29:50Z</time>
      </trkpt>
      <trkpt lat="44.97984" lon="6.40506">
        <ele>2262.362</ele>
        <time>2020-04-05T17:30:10Z</time>
      </trkpt>
      <trkpt lat="44.97948" lon="6.40527">
        <ele>2272.183</ele>
        <time>2020-04-05T17:30:30Z</time>
      </trkpt>
      <trkpt lat="44.97856" lon="6.40597">
        <ele>2297.311</ele>
        <time>2020-04-05T17:30:50Z</time>
      </trkpt>
      <trkpt lat="44.97835" lon="6.40598">
        <ele>2301.508</ele>
        <time>2020-04-05T17:31:10Z</time>
      </trkpt>
      <trkpt lat="44.97823" lon="6.40633">
        <ele>2311.872</ele>
        <time>2020-04-05T17:31:30Z</time>
      </trkpt>
      <trkpt lat="44.97777" lon="6.40679">
        <ele>2323.56</ele>
        <time>2020-04-05T17:31:50Z</time>
      </trkpt>
      <trkpt lat="44.97765" lon="6.40713">
        <ele>2329.648</ele>
        <time>2020-04-05T17:32:10Z</time>
      </trkpt>
      <trkpt lat="44.97777" lon="6.40744">
        <ele>2335.832</ele>
        <time>2020-04-05T17:32:30Z</time>
      </trkpt>
      <trkpt lat="44.97769" lon="6.40789">
        <ele>2342.233</ele>
        <time>2020-04-05T17:32:50Z</time>
      </trkpt>
      <trkpt lat="44.97777" lon="6.40829">
        <ele>2347.41</ele>
        <time>2020-04-05T17:33:10Z</time>
      </trkpt>
      <trkpt lat="44.97785" lon="6.40889">
        <ele>2351.114</ele>
        <time>2020-04-05T17:33:30Z</time>
      </trkpt>
      <trkpt lat="44.97786" lon="6.40938">
        <ele>2351.881</ele>
        <time>2020-04-05T17:33:50Z</time>
      </trkpt>
      <trkpt lat="44.97794" lon="6.40961">
        <ele>2354.115</ele>
        <time>2020-04-05T17:34:10Z</time>
      </trkpt>
      <trkpt lat="44.97788" lon="6.41038">
        <ele>2351.965</ele>
        <time>2020-04-05T17:34:30Z</time>
      </trkpt>
      <trkpt lat="44.97812" lon="6.41084">
        <ele>2351.611</ele>
        <time>2020-04-05T17:34:50Z</time>
      </trkpt>
      <trkpt lat="44.97815" lon="6.41125">
        <ele>2350.508</ele>
        <time>2020-04-05T17:35:10Z</time>
      </trkpt>
      <trkpt lat="44.97845" lon="6.4117">
        <ele>2350.927</ele>
        <time>2020-04-05T17:35:30Z</time>
      </trkpt>
      <trkpt lat="44.97855" lon="6.41238">
        <ele>2351.165</ele>
        <time>2020-04-05T17:35:50Z</time>
      </trkpt>
      <trkpt lat="44.97885" lon="6.41328">
        <ele>2349.033</ele>
        <time>2020-04-05T17:36:10Z</time>
      </trkpt>
      <trkpt lat="44.97894" lon="6.41383">
        <ele>2344.667</ele>
        <time>2020-04-05T17:36:30Z</time>
      </trkpt>
      <trkpt lat="44.9791" lon="6.41414">
        <ele>2342.838</ele>
        <time>2020-04-05T17:36:50Z</time>
      </trkpt>
      <trkpt lat="44.97935" lon="6.41493">
        <ele>2333.165</ele>
        <time>2020-04-05T17:37:10Z</time>
      </trkpt>
      <trkpt lat="44.97932" lon="6.41528">
        <ele>2326.649</ele>
        <time>2020-04-05T17:37:30Z</time>
      </trkpt>
      <trkpt lat="44.9796" lon="6.41636">
        <ele>2307.166</ele>
        <time>2020-04-05T17:37:50Z</time>
      </trkpt>
      <trkpt lat="44.97982" lon="6.41672">
        <ele>2303.957</ele>
        <time>2020-04-05T17:38:10Z</time>
      </trkpt>
      <trkpt lat="44.98003" lon="6.41779">
        <ele>2290.1</ele>
        <time>2020-04-05T17:38:30Z</time>
      </trkpt>
      <trkpt lat="44.97999" lon="6.41803">
        <ele>2285.52</ele>
        <time>2020-04-05T17:38:50Z</time>
      </trkpt>
      <trkpt lat="44.98001" lon="6.41827">
        <ele>2281.208</ele>
        <time>2020-04-05T17:39:10Z</time>
      </trkpt>
      <trkpt lat="44.98013" lon="6.41836">
        <ele>2280.741</ele>
        <time>2020-04-05T17:39:30Z</time>
      </trkpt>
      <trkpt lat="44.98014" lon="6.41854">
        <ele>2276.629</ele>
        <time>2020-04-05T17:39:50Z</time>
      </trkpt>
      <trkpt lat="44.98053" lon="6.41897">
        <ele>2273.257</ele>
        <time>2020-04-05T17:40:10Z</time>
      </trkpt>
      <trkpt lat="44.98075" lon="6.41999">
        <ele>2262.241</ele>
        <time>2020-04-05T17:40:30Z</time>
      </trkpt>
      <trkpt lat="44.98124" lon="6.42106">
        <ele>2253.042</ele>
        <time>2020-04-05T17:40:50Z</time>
      </trkpt>
      <trkpt lat="44.98139" lon="6.42102">
        <ele>2252.029</ele>
        <time>2020-04-05T17:41:10Z</time>
      </trkpt>
      <trkpt lat="44.98181" lon="6.42137">
        <ele>2252.983</ele>
        <time>2020-04-05T17:41:30Z</time>
      </trkpt>
      <trkpt lat="44.98192" lon="6.42172">
        <ele>2250.85</ele>
        <time>2020-04-05T17:41:50Z</time>
      </trkpt>
      <trkpt lat="44.98214" lon="6.4219">
        <ele>2252.147</ele>
        <time>2020-04-05T17:42:10Z</time>
      </trkpt>
      <trkpt lat="44.9822" lon="6.42222">
        <ele>2250.029</ele>
        <time>2020-04-05T17:42:30Z</time>
      </trkpt>
      <trkpt lat="44.98202" lon="6.42249">
        <ele>2250.021</ele>
        <time>2020-04-05T17:42:50Z</time>
      </trkpt>
      <trkpt lat="44.98218" lon="6.42302">
        <ele>2245.908</ele>
        <time>2020-04-05T17:43:10Z</time>
      </trkpt>
      <trkpt lat="44.98214" lon="6.42322">
        <ele>2243.41</ele>
        <time>2020-04-05T17:43:30Z</time>
      </trkpt>
      <trkpt lat="44.98235" lon="6.42363">
        <ele>2241.528</ele>
        <time>2020-04-05T17:43:50Z</time>
      </trkpt>
      <trkpt lat="44.98241" lon="6.42396">
        <ele>2238.976</ele>
        <time>2020-04-05T17:44:10Z</time>
      </trkpt>
      <trkpt lat="44.98234" lon="6.42478">
        <ele>2231.44</ele>
        <time>2020-04-05T17:44:30Z</time>
      </trkpt>
      <trkpt lat="44.9824" lon="6.42524">
        <ele>2230.161</ele>
        <time>2020-04-05T17:44:50Z</time>
      </trkpt>
      <trkpt lat="44.98241" lon="6.42636">
        <ele>2223.178</ele>
        <time>2020-04-05T17:45:10Z</time>
      </trkpt>
      <trkpt lat="44.98221" lon="6.42734">
        <ele>2220.012</ele>
        <time>2020-04-05T17:45:30Z</time>
      </trkpt>
      <trkpt lat="44.9821" lon="6.42756">
        <ele>2219.019</ele>
        <time>2020-04-05T17:45:50Z</time>
      </trkpt>
      <trkpt lat="44.98199" lon="6.42797">
        <ele>2217.051</ele>
        <time>2020-04-05T17:46:10Z</time>
      </trkpt>
      <trkpt lat="44.98182" lon="6.42864">
        <ele>2211.501</ele>
        <time>2020-04-05T17:46:30Z</time>
      </trkpt>
      <trkpt lat="44.98169" lon="6.42891">
        <ele>2207.411</ele>
        <time>2020-04-05T17:46:50Z</time>
      </trkpt>
      <trkpt lat="44.98169" lon="6.42913">
        <ele>2205.908</ele>
        <time>2020-04-05T17:47:10Z</time>
      </trkpt>
      <trkpt lat="44.98158" lon="6.42937">
        <ele>2201.571</ele>
        <time>2020-04-05T17:47:30Z</time>
      </trkpt>
      <trkpt lat="44.98156" lon="6.42948">
        <ele>2200.179</ele>
        <time>2020-04-05T17:47:50Z</time>
      </trkpt>
      <trkpt lat="44.98143" lon="6.42967">
        <ele>2196.237</ele>
        <time>2020-04-05T17:48:10Z</time>
      </trkpt>
      <trkpt lat="44.98147" lon="6.42987">
        <ele>2195.041</ele>
        <time>2020-04-05T17:48:30Z</time>
      </trkpt>
      <trkpt lat="44.98145" lon="6.42994">
        <ele>2193.992</ele>
        <time>2020-04-05T17:48:50Z</time>
      </trkpt>
      <trkpt lat="44.98146" lon="6.43012">
        <ele>2192.359</ele>
        <time>2020-04-05T17:49:10Z</time>
      </trkpt>
      <trkpt lat="44.98127" lon="6.43118">
        <ele>2179.543</ele>
        <time>2020-04-05T17:49:30Z</time>
      </trkpt>
      <trkpt lat="44.98128" lon="6.43158">
        <ele>2176.11</ele>
        <time>2020-04-05T17:49:50Z</time>
      </trkpt>
      <trkpt lat="44.98112" lon="6.43241">
        <ele>2170.114</ele>
        <time>2020-04-05T17:50:10Z</time>
      </trkpt>
      <trkpt lat="44.98103" lon="6.43269">
        <ele>2170.154</ele>
        <time>2020-04-05T17:50:30Z</time>
      </trkpt>
      <trkpt lat="44.98101" lon="6.43331">
        <ele>2168.709</ele>
        <time>2020-04-05T17:50:50Z</time>
      </trkpt>
      <trkpt lat="44.98091" lon="6.4336">
        <ele>2166.908</ele>
        <time>2020-04-05T17:51:10Z</time>
      </trkpt>
      <trkpt lat="44.98084" lon="6.43426">
        <ele>2163.777</ele>
        <time>2020-04-05T17:51:30Z</time>
      </trkpt>
      <trkpt lat="44.98076" lon="6.43439">
        <ele>2162.325</ele>
        <time>2020-04-05T17:51:50Z</time>
      </trkpt>
      <trkpt lat="44.98072" lon="6.43475">
        <ele>2162.433</ele>
        <time>2020-04-05T17:52:10Z</time>
      </trkpt>
      <trkpt lat="44.98075" lon="6.435">
        <ele>2162.527</ele>
        <time>2020-04-05T17:52:30Z</time>
      </trkpt>
      <trkpt lat="44.98078" lon="6.43523">
        <ele>2163.148</ele>
        <time>2020-04-05T17:52:50Z</time>
      </trkpt>
      <trkpt lat="44.98062" lon="6.43586">
        <ele>2157.845</ele>
        <time>2020-04-05T17:53:10Z</time>
      </trkpt>
      <trkpt lat="44.9807" lon="6.43635">
        <ele>2159.329</ele>
        <time>2020-04-05T17:53:30Z</time>
      </trkpt>
      <trkpt lat="44.98061" lon="6.43672">
        <ele>2152.946</ele>
        <time>2020-04-05T17:53:50Z</time>
      </trkpt>
      <trkpt lat="44.98067" lon="6.4374">
        <ele>2151.492</ele>
        <time>2020-04-05T17:54:10Z</time>
      </trkpt>
      <trkpt lat="44.98053" lon="6.43832">
        <ele>2154.173</ele>
        <time>2020-04-05T17:54:30Z</time>
      </trkpt>
      <trkpt lat="44.98042" lon="6.4387">
        <ele>2154.92</ele>
        <time>2020-04-05T17:54:50Z</time>
      </trkpt>
      <trkpt lat="44.98028" lon="6.43876">
        <ele>2147.008</ele>
        <time>2020-04-05T17:55:10Z</time>
      </trkpt>
      <trkpt lat="44.98006" lon="6.43918">
        <ele>2142.495</ele>
        <time>2020-04-05T17:55:30Z</time>
      </trkpt>
      <trkpt lat="44.97989" lon="6.43962">
        <ele>2134.413</ele>
        <time>2020-04-05T17:55:50Z</time>
      </trkpt>
      <trkpt lat="44.97986" lon="6.43988">
        <ele>2135.711</ele>
        <time>2020-04-05T17:56:10Z</time>
      </trkpt>
      <trkpt lat="44.9797" lon="6.4402">
        <ele>2126.935</ele>
        <time>2020-04-05T17:56:30Z</time>
      </trkpt>
      <trkpt lat="44.97964" lon="6.44051">
        <ele>2123.976</ele>
        <time>2020-04-05T17:56:50Z</time>
      </trkpt>
      <trkpt lat="44.97952" lon="6.44063">
        <ele>2115.983</ele>
        <time>2020-04-05T17:57:10Z</time>
      </trkpt>
      <trkpt lat="44.9792" lon="6.44202">
        <ele>2086.437</ele>
        <time>2020-04-05T17:57:30Z</time>
      </trkpt>
      <trkpt lat="44.97925" lon="6.44223">
        <ele>2089.224</ele>
        <time>2020-04-05T17:57:50Z</time>
      </trkpt>
      <trkpt lat="44.97913" lon="6.4426">
        <ele>2079.794</ele>
        <time>2020-04-05T17:58:10Z</time>
      </trkpt>
      <trkpt lat="44.97906" lon="6.44225">
        <ele>2074.457</ele>
        <time>2020-04-05T17:58:30Z</time>
      </trkpt>
      <trkpt lat="44.97879" lon="6.44261">
        <ele>2057.822</ele>
        <time>2020-04-05T17:58:50Z</time>
      </trkpt>
      <trkpt lat="44.97876" lon="6.44285">
        <ele>2054.708</ele>
        <time>2020-04-05T17:59:10Z</time>
      </trkpt>
      <trkpt lat="44.97879" lon="6.44306">
        <ele>2056.175</ele>
        <time>2020-04-05T17:59:30Z</time>
      </trkpt>
      <trkpt lat="44.97868" lon="6.44341">
        <ele>2046.213</ele>
        <time>2020-04-05T17:59:50Z</time>
      </trkpt>
      <trkpt lat="44.97852" lon="6.44308">
        <ele>2037.721</ele>
        <time>2020-04-05T18:00:10Z</time>
      </trkpt>
      <trkpt lat="44.97854" lon="6.44347">
        <ele>2036.595</ele>
        <time>2020-04-05T18:00:30Z</time>
      </trkpt>
      <trkpt lat="44.97844" lon="6.44385">
        <ele>2029.576</ele>
        <time>2020-04-05T18:00:50Z</time>
      </trkpt>
      <trkpt lat="44.97834" lon="6.4438">
        <ele>2021.543</ele>
        <time>2020-04-05T18:01:10Z</time>
      </trkpt>
      <trkpt lat="44.97828" lon="6.444">
        <ele>2019.047</ele>
        <time>2020-04-05T18:01:30Z</time>
      </trkpt>
      <trkpt lat="44.97813" lon="6.44379">
        <ele>2009.884</ele>
        <time>2020-04-05T18:01:50Z</time>
      </trkpt>
      <trkpt lat="44.97812" lon="6.44419">
        <ele>2008.576</ele>
        <time>2020-04-05T18:02:10Z</time>
      </trkpt>
      <trkpt lat="44.97798" lon="6.44435">
        <ele>2001.09</ele>
        <time>2020-04-05T18:02:30Z</time>
      </trkpt>
      <trkpt lat="44.97787" lon="6.44453">
        <ele>1995.119</ele>
        <time>2020-04-05T18:02:50Z</time>
      </trkpt>
      <trkpt lat="44.97784" lon="6.44478">
        <ele>1992.408</ele>
        <time>2020-04-05T18:03:10Z</time>
      </trkpt>
      <trkpt lat="44.97775" lon="6.44469">
        <ele>1986.153</ele>
        <time>2020-04-05T18:03:30Z</time>
      </trkpt>
      <trkpt lat="44.97772" lon="6.44497">
        <ele>1984.061</ele>
        <time>2020-04-05T18:03:50Z</time>
      </trkpt>
      <trkpt lat="44.97766" lon="6.44489">
        <ele>1980.979</ele>
        <time>2020-04-05T18:04:10Z</time>
      </trkpt>
      <trkpt lat="44.97763" lon="6.44524">
        <ele>1975.973</ele>
        <time>2020-04-05T18:04:30Z</time>
      </trkpt>
      <trkpt lat="44.9775" lon="6.44521">
        <ele>1967.834</ele>
        <time>2020-04-05T18:04:50Z</time>
      </trkpt>
      <trkpt lat="44.97742" lon="6.44599">
        <ele>1956.951</ele>
        <time>2020-04-05T18:05:10Z</time>
      </trkpt>
      <trkpt lat="44.97732" lon="6.44584">
        <ele>1949.585</ele>
        <time>2020-04-05T18:05:30Z</time>
      </trkpt>
      <trkpt lat="44.97725" lon="6.44619">
        <ele>1942.282</ele>
        <time>2020-04-05T18:05:50Z</time>
      </trkpt>
      <trkpt lat="44.97716" lon="6.44614">
        <ele>1936.183</ele>
        <time>2020-04-05T18:06:10Z</time>
      </trkpt>
      <trkpt lat="44.97714" lon="6.44639">
        <ele>1934.425</ele>
        <time>2020-04-05T18:06:30Z</time>
      </trkpt>
      <trkpt lat="44.97706" lon="6.44668">
        <ele>1927.517</ele>
        <time>2020-04-05T18:06:50Z</time>
      </trkpt>
      <trkpt lat="44.977" lon="6.44663">
        <ele>1922.908</ele>
        <time>2020-04-05T18:07:10Z</time>
      </trkpt>
      <trkpt lat="44.97691" lon="6.44713">
        <ele>1917.124</ele>
        <time>2020-04-05T18:07:30Z</time>
      </trkpt>
      <trkpt lat="44.97643" lon="6.44817">
        <ele>1903.222</ele>
        <time>2020-04-05T18:07:50Z</time>
      </trkpt>
      <trkpt lat="44.97611" lon="6.44808">
        <ele>1904.89</ele>
        <time>2020-04-05T18:08:10Z</time>
      </trkpt>
      <trkpt lat="44.97609" lon="6.44846">
        <ele>1901.774</ele>
        <time>2020-04-05T18:08:30Z</time>
      </trkpt>
      <trkpt lat="44.97599" lon="6.44862">
        <ele>1902.925</ele>
        <time>2020-04-05T18:08:50Z</time>
      </trkpt>
      <trkpt lat="44.976" lon="6.44903">
        <ele>1899.412</ele>
        <time>2020-04-05T18:09:10Z</time>
      </trkpt>
      <trkpt lat="44.97595" lon="6.44926">
        <ele>1898.776</ele>
        <time>2020-04-05T18:09:30Z</time>
      </trkpt>
      <trkpt lat="44.97596" lon="6.44976">
        <ele>1893.363</ele>
        <time>2020-04-05T18:09:50Z</time>
      </trkpt>
      <trkpt lat="44.9758" lon="6.45021">
        <ele>1890.592</ele>
        <time>2020-04-05T18:10:10Z</time>
      </trkpt>
      <trkpt lat="44.97577" lon="6.45053">
        <ele>1886.273</ele>
        <time>2020-04-05T18:10:30Z</time>
      </trkpt>
      <trkpt lat="44.97559" lon="6.45082">
        <ele>1884.72</ele>
        <time>2020-04-05T18:10:50Z</time>
      </trkpt>
      <trkpt lat="44.97565" lon="6.45095">
        <ele>1881.608</ele>
        <time>2020-04-05T18:11:10Z</time>
      </trkpt>
      <trkpt lat="44.97546" lon="6.45155">
        <ele>1874.775</ele>
        <time>2020-04-05T18:11:30Z</time>
      </trkpt>
      <trkpt lat="44.97543" lon="6.45198">
        <ele>1867.343</ele>
        <time>2020-04-05T18:11:50Z</time>
      </trkpt>
      <trkpt lat="44.97549" lon="6.45214">
        <ele>1864.551</ele>
        <time>2020-04-05T18:12:10Z</time>
      </trkpt>
      <trkpt lat="44.97545" lon="6.45276">
        <ele>1855.015</ele>
        <time>2020-04-05T18:12:30Z</time>
      </trkpt>
      <trkpt lat="44.97548" lon="6.45332">
        <ele>1845.696</ele>
        <time>2020-04-05T18:12:50Z</time>
      </trkpt>
      <trkpt lat="44.97557" lon="6.45365">
        <ele>1838.423</ele>
        <time>2020-04-05T18:13:10Z</time>
      </trkpt>
      <trkpt lat="44.97568" lon="6.45381">
        <ele>1834.777</ele>
        <time>2020-04-05T18:13:30Z</time>
      </trkpt>
      <trkpt lat="44.97574" lon="6.45406">
        <ele>1830.334</ele>
        <time>2020-04-05T18:13:50Z</time>
      </trkpt>
      <trkpt lat="44.97581" lon="6.45454">
        <ele>1823.067</ele>
        <time>2020-04-05T18:14:10Z</time>
      </trkpt>
      <trkpt lat="44.97596" lon="6.45477">
        <ele>1815.781</ele>
        <time>2020-04-05T18:14:30Z</time>
      </trkpt>
      <trkpt lat="44.97599" lon="6.45526">
        <ele>1809.119</ele>
        <time>2020-04-05T18:14:50Z</time>
      </trkpt>
      <trkpt lat="44.97612" lon="6.45563">
        <ele>1803.108</ele>
        <time>2020-04-05T18:15:10Z</time>
      </trkpt>
      <trkpt lat="44.97634" lon="6.45585">
        <ele>1793.322</ele>
        <time>2020-04-05T18:15:30Z</time>
      </trkpt>
      <trkpt lat="44.97646" lon="6.45646">
        <ele>1783.84</ele>
        <time>2020-04-05T18:15:50Z</time>
      </trkpt>
      <trkpt lat="44.9768" lon="6.45713">
        <ele>1770.268</ele>
        <time>2020-04-05T18:16:10Z</time>
      </trkpt>
      <trkpt lat="44.97679" lon="6.45745">
        <ele>1764.642</ele>
        <time>2020-04-05T18:16:30Z</time>
      </trkpt>
      <trkpt lat="44.97665" lon="6.45834">
        <ele>1755.393</ele>
        <time>2020-04-05T18:16:50Z</time>
      </trkpt>
      <trkpt lat="44.97672" lon="6.45866">
        <ele>1750.57</ele>
        <time>2020-04-05T18:17:10Z</time>
      </trkpt>
      <trkpt lat="44.97687" lon="6.45889">
        <ele>1745.034</ele>
        <time>2020-04-05T18:17:30Z</time>
      </trkpt>
      <trkpt lat="44.9768" lon="6.45939">
        <ele>1740.251</ele>
        <time>2020-04-05T18:17:50Z</time>
      </trkpt>
      <trkpt lat="44.97684" lon="6.45971">
        <ele>1735.748</ele>
        <time>2020-04-05T18:18:10Z</time>
      </trkpt>
      <trkpt lat="44.97697" lon="6.45997">
        <ele>1730.961</ele>
        <time>2020-04-05T18:18:30Z</time>
      </trkpt>
      <trkpt lat="44.97696" lon="6.46019">
        <ele>1728.717</ele>
        <time>2020-04-05T18:18:50Z</time>
      </trkpt>
      <trkpt lat="44.97712" lon="6.46098">
        <ele>1719.008</ele>
        <time>2020-04-05T18:19:10Z</time>
      </trkpt>
      <trkpt lat="44.9773" lon="6.46125">
        <ele>1715.38</ele>
        <time>2020-04-05T18:19:30Z</time>
      </trkpt>
      <trkpt lat="44.97737" lon="6.46145">
        <ele>1712.748</ele>
        <time>2020-04-05T18:19:50Z</time>
      </trkpt>
      <trkpt lat="44.97747" lon="6.4619">
        <ele>1706.846</ele>
        <time>2020-04-05T18:20:10Z</time>
      </trkpt>
      <trkpt lat="44.97785" lon="6.46262">
        <ele>1700.09</ele>
        <time>2020-04-05T18:20:30Z</time>
      </trkpt>
      <trkpt lat="44.97852" lon="6.463">
        <ele>1690.021</ele>
        <time>2020-04-05T18:20:50Z</time>
      </trkpt>
      <trkpt lat="44.97875" lon="6.4632">
        <ele>1684.288</ele>
        <time>2020-04-05T18:21:10Z</time>
      </trkpt>
      <trkpt lat="44.97869" lon="6.46333">
        <ele>1686.022</ele>
        <time>2020-04-05T18:21:30Z</time>
      </trkpt>
      <trkpt lat="44.97868" lon="6.46351">
        <ele>1689.249</ele>
        <time>2020-04-05T18:21:50Z</time>
      </trkpt>
      <trkpt lat="44.97875" lon="6.46362">
        <ele>1688.587</ele>
        <time>2020-04-05T18:22:10Z</time>
      </trkpt>
      <trkpt lat="44.97896" lon="6.46366">
        <ele>1682.942</ele>
        <time>2020-04-05T18:22:30Z</time>
      </trkpt>
      <trkpt lat="44.9791" lon="6.46418">
        <ele>1682.126</ele>
        <time>2020-04-05T18:22:50Z</time>
      </trkpt>
      <trkpt lat="44.9792" lon="6.4644">
        <ele>1679.908</ele>
        <time>2020-04-05T18:23:10Z</time>
      </trkpt>
      <trkpt lat="44.97932" lon="6.4645">
        <ele>1677.134</ele>
        <time>2020-04-05T18:23:30Z</time>
      </trkpt>
      <trkpt lat="44.97952" lon="6.46479">
        <ele>1674.772</ele>
        <time>2020-04-05T18:23:50Z</time>
      </trkpt>
      <trkpt lat="44.97975" lon="6.46503">
        <ele>1668.72</ele>
        <time>2020-04-05T18:24:10Z</time>
      </trkpt>
      <trkpt lat="44.97991" lon="6.46543">
        <ele>1667.194</ele>
        <time>2020-04-05T18:24:30Z</time>
      </trkpt>
      <trkpt lat="44.98009" lon="6.46598">
        <ele>1663.895</ele>
        <time>2020-04-05T18:24:50Z</time>
      </trkpt>
      <trkpt lat="44.98011" lon="6.46618">
        <ele>1663.722</ele>
        <time>2020-04-05T18:25:10Z</time>
      </trkpt>
      <trkpt lat="44.9802" lon="6.46625">
        <ele>1660.586</ele>
        <time>2020-04-05T18:25:30Z</time>
      </trkpt>
      <trkpt lat="44.98049" lon="6.46662">
        <ele>1650.193</ele>
        <time>2020-04-05T18:25:50Z</time>
      </trkpt>
      <trkpt lat="44.98074" lon="6.46685">
        <ele>1640.758</ele>
        <time>2020-04-05T18:26:10Z</time>
      </trkpt>
      <trkpt lat="44.98083" lon="6.46708">
        <ele>1638.252</ele>
        <time>2020-04-05T18:26:30Z</time>
      </trkpt>
      <trkpt lat="44.98114" lon="6.46745">
        <ele>1629.917</ele>
        <time>2020-04-05T18:26:50Z</time>
      </trkpt>
      <trkpt lat="44.98123" lon="6.46762">
        <ele>1627.608</ele>
        <time>2020-04-05T18:27:10Z</time>
      </trkpt>
      <trkpt lat="44.98124" lon="6.4678">
        <ele>1628.081</ele>
        <time>2020-04-05T18:27:30Z</time>
      </trkpt>
      <trkpt lat="44.98119" lon="6.46815">
        <ele>1632.689</ele>
        <time>2020-04-05T18:27:50Z</time>
      </trkpt>
      <trkpt lat="44.98121" lon="6.46826">
        <ele>1633.557</ele>
        <time>2020-04-05T18:28:10Z</time>
      </trkpt>
      <trkpt lat="44.98131" lon="6.46825">
        <ele>1629.261</ele>
        <time>2020-04-05T18:28:30Z</time>
      </trkpt>
      <trkpt lat="44.98141" lon="6.46813">
        <ele>1623.782</ele>
        <time>2020-04-05T18:28:50Z</time>
      </trkpt>
      <trkpt lat="44.9815" lon="6.46792">
        <ele>1621.079</ele>
        <time>2020-04-05T18:29:10Z</time>
      </trkpt>
      <trkpt lat="44.98164" lon="6.46786">
        <ele>1618.683</ele>
        <time>2020-04-05T18:29:30Z</time>
      </trkpt>
      <trkpt lat="44.98171" lon="6.46794">
        <ele>1617.58</ele>
        <time>2020-04-05T18:29:50Z</time>
      </trkpt>
      <trkpt lat="44.98172" lon="6.46879">
        <ele>1618.692</ele>
        <time>2020-04-05T18:30:10Z</time>
      </trkpt>
      <trkpt lat="44.98181" lon="6.46903">
        <ele>1620.273</ele>
        <time>2020-04-05T18:30:30Z</time>
      </trkpt>
      <trkpt lat="44.98194" lon="6.46922">
        <ele>1617.42</ele>
        <time>2020-04-05T18:30:50Z</time>
      </trkpt>
      <trkpt lat="44.98205" lon="6.4692">
        <ele>1612.408</ele>
        <time>2020-04-05T18:31:10Z</time>
      </trkpt>
      <trkpt lat="44.98222" lon="6.46902">
        <ele>1603.775</ele>
        <time>2020-04-05T18:31:30Z</time>
      </trkpt>
      <trkpt lat="44.98233" lon="6.46901">
        <ele>1602.063</ele>
        <time>2020-04-05T18:31:50Z</time>
      </trkpt>
      <trkpt lat="44.98239" lon="6.4691">
        <ele>1601.051</ele>
        <time>2020-04-05T18:32:10Z</time>
      </trkpt>
      <trkpt lat="44.98246" lon="6.46934">
        <ele>1600.145</ele>
        <time>2020-04-05T18:32:30Z</time>
      </trkpt>
      <trkpt lat="44.98301" lon="6.46995">
        <ele>1586.716</ele>
        <time>2020-04-05T18:32:50Z</time>
      </trkpt>
      <trkpt lat="44.98347" lon="6.4702">
        <ele>1579.753</ele>
        <time>2020-04-05T18:33:10Z</time>
      </trkpt>
      <trkpt lat="44.98353" lon="6.47037">
        <ele>1578.817</ele>
        <time>2020-04-05T18:33:30Z</time>
      </trkpt>
      <trkpt lat="44.98348" lon="6.47046">
        <ele>1578.814</ele>
        <time>2020-04-05T18:33:50Z</time>
      </trkpt>
      <trkpt lat="44.98331" lon="6.47047">
        <ele>1580.235</ele>
        <time>2020-04-05T18:34:10Z</time>
      </trkpt>
      <trkpt lat="44.98315" lon="6.4707">
        <ele>1581.786</ele>
        <time>2020-04-05T18:34:30Z</time>
      </trkpt>
      <trkpt lat="44.98303" lon="6.47075">
        <ele>1584.814</ele>
        <time>2020-04-05T18:34:50Z</time>
      </trkpt>
      <trkpt lat="44.98304" lon="6.47085">
        <ele>1584.808</ele>
        <time>2020-04-05T18:35:10Z</time>
      </trkpt>
      <trkpt lat="44.98315" lon="6.47103">
        <ele>1585.779</ele>
        <time>2020-04-05T18:35:30Z</time>
      </trkpt>
      <trkpt lat="44.98324" lon="6.47108">
        <ele>1583.327</ele>
        <time>2020-04-05T18:35:50Z</time>
      </trkpt>
      <trkpt lat="44.98339" lon="6.4708">
        <ele>1579.025</ele>
        <time>2020-04-05T18:36:10Z</time>
      </trkpt>
      <trkpt lat="44.98352" lon="6.47079">
        <ele>1576.989</ele>
        <time>2020-04-05T18:36:30Z</time>
      </trkpt>
      <trkpt lat="44.98345" lon="6.47106">
        <ele>1577.24</ele>
        <time>2020-04-05T18:36:50Z</time>
      </trkpt>
      <trkpt lat="44.98376" lon="6.47144">
        <ele>1566.077</ele>
        <time>2020-04-05T18:37:10Z</time>
      </trkpt>
      <trkpt lat="44.98408" lon="6.47215">
        <ele>1560.521</ele>
        <time>2020-04-05T18:37:30Z</time>
      </trkpt>
      <trkpt lat="44.98428" lon="6.47306">
        <ele>1559.648</ele>
        <time>2020-04-05T18:37:50Z</time>
      </trkpt>
      <trkpt lat="44.98455" lon="6.47396">
        <ele>1555.522</ele>
        <time>2020-04-05T18:38:10Z</time>
      </trkpt>
      <trkpt lat="44.98466" lon="6.47506">
        <ele>1548.762</ele>
        <time>2020-04-05T18:38:30Z</time>
      </trkpt>
      <trkpt lat="44.98509" lon="6.47583">
        <ele>1539.708</ele>
        <time>2020-04-05T18:38:50Z</time>
      </trkpt>
      <trkpt lat="44.98537" lon="6.47672">
        <ele>1537.408</ele>
        <time>2020-04-05T18:39:10Z</time>
      </trkpt>
      <trkpt lat="44.98561" lon="6.47797">
        <ele>1532.068</ele>
        <time>2020-04-05T18:39:30Z</time>
      </trkpt>
      <trkpt lat="44.98604" lon="6.47895">
        <ele>1529.116</ele>
        <time>2020-04-05T18:39:50Z</time>
      </trkpt>
      <trkpt lat="44.98633" lon="6.47997">
        <ele>1523.254</ele>
        <time>2020-04-05T18:40:10Z</time>
      </trkpt>
      <trkpt lat="44.98661" lon="6.48064">
        <ele>1518.868</ele>
        <time>2020-04-05T18:40:30Z</time>
      </trkpt>
      <trkpt lat="44.9871" lon="6.48077">
        <ele>1517.829</ele>
        <time>2020-04-05T18:40:50Z</time>
      </trkpt>
      <trkpt lat="44.98741" lon="6.48116">
        <ele>1516.186</ele>
        <time>2020-04-05T18:41:10Z</time>
      </trkpt>
      <trkpt lat="44.98736" lon="6.48178">
        <ele>1516.49</ele>
        <time>2020-04-05T18:41:30Z</time>
      </trkpt>
      <trkpt lat="44.98719" lon="6.48201">
        <ele>1516.047</ele>
        <time>2020-04-05T18:41:50Z</time>
      </trkpt>
      <trkpt lat="44.98676" lon="6.48228">
        <ele>1513.928</ele>
        <time>2020-04-05T18:42:10Z</time>
      </trkpt>
      <trkpt lat="44.98664" lon="6.48246">
        <ele>1513.689</ele>
        <time>2020-04-05T18:42:30Z</time>
      </trkpt>
      <trkpt lat="44.98656" lon="6.48263">
        <ele>1513.517</ele>
        <time>2020-04-05T18:42:50Z</time>
      </trkpt>
      <trkpt lat="44.9864" lon="6.48254">
        <ele>1512.108</ele>
        <time>2020-04-05T18:43:10Z</time>
      </trkpt>
      <trkpt lat="44.98627" lon="6.48268">
        <ele>1511.788</ele>
        <time>2020-04-05T18:43:30Z</time>
      </trkpt>
      <trkpt lat="44.98597" lon="6.48286">
        <ele>1510.876</ele>
        <time>2020-04-05T18:43:50Z</time>
      </trkpt>
      <trkpt lat="44.98575" lon="6.48276">
        <ele>1511.414</ele>
        <time>2020-04-05T18:44:10Z</time>
      </trkpt>
      <trkpt lat="44.98506" lon="6.48315">
        <ele>1511.488</ele>
        <time>2020-04-05T18:44:30Z</time>
      </trkpt>
      <trkpt lat="44.98484" lon="6.48339">
        <ele>1510.729</ele>
        <time>2020-04-05T18:44:50Z</time>
      </trkpt>
      <trkpt lat="44.98467" lon="6.48341">
        <ele>1510.956</ele>
        <time>2020-04-05T18:45:10Z</time>
      </trkpt>
      <trkpt lat="44.98397" lon="6.48377">
        <ele>1510.46</ele>
        <time>2020-04-05T18:45:30Z</time>
      </trkpt>
      <trkpt lat="44.98384" lon="6.48414">
        <ele>1509.357</ele>
        <time>2020-04-05T18:45:50Z</time>
      </trkpt>
      <trkpt lat="44.98362" lon="6.48428">
        <ele>1509.683</ele>
        <time>2020-04-05T18:46:10Z</time>
      </trkpt>
      <trkpt lat="44.98342" lon="6.4846">
        <ele>1509.125</ele>
        <time>2020-04-05T18:46:30Z</time>
      </trkpt>
      <trkpt lat="44.9833" lon="6.48502">
        <ele>1508.117</ele>
        <time>2020-04-05T18:46:50Z</time>
      </trkpt>
      <trkpt lat="44.98285" lon="6.48548">
        <ele>1509.808</ele>
        <time>2020-04-05T18:47:10Z</time>
      </trkpt>
      <trkpt lat="44.98278" lon="6.48583">
        <ele>1508.064</ele>
        <time>2020-04-05T18:47:30Z</time>
      </trkpt>
      <trkpt lat="44.98281" lon="6.48623">
        <ele>1505.032</ele>
        <time>2020-04-05T18:47:50Z</time>
      </trkpt>
      <trkpt lat="44.98276" lon="6.4867">
        <ele>1501.96</ele>
        <time>2020-04-05T18:48:10Z</time>
      </trkpt>
      <trkpt lat="44.98228" lon="6.48763">
        <ele>1499.484</ele>
        <time>2020-04-05T18:48:30Z</time>
      </trkpt>
      <trkpt lat="44.98203" lon="6.48829">
        <ele>1498.915</ele>
        <time>2020-04-05T18:48:50Z</time>
      </trkpt>
      <trkpt lat="44.982" lon="6.48857">
        <ele>1498.092</ele>
        <time>2020-04-05T18:49:10Z</time>
      </trkpt>
      <trkpt lat="44.9818" lon="6.48912">
        <ele>1498.116</ele>
        <time>2020-04-05T18:49:30Z</time>
      </trkpt>
      <trkpt lat="44.98154" lon="6.48947">
        <ele>1498.823</ele>
        <time>2020-04-05T18:49:50Z</time>
      </trkpt>
      <trkpt lat="44.98107" lon="6.48974">
        <ele>1499.921</ele>
        <time>2020-04-05T18:50:10Z</time>
      </trkpt>
      <trkpt lat="44.9807" lon="6.49003">
        <ele>1498.941</ele>
        <time>2020-04-05T18:50:30Z</time>
      </trkpt>
      <trkpt lat="44.98046" lon="6.49044">
        <ele>1498.105</ele>
        <time>2020-04-05T18:50:50Z</time>
      </trkpt>
      <trkpt lat="44.98038" lon="6.4907">
        <ele>1497.508</ele>
        <time>2020-04-05T18:51:10Z</time>
      </trkpt>
      <trkpt lat="44.9804" lon="6.49122">
        <ele>1495.678</ele>
        <time>2020-04-05T18:51:30Z</time>
      </trkpt>
      <trkpt lat="44.98024" lon="6.49189">
        <ele>1493.386</ele>
        <time>2020-04-05T18:51:50Z</time>
      </trkpt>
      <trkpt lat="44.97985" lon="6.49244">
        <ele>1492.234</ele>
        <time>2020-04-05T18:52:10Z</time>
      </trkpt>
      <trkpt lat="44.97961" lon="6.49318">
        <ele>1490.638</ele>
        <time>2020-04-05T18:52:30Z</time>
      </trkpt>
      <trkpt lat="44.97929" lon="6.49389">
        <ele>1488.639</ele>
        <time>2020-04-05T18:52:50Z</time>
      </trkpt>
      <trkpt lat="44.97896" lon="6.49475">
        <ele>1486.686</ele>
        <time>2020-04-05T18:53:10Z</time>
      </trkpt>
      <trkpt lat="44.97885" lon="6.49525">
        <ele>1485.25</ele>
        <time>2020-04-05T18:53:30Z</time>
      </trkpt>
      <trkpt lat="44.97866" lon="6.49559">
        <ele>1483.747</ele>
        <time>2020-04-05T18:53:50Z</time>
      </trkpt>
      <trkpt lat="44.97853" lon="6.49617">
        <ele>1481.951</ele>
        <time>2020-04-05T18:54:10Z</time>
      </trkpt>
      <trkpt lat="44.97831" lon="6.49628">
        <ele>1481.301</ele>
        <time>2020-04-05T18:54:30Z</time>
      </trkpt>
      <trkpt lat="44.97794" lon="6.49627">
        <ele>1481.111</ele>
        <time>2020-04-05T18:54:50Z</time>
      </trkpt>
      <trkpt lat="44.97764" lon="6.4964">
        <ele>1480.908</ele>
        <time>2020-04-05T18:55:10Z</time>
      </trkpt>
      <trkpt lat="44.97705" lon="6.49674">
        <ele>1479.261</ele>
        <time>2020-04-05T18:55:30Z</time>
      </trkpt>
      <trkpt lat="44.97686" lon="6.49695">
        <ele>1478.019</ele>
        <time>2020-04-05T18:55:50Z</time>
      </trkpt>
      <trkpt lat="44.97671" lon="6.49759">
        <ele>1476.297</ele>
        <time>2020-04-05T18:56:10Z</time>
      </trkpt>
      <trkpt lat="44.97649" lon="6.49789">
        <ele>1475.731</ele>
        <time>2020-04-05T18:56:30Z</time>
      </trkpt>
      <trkpt lat="44.97635" lon="6.49791">
        <ele>1475.772</ele>
        <time>2020-04-05T18:56:50Z</time>
      </trkpt>
      <trkpt lat="44.97618" lon="6.49827">
        <ele>1475.689</ele>
        <time>2020-04-05T18:57:10Z</time>
      </trkpt>
      <trkpt lat="44.97609" lon="6.49864">
        <ele>1475.113</ele>
        <time>2020-04-05T18:57:30Z</time>
      </trkpt>
      <trkpt lat="44.9759" lon="6.49889">
        <ele>1475.54</ele>
        <time>2020-04-05T18:57:50Z</time>
      </trkpt>
      <trkpt lat="44.97579" lon="6.50012">
        <ele>1479.079</ele>
        <time>2020-04-05T18:58:10Z</time>
      </trkpt>
      <trkpt lat="44.97556" lon="6.50025">
        <ele>1479.905</ele>
        <time>2020-04-05T18:58:30Z</time>
      </trkpt>
      <trkpt lat="44.97535" lon="6.50046">
        <ele>1479.325</ele>
        <time>2020-04-05T18:58:50Z</time>
      </trkpt>
      <trkpt lat="44.97491" lon="6.50064">
        <ele>1478.108</ele>
        <time>2020-04-05T18:59:10Z</time>
      </trkpt>
      <trkpt lat="44.97474" lon="6.5009">
        <ele>1478.473</ele>
        <time>2020-04-05T18:59:30Z</time>
      </trkpt>
      <trkpt lat="44.97464" lon="6.50129">
        <ele>1477.441</ele>
        <time>2020-04-05T18:59:50Z</time>
      </trkpt>
      <trkpt lat="44.97451" lon="6.50159">
        <ele>1476.559</ele>
        <time>2020-04-05T19:00:10Z</time>
      </trkpt>
      <trkpt lat="44.97437" lon="6.50176">
        <ele>1476.153</ele>
        <time>2020-04-05T19:00:30Z</time>
      </trkpt>
      <trkpt lat="44.97443" lon="6.50209">
        <ele>1474.074</ele>
        <time>2020-04-05T19:00:50Z</time>
      </trkpt>
      <trkpt lat="44.97452" lon="6.50248">
        <ele>1472.351</ele>
        <time>2020-04-05T19:01:10Z</time>
      </trkpt>
      <trkpt lat="44.97449" lon="6.50278">
        <ele>1471.035</ele>
        <time>2020-04-05T19:01:30Z</time>
      </trkpt>
      <trkpt lat="44.97425" lon="6.50351">
        <ele>1470.332</ele>
        <time>2020-04-05T19:01:50Z</time>
      </trkpt>
      <trkpt lat="44.97377" lon="6.50499">
        <ele>1469.641</ele>
        <time>2020-04-05T19:02:10Z</time>
      </trkpt>
      <trkpt lat="44.97369" lon="6.50578">
        <ele>1468.481</ele>
        <time>2020-04-05T19:02:30Z</time>
      </trkpt>
      <trkpt lat="44.97353" lon="6.50647">
        <ele>1467.409</ele>
        <time>2020-04-05T19:02:50Z</time>
      </trkpt>
      <trkpt lat="44.97266" lon="6.50541">
        <ele>1472.008</ele>
        <time>2020-04-05T19:03:10Z</time>
      </trkpt>
      <trkpt lat="44.97246" lon="6.50477">
        <ele>1474.03</ele>
        <time>2020-04-05T19:03:30Z</time>
      </trkpt>
      <trkpt lat="44.97213" lon="6.50409">
        <ele>1476.688</ele>
        <time>2020-04-05T19:03:50Z</time>
      </trkpt>
      <trkpt lat="44.97197" lon="6.50355">
        <ele>1478.266</ele>
        <time>2020-04-05T19:04:10Z</time>
      </trkpt>
      <trkpt lat="44.9717" lon="6.50308">
        <ele>1480.84</ele>
        <time>2020-04-05T19:04:30Z</time>
      </trkpt>
      <trkpt lat="44.97156" lon="6.50247">
        <ele>1485.661</ele>
        <time>2020-04-05T19:04:50Z</time>
      </trkpt>
      <trkpt lat="44.97134" lon="6.50203">
        <ele>1488.498</ele>
        <time>2020-04-05T19:05:10Z</time>
      </trkpt>
      <trkpt lat="44.97118" lon="6.5013">
        <ele>1492.792</ele>
        <time>2020-04-05T19:05:30Z</time>
      </trkpt>
      <trkpt lat="44.97099" lon="6.50102">
        <ele>1494.749</ele>
        <time>2020-04-05T19:05:50Z</time>
      </trkpt>
      <trkpt lat="44.97086" lon="6.50053">
        <ele>1498.229</ele>
        <time>2020-04-05T19:06:10Z</time>
      </trkpt>
      <trkpt lat="44.97072" lon="6.5003">
        <ele>1500.6</ele>
        <time>2020-04-05T19:06:30Z</time>
      </trkpt>
      <trkpt lat="44.97061" lon="6.49935">
        <ele>1515.52</ele>
        <time>2020-04-05T19:06:50Z</time>
      </trkpt>
      <trkpt lat="44.97044" lon="6.49935">
        <ele>1518.608</ele>
        <time>2020-04-05T19:07:10Z</time>
      </trkpt>
      <trkpt lat="44.97029" lon="6.50037">
        <ele>1511.258</ele>
        <time>2020-04-05T19:07:30Z</time>
      </trkpt>
      <trkpt lat="44.97003" lon="6.50119">
        <ele>1512.186</ele>
        <time>2020-04-05T19:07:50Z</time>
      </trkpt>
      <trkpt lat="44.96965" lon="6.50165">
        <ele>1515.844</ele>
        <time>2020-04-05T19:08:10Z</time>
      </trkpt>
      <trkpt lat="44.9696" lon="6.49919">
        <ele>1561.038</ele>
        <time>2020-04-05T19:08:30Z</time>
      </trkpt>
      <trkpt lat="44.96934" lon="6.49795">
        <ele>1579.929</ele>
        <time>2020-04-05T19:08:50Z</time>
      </trkpt>
      <trkpt lat="44.9688" lon="6.49778">
        <ele>1596.016</ele>
        <time>2020-04-05T19:09:10Z</time>
      </trkpt>
      <trkpt lat="44.96839" lon="6.49813">
        <ele>1602.27</ele>
        <time>2020-04-05T19:09:30Z</time>
      </trkpt>
      <trkpt lat="44.96814" lon="6.49874">
        <ele>1605.287</ele>
        <time>2020-04-05T19:09:50Z</time>
      </trkpt>
      <trkpt lat="44.96814" lon="6.49908">
        <ele>1604.986</ele>
        <time>2020-04-05T19:10:10Z</time>
      </trkpt>
      <trkpt lat="44.96782" lon="6.49877">
        <ele>1611.76</ele>
        <time>2020-04-05T19:10:30Z</time>
      </trkpt>
      <trkpt lat="44.96761" lon="6.49807">
        <ele>1619.126</ele>
        <time>2020-04-05T19:10:50Z</time>
      </trkpt>
      <trkpt lat="44.96738" lon="6.49783">
        <ele>1627.208</ele>
        <time>2020-04-05T19:11:10Z</time>
      </trkpt>
      <trkpt lat="44.96717" lon="6.49773">
        <ele>1635.454</ele>
        <time>2020-04-05T19:11:30Z</time>
      </trkpt>
      <trkpt lat="44.96716" lon="6.49736">
        <ele>1638.992</ele>
        <time>2020-04-05T19:11:50Z</time>
      </trkpt>
      <trkpt lat="44.96729" lon="6.49705">
        <ele>1640.16</ele>
        <time>2020-04-05T19:12:10Z</time>
      </trkpt>
      <trkpt lat="44.96776" lon="6.49661">
        <ele>1644.964</ele>
        <time>2020-04-05T19:12:30Z</time>
      </trkpt>
      <trkpt lat="44.96813" lon="6.49656">
        <ele>1643.755</ele>
        <time>2020-04-05T19:12:50Z</time>
      </trkpt>
      <trkpt lat="44.96834" lon="6.49632">
        <ele>1643.732</ele>
        <time>2020-04-05T19:13:10Z</time>
      </trkpt>
      <trkpt lat="44.9683" lon="6.4958">
        <ele>1648.446</ele>
        <time>2020-04-05T19:13:30Z</time>
      </trkpt>
      <trkpt lat="44.96849" lon="6.4955">
        <ele>1640.313</ele>
        <time>2020-04-05T19:13:50Z</time>
      </trkpt>
      <trkpt lat="44.9684" lon="6.49513">
        <ele>1642.073</ele>
        <time>2020-04-05T19:14:10Z</time>
      </trkpt>
      <trkpt lat="44.96827" lon="6.49494">
        <ele>1642.985</ele>
        <time>2020-04-05T19:14:30Z</time>
      </trkpt>
      <trkpt lat="44.96795" lon="6.49534">
        <ele>1656.413</ele>
        <time>2020-04-05T19:14:50Z</time>
      </trkpt>
      <trkpt lat="44.96764" lon="6.4955">
        <ele>1663.908</ele>
        <time>2020-04-05T19:15:10Z</time>
      </trkpt>
      <trkpt lat="44.96694" lon="6.4957">
        <ele>1680.623</ele>
        <time>2020-04-05T19:15:30Z</time>
      </trkpt>
      <trkpt lat="44.96658" lon="6.49592">
        <ele>1689.571</ele>
        <time>2020-04-05T19:15:50Z</time>
      </trkpt>
      <trkpt lat="44.96604" lon="6.49658">
        <ele>1698.249</ele>
        <time>2020-04-05T19:16:10Z</time>
      </trkpt>
      <trkpt lat="44.96592" lon="6.49614">
        <ele>1710.173</ele>
        <time>2020-04-05T19:16:30Z</time>
      </trkpt>
      <trkpt lat="44.96558" lon="6.49603">
        <ele>1723.924</ele>
        <time>2020-04-05T19:16:50Z</time>
      </trkpt>
      <trkpt lat="44.96547" lon="6.49571">
        <ele>1726.711</ele>
        <time>2020-04-05T19:17:10Z</time>
      </trkpt>
      <trkpt lat="44.96499" lon="6.49551">
        <ele>1740.685</ele>
        <time>2020-04-05T19:17:30Z</time>
      </trkpt>
      <trkpt lat="44.96338" lon="6.49524">
        <ele>1791.522</ele>
        <time>2020-04-05T19:17:50Z</time>
      </trkpt>
      <trkpt lat="44.96309" lon="6.49511">
        <ele>1797.177</ele>
        <time>2020-04-05T19:18:10Z</time>
      </trkpt>
      <trkpt lat="44.96286" lon="6.49485">
        <ele>1796.261</ele>
        <time>2020-04-05T19:18:30Z</time>
      </trkpt>
      <trkpt lat="44.9628" lon="6.49471">
        <ele>1792.927</ele>
        <time>2020-04-05T19:18:50Z</time>
      </trkpt>
      <trkpt lat="44.96232" lon="6.49452">
        <ele>1798.408</ele>
        <time>2020-04-05T19:19:10Z</time>
      </trkpt>
      <trkpt lat="44.96188" lon="6.49402">
        <ele>1795.253</ele>
        <time>2020-04-05T19:19:30Z</time>
      </trkpt>
      <trkpt lat="44.96156" lon="6.4938">
        <ele>1794.531</ele>
        <time>2020-04-05T19:19:50Z</time>
      </trkpt>
      <trkpt lat="44.9611" lon="6.4938">
        <ele>1804.799</ele>
        <time>2020-04-05T19:20:10Z</time>
      </trkpt>
      <trkpt lat="44.9606" lon="6.49398">
        <ele>1824.313</ele>
        <time>2020-04-05T19:20:30Z</time>
      </trkpt>
      <trkpt lat="44.95989" lon="6.49422">
        <ele>1854.564</ele>
        <time>2020-04-05T19:20:50Z</time>
      </trkpt>
      <trkpt lat="44.95904" lon="6.49437">
        <ele>1877.341</ele>
        <time>2020-04-05T19:21:10Z</time>
      </trkpt>
      <trkpt lat="44.95719" lon="6.49581">
        <ele>1958.785</ele>
        <time>2020-04-05T19:21:30Z</time>
      </trkpt>
      <trkpt lat="44.95695" lon="6.49579">
        <ele>1968.162</ele>
        <time>2020-04-05T19:21:50Z</time>
      </trkpt>
      <trkpt lat="44.95663" lon="6.49619">
        <ele>1978.897</ele>
        <time>2020-04-05T19:22:10Z</time>
      </trkpt>
      <trkpt lat="44.95642" lon="6.49624">
        <ele>1980.323</ele>
        <time>2020-04-05T19:22:30Z</time>
      </trkpt>
      <trkpt lat="44.95625" lon="6.49615">
        <ele>1982.225</ele>
        <time>2020-04-05T19:22:50Z</time>
      </trkpt>
      <trkpt lat="44.95621" lon="6.49594">
        <ele>1981.808</ele>
        <time>2020-04-05T19:23:10Z</time>
      </trkpt>
      <trkpt lat="44.95601" lon="6.49586">
        <ele>1982.775</ele>
        <time>2020-04-05T19:23:30Z</time>
      </trkpt>
      <trkpt lat="44.95576" lon="6.49601">
        <ele>1986.413</ele>
        <time>2020-04-05T19:23:50Z</time>
      </trkpt>
      <trkpt lat="44.95565" lon="6.496">
        <ele>1986.611</ele>
        <time>2020-04-05T19:24:10Z</time>
      </trkpt>
      <trkpt lat="44.95544" lon="6.49585">
        <ele>1987.195</ele>
        <time>2020-04-05T19:24:30Z</time>
      </trkpt>
      <trkpt lat="44.95535" lon="6.49573">
        <ele>1989.296</ele>
        <time>2020-04-05T19:24:50Z</time>
      </trkpt>
      <trkpt lat="44.95533" lon="6.49561">
        <ele>1990.373</ele>
        <time>2020-04-05T19:25:10Z</time>
      </trkpt>
      <trkpt lat="44.9552" lon="6.49548">
        <ele>1994.727</ele>
        <time>2020-04-05T19:25:30Z</time>
      </trkpt>
      <trkpt lat="44.95521" lon="6.49529">
        <ele>1996.134</ele>
        <time>2020-04-05T19:25:50Z</time>
      </trkpt>
      <trkpt lat="44.95493" lon="6.49537">
        <ele>2005.684</ele>
        <time>2020-04-05T19:26:10Z</time>
      </trkpt>
      <trkpt lat="44.95474" lon="6.49531">
        <ele>2015.907</ele>
        <time>2020-04-05T19:26:30Z</time>
      </trkpt>
      <trkpt lat="44.95455" lon="6.49553">
        <ele>2020.517</ele>
        <time>2020-04-05T19:26:50Z</time>
      </trkpt>
      <trkpt lat="44.95381" lon="6.49587">
        <ele>2039.608</ele>
        <time>2020-04-05T19:27:10Z</time>
      </trkpt>
      <trkpt lat="44.95355" lon="6.49612">
        <ele>2038.894</ele>
        <time>2020-04-05T19:27:30Z</time>
      </trkpt>
      <trkpt lat="44.9528" lon="6.49627">
        <ele>2053.152</ele>
        <time>2020-04-05T19:27:50Z</time>
      </trkpt>
      <trkpt lat="44.95266" lon="6.49642">
        <ele>2055.17</ele>
        <time>2020-04-05T19:28:10Z</time>
      </trkpt>
      <trkpt lat="44.95206" lon="6.4966">
        <ele>2064.134</ele>
        <time>2020-04-05T19:28:30Z</time>
      </trkpt>
      <trkpt lat="44.95134" lon="6.49697">
        <ele>2079.285</ele>
        <time>2020-04-05T19:28:50Z</time>
      </trkpt>
      <trkpt lat="44.95106" lon="6.49737">
        <ele>2081.542</ele>
        <time>2020-04-05T19:29:10Z</time>
      </trkpt>
      <trkpt lat="44.95066" lon="6.4976">
        <ele>2088.926</ele>
        <time>2020-04-05T19:29:30Z</time>
      </trkpt>
      <trkpt lat="44.95035" lon="6.49767">
        <ele>2093.733</ele>
        <time>2020-04-05T19:29:50Z</time>
      </trkpt>
      <trkpt lat="44.94969" lon="6.49802">
        <ele>2108.614</ele>
        <time>2020-04-05T19:30:10Z</time>
      </trkpt>
      <trkpt lat="44.94965" lon="6.49817">
        <ele>2112.554</ele>
        <time>2020-04-05T19:30:30Z</time>
      </trkpt>
      <trkpt lat="44.94927" lon="6.49852">
        <ele>2122.609</ele>
        <time>2020-04-05T19:30:50Z</time>
      </trkpt>
      <trkpt lat="44.94904" lon="6.49863">
        <ele>2129.408</ele>
        <time>2020-04-05T19:31:10Z</time>
      </trkpt>
      <trkpt lat="44.94922" lon="6.49877">
        <ele>2128.137</ele>
        <time>2020-04-05T19:31:30Z</time>
      </trkpt>
      <trkpt lat="44.94914" lon="6.49916">
        <ele>2137.875</ele>
        <time>2020-04-05T19:31:50Z</time>
      </trkpt>
      <trkpt lat="44.94882" lon="6.49966">
        <ele>2152.883</ele>
        <time>2020-04-05T19:32:10Z</time>
      </trkpt>
      <trkpt lat="44.94866" lon="6.49971">
        <ele>2153.267</ele>
        <time>2020-04-05T19:32:30Z</time>
      </trkpt>
      <trkpt lat="44.9485" lon="6.50004">
        <ele>2159.818</ele>
        <time>2020-04-05T19:32:50Z</time>
      </trkpt>
      <trkpt lat="44.94921" lon="6.50033">
        <ele>2171.225</ele>
        <time>2020-04-05T19:33:10Z</time>
      </trkpt>
      <trkpt lat="44.94859" lon="6.5006">
        <ele>2173.119</ele>
        <time>2020-04-05T19:33:30Z</time>
      </trkpt>
      <trkpt lat="44.94818" lon="6.50069">
        <ele>2177.676</ele>
        <time>2020-04-05T19:33:50Z</time>
      </trkpt>
      <trkpt lat="44.9478" lon="6.50101">
        <ele>2188.314</ele>
        <time>2020-04-05T19:34:10Z</time>
      </trkpt>
      <trkpt lat="44.94763" lon="6.50144">
        <ele>2197.554</ele>
        <time>2020-04-05T19:34:30Z</time>
      </trkpt>
      <trkpt lat="44.94704" lon="6.50164">
        <ele>2210.709</ele>
        <time>2020-04-05T19:34:50Z</time>
      </trkpt>
      <trkpt lat="44.9469" lon="6.50144">
        <ele>2214.108</ele>
        <time>2020-04-05T19:35:10Z</time>
      </trkpt>
      <trkpt lat="44.94634" lon="6.5017">
        <ele>2226.627</ele>
        <time>2020-04-05T19:35:30Z</time>
      </trkpt>
      <trkpt lat="44.94581" lon="6.50213">
        <ele>2235.695</ele>
        <time>2020-04-05T19:35:50Z</time>
      </trkpt>
      <trkpt lat="44.94529" lon="6.50194">
        <ele>2241.083</ele>
        <time>2020-04-05T19:36:10Z</time>
      </trkpt>
      <trkpt lat="44.94459" lon="6.50179">
        <ele>2252.427</ele>
        <time>2020-04-05T19:36:30Z</time>
      </trkpt>
      <trkpt lat="44.94362" lon="6.50147">
        <ele>2269.728</ele>
        <time>2020-04-05T19:36:50Z</time>
      </trkpt>
      <trkpt lat="44.94313" lon="6.50144">
        <ele>2280.035</ele>
        <time>2020-04-05T19:37:10Z</time>
      </trkpt>
      <trkpt lat="44.94222" lon="6.50162">
        <ele>2295.369</ele>
        <time>2020-04-05T19:37:30Z</time>
      </trkpt>
      <trkpt lat="44.94143" lon="6.50192">
        <ele>2311.496</ele>
        <time>2020-04-05T19:37:50Z</time>
      </trkpt>
      <trkpt lat="44.94133" lon="6.50237">
        <ele>2315.522</ele>
        <time>2020-04-05T19:38:10Z</time>
      </trkpt>
      <trkpt lat="44.94193" lon="6.50323">
        <ele>2320.062</ele>
        <time>2020-04-05T19:38:30Z</time>
      </trkpt>
      <trkpt lat="44.94191" lon="6.5034">
        <ele>2323.808</ele>
        <time>2020-04-05T19:38:50Z</time>
      </trkpt>
      <trkpt lat="44.94076" lon="6.50332">
        <ele>2340.908</ele>
        <time>2020-04-05T19:39:10Z</time>
      </trkpt>
      <trkpt lat="44.94021" lon="6.50289">
        <ele>2350.488</ele>
        <time>2020-04-05T19:39:30Z</time>
      </trkpt>
      <trkpt lat="44.93972" lon="6.5028">
        <ele>2358.526</ele>
        <time>2020-04-05T19:39:50Z</time>
      </trkpt>
      <trkpt lat="44.93885" lon="6.50302">
        <ele>2377.114</ele>
        <time>2020-04-05T19:40:10Z</time>
      </trkpt>
      <trkpt lat="44.93789" lon="6.5034">
        <ele>2396.688</ele>
        <time>2020-04-05T19:40:30Z</time>
      </trkpt>
      <trkpt lat="44.93751" lon="6.50392">
        <ele>2399.639</ele>
        <time>2020-04-05T19:40:50Z</time>
      </trkpt>
      <trkpt lat="44.93694" lon="6.50411">
        <ele>2403.766</ele>
        <time>2020-04-05T19:41:10Z</time>
      </trkpt>
      <trkpt lat="44.93647" lon="6.50407">
        <ele>2402.93</ele>
        <time>2020-04-05T19:41:30Z</time>
      </trkpt>
      <trkpt lat="44.93579" lon="6.50388">
        <ele>2412.937</ele>
        <time>2020-04-05T19:41:50Z</time>
      </trkpt>
      <trkpt lat="44.93518" lon="6.50388">
        <ele>2420.748</ele>
        <time>2020-04-05T19:42:10Z</time>
      </trkpt>
      <trkpt lat="44.93484" lon="6.50428">
        <ele>2428.461</ele>
        <time>2020-04-05T19:42:30Z</time>
      </trkpt>
      <trkpt lat="44.93485" lon="6.50441">
        <ele>2429.217</ele>
        <time>2020-04-05T19:42:50Z</time>
      </trkpt>
      <trkpt lat="44.93447" lon="6.50469">
        <ele>2423.008</ele>
        <time>2020-04-05T19:43:10Z</time>
      </trkpt>
      <trkpt lat="44.93362" lon="6.50556">
        <ele>2405.51</ele>
        <time>2020-04-05T19:43:30Z</time>
      </trkpt>
      <trkpt lat="44.93335" lon="6.50612">
        <ele>2403.678</ele>
        <time>2020-04-05T19:43:50Z</time>
      </trkpt>
      <trkpt lat="44.93308" lon="6.50624">
        <ele>2398.036</ele>
        <time>2020-04-05T19:44:10Z</time>
      </trkpt>
      <trkpt lat="44.93309" lon="6.50657">
        <ele>2402.19</ele>
        <time>2020-04-05T19:44:30Z</time>
      </trkpt>
      <trkpt lat="44.93245" lon="6.50685">
        <ele>2393.731</ele>
        <time>2020-04-05T19:44:50Z</time>
      </trkpt>
      <trkpt lat="44.93218" lon="6.50725">
        <ele>2395.568</ele>
        <time>2020-04-05T19:45:10Z</time>
      </trkpt>
      <trkpt lat="44.93192" lon="6.50732">
        <ele>2390.632</ele>
        <time>2020-04-05T19:45:30Z</time>
      </trkpt>
      <trkpt lat="44.93173" lon="6.50747">
        <ele>2389.039</ele>
        <time>2020-04-05T19:45:50Z</time>
      </trkpt>
      <trkpt lat="44.9311" lon="6.50783">
        <ele>2387.565</ele>
        <time>2020-04-05T19:46:10Z</time>
      </trkpt>
      <trkpt lat="44.93092" lon="6.50798">
        <ele>2389.368</ele>
        <time>2020-04-05T19:46:30Z</time>
      </trkpt>
      <trkpt lat="44.93073" lon="6.50798">
        <ele>2386.214</ele>
        <time>2020-04-05T19:46:50Z</time>
      </trkpt>
      <trkpt lat="44.93054" lon="6.50806">
        <ele>2386.008</ele>
        <time>2020-04-05T19:47:10Z</time>
      </trkpt>
      <trkpt lat="44.92992" lon="6.50807">
        <ele>2381.122</ele>
        <time>2020-04-05T19:47:30Z</time>
      </trkpt>
      <trkpt lat="44.92933" lon="6.5083">
        <ele>2380.74</ele>
        <time>2020-04-05T19:47:50Z</time>
      </trkpt>
      <trkpt lat="44.92886" lon="6.50823">
        <ele>2372.788</ele>
        <time>2020-04-05T19:48:10Z</time>
      </trkpt>
      <trkpt lat="44.92788" lon="6.50822">
        <ele>2370.272</ele>
        <time>2020-04-05T19:48:30Z</time>
      </trkpt>
      <trkpt lat="44.92757" lon="6.50823">
        <ele>2370.253</ele>
        <time>2020-04-05T19:48:50Z</time>
      </trkpt>
      <trkpt lat="44.92697" lon="6.5081">
        <ele>2368.17</ele>
        <time>2020-04-05T19:49:10Z</time>
      </trkpt>
      <trkpt lat="44.92639" lon="6.50788">
        <ele>2363.444</ele>
        <time>2020-04-05T19:49:30Z</time>
      </trkpt>
      <trkpt lat="44.92604" lon="6.50773">
        <ele>2360.161</ele>
        <time>2020-04-05T19:49:50Z</time>
      </trkpt>
      <trkpt lat="44.92585" lon="6.50797">
        <ele>2358.242</ele>
        <time>2020-04-05T19:50:10Z</time>
      </trkpt>
      <trkpt lat="44.92575" lon="6.50828">
        <ele>2353.522</ele>
        <time>2020-04-05T19:50:30Z</time>
      </trkpt>
      <trkpt lat="44.92585" lon="6.50861">
        <ele>2352.314</ele>
        <time>2020-04-05T19:50:50Z</time>
      </trkpt>
      <trkpt lat="44.92564" lon="6.50886">
        <ele>2351.608</ele>
        <time>2020-04-05T19:51:10Z</time>
      </trkpt>
      <trkpt lat="44.92536" lon="6.509">
        <ele>2349.68</ele>
        <time>2020-04-05T19:51:30Z</time>
      </trkpt>
      <trkpt lat="44.92491" lon="6.50864">
        <ele>2332.938</ele>
        <time>2020-04-05T19:51:50Z</time>
      </trkpt>
      <trkpt lat="44.9244" lon="6.50902">
        <ele>2326.216</ele>
        <time>2020-04-05T19:52:10Z</time>
      </trkpt>
      <trkpt lat="44.92403" lon="6.50911">
        <ele>2319.94</ele>
        <time>2020-04-05T19:52:30Z</time>
      </trkpt>
      <trkpt lat="44.92389" lon="6.50904">
        <ele>2314.881</ele>
        <time>2020-04-05T19:52:50Z</time>
      </trkpt>
      <trkpt lat="44.92296" lon="6.50879">
        <ele>2298.578</ele>
        <time>2020-04-05T19:53:10Z</time>
      </trkpt>
      <trkpt lat="44.92344" lon="6.50847">
        <ele>2289.922</ele>
        <time>2020-04-05T19:53:30Z</time>
      </trkpt>
      <trkpt lat="44.92364" lon="6.50825">
        <ele>2284.729</ele>
        <time>2020-04-05T19:53:50Z</time>
      </trkpt>
      <trkpt lat="44.92391" lon="6.50803">
        <ele>2282.235</ele>
        <time>2020-04-05T19:54:10Z</time>
      </trkpt>
      <trkpt lat="44.92396" lon="6.50779">
        <ele>2279.986</ele>
        <time>2020-04-05T19:54:30Z</time>
      </trkpt>
      <trkpt lat="44.92393" lon="6.50765">
        <ele>2278.714</ele>
        <time>2020-04-05T19:54:50Z</time>
      </trkpt>
      <trkpt lat="44.92377" lon="6.50781">
        <ele>2273.408</ele>
        <time>2020-04-05T19:55:10Z</time>
      </trkpt>
      <trkpt lat="44.92361" lon="6.50777">
        <ele>2266.979</ele>
        <time>2020-04-05T19:55:30Z</time>
      </trkpt>
      <trkpt lat="44.92349" lon="6.50771">
        <ele>2263.917</ele>
        <time>2020-04-05T19:55:50Z</time>
      </trkpt>
      <trkpt lat="44.92325" lon="6.50769">
        <ele>2260.145</ele>
        <time>2020-04-05T19:56:10Z</time>
      </trkpt>
      <trkpt lat="44.92306" lon="6.5077">
        <ele>2259.199</ele>
        <time>2020-04-05T19:56:30Z</time>
      </trkpt>
      <trkpt lat="44.92283" lon="6.50758">
        <ele>2252.91</ele>
        <time>2020-04-05T19:56:50Z</time>
      </trkpt>
      <trkpt lat="44.92291" lon="6.50743">
        <ele>2248.057</ele>
        <time>2020-04-05T19:57:10Z</time>
      </trkpt>
      <trkpt lat="44.92306" lon="6.50745">
        <ele>2248.871</ele>
        <time>2020-04-05T19:57:30Z</time>
      </trkpt>
      <trkpt lat="44.9232" lon="6.50731">
        <ele>2245.388</ele>
        <time>2020-04-05T19:57:50Z</time>
      </trkpt>
      <trkpt lat="44.92329" lon="6.50726">
        <ele>2245.218</ele>
        <time>2020-04-05T19:58:10Z</time>
      </trkpt>
      <trkpt lat="44.92322" lon="6.50722">
        <ele>2242.398</ele>
        <time>2020-04-05T19:58:30Z</time>
      </trkpt>
      <trkpt lat="44.92309" lon="6.50722">
        <ele>2239.517</ele>
        <time>2020-04-05T19:58:50Z</time>
      </trkpt>
      <trkpt lat="44.92295" lon="6.50701">
        <ele>2232.708</ele>
        <time>2020-04-05T19:59:10Z</time>
      </trkpt>
      <trkpt lat="44.92258" lon="6.5069">
        <ele>2228.187</ele>
        <time>2020-04-05T19:59:30Z</time>
      </trkpt>
      <trkpt lat="44.92248" lon="6.50679">
        <ele>2224.125</ele>
        <time>2020-04-05T19:59:50Z</time>
      </trkpt>
      <trkpt lat="44.9223" lon="6.50674">
        <ele>2223.583</ele>
        <time>2020-04-05T20:00:10Z</time>
      </trkpt>
      <trkpt lat="44.92214" lon="6.50656">
        <ele>2220.617</ele>
        <time>2020-04-05T20:00:30Z</time>
      </trkpt>
      <trkpt lat="44.92208" lon="6.50636">
        <ele>2215.698</ele>
        <time>2020-04-05T20:00:50Z</time>
      </trkpt>
      <trkpt lat="44.92183" lon="6.50606">
        <ele>2208.545</ele>
        <time>2020-04-05T20:01:10Z</time>
      </trkpt>
      <trkpt lat="44.92248" lon="6.50607">
        <ele>2200.369</ele>
        <time>2020-04-05T20:01:30Z</time>
      </trkpt>
      <trkpt lat="44.92283" lon="6.50591">
        <ele>2192.126</ele>
        <time>2020-04-05T20:01:50Z</time>
      </trkpt>
      <trkpt lat="44.92304" lon="6.50599">
        <ele>2189.892</ele>
        <time>2020-04-05T20:02:10Z</time>
      </trkpt>
      <trkpt lat="44.92289" lon="6.50554">
        <ele>2181.873</ele>
        <time>2020-04-05T20:02:30Z</time>
      </trkpt>
      <trkpt lat="44.92241" lon="6.50511">
        <ele>2174.82</ele>
        <time>2020-04-05T20:02:50Z</time>
      </trkpt>
      <trkpt lat="44.92188" lon="6.50507">
        <ele>2170.308</ele>
        <time>2020-04-05T20:03:10Z</time>
      </trkpt>
      <trkpt lat="44.92158" lon="6.50493">
        <ele>2163.315</ele>
        <time>2020-04-05T20:03:30Z</time>
      </trkpt>
      <trkpt lat="44.92174" lon="6.50485">
        <ele>2160.733</ele>
        <time>2020-04-05T20:03:50Z</time>
      </trkpt>
      <trkpt lat="44.92185" lon="6.50477">
        <ele>2158.081</ele>
        <time>2020-04-05T20:04:10Z</time>
      </trkpt>
      <trkpt lat="44.92194" lon="6.50474">
        <ele>2157.785</ele>
        <time>2020-04-05T20:04:30Z</time>
      </trkpt>
      <trkpt lat="44.92237" lon="6.50429">
        <ele>2146.476</ele>
        <time>2020-04-05T20:04:50Z</time>
      </trkpt>
      <trkpt lat="44.9228" lon="6.50409">
        <ele>2138.413</ele>
        <time>2020-04-05T20:05:10Z</time>
      </trkpt>
      <trkpt lat="44.92312" lon="6.50418">
        <ele>2137.177</ele>
        <time>2020-04-05T20:05:30Z</time>
      </trkpt>
      <trkpt lat="44.9228" lon="6.5038">
        <ele>2127.414</ele>
        <time>2020-04-05T20:05:50Z</time>
      </trkpt>
      <trkpt lat="44.92251" lon="6.50365">
        <ele>2121.684</ele>
        <time>2020-04-05T20:06:10Z</time>
      </trkpt>
      <trkpt lat="44.92241" lon="6.50365">
        <ele>2121.307</ele>
        <time>2020-04-05T20:06:30Z</time>
      </trkpt>
      <trkpt lat="44.9222" lon="6.50354">
        <ele>2116.117</ele>
        <time>2020-04-05T20:06:50Z</time>
      </trkpt>
      <trkpt lat="44.92185" lon="6.50349">
        <ele>2111.608</ele>
        <time>2020-04-05T20:07:10Z</time>
      </trkpt>
      <trkpt lat="44.92175" lon="6.50334">
        <ele>2107.574</ele>
        <time>2020-04-05T20:07:30Z</time>
      </trkpt>
      <trkpt lat="44.92155" lon="6.50316">
        <ele>2103.172</ele>
        <time>2020-04-05T20:07:50Z</time>
      </trkpt>
      <trkpt lat="44.92145" lon="6.50317">
        <ele>2104.51</ele>
        <time>2020-04-05T20:08:10Z</time>
      </trkpt>
      <trkpt lat="44.92137" lon="6.50301">
        <ele>2099.074</ele>
        <time>2020-04-05T20:08:30Z</time>
      </trkpt>
      <trkpt lat="44.92082" lon="6.50266">
        <ele>2090.315</ele>
        <time>2020-04-05T20:08:50Z</time>
      </trkpt>
      <trkpt lat="44.92067" lon="6.50242">
        <ele>2083.422</ele>
        <time>2020-04-05T20:09:10Z</time>
      </trkpt>
      <trkpt lat="44.92053" lon="6.50241">
        <ele>2085.086</ele>
        <time>2020-04-05T20:09:30Z</time>
      </trkpt>
      <trkpt lat="44.92042" lon="6.50228">
        <ele>2081.183</ele>
        <time>2020-04-05T20:09:50Z</time>
      </trkpt>
      <trkpt lat="44.92019" lon="6.50213">
        <ele>2076.363</ele>
        <time>2020-04-05T20:10:10Z</time>
      </trkpt>
      <trkpt lat="44.92006" lon="6.50211">
        <ele>2074.844</ele>
        <time>2020-04-05T20:10:30Z</time>
      </trkpt>
      <trkpt lat="44.91988" lon="6.50207">
        <ele>2071.918</ele>
        <time>2020-04-05T20:10:50Z</time>
      </trkpt>
      <trkpt lat="44.91962" lon="6.50204">
        <ele>2068.708</ele>
        <time>2020-04-05T20:11:10Z</time>
      </trkpt>
      <trkpt lat="44.91934" lon="6.50199">
        <ele>2063.012</ele>
        <time>2020-04-05T20:11:30Z</time>
      </trkpt>
      <trkpt lat="44.91903" lon="6.50202">
        <ele>2057.35</ele>
        <time>2020-04-05T20:11:50Z</time>
      </trkpt>
      <trkpt lat="44.91882" lon="6.50216">
        <ele>2055.978</ele>
        <time>2020-04-05T20:12:10Z</time>
      </trkpt>
      <trkpt lat="44.91829" lon="6.5023">
        <ele>2044.662</ele>
        <time>2020-04-05T20:12:30Z</time>
      </trkpt>
      <trkpt lat="44.91814" lon="6.50245">
        <ele>2044.043</ele>
        <time>2020-04-05T20:12:50Z</time>
      </trkpt>
      <trkpt lat="44.91794" lon="6.50247">
        <ele>2038.79</ele>
        <time>2020-04-05T20:13:10Z</time>
      </trkpt>
      <trkpt lat="44.91752" lon="6.50263">
        <ele>2033.634</ele>
        <time>2020-04-05T20:13:30Z</time>
      </trkpt>
      <trkpt lat="44.91735" lon="6.50266">
        <ele>2028.211</ele>
        <time>2020-04-05T20:13:50Z</time>
      </trkpt>
      <trkpt lat="44.91721" lon="6.50276">
        <ele>2025.862</ele>
        <time>2020-04-05T20:14:10Z</time>
      </trkpt>
      <trkpt lat="44.91813" lon="6.5017">
        <ele>2014.283</ele>
        <time>2020-04-05T20:14:30Z</time>
      </trkpt>
      <trkpt lat="44.91795" lon="6.50174">
        <ele>2009.711</ele>
        <time>2020-04-05T20:14:50Z</time>
      </trkpt>
      <trkpt lat="44.91784" lon="6.50186">
        <ele>2011.308</ele>
        <time>2020-04-05T20:15:10Z</time>
      </trkpt>
      <trkpt lat="44.91773" lon="6.50182">
        <ele>2006.762</ele>
        <time>2020-04-05T20:15:30Z</time>
      </trkpt>
      <trkpt lat="44.91742" lon="6.5019">
        <ele>2001.09</ele>
        <time>2020-04-05T20:15:50Z</time>
      </trkpt>
      <trkpt lat="44.91709" lon="6.50212">
        <ele>1998.668</ele>
        <time>2020-04-05T20:16:10Z</time>
      </trkpt>
      <trkpt lat="44.91695" lon="6.50212">
        <ele>1993.792</ele>
        <time>2020-04-05T20:16:30Z</time>
      </trkpt>
      <trkpt lat="44.91681" lon="6.5022">
        <ele>1992.923</ele>
        <time>2020-04-05T20:16:50Z</time>
      </trkpt>
      <trkpt lat="44.91691" lon="6.50198">
        <ele>1988.22</ele>
        <time>2020-04-05T20:17:10Z</time>
      </trkpt>
      <trkpt lat="44.91708" lon="6.50184">
        <ele>1988.724</ele>
        <time>2020-04-05T20:17:30Z</time>
      </trkpt>
      <trkpt lat="44.91724" lon="6.50148">
        <ele>1980.731</ele>
        <time>2020-04-05T20:17:50Z</time>
      </trkpt>
      <trkpt lat="44.91748" lon="6.50124">
        <ele>1976.548</ele>
        <time>2020-04-05T20:18:10Z</time>
      </trkpt>
      <trkpt lat="44.91766" lon="6.50099">
        <ele>1970.761</ele>
        <time>2020-04-05T20:18:30Z</time>
      </trkpt>
      <trkpt lat="44.91791" lon="6.50072">
        <ele>1968.517</ele>
        <time>2020-04-05T20:18:50Z</time>
      </trkpt>
      <trkpt lat="44.91769" lon="6.50067">
        <ele>1958.108</ele>
        <time>2020-04-05T20:19:10Z</time>
      </trkpt>
      <trkpt lat="44.91742" lon="6.50075">
        <ele>1952.15</ele>
        <time>2020-04-05T20:19:30Z</time>
      </trkpt>
      <trkpt lat="44.91718" lon="6.5007">
        <ele>1942.558</ele>
        <time>2020-04-05T20:19:50Z</time>
      </trkpt>
      <trkpt lat="44.91668" lon="6.50079">
        <ele>1928.986</ele>
        <time>2020-04-05T20:20:10Z</time>
      </trkpt>
      <trkpt lat="44.91671" lon="6.50063">
        <ele>1923.36</ele>
        <time>2020-04-05T20:20:30Z</time>
      </trkpt>
      <trkpt lat="44.91655" lon="6.50065">
        <ele>1917.911</ele>
        <time>2020-04-05T20:20:50Z</time>
      </trkpt>
      <trkpt lat="44.9165" lon="6.50083">
        <ele>1922.458</ele>
        <time>2020-04-05T20:21:10Z</time>
      </trkpt>
      <trkpt lat="44.91633" lon="6.50065">
        <ele>1910.952</ele>
        <time>2020-04-05T20:21:30Z</time>
      </trkpt>
      <trkpt lat="44.91605" lon="6.50064">
        <ele>1906.769</ele>
        <time>2020-04-05T20:21:50Z</time>
      </trkpt>
      <trkpt lat="44.91589" lon="6.50062">
        <ele>1902.136</ele>
        <time>2020-04-05T20:22:10Z</time>
      </trkpt>
      <trkpt lat="44.91515" lon="6.50067">
        <ele>1882.617</ele>
        <time>2020-04-05T20:22:30Z</time>
      </trkpt>
      <trkpt lat="44.91507" lon="6.50053">
        <ele>1875.018</ele>
        <time>2020-04-05T20:22:50Z</time>
      </trkpt>
      <trkpt lat="44.91497" lon="6.50053">
        <ele>1872.308</ele>
        <time>2020-04-05T20:23:10Z</time>
      </trkpt>
      <trkpt lat="44.91492" lon="6.5007">
        <ele>1877.589</ele>
        <time>2020-04-05T20:23:30Z</time>
      </trkpt>
      <trkpt lat="44.91465" lon="6.5006">
        <ele>1867.797</ele>
        <time>2020-04-05T20:23:50Z</time>
      </trkpt>
      <trkpt lat="44.91446" lon="6.50044">
        <ele>1861.275</ele>
        <time>2020-04-05T20:24:10Z</time>
      </trkpt>
      <trkpt lat="44.9138" lon="6.50055">
        <ele>1855.469</ele>
        <time>2020-04-05T20:24:30Z</time>
      </trkpt>
      <trkpt lat="44.91373" lon="6.50068">
        <ele>1859.65</ele>
        <time>2020-04-05T20:24:50Z</time>
      </trkpt>
      <trkpt lat="44.9135" lon="6.50055">
        <ele>1849.037</ele>
        <time>2020-04-05T20:25:10Z</time>
      </trkpt>
      <trkpt lat="44.91319" lon="6.50062">
        <ele>1847.251</ele>
        <time>2020-04-05T20:25:30Z</time>
      </trkpt>
      <trkpt lat="44.91297" lon="6.5006">
        <ele>1842.658</ele>
        <time>2020-04-05T20:25:50Z</time>
      </trkpt>
      <trkpt lat="44.91281" lon="6.50051">
        <ele>1836.037</ele>
        <time>2020-04-05T20:26:10Z</time>
      </trkpt>
      <trkpt lat="44.91265" lon="6.50051">
        <ele>1834.249</ele>
        <time>2020-04-05T20:26:30Z</time>
      </trkpt>
      <trkpt lat="44.91258" lon="6.50041">
        <ele>1828.713</ele>
        <time>2020-04-05T20:26:50Z</time>
      </trkpt>
      <trkpt lat="44.91241" lon="6.50044">
        <ele>1825.708</ele>
        <time>2020-04-05T20:27:10Z</time>
      </trkpt>
      <trkpt lat="44.91235" lon="6.50029">
        <ele>1817.569</ele>
        <time>2020-04-05T20:27:30Z</time>
      </trkpt>
      <trkpt lat="44.9122" lon="6.50026">
        <ele>1812.157</ele>
        <time>2020-04-05T20:27:50Z</time>
      </trkpt>
      <trkpt lat="44.91209" lon="6.5003">
        <ele>1812.875</ele>
        <time>2020-04-05T20:28:10Z</time>
      </trkpt>
      <trkpt lat="44.91188" lon="6.50012">
        <ele>1803.629</ele>
        <time>2020-04-05T20:28:30Z</time>
      </trkpt>
      <trkpt lat="44.91153" lon="6.50007">
        <ele>1801.64</ele>
        <time>2020-04-05T20:28:50Z</time>
      </trkpt>
      <trkpt lat="44.91136" lon="6.4999">
        <ele>1795.267</ele>
        <time>2020-04-05T20:29:10Z</time>
      </trkpt>
      <trkpt lat="44.91084" lon="6.49966">
        <ele>1787.251</ele>
        <time>2020-04-05T20:29:30Z</time>
      </trkpt>
      <trkpt lat="44.91067" lon="6.49948">
        <ele>1781.628</ele>
        <time>2020-04-05T20:29:50Z</time>
      </trkpt>
      <trkpt lat="44.91029" lon="6.49925">
        <ele>1774.513</ele>
        <time>2020-04-05T20:30:10Z</time>
      </trkpt>
      <trkpt lat="44.90973" lon="6.49908">
        <ele>1771.443</ele>
        <time>2020-04-05T20:30:30Z</time>
      </trkpt>
      <trkpt lat="44.90971" lon="6.49894">
        <ele>1765.407</ele>
        <time>2020-04-05T20:30:50Z</time>
      </trkpt>
      <trkpt lat="44.90984" lon="6.49855">
        <ele>1757.708</ele>
        <time>2020-04-05T20:31:10Z</time>
      </trkpt>
      <trkpt lat="44.90998" lon="6.49839">
        <ele>1757.147</ele>
        <time>2020-04-05T20:31:30Z</time>
      </trkpt>
      <trkpt lat="44.91002" lon="6.49819">
        <ele>1756.645</ele>
        <time>2020-04-05T20:31:50Z</time>
      </trkpt>
      <trkpt lat="44.91022" lon="6.49787">
        <ele>1756.973</ele>
        <time>2020-04-05T20:32:10Z</time>
      </trkpt>
      <trkpt lat="44.90971" lon="6.49753">
        <ele>1750.147</ele>
        <time>2020-04-05T20:32:30Z</time>
      </trkpt>
      <trkpt lat="44.9088" lon="6.49641">
        <ele>1740.148</ele>
        <time>2020-04-05T20:32:50Z</time>
      </trkpt>
      <trkpt lat="44.90828" lon="6.49617">
        <ele>1740.085</ele>
        <time>2020-04-05T20:33:10Z</time>
      </trkpt>
      <trkpt lat="44.90766" lon="6.49566">
        <ele>1740.059</ele>
        <time>2020-04-05T20:33:30Z</time>
      </trkpt>
      <trkpt lat="44.90675" lon="6.49536">
        <ele>1739.326</ele>
        <time>2020-04-05T20:33:50Z</time>
      </trkpt>
      <trkpt lat="44.90631" lon="6.49533">
        <ele>1737.918</ele>
        <time>2020-04-05T20:34:10Z</time>
      </trkpt>
      <trkpt lat="44.90593" lon="6.49548">
        <ele>1737.798</ele>
        <time>2020-04-05T20:34:30Z</time>
      </trkpt>
      <trkpt lat="44.90447" lon="6.49531">
        <ele>1734.217</ele>
        <time>2020-04-05T20:34:50Z</time>
      </trkpt>
      <trkpt lat="44.90378" lon="6.49469">
        <ele>1723.308</ele>
        <time>2020-04-05T20:35:10Z</time>
      </trkpt>
      <trkpt lat="44.90325" lon="6.49443">
        <ele>1720.357</ele>
        <time>2020-04-05T20:35:30Z</time>
      </trkpt>
      <trkpt lat="44.90275" lon="6.49396">
        <ele>1720.175</ele>
        <time>2020-04-05T20:35:50Z</time>
      </trkpt>
      <trkpt lat="44.90234" lon="6.49342">
        <ele>1720.053</ele>
        <time>2020-04-05T20:36:10Z</time>
      </trkpt>
      <trkpt lat="44.90163" lon="6.49307">
        <ele>1720.057</ele>
        <time>2020-04-05T20:36:30Z</time>
      </trkpt>
      <trkpt lat="44.90132" lon="6.49294">
        <ele>1720.018</ele>
        <time>2020-04-05T20:36:50Z</time>
      </trkpt>
      <trkpt lat="44.90013" lon="6.49273">
        <ele>1720.025</ele>
        <time>2020-04-05T20:37:10Z</time>
      </trkpt>
      <trkpt lat="44.89973" lon="6.49249">
        <ele>1720.029</ele>
        <time>2020-04-05T20:37:30Z</time>
      </trkpt>
      <trkpt lat="44.89935" lon="6.49217">
        <ele>1720.046</ele>
        <time>2020-04-05T20:37:50Z</time>
      </trkpt>
      <trkpt lat="44.89857" lon="6.49208">
        <ele>1716.567</ele>
        <time>2020-04-05T20:38:10Z</time>
      </trkpt>
      <trkpt lat="44.8982" lon="6.49206">
        <ele>1713.081</ele>
        <time>2020-04-05T20:38:30Z</time>
      </trkpt>
      <trkpt lat="44.89707" lon="6.49168">
        <ele>1703.219</ele>
        <time>2020-04-05T20:38:50Z</time>
      </trkpt>
      <trkpt lat="44.89658" lon="6.49168">
        <ele>1705.208</ele>
        <time>2020-04-05T20:39:10Z</time>
      </trkpt>
      <trkpt lat="44.89588" lon="6.49146">
        <ele>1707.722</ele>
        <time>2020-04-05T20:39:30Z</time>
      </trkpt>
      <trkpt lat="44.89568" lon="6.49122">
        <ele>1703.42</ele>
        <time>2020-04-05T20:39:50Z</time>
      </trkpt>
      <trkpt lat="44.8953" lon="6.49118">
        <ele>1705.118</ele>
        <time>2020-04-05T20:40:10Z</time>
      </trkpt>
      <trkpt lat="44.89502" lon="6.49105">
        <ele>1703.892</ele>
        <time>2020-04-05T20:40:30Z</time>
      </trkpt>
      <trkpt lat="44.89463" lon="6.49109">
        <ele>1702.483</ele>
        <time>2020-04-05T20:40:50Z</time>
      </trkpt>
      <trkpt lat="44.89395" lon="6.49096">
        <ele>1700.03</ele>
        <time>2020-04-05T20:41:10Z</time>
      </trkpt>
      <trkpt lat="44.89314" lon="6.49084">
        <ele>1700.174</ele>
        <time>2020-04-05T20:41:30Z</time>
      </trkpt>
      <trkpt lat="44.89259" lon="6.49043">
        <ele>1699.371</ele>
        <time>2020-04-05T20:41:50Z</time>
      </trkpt>
      <trkpt lat="44.8922" lon="6.49047">
        <ele>1692.644</ele>
        <time>2020-04-05T20:42:10Z</time>
      </trkpt>
      <trkpt lat="44.89197" lon="6.49034">
        <ele>1684.505</ele>
        <time>2020-04-05T20:42:30Z</time>
      </trkpt>
      <trkpt lat="44.8913" lon="6.49083">
        <ele>1674.315</ele>
        <time>2020-04-05T20:42:50Z</time>
      </trkpt>
      <trkpt lat="44.89084" lon="6.49096">
        <ele>1668.008</ele>
        <time>2020-04-05T20:43:10Z</time>
      </trkpt>
      <trkpt lat="44.89007" lon="6.49079">
        <ele>1660.15</ele>
        <time>2020-04-05T20:43:30Z</time>
      </trkpt>
      <trkpt lat="44.88928" lon="6.49071">
        <ele>1645.488</ele>
        <time>2020-04-05T20:43:50Z</time>
      </trkpt>
      <trkpt lat="44.88855" lon="6.49056">
        <ele>1639.386</ele>
        <time>2020-04-05T20:44:10Z</time>
      </trkpt>
      <trkpt lat="44.8883" lon="6.49034">
        <ele>1630.03</ele>
        <time>2020-04-05T20:44:30Z</time>
      </trkpt>
      <trkpt lat="44.88699" lon="6.48995">
        <ele>1613.331</ele>
        <time>2020-04-05T20:44:50Z</time>
      </trkpt>
      <trkpt lat="44.88616" lon="6.4897">
        <ele>1599.138</ele>
        <time>2020-04-05T20:45:10Z</time>
      </trkpt>
      <trkpt lat="44.88552" lon="6.48963">
        <ele>1595.652</ele>
        <time>2020-04-05T20:45:30Z</time>
      </trkpt>
      <trkpt lat="44.88485" lon="6.48922">
        <ele>1588.219</ele>
        <time>2020-04-05T20:45:50Z</time>
      </trkpt>
      <trkpt lat="44.88421" lon="6.48875">
        <ele>1579.585</ele>
        <time>2020-04-05T20:46:10Z</time>
      </trkpt>
      <trkpt lat="44.88375" lon="6.48864">
        <ele>1572.589</ele>
        <time>2020-04-05T20:46:30Z</time>
      </trkpt>
      <trkpt lat="44.88339" lon="6.48883">
        <ele>1572.317</ele>
        <time>2020-04-05T20:46:50Z</time>
      </trkpt>
      <trkpt lat="44.88319" lon="6.48873">
        <ele>1566.508</ele>
        <time>2020-04-05T20:47:10Z</time>
      </trkpt>
      <trkpt lat="44.88278" lon="6.48879">
        <ele>1561.884</ele>
        <time>2020-04-05T20:47:30Z</time>
      </trkpt>
      <trkpt lat="44.88271" lon="6.4887">
        <ele>1558.032</ele>
        <time>2020-04-05T20:47:50Z</time>
      </trkpt>
      <trkpt lat="44.88241" lon="6.48871">
        <ele>1555.77</ele>
        <time>2020-04-05T20:48:10Z</time>
      </trkpt>
      <trkpt lat="44.88167" lon="6.48866">
        <ele>1550.234</ele>
        <time>2020-04-05T20:48:30Z</time>
      </trkpt>
      <trkpt lat="44.88099" lon="6.48877">
        <ele>1546.585</ele>
        <time>2020-04-05T20:48:50Z</time>
      </trkpt>
      <trkpt lat="44.88062" lon="6.48877">
        <ele>1541.772</ele>
        <time>2020-04-05T20:49:10Z</time>
      </trkpt>
      <trkpt lat="44.88025" lon="6.48896">
        <ele>1540.176</ele>
        <time>2020-04-05T20:49:30Z</time>
      </trkpt>
      <trkpt lat="44.87997" lon="6.48903">
        <ele>1533.833</ele>
        <time>2020-04-05T20:49:50Z</time>
      </trkpt>
      <trkpt lat="44.87971" lon="6.48922">
        <ele>1531.096</ele>
        <time>2020-04-05T20:50:10Z</time>
      </trkpt>
      <trkpt lat="44.87964" lon="6.48909">
        <ele>1524.631</ele>
        <time>2020-04-05T20:50:30Z</time>
      </trkpt>
      <trkpt lat="44.87925" lon="6.48944">
        <ele>1518.424</ele>
        <time>2020-04-05T20:50:50Z</time>
      </trkpt>
      <trkpt lat="44.8789" lon="6.4898">
        <ele>1511.308</ele>
        <time>2020-04-05T20:51:10Z</time>
      </trkpt>
      <trkpt lat="44.87863" lon="6.49058">
        <ele>1514.745</ele>
        <time>2020-04-05T20:51:30Z</time>
      </trkpt>
      <trkpt lat="44.87843" lon="6.49077">
        <ele>1507.353</ele>
        <time>2020-04-05T20:51:50Z</time>
      </trkpt>
      <trkpt lat="44.87838" lon="6.49103">
        <ele>1512.491</ele>
        <time>2020-04-05T20:52:10Z</time>
      </trkpt>
      <trkpt lat="44.87829" lon="6.49108">
        <ele>1510.065</ele>
        <time>2020-04-05T20:52:30Z</time>
      </trkpt>
      <trkpt lat="44.87816" lon="6.49108">
        <ele>1503.816</ele>
        <time>2020-04-05T20:52:50Z</time>
      </trkpt>
      <trkpt lat="44.87764" lon="6.49133">
        <ele>1492.673</ele>
        <time>2020-04-05T20:53:10Z</time>
      </trkpt>
      <trkpt lat="44.8773" lon="6.49163">
        <ele>1488.857</ele>
        <time>2020-04-05T20:53:30Z</time>
      </trkpt>
      <trkpt lat="44.87698" lon="6.49176">
        <ele>1478.224</ele>
        <time>2020-04-05T20:53:50Z</time>
      </trkpt>
      <trkpt lat="44.87685" lon="6.49196">
        <ele>1478.436</ele>
        <time>2020-04-05T20:54:10Z</time>
      </trkpt>
      <trkpt lat="44.87671" lon="6.49201">
        <ele>1474.017</ele>
        <time>2020-04-05T20:54:30Z</time>
      </trkpt>
      <trkpt lat="44.87646" lon="6.49222">
        <ele>1466.818</ele>
        <time>2020-04-05T20:54:50Z</time>
      </trkpt>
      <trkpt lat="44.8763" lon="6.49271">
        <ele>1466.508</ele>
        <time>2020-04-05T20:55:10Z</time>
      </trkpt>
      <trkpt lat="44.87616" lon="6.49288">
        <ele>1459.989</ele>
        <time>2020-04-05T20:55:30Z</time>
      </trkpt>
      <trkpt lat="44.87578" lon="6.49354">
        <ele>1451.227</ele>
        <time>2020-04-05T20:55:50Z</time>
      </trkpt>
      <trkpt lat="44.87555" lon="6.49373">
        <ele>1455.175</ele>
        <time>2020-04-05T20:56:10Z</time>
      </trkpt>
      <trkpt lat="44.87535" lon="6.49358">
        <ele>1446.539</ele>
        <time>2020-04-05T20:56:30Z</time>
      </trkpt>
      <trkpt lat="44.87509" lon="6.49353">
        <ele>1444.97</ele>
        <time>2020-04-05T20:56:50Z</time>
      </trkpt>
      <trkpt lat="44.87468" lon="6.49325">
        <ele>1435.647</ele>
        <time>2020-04-05T20:57:10Z</time>
      </trkpt>
      <trkpt lat="44.87432" lon="6.4932">
        <ele>1426.941</ele>
        <time>2020-04-05T20:57:30Z</time>
      </trkpt>
      <trkpt lat="44.87399" lon="6.4938">
        <ele>1431.068</ele>
        <time>2020-04-05T20:57:50Z</time>
      </trkpt>
      <trkpt lat="44.87375" lon="6.49398">
        <ele>1426.614</ele>
        <time>2020-04-05T20:58:10Z</time>
      </trkpt>
      <trkpt lat="44.87361" lon="6.49423">
        <ele>1428.054</ele>
        <time>2020-04-05T20:58:30Z</time>
      </trkpt>
      <trkpt lat="44.87348" lon="6.4942">
        <ele>1429.109</ele>
        <time>2020-04-05T20:58:50Z</time>
      </trkpt>
      <trkpt lat="44.87333" lon="6.49392">
        <ele>1418.408</ele>
        <time>2020-04-05T20:59:10Z</time>
      </trkpt>
      <trkpt lat="44.87311" lon="6.49382">
        <ele>1418.497</ele>
        <time>2020-04-05T20:59:30Z</time>
      </trkpt>
      <trkpt lat="44.8729" lon="6.49364">
        <ele>1416.795</ele>
        <time>2020-04-05T20:59:50Z</time>
      </trkpt>
      <trkpt lat="44.87254" lon="6.49354">
        <ele>1419.243</ele>
        <time>2020-04-05T21:00:10Z</time>
      </trkpt>
      <trkpt lat="44.87237" lon="6.49337">
        <ele>1417.467</ele>
        <time>2020-04-05T21:00:30Z</time>
      </trkpt>
      <trkpt lat="44.87222" lon="6.49315">
        <ele>1413.858</ele>
        <time>2020-04-05T21:00:50Z</time>
      </trkpt>
      <trkpt lat="44.87207" lon="6.49308">
        <ele>1413.525</ele>
        <time>2020-04-05T21:01:10Z</time>
      </trkpt>
      <trkpt lat="44.87148" lon="6.49324">
        <ele>1415.349</ele>
        <time>2020-04-05T21:01:30Z</time>
      </trkpt>
      <trkpt lat="44.8712" lon="6.49321">
        <ele>1413.426</ele>
        <time>2020-04-05T21:01:50Z</time>
      </trkpt>
      <trkpt lat="44.87083" lon="6.49304">
        <ele>1408.617</ele>
        <time>2020-04-05T21:02:10Z</time>
      </trkpt>
      <trkpt lat="44.87061" lon="6.49305">
        <ele>1407.487</ele>
        <time>2020-04-05T21:02:30Z</time>
      </trkpt>
      <trkpt lat="44.87042" lon="6.49312">
        <ele>1407.315</ele>
        <time>2020-04-05T21:02:50Z</time>
      </trkpt>
      <trkpt lat="44.87027" lon="6.49321">
        <ele>1408.508</ele>
        <time>2020-04-05T21:03:10Z</time>
      </trkpt>
      <trkpt lat="44.86932" lon="6.49319">
        <ele>1405.067</ele>
        <time>2020-04-05T21:03:30Z</time>
      </trkpt>
      <trkpt lat="44.86903" lon="6.49323">
        <ele>1404.635</ele>
        <time>2020-04-05T21:03:50Z</time>
      </trkpt>
      <trkpt lat="44.86869" lon="6.49309">
        <ele>1400.223</ele>
        <time>2020-04-05T21:04:10Z</time>
      </trkpt>
      <trkpt lat="44.8685" lon="6.49307">
        <ele>1397.027</ele>
        <time>2020-04-05T21:04:30Z</time>
      </trkpt>
      <trkpt lat="44.86827" lon="6.49317">
        <ele>1394.028</ele>
        <time>2020-04-05T21:04:50Z</time>
      </trkpt>
      <trkpt lat="44.868" lon="6.49342">
        <ele>1392.775</ele>
        <time>2020-04-05T21:05:10Z</time>
      </trkpt>
      <trkpt lat="44.86737" lon="6.49425">
        <ele>1387.499</ele>
        <time>2020-04-05T21:05:30Z</time>
      </trkpt>
      <trkpt lat="44.86708" lon="6.49444">
        <ele>1381.846</ele>
        <time>2020-04-05T21:05:50Z</time>
      </trkpt>
      <trkpt lat="44.86664" lon="6.49507">
        <ele>1383.214</ele>
        <time>2020-04-05T21:06:10Z</time>
      </trkpt>
      <trkpt lat="44.86672" lon="6.49471">
        <ele>1376.854</ele>
        <time>2020-04-05T21:06:30Z</time>
      </trkpt>
      <trkpt lat="44.86683" lon="6.49453">
        <ele>1375.609</ele>
        <time>2020-04-05T21:06:50Z</time>
      </trkpt>
      <trkpt lat="44.86664" lon="6.49451">
        <ele>1370.308</ele>
        <time>2020-04-05T21:07:10Z</time>
      </trkpt>
      <trkpt lat="44.8664" lon="6.49458">
        <ele>1368.677</ele>
        <time>2020-04-05T21:07:30Z</time>
      </trkpt>
      <trkpt lat="44.86614" lon="6.49452">
        <ele>1367.145</ele>
        <time>2020-04-05T21:07:50Z</time>
      </trkpt>
      <trkpt lat="44.86596" lon="6.49444">
        <ele>1365.973</ele>
        <time>2020-04-05T21:08:10Z</time>
      </trkpt>
      <trkpt lat="44.86522" lon="6.49377">
        <ele>1350.497</ele>
        <time>2020-04-05T21:08:30Z</time>
      </trkpt>
      <trkpt lat="44.86501" lon="6.49371">
        <ele>1345.618</ele>
        <time>2020-04-05T21:08:50Z</time>
      </trkpt>
      <trkpt lat="44.86492" lon="6.49374">
        <ele>1344.585</ele>
        <time>2020-04-05T21:09:10Z</time>
      </trkpt>
      <trkpt lat="44.86481" lon="6.49362">
        <ele>1341.479</ele>
        <time>2020-04-05T21:09:30Z</time>
      </trkpt>
      <trkpt lat="44.8646" lon="6.49354">
        <ele>1337.076</ele>
        <time>2020-04-05T21:09:50Z</time>
      </trkpt>
      <trkpt lat="44.86427" lon="6.49325">
        <ele>1327.082</ele>
        <time>2020-04-05T21:10:10Z</time>
      </trkpt>
      <trkpt lat="44.86405" lon="6.49322">
        <ele>1322.143</ele>
        <time>2020-04-05T21:10:30Z</time>
      </trkpt>
      <trkpt lat="44.86375" lon="6.49342">
        <ele>1320.117</ele>
        <time>2020-04-05T21:10:50Z</time>
      </trkpt>
      <trkpt lat="44.8635" lon="6.49349">
        <ele>1318.208</ele>
        <time>2020-04-05T21:11:10Z</time>
      </trkpt>
      <trkpt lat="44.86277" lon="6.49341">
        <ele>1309.944</ele>
        <time>2020-04-05T21:11:30Z</time>
      </trkpt>
      <trkpt lat="44.86235" lon="6.49343">
        <ele>1306.332</ele>
        <time>2020-04-05T21:11:50Z</time>
      </trkpt>
      <trkpt lat="44.86202" lon="6.49334">
        <ele>1301.61</ele>
        <time>2020-04-05T21:12:10Z</time>
      </trkpt>
      <trkpt lat="44.86182" lon="6.4934">
        <ele>1300.744</ele>
        <time>2020-04-05T21:12:30Z</time>
      </trkpt>
      <trkpt lat="44.86151" lon="6.49357">
        <ele>1299.115</ele>
        <time>2020-04-05T21:12:50Z</time>
      </trkpt>
      <trkpt lat="44.86124" lon="6.49353">
        <ele>1292.612</ele>
        <time>2020-04-05T21:13:10Z</time>
      </trkpt>
      <trkpt lat="44.86099" lon="6.49364">
        <ele>1288.286</ele>
        <time>2020-04-05T21:13:30Z</time>
      </trkpt>
      <trkpt lat="44.86098" lon="6.49359">
        <ele>1286.773</ele>
        <time>2020-04-05T21:13:50Z</time>
      </trkpt>
      <trkpt lat="44.86068" lon="6.49385">
        <ele>1287.525</ele>
        <time>2020-04-05T21:14:10Z</time>
      </trkpt>
      <trkpt lat="44.86056" lon="6.49385">
        <ele>1285.426</ele>
        <time>2020-04-05T21:14:30Z</time>
      </trkpt>
      <trkpt lat="44.86034" lon="6.49346">
        <ele>1278.008</ele>
        <time>2020-04-05T21:14:50Z</time>
      </trkpt>
      <trkpt lat="44.86009" lon="6.49328">
        <ele>1276.108</ele>
        <time>2020-04-05T21:15:10Z</time>
      </trkpt>
      <trkpt lat="44.85964" lon="6.4928">
        <ele>1271.388</ele>
        <time>2020-04-05T21:15:30Z</time>
      </trkpt>
      <trkpt lat="44.85945" lon="6.49235">
        <ele>1266.366</ele>
        <time>2020-04-05T21:15:50Z</time>
      </trkpt>
      <trkpt lat="44.8593" lon="6.49157">
        <ele>1257.034</ele>
        <time>2020-04-05T21:16:10Z</time>
      </trkpt>
      <trkpt lat="44.85854" lon="6.49189">
        <ele>1253.788</ele>
        <time>2020-04-05T21:16:30Z</time>
      </trkpt>
      <trkpt lat="44.85815" lon="6.49191">
        <ele>1249.729</ele>
        <time>2020-04-05T21:16:50Z</time>
      </trkpt>
      <trkpt lat="44.85762" lon="6.49206">
        <ele>1245.246</ele>
        <time>2020-04-05T21:17:10Z</time>
      </trkpt>
      <trkpt lat="44.85718" lon="6.49206">
        <ele>1239.06</ele>
        <time>2020-04-05T21:17:30Z</time>
      </trkpt>
      <trkpt lat="44.85701" lon="6.49201">
        <ele>1235.157</ele>
        <time>2020-04-05T21:17:50Z</time>
      </trkpt>
      <trkpt lat="44.85672" lon="6.49219">
        <ele>1235.555</ele>
        <time>2020-04-05T21:18:10Z</time>
      </trkpt>
      <trkpt lat="44.85616" lon="6.49202">
        <ele>1229.307</ele>
        <time>2020-04-05T21:18:30Z</time>
      </trkpt>
      <trkpt lat="44.85554" lon="6.49243">
        <ele>1227.317</ele>
        <time>2020-04-05T21:18:50Z</time>
      </trkpt>
      <trkpt lat="44.85387" lon="6.49308">
        <ele>1215.308</ele>
        <time>2020-04-05T21:19:10Z</time>
      </trkpt>
      <trkpt lat="44.85254" lon="6.49206">
        <ele>1207.521</ele>
        <time>2020-04-05T21:19:30Z</time>
      </trkpt>
      <trkpt lat="44.85065" lon="6.49115">
        <ele>1193.719</ele>
        <time>2020-04-05T21:19:50Z</time>
      </trkpt>
      <trkpt lat="44.84839" lon="6.49027">
        <ele>1181.147</ele>
        <time>2020-04-05T21:20:10Z</time>
      </trkpt>
      <trkpt lat="44.84713" lon="6.48978">
        <ele>1168.611</ele>
        <time>2020-04-05T21:20:30Z</time>
      </trkpt>
      <trkpt lat="44.84689" lon="6.48971">
        <ele>1167.372</ele>
        <time>2020-04-05T21:20:50Z</time>
      </trkpt>
      <trkpt lat="44.84657" lon="6.48972">
        <ele>1164.959</ele>
        <time>2020-04-05T21:21:10Z</time>
      </trkpt>
      <trkpt lat="44.84626" lon="6.48967">
        <ele>1161.653</ele>
        <time>2020-04-05T21:21:30Z</time>
      </trkpt>
      <trkpt lat="44.84605" lon="6.48952">
        <ele>1160.27</ele>
        <time>2020-04-05T21:21:50Z</time>
      </trkpt>
      <trkpt lat="44.84626" lon="6.48801">
        <ele>1164.493</ele>
        <time>2020-04-05T21:22:10Z</time>
      </trkpt>
      <trkpt lat="44.84612" lon="6.48797">
        <ele>1163.765</ele>
        <time>2020-04-05T21:22:30Z</time>
      </trkpt>
      <trkpt lat="44.84592" lon="6.4881">
        <ele>1162.021</ele>
        <time>2020-04-05T21:22:50Z</time>
      </trkpt>
      <trkpt lat="44.84579" lon="6.48802">
        <ele>1162.108</ele>
        <time>2020-04-05T21:23:10Z</time>
      </trkpt>
      <trkpt lat="44.8454" lon="6.48739">
        <ele>1165.065</ele>
        <time>2020-04-05T21:23:30Z</time>
      </trkpt>
      <trkpt lat="44.84525" lon="6.4873">
        <ele>1164.533</ele>
        <time>2020-04-05T21:23:50Z</time>
      </trkpt>
      <trkpt lat="44.84486" lon="6.48653">
        <ele>1162.961</ele>
        <time>2020-04-05T21:24:10Z</time>
      </trkpt>
      <trkpt lat="44.8447" lon="6.48645">
        <ele>1161.485</ele>
        <time>2020-04-05T21:24:30Z</time>
      </trkpt>
      <trkpt lat="44.84448" lon="6.48642">
        <ele>1160.296</ele>
        <time>2020-04-05T21:24:50Z</time>
      </trkpt>
      <trkpt lat="44.84429" lon="6.48587">
        <ele>1160.833</ele>
        <time>2020-04-05T21:25:10Z</time>
      </trkpt>
      <trkpt lat="44.84412" lon="6.4856">
        <ele>1160.037</ele>
        <time>2020-04-05T21:25:30Z</time>
      </trkpt>
      <trkpt lat="44.84359" lon="6.48498">
        <ele>1162.134</ele>
        <time>2020-04-05T21:25:50Z</time>
      </trkpt>
      <trkpt lat="44.84335" lon="6.48504">
        <ele>1161.743</ele>
        <time>2020-04-05T21:26:10Z</time>
      </trkpt>
      <trkpt lat="44.84309" lon="6.48493">
        <ele>1163.164</ele>
        <time>2020-04-05T21:26:30Z</time>
      </trkpt>
      <trkpt lat="44.84272" lon="6.48484">
        <ele>1164.71</ele>
        <time>2020-04-05T21:26:50Z</time>
      </trkpt>
      <trkpt lat="44.84236" lon="6.48457">
        <ele>1166.108</ele>
        <time>2020-04-05T21:27:10Z</time>
      </trkpt>
      <trkpt lat="44.84211" lon="6.48418">
        <ele>1166.99</ele>
        <time>2020-04-05T21:27:30Z</time>
      </trkpt>
      <trkpt lat="44.8418" lon="6.48399">
        <ele>1167.198</ele>
        <time>2020-04-05T21:27:50Z</time>
      </trkpt>
      <trkpt lat="44.84158" lon="6.48359">
        <ele>1167.766</ele>
        <time>2020-04-05T21:28:10Z</time>
      </trkpt>
      <trkpt lat="44.8412" lon="6.48305">
        <ele>1168.09</ele>
        <time>2020-04-05T21:28:30Z</time>
      </trkpt>
      <trkpt lat="44.84087" lon="6.48274">
        <ele>1168.151</ele>
        <time>2020-04-05T21:28:50Z</time>
      </trkpt>
      <trkpt lat="44.84087" lon="6.4826">
        <ele>1168.678</ele>
        <time>2020-04-05T21:29:10Z</time>
      </trkpt>
      <trkpt lat="44.84093" lon="6.48245">
        <ele>1169.192</ele>
        <time>2020-04-05T21:29:30Z</time>
      </trkpt>
      <trkpt lat="44.84097" lon="6.48226">
        <ele>1169.459</ele>
        <time>2020-04-05T21:29:50Z</time>
      </trkpt>
      <trkpt lat="44.84068" lon="6.48163">
        <ele>1170.681</ele>
        <time>2020-04-05T21:30:10Z</time>
      </trkpt>
      <trkpt lat="44.84038" lon="6.48076">
        <ele>1171.661</ele>
        <time>2020-04-05T21:30:30Z</time>
      </trkpt>
      <trkpt lat="44.84018" lon="6.4802">
        <ele>1171.617</ele>
        <time>2020-04-05T21:30:50Z</time>
      </trkpt>
      <trkpt lat="44.84018" lon="6.4799">
        <ele>1172.708</ele>
        <time>2020-04-05T21:31:10Z</time>
      </trkpt>
      <trkpt lat="44.84025" lon="6.47851">
        <ele>1180.324</ele>
        <time>2020-04-05T21:31:30Z</time>
      </trkpt>
      <trkpt lat="44.83962" lon="6.47703">
        <ele>1181.382</ele>
        <time>2020-04-05T21:31:50Z</time>
      </trkpt>
      <trkpt lat="44.83932" lon="6.47524">
        <ele>1181.62</ele>
        <time>2020-04-05T21:32:10Z</time>
      </trkpt>
      <trkpt lat="44.83904" lon="6.47531">
        <ele>1183.024</ele>
        <time>2020-04-05T21:32:30Z</time>
      </trkpt>
      <trkpt lat="44.83895" lon="6.47447">
        <ele>1187.045</ele>
        <time>2020-04-05T21:32:50Z</time>
      </trkpt>
      <trkpt lat="44.83897" lon="6.47418">
        <ele>1188.112</ele>
        <time>2020-04-05T21:33:10Z</time>
      </trkpt>
      <trkpt lat="44.83892" lon="6.47369">
        <ele>1193.116</ele>
        <time>2020-04-05T21:33:30Z</time>
      </trkpt>
      <trkpt lat="44.839" lon="6.47278">
        <ele>1195.413</ele>
        <time>2020-04-05T21:33:50Z</time>
      </trkpt>
      <trkpt lat="44.83899" lon="6.47193">
        <ele>1200.455</ele>
        <time>2020-04-05T21:34:10Z</time>
      </trkpt>
      <trkpt lat="44.83903" lon="6.47152">
        <ele>1197.707</ele>
        <time>2020-04-05T21:34:30Z</time>
      </trkpt>
      <trkpt lat="44.83915" lon="6.47119">
        <ele>1189.817</ele>
        <time>2020-04-05T21:34:50Z</time>
      </trkpt>
      <trkpt lat="44.83902" lon="6.47055">
        <ele>1198.108</ele>
        <time>2020-04-05T21:35:10Z</time>
      </trkpt>
      <trkpt lat="44.83901" lon="6.47014">
        <ele>1198.611</ele>
        <time>2020-04-05T21:35:30Z</time>
      </trkpt>
      <trkpt lat="44.83904" lon="6.46979">
        <ele>1198.439</ele>
        <time>2020-04-05T21:35:50Z</time>
      </trkpt>
      <trkpt lat="44.83899" lon="6.46952">
        <ele>1200.437</ele>
        <time>2020-04-05T21:36:10Z</time>
      </trkpt>
      <trkpt lat="44.83884" lon="6.46915">
        <ele>1202.241</ele>
        <time>2020-04-05T21:36:30Z</time>
      </trkpt>
      <trkpt lat="44.83882" lon="6.46872">
        <ele>1201.912</ele>
        <time>2020-04-05T21:36:50Z</time>
      </trkpt>
      <trkpt lat="44.83876" lon="6.46852">
        <ele>1205.389</ele>
        <time>2020-04-05T21:37:10Z</time>
      </trkpt>
      <trkpt lat="44.83865" lon="6.46827">
        <ele>1211.333</ele>
        <time>2020-04-05T21:37:30Z</time>
      </trkpt>
      <trkpt lat="44.83862" lon="6.4676">
        <ele>1206.16</ele>
        <time>2020-04-05T21:37:50Z</time>
      </trkpt>
      <trkpt lat="44.83849" lon="6.46709">
        <ele>1207.127</ele>
        <time>2020-04-05T21:38:10Z</time>
      </trkpt>
      <trkpt lat="44.83839" lon="6.46695">
        <ele>1209.668</ele>
        <time>2020-04-05T21:38:30Z</time>
      </trkpt>
      <trkpt lat="44.83834" lon="6.46679">
        <ele>1207.814</ele>
        <time>2020-04-05T21:38:50Z</time>
      </trkpt>
      <trkpt lat="44.83821" lon="6.46674">
        <ele>1211.008</ele>
        <time>2020-04-05T21:39:10Z</time>
      </trkpt>
      <trkpt lat="44.83807" lon="6.46637">
        <ele>1210.718</ele>
        <time>2020-04-05T21:39:30Z</time>
      </trkpt>
      <trkpt lat="44.83781" lon="6.4658">
        <ele>1222.786</ele>
        <time>2020-04-05T21:39:50Z</time>
      </trkpt>
      <trkpt lat="44.8378" lon="6.46551">
        <ele>1222.814</ele>
        <time>2020-04-05T21:40:10Z</time>
      </trkpt>
      <trkpt lat="44.83819" lon="6.46415">
        <ele>1227.138</ele>
        <time>2020-04-05T21:40:30Z</time>
      </trkpt>
      <trkpt lat="44.83832" lon="6.464">
        <ele>1222.929</ele>
        <time>2020-04-05T21:40:50Z</time>
      </trkpt>
      <trkpt lat="44.83852" lon="6.4638">
        <ele>1219.586</ele>
        <time>2020-04-05T21:41:10Z</time>
      </trkpt>
      <trkpt lat="44.83882" lon="6.4617">
        <ele>1220.73</ele>
        <time>2020-04-05T21:41:30Z</time>
      </trkpt>
      <trkpt lat="44.839" lon="6.46124">
        <ele>1216.437</ele>
        <time>2020-04-05T21:41:50Z</time>
      </trkpt>
      <trkpt lat="44.83896" lon="6.46098">
        <ele>1217.113</ele>
        <time>2020-04-05T21:42:10Z</time>
      </trkpt>
      <trkpt lat="44.83881" lon="6.46051">
        <ele>1222.743</ele>
        <time>2020-04-05T21:42:30Z</time>
      </trkpt>
      <trkpt lat="44.83895" lon="6.45908">
        <ele>1226.507</ele>
        <time>2020-04-05T21:42:50Z</time>
      </trkpt>
      <trkpt lat="44.83919" lon="6.45844">
        <ele>1224.808</ele>
        <time>2020-04-05T21:43:10Z</time>
      </trkpt>
      <trkpt lat="44.83917" lon="6.45763">
        <ele>1228.127</ele>
        <time>2020-04-05T21:43:30Z</time>
      </trkpt>
      <trkpt lat="44.83923" lon="6.45685">
        <ele>1231.635</ele>
        <time>2020-04-05T21:43:50Z</time>
      </trkpt>
      <trkpt lat="44.83897" lon="6.45604">
        <ele>1237.953</ele>
        <time>2020-04-05T21:44:10Z</time>
      </trkpt>
      <trkpt lat="44.83904" lon="6.45534">
        <ele>1238.737</ele>
        <time>2020-04-05T21:44:30Z</time>
      </trkpt>
      <trkpt lat="44.83923" lon="6.45514">
        <ele>1239.178</ele>
        <time>2020-04-05T21:44:50Z</time>
      </trkpt>
      <trkpt lat="44.83941" lon="6.45528">
        <ele>1238.815</ele>
        <time>2020-04-05T21:45:10Z</time>
      </trkpt>
      <trkpt lat="44.83954" lon="6.45546">
        <ele>1238.679</ele>
        <time>2020-04-05T21:45:30Z</time>
      </trkpt>
      <trkpt lat="44.83977" lon="6.45556">
        <ele>1240.366</ele>
        <time>2020-04-05T21:45:50Z</time>
      </trkpt>
      <trkpt lat="44.83985" lon="6.4551">
        <ele>1241.241</ele>
        <time>2020-04-05T21:46:10Z</time>
      </trkpt>
      <trkpt lat="44.84002" lon="6.45438">
        <ele>1242.781</ele>
        <time>2020-04-05T21:46:30Z</time>
      </trkpt>
      <trkpt lat="44.84002" lon="6.45399">
        <ele>1242.509</ele>
        <time>2020-04-05T21:46:50Z</time>
      </trkpt>
      <trkpt lat="44.83982" lon="6.45337">
        <ele>1244.208</ele>
        <time>2020-04-05T21:47:10Z</time>
      </trkpt>
      <trkpt lat="44.83971" lon="6.4525">
        <ele>1248.09</ele>
        <time>2020-04-05T21:47:30Z</time>
      </trkpt>
      <trkpt lat="44.83967" lon="6.45154">
        <ele>1252.798</ele>
        <time>2020-04-05T21:47:50Z</time>
      </trkpt>
      <trkpt lat="44.83974" lon="6.45108">
        <ele>1256.056</ele>
        <time>2020-04-05T21:48:10Z</time>
      </trkpt>
      <trkpt lat="44.83961" lon="6.45062">
        <ele>1257.43</ele>
        <time>2020-04-05T21:48:30Z</time>
      </trkpt>
      <trkpt lat="44.8393" lon="6.44986">
        <ele>1259.251</ele>
        <time>2020-04-05T21:48:50Z</time>
      </trkpt>
      <trkpt lat="44.83902" lon="6.44905">
        <ele>1263.128</ele>
        <time>2020-04-05T21:49:10Z</time>
      </trkpt>
      <trkpt lat="44.83883" lon="6.44866">
        <ele>1262.962</ele>
        <time>2020-04-05T21:49:30Z</time>
      </trkpt>
      <trkpt lat="44.8387" lon="6.44834">
        <ele>1266.559</ele>
        <time>2020-04-05T21:49:50Z</time>
      </trkpt>
      <trkpt lat="44.83868" lon="6.44812">
        <ele>1267.928</ele>
        <time>2020-04-05T21:50:10Z</time>
      </trkpt>
      <trkpt lat="44.83877" lon="6.44649">
        <ele>1280.489</ele>
        <time>2020-04-05T21:50:30Z</time>
      </trkpt>
      <trkpt lat="44.83874" lon="6.44561">
        <ele>1285.717</ele>
        <time>2020-04-05T21:50:50Z</time>
      </trkpt>
      <trkpt lat="44.83855" lon="6.44472">
        <ele>1291.908</ele>
        <time>2020-04-05T21:51:10Z</time>
      </trkpt>
      <trkpt lat="44.83779" lon="6.44327">
        <ele>1301.138</ele>
        <time>2020-04-05T21:51:30Z</time>
      </trkpt>
      <trkpt lat="44.8378" lon="6.44278">
        <ele>1307.696</ele>
        <time>2020-04-05T21:51:50Z</time>
      </trkpt>
      <trkpt lat="44.83762" lon="6.44168">
        <ele>1317.344</ele>
        <time>2020-04-05T21:52:10Z</time>
      </trkpt>
      <trkpt lat="44.8372" lon="6.44038">
        <ele>1330.518</ele>
        <time>2020-04-05T21:52:30Z</time>
      </trkpt>
      <trkpt lat="44.83657" lon="6.43977">
        <ele>1336.439</ele>
        <time>2020-04-05T21:52:50Z</time>
      </trkpt>
      <trkpt lat="44.83618" lon="6.43906">
        <ele>1345.576</ele>
        <time>2020-04-05T21:53:10Z</time>
      </trkpt>
      <trkpt lat="44.83602" lon="6.43878">
        <ele>1346.07</ele>
        <time>2020-04-05T21:53:30Z</time>
      </trkpt>
      <trkpt lat="44.83597" lon="6.43838">
        <ele>1350.197</ele>
        <time>2020-04-05T21:53:50Z</time>
      </trkpt>
      <trkpt lat="44.8361" lon="6.43784">
        <ele>1358.498</ele>
        <time>2020-04-05T21:54:10Z</time>
      </trkpt>
      <trkpt lat="44.83609" lon="6.43772">
        <ele>1358.415</ele>
        <time>2020-04-05T21:54:30Z</time>
      </trkpt>
      <trkpt lat="44.83613" lon="6.43715">
        <ele>1365.726</ele>
        <time>2020-04-05T21:54:50Z</time>
      </trkpt>
      <trkpt lat="44.83612" lon="6.437">
        <ele>1367.708</ele>
        <time>2020-04-05T21:55:10Z</time>
      </trkpt>
      <trkpt lat="44.83618" lon="6.43695">
        <ele>1371.295</ele>
        <time>2020-04-05T21:55:30Z</time>
      </trkpt>
      <trkpt lat="44.83633" lon="6.43747">
        <ele>1372.343</ele>
        <time>2020-04-05T21:55:50Z</time>
      </trkpt>
      <trkpt lat="44.83638" lon="6.43746">
        <ele>1374.661</ele>
        <time>2020-04-05T21:56:10Z</time>
      </trkpt>
      <trkpt lat="44.83642" lon="6.43729">
        <ele>1377.465</ele>
        <time>2020-04-05T21:56:30Z</time>
      </trkpt>
      <trkpt lat="44.83636" lon="6.43694">
        <ele>1379.866</ele>
        <time>2020-04-05T21:56:50Z</time>
      </trkpt>
      <trkpt lat="44.83624" lon="6.4367">
        <ele>1379.183</ele>
        <time>2020-04-05T21:57:10Z</time>
      </trkpt>
      <trkpt lat="44.83608" lon="6.43652">
        <ele>1376.557</ele>
        <time>2020-04-05T21:57:30Z</time>
      </trkpt>
      <trkpt lat="44.83589" lon="6.43561">
        <ele>1387.254</ele>
        <time>2020-04-05T21:57:50Z</time>
      </trkpt>
      <trkpt lat="44.83588" lon="6.43538">
        <ele>1390.314</ele>
        <time>2020-04-05T21:58:10Z</time>
      </trkpt>
      <trkpt lat="44.83584" lon="6.43521">
        <ele>1389.154</ele>
        <time>2020-04-05T21:58:30Z</time>
      </trkpt>
      <trkpt lat="44.83588" lon="6.43487">
        <ele>1397.209</ele>
        <time>2020-04-05T21:58:50Z</time>
      </trkpt>
      <trkpt lat="44.83564" lon="6.43455">
        <ele>1397.608</ele>
        <time>2020-04-05T21:59:10Z</time>
      </trkpt>
      <trkpt lat="44.83564" lon="6.4344">
        <ele>1400.187</ele>
        <time>2020-04-05T21:59:30Z</time>
      </trkpt>
      <trkpt lat="44.83582" lon="6.43402">
        <ele>1410.165</ele>
        <time>2020-04-05T21:59:50Z</time>
      </trkpt>
      <trkpt lat="44.83566" lon="6.43372">
        <ele>1413.973</ele>
        <time>2020-04-05T22:00:10Z</time>
      </trkpt>
      <trkpt lat="44.83546" lon="6.4338">
        <ele>1406.327</ele>
        <time>2020-04-05T22:00:30Z</time>
      </trkpt>
      <trkpt lat="44.83538" lon="6.43377">
        <ele>1404.598</ele>
        <time>2020-04-05T22:00:50Z</time>
      </trkpt>
      <trkpt lat="44.8354" lon="6.43365">
        <ele>1409.835</ele>
        <time>2020-04-05T22:01:10Z</time>
      </trkpt>
      <trkpt lat="44.83565" lon="6.43346">
        <ele>1418.329</ele>
        <time>2020-04-05T22:01:30Z</time>
      </trkpt>
      <trkpt lat="44.83582" lon="6.43363">
        <ele>1419.376</ele>
        <time>2020-04-05T22:01:50Z</time>
      </trkpt>
      <trkpt lat="44.83587" lon="6.4336">
        <ele>1422.634</ele>
        <time>2020-04-05T22:02:10Z</time>
      </trkpt>
      <trkpt lat="44.83575" lon="6.4331">
        <ele>1426.655</ele>
        <time>2020-04-05T22:02:30Z</time>
      </trkpt>
      <trkpt lat="44.83557" lon="6.43274">
        <ele>1428.01</ele>
        <time>2020-04-05T22:02:50Z</time>
      </trkpt>
      <trkpt lat="44.83541" lon="6.43273">
        <ele>1423.808</ele>
        <time>2020-04-05T22:03:10Z</time>
      </trkpt>
      <trkpt lat="44.8354" lon="6.43264">
        <ele>1424.659</ele>
        <time>2020-04-05T22:03:30Z</time>
      </trkpt>
      <trkpt lat="44.83554" lon="6.43249">
        <ele>1431.637</ele>
        <time>2020-04-05T22:03:50Z</time>
      </trkpt>
      <trkpt lat="44.83572" lon="6.43246">
        <ele>1436.355</ele>
        <time>2020-04-05T22:04:10Z</time>
      </trkpt>
      <trkpt lat="44.83591" lon="6.43265">
        <ele>1440.639</ele>
        <time>2020-04-05T22:04:30Z</time>
      </trkpt>
      <trkpt lat="44.83595" lon="6.43257">
        <ele>1444.77</ele>
        <time>2020-04-05T22:04:50Z</time>
      </trkpt>
      <trkpt lat="44.83585" lon="6.43214">
        <ele>1445.517</ele>
        <time>2020-04-05T22:05:10Z</time>
      </trkpt>
      <trkpt lat="44.83567" lon="6.43157">
        <ele>1446.231</ele>
        <time>2020-04-05T22:05:30Z</time>
      </trkpt>
      <trkpt lat="44.83573" lon="6.43114">
        <ele>1448.788</ele>
        <time>2020-04-05T22:05:50Z</time>
      </trkpt>
      <trkpt lat="44.83592" lon="6.43051">
        <ele>1457.088</ele>
        <time>2020-04-05T22:06:10Z</time>
      </trkpt>
      <trkpt lat="44.83591" lon="6.43036">
        <ele>1459.724</ele>
        <time>2020-04-05T22:06:30Z</time>
      </trkpt>
      <trkpt lat="44.83575" lon="6.43011">
        <ele>1458.226</ele>
        <time>2020-04-05T22:06:50Z</time>
      </trkpt>
      <trkpt lat="44.83565" lon="6.42979">
        <ele>1462.808</ele>
        <time>2020-04-05T22:07:10Z</time>
      </trkpt>
      <trkpt lat="44.83541" lon="6.42961">
        <ele>1460.624</ele>
        <time>2020-04-05T22:07:30Z</time>
      </trkpt>
      <trkpt lat="44.83512" lon="6.42878">
        <ele>1467.462</ele>
        <time>2020-04-05T22:07:50Z</time>
      </trkpt>
      <trkpt lat="44.83508" lon="6.42859">
        <ele>1468.74</ele>
        <time>2020-04-05T22:08:10Z</time>
      </trkpt>
      <trkpt lat="44.83499" lon="6.42823">
        <ele>1469.634</ele>
        <time>2020-04-05T22:08:30Z</time>
      </trkpt>
      <trkpt lat="44.83496" lon="6.42765">
        <ele>1472.415</ele>
        <time>2020-04-05T22:08:50Z</time>
      </trkpt>
      <trkpt lat="44.8351" lon="6.42726">
        <ele>1476.262</ele>
        <time>2020-04-05T22:09:10Z</time>
      </trkpt>
      <trkpt lat="44.83524" lon="6.42703">
        <ele>1481.746</ele>
        <time>2020-04-05T22:09:30Z</time>
      </trkpt>
      <trkpt lat="44.83529" lon="6.42667">
        <ele>1483.393</ele>
        <time>2020-04-05T22:09:50Z</time>
      </trkpt>
      <trkpt lat="44.83523" lon="6.42622">
        <ele>1482.847</ele>
        <time>2020-04-05T22:10:10Z</time>
      </trkpt>
      <trkpt lat="44.83499" lon="6.42552">
        <ele>1486.729</ele>
        <time>2020-04-05T22:10:30Z</time>
      </trkpt>
      <trkpt lat="44.83447" lon="6.42514">
        <ele>1486.621</ele>
        <time>2020-04-05T22:10:50Z</time>
      </trkpt>
      <trkpt lat="44.83436" lon="6.42473">
        <ele>1492.808</ele>
        <time>2020-04-05T22:11:10Z</time>
      </trkpt>
      <trkpt lat="44.83426" lon="6.42452">
        <ele>1494.26</ele>
        <time>2020-04-05T22:11:30Z</time>
      </trkpt>
      <trkpt lat="44.83413" lon="6.42437">
        <ele>1493.258</ele>
        <time>2020-04-05T22:11:50Z</time>
      </trkpt>
      <trkpt lat="44.8341" lon="6.42408">
        <ele>1496.936</ele>
        <time>2020-04-05T22:12:10Z</time>
      </trkpt>
      <trkpt lat="44.83402" lon="6.42382">
        <ele>1499.22</ele>
        <time>2020-04-05T22:12:30Z</time>
      </trkpt>
      <trkpt lat="44.83395" lon="6.42366">
        <ele>1499.251</ele>
        <time>2020-04-05T22:12:50Z</time>
      </trkpt>
      <trkpt lat="44.83395" lon="6.42328">
        <ele>1503.448</ele>
        <time>2020-04-05T22:13:10Z</time>
      </trkpt>
      <trkpt lat="44.8338" lon="6.42293">
        <ele>1501.062</ele>
        <time>2020-04-05T22:13:30Z</time>
      </trkpt>
      <trkpt lat="44.83376" lon="6.42159">
        <ele>1514.269</ele>
        <time>2020-04-05T22:13:50Z</time>
      </trkpt>
      <trkpt lat="44.83367" lon="6.42139">
        <ele>1514.341</ele>
        <time>2020-04-05T22:14:10Z</time>
      </trkpt>
      <trkpt lat="44.83333" lon="6.42098">
        <ele>1511.781</ele>
        <time>2020-04-05T22:14:30Z</time>
      </trkpt>
      <trkpt lat="44.83328" lon="6.42071">
        <ele>1518.009</ele>
        <time>2020-04-05T22:14:50Z</time>
      </trkpt>
      <trkpt lat="44.83314" lon="6.42058">
        <ele>1516.608</ele>
        <time>2020-04-05T22:15:10Z</time>
      </trkpt>
      <trkpt lat="44.83306" lon="6.42016">
        <ele>1519.61</ele>
        <time>2020-04-05T22:15:30Z</time>
      </trkpt>
      <trkpt lat="44.83313" lon="6.41933">
        <ele>1529.198</ele>
        <time>2020-04-05T22:15:50Z</time>
      </trkpt>
      <trkpt lat="44.83307" lon="6.41895">
        <ele>1529.096</ele>
        <time>2020-04-05T22:16:10Z</time>
      </trkpt>
      <trkpt lat="44.83301" lon="6.41878">
        <ele>1529.73</ele>
        <time>2020-04-05T22:16:30Z</time>
      </trkpt>
      <trkpt lat="44.83261" lon="6.41825">
        <ele>1526.511</ele>
        <time>2020-04-05T22:16:50Z</time>
      </trkpt>
      <trkpt lat="44.83249" lon="6.41801">
        <ele>1524.758</ele>
        <time>2020-04-05T22:17:10Z</time>
      </trkpt>
      <trkpt lat="44.83247" lon="6.41784">
        <ele>1526.952</ele>
        <time>2020-04-05T22:17:30Z</time>
      </trkpt>
      <trkpt lat="44.83249" lon="6.41738">
        <ele>1533.279</ele>
        <time>2020-04-05T22:17:50Z</time>
      </trkpt>
      <trkpt lat="44.83252" lon="6.4168">
        <ele>1539.477</ele>
        <time>2020-04-05T22:18:10Z</time>
      </trkpt>
      <trkpt lat="44.83262" lon="6.41608">
        <ele>1546.661</ele>
        <time>2020-04-05T22:18:30Z</time>
      </trkpt>
      <trkpt lat="44.8327" lon="6.41567">
        <ele>1552.427</ele>
        <time>2020-04-05T22:18:50Z</time>
      </trkpt>
      <trkpt lat="44.83271" lon="6.41525">
        <ele>1556.508</ele>
        <time>2020-04-05T22:19:10Z</time>
      </trkpt>
      <trkpt lat="44.83264" lon="6.41461">
        <ele>1563.473</ele>
        <time>2020-04-05T22:19:30Z</time>
      </trkpt>
      <trkpt lat="44.83246" lon="6.41404">
        <ele>1563.241</ele>
        <time>2020-04-05T22:19:50Z</time>
      </trkpt>
      <trkpt lat="44.83245" lon="6.41375">
        <ele>1566.729</ele>
        <time>2020-04-05T22:20:10Z</time>
      </trkpt>
      <trkpt lat="44.83258" lon="6.41338">
        <ele>1573.043</ele>
        <time>2020-04-05T22:20:30Z</time>
      </trkpt>
      <trkpt lat="44.83267" lon="6.41284">
        <ele>1578.334</ele>
        <time>2020-04-05T22:20:50Z</time>
      </trkpt>
      <trkpt lat="44.83265" lon="6.41264">
        <ele>1579.071</ele>
        <time>2020-04-05T22:21:10Z</time>
      </trkpt>
      <trkpt lat="44.83256" lon="6.4123">
        <ele>1578.645</ele>
        <time>2020-04-05T22:21:30Z</time>
      </trkpt>
      <trkpt lat="44.83258" lon="6.41182">
        <ele>1585.352</ele>
        <time>2020-04-05T22:21:50Z</time>
      </trkpt>
      <trkpt lat="44.83255" lon="6.41149">
        <ele>1587.923</ele>
        <time>2020-04-05T22:22:10Z</time>
      </trkpt>
      <trkpt lat="44.83246" lon="6.41121">
        <ele>1587.583</ele>
        <time>2020-04-05T22:22:30Z</time>
      </trkpt>
      <trkpt lat="44.83225" lon="6.41063">
        <ele>1585.811</ele>
        <time>2020-04-05T22:22:50Z</time>
      </trkpt>
      <trkpt lat="44.8322" lon="6.41022">
        <ele>1588.908</ele>
        <time>2020-04-05T22:23:10Z</time>
      </trkpt>
      <trkpt lat="44.83219" lon="6.40941">
        <ele>1593.458</ele>
        <time>2020-04-05T22:23:30Z</time>
      </trkpt>
      <trkpt lat="44.83213" lon="6.40912">
        <ele>1595.396</ele>
        <time>2020-04-05T22:23:50Z</time>
      </trkpt>
      <trkpt lat="44.83192" lon="6.40879">
        <ele>1594.634</ele>
        <time>2020-04-05T22:24:10Z</time>
      </trkpt>
      <trkpt lat="44.83159" lon="6.40784">
        <ele>1600.138</ele>
        <time>2020-04-05T22:24:30Z</time>
      </trkpt>
      <trkpt lat="44.83125" lon="6.40705">
        <ele>1604.169</ele>
        <time>2020-04-05T22:24:50Z</time>
      </trkpt>
      <trkpt lat="44.83112" lon="6.40687">
        <ele>1604.326</ele>
        <time>2020-04-05T22:25:10Z</time>
      </trkpt>
      <trkpt lat="44.83089" lon="6.40643">
        <ele>1606.42</ele>
        <time>2020-04-05T22:25:30Z</time>
      </trkpt>
      <trkpt lat="44.83069" lon="6.40609">
        <ele>1607.297</ele>
        <time>2020-04-05T22:25:50Z</time>
      </trkpt>
      <trkpt lat="44.83062" lon="6.40556">
        <ele>1610.291</ele>
        <time>2020-04-05T22:26:10Z</time>
      </trkpt>
      <trkpt lat="44.83058" lon="6.40488">
        <ele>1612.181</ele>
        <time>2020-04-05T22:26:30Z</time>
      </trkpt>
      <trkpt lat="44.83065" lon="6.40342">
        <ele>1616.119</ele>
        <time>2020-04-05T22:26:50Z</time>
      </trkpt>
      <trkpt lat="44.83074" lon="6.40309">
        <ele>1615.908</ele>
        <time>2020-04-05T22:27:10Z</time>
      </trkpt>
      <trkpt lat="44.83092" lon="6.40272">
        <ele>1617.735</ele>
        <time>2020-04-05T22:27:30Z</time>
      </trkpt>
      <trkpt lat="44.83121" lon="6.40177">
        <ele>1617.813</ele>
        <time>2020-04-05T22:27:50Z</time>
      </trkpt>
      <trkpt lat="44.83106" lon="6.40168">
        <ele>1614.381</ele>
        <time>2020-04-05T22:28:10Z</time>
      </trkpt>
      <trkpt lat="44.83108" lon="6.40145">
        <ele>1613.885</ele>
        <time>2020-04-05T22:28:30Z</time>
      </trkpt>
      <trkpt lat="44.83087" lon="6.40149">
        <ele>1610.936</ele>
        <time>2020-04-05T22:28:50Z</time>
      </trkpt>
      <trkpt lat="44.83073" lon="6.4014">
        <ele>1610.083</ele>
        <time>2020-04-05T22:29:10Z</time>
      </trkpt>
      <trkpt lat="44.83038" lon="6.40124">
        <ele>1610.057</ele>
        <time>2020-04-05T22:29:30Z</time>
      </trkpt>
      <trkpt lat="44.83027" lon="6.40093">
        <ele>1610.054</ele>
        <time>2020-04-05T22:29:50Z</time>
      </trkpt>
      <trkpt lat="44.83027" lon="6.4007">
        <ele>1610.032</ele>
        <time>2020-04-05T22:30:10Z</time>
      </trkpt>
      <trkpt lat="44.83013" lon="6.40045">
        <ele>1610.092</ele>
        <time>2020-04-05T22:30:30Z</time>
      </trkpt>
      <trkpt lat="44.83011" lon="6.40021">
        <ele>1610.011</ele>
        <time>2020-04-05T22:30:50Z</time>
      </trkpt>
      <trkpt lat="44.82999" lon="6.4001">
        <ele>1610.008</ele>
        <time>2020-04-05T22:31:10Z</time>
      </trkpt>
      <trkpt lat="44.82997" lon="6.39995">
        <ele>1610.319</ele>
        <time>2020-04-05T22:31:30Z</time>
      </trkpt>
      <trkpt lat="44.82988" lon="6.39969">
        <ele>1611.677</ele>
        <time>2020-04-05T22:31:50Z</time>
      </trkpt>
      <trkpt lat="44.82984" lon="6.39941">
        <ele>1612.645</ele>
        <time>2020-04-05T22:32:10Z</time>
      </trkpt>
      <trkpt lat="44.82974" lon="6.39899">
        <ele>1613.699</ele>
        <time>2020-04-05T22:32:30Z</time>
      </trkpt>
      <trkpt lat="44.82973" lon="6.3987">
        <ele>1614.07</ele>
        <time>2020-04-05T22:32:50Z</time>
      </trkpt>
      <trkpt lat="44.82961" lon="6.39838">
        <ele>1615.377</ele>
        <time>2020-04-05T22:33:10Z</time>
      </trkpt>
      <trkpt lat="44.82949" lon="6.39824">
        <ele>1616.121</ele>
        <time>2020-04-05T22:33:30Z</time>
      </trkpt>
      <trkpt lat="44.8294" lon="6.39796">
        <ele>1617.378</ele>
        <time>2020-04-05T22:33:50Z</time>
      </trkpt>
      <trkpt lat="44.82924" lon="6.39783">
        <ele>1619.091</ele>
        <time>2020-04-05T22:34:10Z</time>
      </trkpt>
      <trkpt lat="44.82921" lon="6.39763">
        <ele>1619.681</ele>
        <time>2020-04-05T22:34:30Z</time>
      </trkpt>
      <trkpt lat="44.82908" lon="6.39738">
        <ele>1620.819</ele>
        <time>2020-04-05T22:34:50Z</time>
      </trkpt>
      <trkpt lat="44.82894" lon="6.39707">
        <ele>1623.908</ele>
        <time>2020-04-05T22:35:10Z</time>
      </trkpt>
      <trkpt lat="44.82894" lon="6.39692">
        <ele>1625.125</ele>
        <time>2020-04-05T22:35:30Z</time>
      </trkpt>
      <trkpt lat="44.82898" lon="6.39669">
        <ele>1625.573</ele>
        <time>2020-04-05T22:35:50Z</time>
      </trkpt>
      <trkpt lat="44.82889" lon="6.39645">
        <ele>1630.271</ele>
        <time>2020-04-05T22:36:10Z</time>
      </trkpt>
      <trkpt lat="44.82851" lon="6.3962">
        <ele>1637.065</ele>
        <time>2020-04-05T22:36:30Z</time>
      </trkpt>
      <trkpt lat="44.82805" lon="6.39623">
        <ele>1635.166</ele>
        <time>2020-04-05T22:36:50Z</time>
      </trkpt>
      <trkpt lat="44.82777" lon="6.39616">
        <ele>1639.343</ele>
        <time>2020-04-05T22:37:10Z</time>
      </trkpt>
      <trkpt lat="44.82748" lon="6.39622">
        <ele>1642.947</ele>
        <time>2020-04-05T22:37:30Z</time>
      </trkpt>
      <trkpt lat="44.82722" lon="6.39615">
        <ele>1651.444</ele>
        <time>2020-04-05T22:37:50Z</time>
      </trkpt>
      <trkpt lat="44.82703" lon="6.39624">
        <ele>1650.398</ele>
        <time>2020-04-05T22:38:10Z</time>
      </trkpt>
      <trkpt lat="44.82675" lon="6.39623">
        <ele>1655.115</ele>
        <time>2020-04-05T22:38:30Z</time>
      </trkpt>
      <trkpt lat="44.82667" lon="6.39607">
        <ele>1659.526</ele>
        <time>2020-04-05T22:38:50Z</time>
      </trkpt>
      <trkpt lat="44.82655" lon="6.39608">
        <ele>1660.108</ele>
        <time>2020-04-05T22:39:10Z</time>
      </trkpt>
      <trkpt lat="44.82629" lon="6.39601">
        <ele>1664.575</ele>
        <time>2020-04-05T22:39:30Z</time>
      </trkpt>
      <trkpt lat="44.82598" lon="6.39611">
        <ele>1665.973</ele>
        <time>2020-04-05T22:39:50Z</time>
      </trkpt>
      <trkpt lat="44.82567" lon="6.3961">
        <ele>1672.741</ele>
        <time>2020-04-05T22:40:10Z</time>
      </trkpt>
      <trkpt lat="44.82543" lon="6.39605">
        <ele>1677.375</ele>
        <time>2020-04-05T22:40:30Z</time>
      </trkpt>
      <trkpt lat="44.82518" lon="6.39591">
        <ele>1686.166</ele>
        <time>2020-04-05T22:40:50Z</time>
      </trkpt>
      <trkpt lat="44.82487" lon="6.39593">
        <ele>1687.243</ele>
        <time>2020-04-05T22:41:10Z</time>
      </trkpt>
      <trkpt lat="44.82467" lon="6.39589">
        <ele>1690.267</ele>
        <time>2020-04-05T22:41:30Z</time>
      </trkpt>
      <trkpt lat="44.82451" lon="6.3958">
        <ele>1694.574</ele>
        <time>2020-04-05T22:41:50Z</time>
      </trkpt>
      <trkpt lat="44.82418" lon="6.39583">
        <ele>1699.999</ele>
        <time>2020-04-05T22:42:10Z</time>
      </trkpt>
      <trkpt lat="44.82396" lon="6.39593">
        <ele>1702.507</ele>
        <time>2020-04-05T22:42:30Z</time>
      </trkpt>
      <trkpt lat="44.82377" lon="6.39592">
        <ele>1708.827</ele>
        <time>2020-04-05T22:42:50Z</time>
      </trkpt>
      <trkpt lat="44.82357" lon="6.39603">
        <ele>1714.108</ele>
        <time>2020-04-05T22:43:10Z</time>
      </trkpt>
      <trkpt lat="44.82345" lon="6.39616">
        <ele>1716.265</ele>
        <time>2020-04-05T22:43:30Z</time>
      </trkpt>
      <trkpt lat="44.82331" lon="6.39618">
        <ele>1719.133</ele>
        <time>2020-04-05T22:43:50Z</time>
      </trkpt>
      <trkpt lat="44.82315" lon="6.39611">
        <ele>1719.611</ele>
        <time>2020-04-05T22:44:10Z</time>
      </trkpt>
      <trkpt lat="44.82282" lon="6.39623">
        <ele>1721.125</ele>
        <time>2020-04-05T22:44:30Z</time>
      </trkpt>
      <trkpt lat="44.8227" lon="6.39618">
        <ele>1723.576</ele>
        <time>2020-04-05T22:44:50Z</time>
      </trkpt>
      <trkpt lat="44.82264" lon="6.39613">
        <ele>1725.243</ele>
        <time>2020-04-05T22:45:10Z</time>
      </trkpt>
      <trkpt lat="44.82247" lon="6.39611">
        <ele>1728.867</ele>
        <time>2020-04-05T22:45:30Z</time>
      </trkpt>
      <trkpt lat="44.82236" lon="6.39615">
        <ele>1731.514</ele>
        <time>2020-04-05T22:45:50Z</time>
      </trkpt>
      <trkpt lat="44.82224" lon="6.39612">
        <ele>1735.457</ele>
        <time>2020-04-05T22:46:10Z</time>
      </trkpt>
      <trkpt lat="44.82218" lon="6.39593">
        <ele>1737.7</ele>
        <time>2020-04-05T22:46:30Z</time>
      </trkpt>
      <trkpt lat="44.82209" lon="6.3959">
        <ele>1738.62</ele>
        <time>2020-04-05T22:46:50Z</time>
      </trkpt>
      <trkpt lat="44.82189" lon="6.39608">
        <ele>1739.108</ele>
        <time>2020-04-05T22:47:10Z</time>
      </trkpt>
      <trkpt lat="44.8218" lon="6.39604">
        <ele>1739.321</ele>
        <time>2020-04-05T22:47:30Z</time>
      </trkpt>
      <trkpt lat="44.82145" lon="6.39583">
        <ele>1740.279</ele>
        <time>2020-04-05T22:47:50Z</time>
      </trkpt>
      <trkpt lat="44.8212" lon="6.39586">
        <ele>1742.547</ele>
        <time>2020-04-05T22:48:10Z</time>
      </trkpt>
      <trkpt lat="44.82101" lon="6.39598">
        <ele>1743.641</ele>
        <time>2020-04-05T22:48:30Z</time>
      </trkpt>
      <trkpt lat="44.82083" lon="6.39596">
        <ele>1746.572</ele>
        <time>2020-04-05T22:48:50Z</time>
      </trkpt>
      <trkpt lat="44.82069" lon="6.39601">
        <ele>1747.779</ele>
        <time>2020-04-05T22:49:10Z</time>
      </trkpt>
      <trkpt lat="44.8205" lon="6.39584">
        <ele>1753.833</ele>
        <time>2020-04-05T22:49:30Z</time>
      </trkpt>
      <trkpt lat="44.82018" lon="6.39576">
        <ele>1762.34</ele>
        <time>2020-04-05T22:49:50Z</time>
      </trkpt>
      <trkpt lat="44.82006" lon="6.39561">
        <ele>1772.423</ele>
        <time>2020-04-05T22:50:10Z</time>
      </trkpt>
      <trkpt lat="44.81978" lon="6.39547">
        <ele>1785.183</ele>
        <time>2020-04-05T22:50:30Z</time>
      </trkpt>
      <trkpt lat="44.81962" lon="6.39558">
        <ele>1780.311</ele>
        <time>2020-04-05T22:50:50Z</time>
      </trkpt>
      <trkpt lat="44.81924" lon="6.39544">
        <ele>1778.708</ele>
        <time>2020-04-05T22:51:10Z</time>
      </trkpt>
      <trkpt lat="44.81857" lon="6.39497">
        <ele>1786.538</ele>
        <time>2020-04-05T22:51:30Z</time>
      </trkpt>
      <trkpt lat="44.81794" lon="6.39448">
        <ele>1793.176</ele>
        <time>2020-04-05T22:51:50Z</time>
      </trkpt>
      <trkpt lat="44.81771" lon="6.39434">
        <ele>1796.094</ele>
        <time>2020-04-05T22:52:10Z</time>
      </trkpt>
      <trkpt lat="44.81737" lon="6.39396">
        <ele>1806.898</ele>
        <time>2020-04-05T22:52:30Z</time>
      </trkpt>
      <trkpt lat="44.81706" lon="6.39378">
        <ele>1805.759</ele>
        <time>2020-04-05T22:52:50Z</time>
      </trkpt>
      <trkpt lat="44.81694" lon="6.39358">
        <ele>1807.666</ele>
        <time>2020-04-05T22:53:10Z</time>
      </trkpt>
      <trkpt lat="44.81683" lon="6.3931">
        <ele>1818.47</ele>
        <time>2020-04-05T22:53:30Z</time>
      </trkpt>
      <trkpt lat="44.81661" lon="6.39274">
        <ele>1822.297</ele>
        <time>2020-04-05T22:53:50Z</time>
      </trkpt>
      <trkpt lat="44.81632" lon="6.39238">
        <ele>1821.958</ele>
        <time>2020-04-05T22:54:10Z</time>
      </trkpt>
      <trkpt lat="44.81621" lon="6.39218">
        <ele>1824.752</ele>
        <time>2020-04-05T22:54:30Z</time>
      </trkpt>
      <trkpt lat="44.81599" lon="6.39205">
        <ele>1821.717</ele>
        <time>2020-04-05T22:54:50Z</time>
      </trkpt>
      <trkpt lat="44.81574" lon="6.392">
        <ele>1814.608</ele>
        <time>2020-04-05T22:55:10Z</time>
      </trkpt>
      <trkpt lat="44.81561" lon="6.39193">
        <ele>1813.351</ele>
        <time>2020-04-05T22:55:30Z</time>
      </trkpt>
      <trkpt lat="44.81535" lon="6.3916">
        <ele>1812.389</ele>
        <time>2020-04-05T22:55:50Z</time>
      </trkpt>
      <trkpt lat="44.81532" lon="6.39138">
        <ele>1814.747</ele>
        <time>2020-04-05T22:56:10Z</time>
      </trkpt>
      <trkpt lat="44.81514" lon="6.39109">
        <ele>1814.491</ele>
        <time>2020-04-05T22:56:30Z</time>
      </trkpt>
      <trkpt lat="44.81441" lon="6.39027">
        <ele>1818.312</ele>
        <time>2020-04-05T22:56:50Z</time>
      </trkpt>
      <trkpt lat="44.81414" lon="6.38995">
        <ele>1822.539</ele>
        <time>2020-04-05T22:57:10Z</time>
      </trkpt>
      <trkpt lat="44.81395" lon="6.38979">
        <ele>1824.973</ele>
        <time>2020-04-05T22:57:30Z</time>
      </trkpt>
      <trkpt lat="44.81365" lon="6.38922">
        <ele>1832.45</ele>
        <time>2020-04-05T22:57:50Z</time>
      </trkpt>
      <trkpt lat="44.81363" lon="6.38891">
        <ele>1835.186</ele>
        <time>2020-04-05T22:58:10Z</time>
      </trkpt>
      <trkpt lat="44.81354" lon="6.38855">
        <ele>1836.56</ele>
        <time>2020-04-05T22:58:30Z</time>
      </trkpt>
      <trkpt lat="44.81349" lon="6.38821">
        <ele>1839.026</ele>
        <time>2020-04-05T22:58:50Z</time>
      </trkpt>
      <trkpt lat="44.81343" lon="6.38794">
        <ele>1841.008</ele>
        <time>2020-04-05T22:59:10Z</time>
      </trkpt>
      <trkpt lat="44.81291" lon="6.38696">
        <ele>1838.954</ele>
        <time>2020-04-05T22:59:30Z</time>
      </trkpt>
      <trkpt lat="44.81269" lon="6.38657">
        <ele>1837.852</ele>
        <time>2020-04-05T22:59:50Z</time>
      </trkpt>
      <trkpt lat="44.81248" lon="6.38632">
        <ele>1837.66</ele>
        <time>2020-04-05T23:00:10Z</time>
      </trkpt>
      <trkpt lat="44.81241" lon="6.38615">
        <ele>1838.844</ele>
        <time>2020-04-05T23:00:30Z</time>
      </trkpt>
      <trkpt lat="44.81215" lon="6.38583">
        <ele>1840.165</ele>
        <time>2020-04-05T23:00:50Z</time>
      </trkpt>
      <trkpt lat="44.81192" lon="6.3854">
        <ele>1841.982</ele>
        <time>2020-04-05T23:01:10Z</time>
      </trkpt>
      <trkpt lat="44.81166" lon="6.38519">
        <ele>1839.176</ele>
        <time>2020-04-05T23:01:30Z</time>
      </trkpt>
      <trkpt lat="44.8113" lon="6.385">
        <ele>1835.583</ele>
        <time>2020-04-05T23:01:50Z</time>
      </trkpt>
      <trkpt lat="44.81121" lon="6.38488">
        <ele>1837.121</ele>
        <time>2020-04-05T23:02:10Z</time>
      </trkpt>
      <trkpt lat="44.81107" lon="6.38481">
        <ele>1837.041</ele>
        <time>2020-04-05T23:02:30Z</time>
      </trkpt>
      <trkpt lat="44.81102" lon="6.38457">
        <ele>1840.005</ele>
        <time>2020-04-05T23:02:50Z</time>
      </trkpt>
      <trkpt lat="44.81107" lon="6.38423">
        <ele>1844.908</ele>
        <time>2020-04-05T23:03:10Z</time>
      </trkpt>
      <trkpt lat="44.811" lon="6.38372">
        <ele>1843.588</ele>
        <time>2020-04-05T23:03:30Z</time>
      </trkpt>
      <trkpt lat="44.81108" lon="6.38353">
        <ele>1846.596</ele>
        <time>2020-04-05T23:03:50Z</time>
      </trkpt>
      <trkpt lat="44.81106" lon="6.38335">
        <ele>1847.214</ele>
        <time>2020-04-05T23:04:10Z</time>
      </trkpt>
      <trkpt lat="44.81084" lon="6.38299">
        <ele>1844.348</ele>
        <time>2020-04-05T23:04:30Z</time>
      </trkpt>
      <trkpt lat="44.81061" lon="6.38276">
        <ele>1843.299</ele>
        <time>2020-04-05T23:04:50Z</time>
      </trkpt>
      <trkpt lat="44.81023" lon="6.38218">
        <ele>1850.116</ele>
        <time>2020-04-05T23:05:10Z</time>
      </trkpt>
      <trkpt lat="44.80996" lon="6.38199">
        <ele>1852.23</ele>
        <time>2020-04-05T23:05:30Z</time>
      </trkpt>
      <trkpt lat="44.8097" lon="6.38185">
        <ele>1850.647</ele>
        <time>2020-04-05T23:05:50Z</time>
      </trkpt>
      <trkpt lat="44.80958" lon="6.38166">
        <ele>1851.063</ele>
        <time>2020-04-05T23:06:10Z</time>
      </trkpt>
      <trkpt lat="44.80949" lon="6.38121">
        <ele>1856.844</ele>
        <time>2020-04-05T23:06:30Z</time>
      </trkpt>
      <trkpt lat="44.80951" lon="6.38098">
        <ele>1861.118</ele>
        <time>2020-04-05T23:06:50Z</time>
      </trkpt>
      <trkpt lat="44.80937" lon="6.38076">
        <ele>1862.308</ele>
        <time>2020-04-05T23:07:10Z</time>
      </trkpt>
      <trkpt lat="44.80923" lon="6.38034">
        <ele>1865.352</ele>
        <time>2020-04-05T23:07:30Z</time>
      </trkpt>
      <trkpt lat="44.80903" lon="6.38011">
        <ele>1866.55</ele>
        <time>2020-04-05T23:07:50Z</time>
      </trkpt>
      <trkpt lat="44.80888" lon="6.38002">
        <ele>1865.698</ele>
        <time>2020-04-05T23:08:10Z</time>
      </trkpt>
      <trkpt lat="44.80885" lon="6.37988">
        <ele>1868.832</ele>
        <time>2020-04-05T23:08:30Z</time>
      </trkpt>
      <trkpt lat="44.80871" lon="6.37985">
        <ele>1868.933</ele>
        <time>2020-04-05T23:08:50Z</time>
      </trkpt>
      <trkpt lat="44.80836" lon="6.37935">
        <ele>1880.95</ele>
        <time>2020-04-05T23:09:10Z</time>
      </trkpt>
      <trkpt lat="44.80826" lon="6.37928">
        <ele>1882.424</ele>
        <time>2020-04-05T23:09:30Z</time>
      </trkpt>
      <trkpt lat="44.80832" lon="6.37908">
        <ele>1888.741</ele>
        <time>2020-04-05T23:09:50Z</time>
      </trkpt>
      <trkpt lat="44.80814" lon="6.379">
        <ele>1889.571</ele>
        <time>2020-04-05T23:10:10Z</time>
      </trkpt>
      <trkpt lat="44.80789" lon="6.37872">
        <ele>1893.841</ele>
        <time>2020-04-05T23:10:30Z</time>
      </trkpt>
      <trkpt lat="44.80809" lon="6.37862">
        <ele>1902.115</ele>
        <time>2020-04-05T23:10:50Z</time>
      </trkpt>
      <trkpt lat="44.80789" lon="6.37831">
        <ele>1906.608</ele>
        <time>2020-04-05T23:11:10Z</time>
      </trkpt>
      <trkpt lat="44.80773" lon="6.37796">
        <ele>1906.453</ele>
        <time>2020-04-05T23:11:30Z</time>
      </trkpt>
      <trkpt lat="44.8077" lon="6.37755">
        <ele>1912.411</ele>
        <time>2020-04-05T23:11:50Z</time>
      </trkpt>
      <trkpt lat="44.8076" lon="6.37722">
        <ele>1916.619</ele>
        <time>2020-04-05T23:12:10Z</time>
      </trkpt>
      <trkpt lat="44.80747" lon="6.37711">
        <ele>1915.813</ele>
        <time>2020-04-05T23:12:30Z</time>
      </trkpt>
      <trkpt lat="44.80738" lon="6.37686">
        <ele>1922.144</ele>
        <time>2020-04-05T23:12:50Z</time>
      </trkpt>
      <trkpt lat="44.80706" lon="6.37671">
        <ele>1925.141</ele>
        <time>2020-04-05T23:13:10Z</time>
      </trkpt>
      <trkpt lat="44.80691" lon="6.37636">
        <ele>1934.925</ele>
        <time>2020-04-05T23:13:30Z</time>
      </trkpt>
      <trkpt lat="44.8067" lon="6.37615">
        <ele>1935.062</ele>
        <time>2020-04-05T23:13:50Z</time>
      </trkpt>
      <trkpt lat="44.80655" lon="6.37614">
        <ele>1932.918</ele>
        <time>2020-04-05T23:14:10Z</time>
      </trkpt>
      <trkpt lat="44.80644" lon="6.37593">
        <ele>1936.298</ele>
        <time>2020-04-05T23:14:30Z</time>
      </trkpt>
      <trkpt lat="44.80623" lon="6.37564">
        <ele>1938.617</ele>
        <time>2020-04-05T23:14:50Z</time>
      </trkpt>
      <trkpt lat="44.80615" lon="6.37564">
        <ele>1937.508</ele>
        <time>2020-04-05T23:15:10Z</time>
      </trkpt>
      <trkpt lat="44.80601" lon="6.37538">
        <ele>1939.817</ele>
        <time>2020-04-05T23:15:30Z</time>
      </trkpt>
      <trkpt lat="44.8059" lon="6.37528">
        <ele>1940.285</ele>
        <time>2020-04-05T23:15:50Z</time>
      </trkpt>
      <trkpt lat="44.8058" lon="6.37495">
        <ele>1941.263</ele>
        <time>2020-04-05T23:16:10Z</time>
      </trkpt>
      <trkpt lat="44.80586" lon="6.37487">
        <ele>1942.217</ele>
        <time>2020-04-05T23:16:30Z</time>
      </trkpt>
      <trkpt lat="44.80599" lon="6.3746">
        <ele>1945.388</ele>
        <time>2020-04-05T23:16:50Z</time>
      </trkpt>
      <trkpt lat="44.80609" lon="6.37453">
        <ele>1946.665</ele>
        <time>2020-04-05T23:17:10Z</time>
      </trkpt>
      <trkpt lat="44.80607" lon="6.3744">
        <ele>1946.899</ele>
        <time>2020-04-05T23:17:30Z</time>
      </trkpt>
      <trkpt lat="44.80598" lon="6.37436">
        <ele>1946.396</ele>
        <time>2020-04-05T23:17:50Z</time>
      </trkpt>
      <trkpt lat="44.80595" lon="6.37411">
        <ele>1947.211</ele>
        <time>2020-04-05T23:18:10Z</time>
      </trkpt>
      <trkpt lat="44.80586" lon="6.37409">
        <ele>1946.721</ele>
        <time>2020-04-05T23:18:30Z</time>
      </trkpt>
      <trkpt lat="44.80578" lon="6.37392">
        <ele>1947.603</ele>
        <time>2020-04-05T23:18:50Z</time>
      </trkpt>
      <trkpt lat="44.80561" lon="6.37384">
        <ele>1947.608</ele>
        <time>2020-04-05T23:19:10Z</time>
      </trkpt>
      <trkpt lat="44.80552" lon="6.37384">
        <ele>1947.467</ele>
        <time>2020-04-05T23:19:30Z</time>
      </trkpt>
      <trkpt lat="44.80525" lon="6.37349">
        <ele>1951.565</ele>
        <time>2020-04-05T23:19:50Z</time>
      </trkpt>
      <trkpt lat="44.80524" lon="6.37331">
        <ele>1953.413</ele>
        <time>2020-04-05T23:20:10Z</time>
      </trkpt>
      <trkpt lat="44.80509" lon="6.37326">
        <ele>1954.397</ele>
        <time>2020-04-05T23:20:30Z</time>
      </trkpt>
      <trkpt lat="44.80498" lon="6.3731">
        <ele>1955.418</ele>
        <time>2020-04-05T23:20:50Z</time>
      </trkpt>
      <trkpt lat="44.80485" lon="6.37309">
        <ele>1954.125</ele>
        <time>2020-04-05T23:21:10Z</time>
      </trkpt>
      <trkpt lat="44.80476" lon="6.37313">
        <ele>1952.869</ele>
        <time>2020-04-05T23:21:30Z</time>
      </trkpt>
      <trkpt lat="44.8046" lon="6.37309">
        <ele>1952.736</ele>
        <time>2020-04-05T23:21:50Z</time>
      </trkpt>
      <trkpt lat="44.80427" lon="6.37268">
        <ele>1958.936</ele>
        <time>2020-04-05T23:22:10Z</time>
      </trkpt>
      <trkpt lat="44.80397" lon="6.37241">
        <ele>1961.017</ele>
        <time>2020-04-05T23:22:30Z</time>
      </trkpt>
      <trkpt lat="44.80386" lon="6.3721">
        <ele>1963.118</ele>
        <time>2020-04-05T23:22:50Z</time>
      </trkpt>
      <trkpt lat="44.80372" lon="6.37192">
        <ele>1964.108</ele>
        <time>2020-04-05T23:23:10Z</time>
      </trkpt>
      <trkpt lat="44.80363" lon="6.37188">
        <ele>1964.149</ele>
        <time>2020-04-05T23:23:30Z</time>
      </trkpt>
      <trkpt lat="44.80337" lon="6.37106">
        <ele>1971.527</ele>
        <time>2020-04-05T23:23:50Z</time>
      </trkpt>
      <trkpt lat="44.80334" lon="6.37077">
        <ele>1973.515</ele>
        <time>2020-04-05T23:24:10Z</time>
      </trkpt>
      <trkpt lat="44.80324" lon="6.37069">
        <ele>1973.799</ele>
        <time>2020-04-05T23:24:30Z</time>
      </trkpt>
      <trkpt lat="44.80289" lon="6.3699">
        <ele>1980.02</ele>
        <time>2020-04-05T23:24:50Z</time>
      </trkpt>
      <trkpt lat="44.80286" lon="6.36977">
        <ele>1981.517</ele>
        <time>2020-04-05T23:25:10Z</time>
      </trkpt>
      <trkpt lat="44.80287" lon="6.36941">
        <ele>1985.361</ele>
        <time>2020-04-05T23:25:30Z</time>
      </trkpt>
      <trkpt lat="44.80263" lon="6.36879">
        <ele>1989.158</ele>
        <time>2020-04-05T23:25:50Z</time>
      </trkpt>
      <trkpt lat="44.80263" lon="6.36859">
        <ele>1991.669</ele>
        <time>2020-04-05T23:26:10Z</time>
      </trkpt>
      <trkpt lat="44.80257" lon="6.36854">
        <ele>1991.304</ele>
        <time>2020-04-05T23:26:30Z</time>
      </trkpt>
      <trkpt lat="44.80252" lon="6.36827">
        <ele>1995.524</ele>
        <time>2020-04-05T23:26:50Z</time>
      </trkpt>
      <trkpt lat="44.80237" lon="6.36814">
        <ele>1994.708</ele>
        <time>2020-04-05T23:27:10Z</time>
      </trkpt>
      <trkpt lat="44.80223" lon="6.36805">
        <ele>1994.352</ele>
        <time>2020-04-05T23:27:30Z</time>
      </trkpt>
      <trkpt lat="44.80189" lon="6.3674">
        <ele>1998.96</ele>
        <time>2020-04-05T23:27:50Z</time>
      </trkpt>
      <trkpt lat="44.80178" lon="6.36703">
        <ele>2002.528</ele>
        <time>2020-04-05T23:28:10Z</time>
      </trkpt>
      <trkpt lat="44.80149" lon="6.36682">
        <ele>2001.392</ele>
        <time>2020-04-05T23:28:30Z</time>
      </trkpt>
      <trkpt lat="44.80129" lon="6.36654">
        <ele>2002.963</ele>
        <time>2020-04-05T23:28:50Z</time>
      </trkpt>
      <trkpt lat="44.80111" lon="6.3661">
        <ele>2007.24</ele>
        <time>2020-04-05T23:29:10Z</time>
      </trkpt>
      <trkpt lat="44.80098" lon="6.36592">
        <ele>2009.664</ele>
        <time>2020-04-05T23:29:30Z</time>
      </trkpt>
      <trkpt lat="44.80086" lon="6.36588">
        <ele>2010.451</ele>
        <time>2020-04-05T23:29:50Z</time>
      </trkpt>
      <trkpt lat="44.80078" lon="6.3659">
        <ele>2011.746</ele>
        <time>2020-04-05T23:30:10Z</time>
      </trkpt>
      <trkpt lat="44.80064" lon="6.36609">
        <ele>2013.788</ele>
        <time>2020-04-05T23:30:30Z</time>
      </trkpt>
      <trkpt lat="44.80062" lon="6.36635">
        <ele>2012.116</ele>
        <time>2020-04-05T23:30:50Z</time>
      </trkpt>
      <trkpt lat="44.80036" lon="6.36638">
        <ele>2016.808</ele>
        <time>2020-04-05T23:31:10Z</time>
      </trkpt>
      <trkpt lat="44.80007" lon="6.36625">
        <ele>2024.85</ele>
        <time>2020-04-05T23:31:30Z</time>
      </trkpt>
      <trkpt lat="44.79986" lon="6.36638">
        <ele>2028.788</ele>
        <time>2020-04-05T23:31:50Z</time>
      </trkpt>
      <trkpt lat="44.79973" lon="6.36634">
        <ele>2032.216</ele>
        <time>2020-04-05T23:32:10Z</time>
      </trkpt>
      <trkpt lat="44.79962" lon="6.3666">
        <ele>2033.32</ele>
        <time>2020-04-05T23:32:30Z</time>
      </trkpt>
      <trkpt lat="44.79949" lon="6.3666">
        <ele>2037.171</ele>
        <time>2020-04-05T23:32:50Z</time>
      </trkpt>
      <trkpt lat="44.79939" lon="6.36685">
        <ele>2039.048</ele>
        <time>2020-04-05T23:33:10Z</time>
      </trkpt>
      <trkpt lat="44.79914" lon="6.36638">
        <ele>2047.742</ele>
        <time>2020-04-05T23:33:30Z</time>
      </trkpt>
      <trkpt lat="44.79908" lon="6.3666">
        <ele>2049.889</ele>
        <time>2020-04-05T23:33:50Z</time>
      </trkpt>
      <trkpt lat="44.79902" lon="6.36698">
        <ele>2052.965</ele>
        <time>2020-04-05T23:34:10Z</time>
      </trkpt>
      <trkpt lat="44.7989" lon="6.36667">
        <ele>2055.768</ele>
        <time>2020-04-05T23:34:30Z</time>
      </trkpt>
      <trkpt lat="44.79878" lon="6.36621">
        <ele>2060.914</ele>
        <time>2020-04-05T23:34:50Z</time>
      </trkpt>
      <trkpt lat="44.79871" lon="6.36632">
        <ele>2064.008</ele>
        <time>2020-04-05T23:35:10Z</time>
      </trkpt>
      <trkpt lat="44.7987" lon="6.36651">
        <ele>2063.922</ele>
        <time>2020-04-05T23:35:30Z</time>
      </trkpt>
      <trkpt lat="44.79864" lon="6.3664">
        <ele>2066.66</ele>
        <time>2020-04-05T23:35:50Z</time>
      </trkpt>
      <trkpt lat="44.79867" lon="6.36687">
        <ele>2067.298</ele>
        <time>2020-04-05T23:36:10Z</time>
      </trkpt>
      <trkpt lat="44.79851" lon="6.36674">
        <ele>2073.142</ele>
        <time>2020-04-05T23:36:30Z</time>
      </trkpt>
      <trkpt lat="44.79836" lon="6.36688">
        <ele>2081.423</ele>
        <time>2020-04-05T23:36:50Z</time>
      </trkpt>
      <trkpt lat="44.79842" lon="6.36725">
        <ele>2082.24</ele>
        <time>2020-04-05T23:37:10Z</time>
      </trkpt>
      <trkpt lat="44.7982" lon="6.36697">
        <ele>2087.114</ele>
        <time>2020-04-05T23:37:30Z</time>
      </trkpt>
      <trkpt lat="44.79803" lon="6.3666">
        <ele>2092.411</ele>
        <time>2020-04-05T23:37:50Z</time>
      </trkpt>
      <trkpt lat="44.79796" lon="6.36628">
        <ele>2098.239</ele>
        <time>2020-04-05T23:38:10Z</time>
      </trkpt>
      <trkpt lat="44.79739" lon="6.36593">
        <ele>2106.701</ele>
        <time>2020-04-05T23:38:30Z</time>
      </trkpt>
      <trkpt lat="44.79719" lon="6.36607">
        <ele>2106.821</ele>
        <time>2020-04-05T23:38:50Z</time>
      </trkpt>
      <trkpt lat="44.7969" lon="6.36594">
        <ele>2109.008</ele>
        <time>2020-04-05T23:39:10Z</time>
      </trkpt>
      <trkpt lat="44.79656" lon="6.36553">
        <ele>2113.239</ele>
        <time>2020-04-05T23:39:30Z</time>
      </trkpt>
      <trkpt lat="44.79636" lon="6.3654">
        <ele>2114.817</ele>
        <time>2020-04-05T23:39:50Z</time>
      </trkpt>
      <trkpt lat="44.79616" lon="6.36536">
        <ele>2116.385</ele>
        <time>2020-04-05T23:40:10Z</time>
      </trkpt>
      <trkpt lat="44.79591" lon="6.36526">
        <ele>2118.349</ele>
        <time>2020-04-05T23:40:30Z</time>
      </trkpt>
      <trkpt lat="44.79559" lon="6.36519">
        <ele>2117.27</ele>
        <time>2020-04-05T23:40:50Z</time>
      </trkpt>
      <trkpt lat="44.79504" lon="6.36497">
        <ele>2119.687</ele>
        <time>2020-04-05T23:41:10Z</time>
      </trkpt>
      <trkpt lat="44.79481" lon="6.36505">
        <ele>2119.471</ele>
        <time>2020-04-05T23:41:30Z</time>
      </trkpt>
      <trkpt lat="44.7945" lon="6.36476">
        <ele>2122.098</ele>
        <time>2020-04-05T23:41:50Z</time>
      </trkpt>
      <trkpt lat="44.79432" lon="6.36488">
        <ele>2121.042</ele>
        <time>2020-04-05T23:42:10Z</time>
      </trkpt>
      <trkpt lat="44.79422" lon="6.36486">
        <ele>2121.522</ele>
        <time>2020-04-05T23:42:30Z</time>
      </trkpt>
      <trkpt lat="44.79413" lon="6.36476">
        <ele>2122.714</ele>
        <time>2020-04-05T23:42:50Z</time>
      </trkpt>
      <trkpt lat="44.79372" lon="6.36472">
        <ele>2126.008</ele>
        <time>2020-04-05T23:43:10Z</time>
      </trkpt>
      <trkpt lat="44.79357" lon="6.36482">
        <ele>2126.06</ele>
        <time>2020-04-05T23:43:30Z</time>
      </trkpt>
      <trkpt lat="44.79344" lon="6.36491">
        <ele>2126.098</ele>
        <time>2020-04-05T23:43:50Z</time>
      </trkpt>
      <trkpt lat="44.79301" lon="6.36488">
        <ele>2131.386</ele>
        <time>2020-04-05T23:44:10Z</time>
      </trkpt>
      <trkpt lat="44.79279" lon="6.36504">
        <ele>2133.59</ele>
        <time>2020-04-05T23:44:30Z</time>
      </trkpt>
      <trkpt lat="44.79276" lon="6.36497">
        <ele>2134.611</ele>
        <time>2020-04-05T23:44:50Z</time>
      </trkpt>
      <trkpt lat="44.79265" lon="6.36495">
        <ele>2136.658</ele>
        <time>2020-04-05T23:45:10Z</time>
      </trkpt>
      <trkpt lat="44.79245" lon="6.36481">
        <ele>2139.922</ele>
        <time>2020-04-05T23:45:30Z</time>
      </trkpt>
      <trkpt lat="44.79195" lon="6.36459">
        <ele>2145.419</ele>
        <time>2020-04-05T23:45:50Z</time>
      </trkpt>
      <trkpt lat="44.79175" lon="6.36422">
        <ele>2150.075</ele>
        <time>2020-04-05T23:46:10Z</time>
      </trkpt>
      <trkpt lat="44.7917" lon="6.36423">
        <ele>2150.328</ele>
        <time>2020-04-05T23:46:30Z</time>
      </trkpt>
      <trkpt lat="44.79176" lon="6.36395">
        <ele>2153.22</ele>
        <time>2020-04-05T23:46:50Z</time>
      </trkpt>
      <trkpt lat="44.79171" lon="6.36379">
        <ele>2155.508</ele>
        <time>2020-04-05T23:47:10Z</time>
      </trkpt>
      <trkpt lat="44.79152" lon="6.36363">
        <ele>2158.833</ele>
        <time>2020-04-05T23:47:30Z</time>
      </trkpt>
      <trkpt lat="44.79137" lon="6.36361">
        <ele>2160.421</ele>
        <time>2020-04-05T23:47:50Z</time>
      </trkpt>
      <trkpt lat="44.79101" lon="6.36341">
        <ele>2171.029</ele>
        <time>2020-04-05T23:48:10Z</time>
      </trkpt>
      <trkpt lat="44.7905" lon="6.36332">
        <ele>2178.683</ele>
        <time>2020-04-05T23:48:30Z</time>
      </trkpt>
      <trkpt lat="44.79026" lon="6.36311">
        <ele>2184.724</ele>
        <time>2020-04-05T23:48:50Z</time>
      </trkpt>
      <trkpt lat="44.78984" lon="6.36313">
        <ele>2186.321</ele>
        <time>2020-04-05T23:49:10Z</time>
      </trkpt>
      <trkpt lat="44.78965" lon="6.36312">
        <ele>2189.395</ele>
        <time>2020-04-05T23:49:30Z</time>
      </trkpt>
      <trkpt lat="44.78975" lon="6.36302">
        <ele>2189.862</ele>
        <time>2020-04-05T23:49:50Z</time>
      </trkpt>
      <trkpt lat="44.78979" lon="6.36284">
        <ele>2193.639</ele>
        <time>2020-04-05T23:50:10Z</time>
      </trkpt>
      <trkpt lat="44.78993" lon="6.36261">
        <ele>2200.201</ele>
        <time>2020-04-05T23:50:30Z</time>
      </trkpt>
      <trkpt lat="44.78995" lon="6.36235">
        <ele>2210.521</ele>
        <time>2020-04-05T23:50:50Z</time>
      </trkpt>
      <trkpt lat="44.78986" lon="6.36246">
        <ele>2206.408</ele>
        <time>2020-04-05T23:51:10Z</time>
      </trkpt>
      <trkpt lat="44.7897" lon="6.36247">
        <ele>2206.439</ele>
        <time>2020-04-05T23:51:30Z</time>
      </trkpt>
      <trkpt lat="44.78947" lon="6.36236">
        <ele>2212.437</ele>
        <time>2020-04-05T23:51:50Z</time>
      </trkpt>
      <trkpt lat="44.78938" lon="6.36243">
        <ele>2210.345</ele>
        <time>2020-04-05T23:52:10Z</time>
      </trkpt>
      <trkpt lat="44.78917" lon="6.36245">
        <ele>2213.999</ele>
        <time>2020-04-05T23:52:30Z</time>
      </trkpt>
      <trkpt lat="44.78907" lon="6.36241">
        <ele>2217.87</ele>
        <time>2020-04-05T23:52:50Z</time>
      </trkpt>
      <trkpt lat="44.789" lon="6.36242">
        <ele>2219.227</ele>
        <time>2020-04-05T23:53:10Z</time>
      </trkpt>
      <trkpt lat="44.78891" lon="6.36229">
        <ele>2224.741</ele>
        <time>2020-04-05T23:53:30Z</time>
      </trkpt>
      <trkpt lat="44.78906" lon="6.36222">
        <ele>2224.088</ele>
        <time>2020-04-05T23:53:50Z</time>
      </trkpt>
      <trkpt lat="44.78909" lon="6.36212">
        <ele>2226.753</ele>
        <time>2020-04-05T23:54:10Z</time>
      </trkpt>
      <trkpt lat="44.78898" lon="6.36213">
        <ele>2228.204</ele>
        <time>2020-04-05T23:54:30Z</time>
      </trkpt>
      <trkpt lat="44.78887" lon="6.36201">
        <ele>2233.314</ele>
        <time>2020-04-05T23:54:50Z</time>
      </trkpt>
      <trkpt lat="44.78872" lon="6.36202">
        <ele>2235.008</ele>
        <time>2020-04-05T23:55:10Z</time>
      </trkpt>
      <trkpt lat="44.78855" lon="6.36186">
        <ele>2242.181</ele>
        <time>2020-04-05T23:55:30Z</time>
      </trkpt>
      <trkpt lat="44.78841" lon="6.36189">
        <ele>2243.679</ele>
        <time>2020-04-05T23:55:50Z</time>
      </trkpt>
      <trkpt lat="44.78834" lon="6.36181">
        <ele>2246.977</ele>
        <time>2020-04-05T23:56:10Z</time>
      </trkpt>
      <trkpt lat="44.78829" lon="6.36184">
        <ele>2247.631</ele>
        <time>2020-04-05T23:56:30Z</time>
      </trkpt>
      <trkpt lat="44.78822" lon="6.3621">
        <ele>2245.972</ele>
        <time>2020-04-05T23:56:50Z</time>
      </trkpt>
      <trkpt lat="44.78796" lon="6.36218">
        <ele>2254.649</ele>
        <time>2020-04-05T23:57:10Z</time>
      </trkpt>
      <trkpt lat="44.78789" lon="6.36229">
        <ele>2255.763</ele>
        <time>2020-04-05T23:57:30Z</time>
      </trkpt>
      <trkpt lat="44.78789" lon="6.36247">
        <ele>2254.01</ele>
        <time>2020-04-05T23:57:50Z</time>
      </trkpt>
      <trkpt lat="44.78785" lon="6.36249">
        <ele>2255.492</ele>
        <time>2020-04-05T23:58:10Z</time>
      </trkpt>
      <trkpt lat="44.78762" lon="6.36225">
        <ele>2261.373</ele>
        <time>2020-04-05T23:58:30Z</time>
      </trkpt>
      <trkpt lat="44.78736" lon="6.36182">
        <ele>2271.32</ele>
        <time>2020-04-05T23:58:50Z</time>
      </trkpt>
      <trkpt lat="44.78732" lon="6.36186">
        <ele>2271.508</ele>
        <time>2020-04-05T23:59:10Z</time>
      </trkpt>
      <trkpt lat="44.78711" lon="6.36293">
        <ele>2278.665</ele>
        <time>2020-04-05T23:59:30Z</time>
      </trkpt>
      <trkpt lat="44.78699" lon="6.36317">
        <ele>2280.083</ele>
        <time>2020-04-05T23:59:50Z</time>
      </trkpt>
      <trkpt lat="44.787" lon="6.36332">
        <ele>2279.171</ele>
        <time>2020-04-06T00:00:10Z</time>
      </trkpt>
      <trkpt lat="44.78716" lon="6.36357">
        <ele>2278.695</ele>
        <time>2020-04-06T00:00:30Z</time>
      </trkpt>
      <trkpt lat="44.78721" lon="6.3638">
        <ele>2278.266</ele>
        <time>2020-04-06T00:00:50Z</time>
      </trkpt>
      <trkpt lat="44.78713" lon="6.36388">
        <ele>2279.723</ele>
        <time>2020-04-06T00:01:10Z</time>
      </trkpt>
      <trkpt lat="44.78669" lon="6.3639">
        <ele>2287.677</ele>
        <time>2020-04-06T00:01:30Z</time>
      </trkpt>
      <trkpt lat="44.78632" lon="6.36395">
        <ele>2295.654</ele>
        <time>2020-04-06T00:01:50Z</time>
      </trkpt>
      <trkpt lat="44.78655" lon="6.3635">
        <ele>2291.788</ele>
        <time>2020-04-06T00:02:10Z</time>
      </trkpt>
      <trkpt lat="44.7859" lon="6.36382">
        <ele>2305.424</ele>
        <time>2020-04-06T00:02:30Z</time>
      </trkpt>
      <trkpt lat="44.78568" lon="6.36368">
        <ele>2310.626</ele>
        <time>2020-04-06T00:02:50Z</time>
      </trkpt>
      <trkpt lat="44.78555" lon="6.36352">
        <ele>2316.508</ele>
        <time>2020-04-06T00:03:10Z</time>
      </trkpt>
      <trkpt lat="44.7856" lon="6.36329">
        <ele>2318.194</ele>
        <time>2020-04-06T00:03:30Z</time>
      </trkpt>
      <trkpt lat="44.78529" lon="6.3634">
        <ele>2326.632</ele>
        <time>2020-04-06T00:03:50Z</time>
      </trkpt>
      <trkpt lat="44.7853" lon="6.36327">
        <ele>2329.44</ele>
        <time>2020-04-06T00:04:10Z</time>
      </trkpt>
      <trkpt lat="44.78544" lon="6.36307">
        <ele>2327.824</ele>
        <time>2020-04-06T00:04:30Z</time>
      </trkpt>
      <trkpt lat="44.78547" lon="6.36292">
        <ele>2329.475</ele>
        <time>2020-04-06T00:04:50Z</time>
      </trkpt>
      <trkpt lat="44.78522" lon="6.36302">
        <ele>2337.132</ele>
        <time>2020-04-06T00:05:10Z</time>
      </trkpt>
      <trkpt lat="44.785" lon="6.36307">
        <ele>2340.646</ele>
        <time>2020-04-06T00:05:30Z</time>
      </trkpt>
      <trkpt lat="44.78503" lon="6.3629">
        <ele>2345.223</ele>
        <time>2020-04-06T00:05:50Z</time>
      </trkpt>
      <trkpt lat="44.78513" lon="6.3628">
        <ele>2345.418</ele>
        <time>2020-04-06T00:06:10Z</time>
      </trkpt>
      <trkpt lat="44.78502" lon="6.36276">
        <ele>2350.098</ele>
        <time>2020-04-06T00:06:30Z</time>
      </trkpt>
      <trkpt lat="44.78489" lon="6.3628">
        <ele>2351.717</ele>
        <time>2020-04-06T00:06:50Z</time>
      </trkpt>
      <trkpt lat="44.78496" lon="6.36269">
        <ele>2354.208</ele>
        <time>2020-04-06T00:07:10Z</time>
      </trkpt>
      <trkpt lat="44.78508" lon="6.36262">
        <ele>2352.687</ele>
        <time>2020-04-06T00:07:30Z</time>
      </trkpt>
      <trkpt lat="44.78474" lon="6.36244">
        <ele>2369.545</ele>
        <time>2020-04-06T00:07:50Z</time>
      </trkpt>
      <trkpt lat="44.78486" lon="6.36227">
        <ele>2371.963</ele>
        <time>2020-04-06T00:08:10Z</time>
      </trkpt>
      <trkpt lat="44.78491" lon="6.36208">
        <ele>2375.087</ele>
        <time>2020-04-06T00:08:30Z</time>
      </trkpt>
      <trkpt lat="44.7849" lon="6.36189">
        <ele>2380.218</ele>
        <time>2020-04-06T00:08:50Z</time>
      </trkpt>
      <trkpt lat="44.785" lon="6.36176">
        <ele>2383.555</ele>
        <time>2020-04-06T00:09:10Z</time>
      </trkpt>
      <trkpt lat="44.78481" lon="6.36165">
        <ele>2389.159</ele>
        <time>2020-04-06T00:09:30Z</time>
      </trkpt>
      <trkpt lat="44.78498" lon="6.36153">
        <ele>2393.336</ele>
        <time>2020-04-06T00:09:50Z</time>
      </trkpt>
      <trkpt lat="44.78473" lon="6.36138">
        <ele>2398.423</ele>
        <time>2020-04-06T00:10:10Z</time>
      </trkpt>
      <trkpt lat="44.78481" lon="6.36134">
        <ele>2400.983</ele>
        <time>2020-04-06T00:10:30Z</time>
      </trkpt>
      <trkpt lat="44.78494" lon="6.36137">
        <ele>2400.611</ele>
        <time>2020-04-06T00:10:50Z</time>
      </trkpt>
      <trkpt lat="44.78504" lon="6.36124">
        <ele>2407.208</ele>
        <time>2020-04-06T00:11:10Z</time>
      </trkpt>
      <trkpt lat="44.78531" lon="6.36112">
        <ele>2413.928</ele>
        <time>2020-04-06T00:11:30Z</time>
      </trkpt>
      <trkpt lat="44.78514" lon="6.36096">
        <ele>2418.316</ele>
        <time>2020-04-06T00:11:50Z</time>
      </trkpt>
      <trkpt lat="44.78501" lon="6.36073">
        <ele>2427.084</ele>
        <time>2020-04-06T00:12:10Z</time>
      </trkpt>
      <trkpt lat="44.78521" lon="6.36074">
        <ele>2422.228</ele>
        <time>2020-04-06T00:12:30Z</time>
      </trkpt>
      <trkpt lat="44.78514" lon="6.36058">
        <ele>2425.919</ele>
        <time>2020-04-06T00:12:50Z</time>
      </trkpt>
      <trkpt lat="44.78497" lon="6.36042">
        <ele>2436.896</ele>
        <time>2020-04-06T00:13:10Z</time>
      </trkpt>
      <trkpt lat="44.78458" lon="6.36038">
        <ele>2439.76</ele>
        <time>2020-04-06T00:13:30Z</time>
      </trkpt>
      <trkpt lat="44.78467" lon="6.36025">
        <ele>2445.977</ele>
        <time>2020-04-06T00:13:50Z</time>
      </trkpt>
      <trkpt lat="44.78445" lon="6.36028">
        <ele>2442.897</ele>
        <time>2020-04-06T00:14:10Z</time>
      </trkpt>
      <trkpt lat="44.78461" lon="6.36007">
        <ele>2454.623</ele>
        <time>2020-04-06T00:14:30Z</time>
      </trkpt>
      <trkpt lat="44.78501" lon="6.36007">
        <ele>2436.625</ele>
        <time>2020-04-06T00:14:50Z</time>
      </trkpt>
      <trkpt lat="44.78474" lon="6.35981">
        <ele>2455.308</ele>
        <time>2020-04-06T00:15:10Z</time>
      </trkpt>
      <trkpt lat="44.78444" lon="6.35968">
        <ele>2468.725</ele>
        <time>2020-04-06T00:15:30Z</time>
      </trkpt>
      <trkpt lat="44.78418" lon="6.35975">
        <ele>2471.853</ele>
        <time>2020-04-06T00:15:50Z</time>
      </trkpt>
      <trkpt lat="44.78407" lon="6.35999">
        <ele>2466.631</ele>
        <time>2020-04-06T00:16:10Z</time>
      </trkpt>
      <trkpt lat="44.78392" lon="6.36008">
        <ele>2468.945</ele>
        <time>2020-04-06T00:16:30Z</time>
      </trkpt>
      <trkpt lat="44.7837" lon="6.36007">
        <ele>2473.996</ele>
        <time>2020-04-06T00:16:50Z</time>
      </trkpt>
      <trkpt lat="44.78381" lon="6.3599">
        <ele>2477.793</ele>
        <time>2020-04-06T00:17:10Z</time>
      </trkpt>
      <trkpt lat="44.78365" lon="6.3599">
        <ele>2480.627</ele>
        <time>2020-04-06T00:17:30Z</time>
      </trkpt>
      <trkpt lat="44.78346" lon="6.3598">
        <ele>2482.684</ele>
        <time>2020-04-06T00:17:50Z</time>
      </trkpt>
      <trkpt lat="44.7832" lon="6.35945">
        <ele>2488.127</ele>
        <time>2020-04-06T00:18:10Z</time>
      </trkpt>
      <trkpt lat="44.78295" lon="6.35899">
        <ele>2492.968</ele>
        <time>2020-04-06T00:18:30Z</time>
      </trkpt>
      <trkpt lat="44.7828" lon="6.35884">
        <ele>2488.814</ele>
        <time>2020-04-06T00:18:50Z</time>
      </trkpt>
      <trkpt lat="44.78281" lon="6.35863">
        <ele>2491.908</ele>
        <time>2020-04-06T00:19:10Z</time>
      </trkpt>
      <trkpt lat="44.78265" lon="6.35825">
        <ele>2493.758</ele>
        <time>2020-04-06T00:19:30Z</time>
      </trkpt>
      <trkpt lat="44.78242" lon="6.35807">
        <ele>2492.656</ele>
        <time>2020-04-06T00:19:50Z</time>
      </trkpt>
      <trkpt lat="44.78232" lon="6.35808">
        <ele>2492.384</ele>
        <time>2020-04-06T00:20:10Z</time>
      </trkpt>
      <trkpt lat="44.78223" lon="6.35843">
        <ele>2491.968</ele>
        <time>2020-04-06T00:20:30Z</time>
      </trkpt>
      <trkpt lat="44.78226" lon="6.3587">
        <ele>2490.579</ele>
        <time>2020-04-06T00:20:50Z</time>
      </trkpt>
      <trkpt lat="44.78221" lon="6.35898">
        <ele>2491.076</ele>
        <time>2020-04-06T00:21:10Z</time>
      </trkpt>
      <trkpt lat="44.78215" lon="6.3592">
        <ele>2494.65</ele>
        <time>2020-04-06T00:21:30Z</time>
      </trkpt>
      <trkpt lat="44.78218" lon="6.35959">
        <ele>2494.527</ele>
        <time>2020-04-06T00:21:50Z</time>
      </trkpt>
      <trkpt lat="44.78216" lon="6.36034">
        <ele>2492.212</ele>
        <time>2020-04-06T00:22:10Z</time>
      </trkpt>
      <trkpt lat="44.78214" lon="6.36068">
        <ele>2498.232</ele>
        <time>2020-04-06T00:22:30Z</time>
      </trkpt>
      <trkpt lat="44.78196" lon="6.36077">
        <ele>2508.105</ele>
        <time>2020-04-06T00:22:50Z</time>
      </trkpt>
      <trkpt lat="44.78188" lon="6.36083">
        <ele>2511.108</ele>
        <time>2020-04-06T00:23:10Z</time>
      </trkpt>
      <trkpt lat="44.78179" lon="6.36082">
        <ele>2514.277</ele>
        <time>2020-04-06T00:23:30Z</time>
      </trkpt>
      <trkpt lat="44.78163" lon="6.36045">
        <ele>2525.985</ele>
        <time>2020-04-06T00:23:50Z</time>
      </trkpt>
      <trkpt lat="44.78147" lon="6.36017">
        <ele>2536.743</ele>
        <time>2020-04-06T00:24:10Z</time>
      </trkpt>
      <trkpt lat="44.7813" lon="6.36005">
        <ele>2545.037</ele>
        <time>2020-04-06T00:24:30Z</time>
      </trkpt>
      <trkpt lat="44.78116" lon="6.3602">
        <ele>2541.528</ele>
        <time>2020-04-06T00:24:50Z</time>
      </trkpt>
      <trkpt lat="44.78096" lon="6.36008">
        <ele>2548.555</ele>
        <time>2020-04-06T00:25:10Z</time>
      </trkpt>
      <trkpt lat="44.7807" lon="6.36015">
        <ele>2551.859</ele>
        <time>2020-04-06T00:25:30Z</time>
      </trkpt>
      <trkpt lat="44.78055" lon="6.36021">
        <ele>2553.056</ele>
        <time>2020-04-06T00:25:50Z</time>
      </trkpt>
      <trkpt lat="44.78041" lon="6.36012">
        <ele>2555.957</ele>
        <time>2020-04-06T00:26:10Z</time>
      </trkpt>
      <trkpt lat="44.78008" lon="6.36007">
        <ele>2560.2</ele>
        <time>2020-04-06T00:26:30Z</time>
      </trkpt>
      <trkpt lat="44.77968" lon="6.36005">
        <ele>2564.82</ele>
        <time>2020-04-06T00:26:50Z</time>
      </trkpt>
      <trkpt lat="44.7795" lon="6.35986">
        <ele>2570.508</ele>
        <time>2020-04-06T00:27:10Z</time>
      </trkpt>
      <trkpt lat="44.77947" lon="6.36">
        <ele>2564.241</ele>
        <time>2020-04-06T00:27:30Z</time>
      </trkpt>
      <trkpt lat="44.77919" lon="6.35981">
        <ele>2566.299</ele>
        <time>2020-04-06T00:27:50Z</time>
      </trkpt>
      <trkpt lat="44.7791" lon="6.35976">
        <ele>2567.397</ele>
        <time>2020-04-06T00:28:10Z</time>
      </trkpt>
      <trkpt lat="44.77898" lon="6.35962">
        <ele>2572.321</ele>
        <time>2020-04-06T00:28:30Z</time>
      </trkpt>
      <trkpt lat="44.77879" lon="6.35955">
        <ele>2576.212</ele>
        <time>2020-04-06T00:28:50Z</time>
      </trkpt>
      <trkpt lat="44.77872" lon="6.35944">
        <ele>2581.959</ele>
        <time>2020-04-06T00:29:10Z</time>
      </trkpt>
      <trkpt lat="44.77861" lon="6.35931">
        <ele>2586.923</ele>
        <time>2020-04-06T00:29:30Z</time>
      </trkpt>
      <trkpt lat="44.77863" lon="6.3591">
        <ele>2593.25</ele>
        <time>2020-04-06T00:29:50Z</time>
      </trkpt>
      <trkpt lat="44.7787" lon="6.35896">
        <ele>2596.568</ele>
        <time>2020-04-06T00:30:10Z</time>
      </trkpt>
      <trkpt lat="44.77835" lon="6.35889">
        <ele>2606.542</ele>
        <time>2020-04-06T00:30:30Z</time>
      </trkpt>
      <trkpt lat="44.77802" lon="6.3588">
        <ele>2616.726</ele>
        <time>2020-04-06T00:30:50Z</time>
      </trkpt>
      <trkpt lat="44.77781" lon="6.3589">
        <ele>2613.108</ele>
        <time>2020-04-06T00:31:10Z</time>
      </trkpt>
      <trkpt lat="44.7777" lon="6.35888">
        <ele>2615.792</ele>
        <time>2020-04-06T00:31:30Z</time>
      </trkpt>
      <trkpt lat="44.77764" lon="6.35895">
        <ele>2614.28</ele>
        <time>2020-04-06T00:31:50Z</time>
      </trkpt>
      <trkpt lat="44.77754" lon="6.35892">
        <ele>2617.018</ele>
        <time>2020-04-06T00:32:10Z</time>
      </trkpt>
      <trkpt lat="44.77715" lon="6.35916">
        <ele>2623.982</ele>
        <time>2020-04-06T00:32:30Z</time>
      </trkpt>
      <trkpt lat="44.77687" lon="6.35948">
        <ele>2625.743</ele>
        <time>2020-04-06T00:32:50Z</time>
      </trkpt>
      <trkpt lat="44.77664" lon="6.35967">
        <ele>2629.41</ele>
        <time>2020-04-06T00:33:10Z</time>
      </trkpt>
      <trkpt lat="44.77654" lon="6.35968">
        <ele>2633.244</ele>
        <time>2020-04-06T00:33:30Z</time>
      </trkpt>
      <trkpt lat="44.77624" lon="6.35988">
        <ele>2639.891</ele>
        <time>2020-04-06T00:33:50Z</time>
      </trkpt>
      <trkpt lat="44.77612" lon="6.36001">
        <ele>2641.374</ele>
        <time>2020-04-06T00:34:10Z</time>
      </trkpt>
      <trkpt lat="44.77583" lon="6.36012">
        <ele>2650.056</ele>
        <time>2020-04-06T00:34:30Z</time>
      </trkpt>
      <trkpt lat="44.7757" lon="6.36011">
        <ele>2656.321</ele>
        <time>2020-04-06T00:34:50Z</time>
      </trkpt>
      <trkpt lat="44.77548" lon="6.36019">
        <ele>2664.108</ele>
        <time>2020-04-06T00:35:10Z</time>
      </trkpt>
      <trkpt lat="44.77536" lon="6.36041">
        <ele>2664.493</ele>
        <time>2020-04-06T00:35:30Z</time>
      </trkpt>
      <trkpt lat="44.77516" lon="6.36053">
        <ele>2673.571</ele>
        <time>2020-04-06T00:35:50Z</time>
      </trkpt>
      <trkpt lat="44.77494" lon="6.36081">
        <ele>2681.349</ele>
        <time>2020-04-06T00:36:10Z</time>
      </trkpt>
      <trkpt lat="44.77485" lon="6.36111">
        <ele>2685.363</ele>
        <time>2020-04-06T00:36:30Z</time>
      </trkpt>
      <trkpt lat="44.77483" lon="6.3613">
        <ele>2687.714</ele>
        <time>2020-04-06T00:36:50Z</time>
      </trkpt>
      <trkpt lat="44.77479" lon="6.36139">
        <ele>2691.831</ele>
        <time>2020-04-06T00:37:10Z</time>
      </trkpt>
      <trkpt lat="44.77469" lon="6.36105">
        <ele>2698.485</ele>
        <time>2020-04-06T00:37:30Z</time>
      </trkpt>
      <trkpt lat="44.77457" lon="6.36131">
        <ele>2714.012</ele>
        <time>2020-04-06T00:37:50Z</time>
      </trkpt>
      <trkpt lat="44.77454" lon="6.3612">
        <ele>2716.755</ele>
        <time>2020-04-06T00:38:10Z</time>
      </trkpt>
      <trkpt lat="44.7745" lon="6.3613">
        <ele>2722.007</ele>
        <time>2020-04-06T00:38:30Z</time>
      </trkpt>
      <trkpt lat="44.77443" lon="6.36106">
        <ele>2728.017</ele>
        <time>2020-04-06T00:38:50Z</time>
      </trkpt>
      <trkpt lat="44.77437" lon="6.36118">
        <ele>2734.608</ele>
        <time>2020-04-06T00:39:10Z</time>
      </trkpt>
      <trkpt lat="44.77432" lon="6.36094">
        <ele>2738.471</ele>
        <time>2020-04-06T00:39:30Z</time>
      </trkpt>
      <trkpt lat="44.77432" lon="6.36049">
        <ele>2740.379</ele>
        <time>2020-04-06T00:39:50Z</time>
      </trkpt>
      <trkpt lat="44.77428" lon="6.36033">
        <ele>2746.657</ele>
        <time>2020-04-06T00:40:10Z</time>
      </trkpt>
      <trkpt lat="44.77421" lon="6.36019">
        <ele>2755.221</ele>
        <time>2020-04-06T00:40:30Z</time>
      </trkpt>
      <trkpt lat="44.77416" lon="6.35997">
        <ele>2762.212</ele>
        <time>2020-04-06T00:40:50Z</time>
      </trkpt>
      <trkpt lat="44.77408" lon="6.35973">
        <ele>2761.439</ele>
        <time>2020-04-06T00:41:10Z</time>
      </trkpt>
      <trkpt lat="44.77405" lon="6.35929">
        <ele>2765.373</ele>
        <time>2020-04-06T00:41:30Z</time>
      </trkpt>
      <trkpt lat="44.77397" lon="6.35889">
        <ele>2769.41</ele>
        <time>2020-04-06T00:41:50Z</time>
      </trkpt>
      <trkpt lat="44.77385" lon="6.35871">
        <ele>2768.247</ele>
        <time>2020-04-06T00:42:10Z</time>
      </trkpt>
      <trkpt lat="44.77376" lon="6.35847">
        <ele>2770.529</ele>
        <time>2020-04-06T00:42:30Z</time>
      </trkpt>
      <trkpt lat="44.77364" lon="6.35838">
        <ele>2765.321</ele>
        <time>2020-04-06T00:42:50Z</time>
      </trkpt>
      <trkpt lat="44.77341" lon="6.35811">
        <ele>2760.108</ele>
        <time>2020-04-06T00:43:10Z</time>
      </trkpt>
      <trkpt lat="44.77335" lon="6.35793">
        <ele>2761.06</ele>
        <time>2020-04-06T00:43:30Z</time>
      </trkpt>
      <trkpt lat="44.77321" lon="6.35793">
        <ele>2752.948</ele>
        <time>2020-04-06T00:43:50Z</time>
      </trkpt>
      <trkpt lat="44.77313" lon="6.35786">
        <ele>2750.596</ele>
        <time>2020-04-06T00:44:10Z</time>
      </trkpt>
      <trkpt lat="44.773" lon="6.35781">
        <ele>2744.49</ele>
        <time>2020-04-06T00:44:30Z</time>
      </trkpt>
      <trkpt lat="44.77291" lon="6.3577">
        <ele>2742.691</ele>
        <time>2020-04-06T00:44:50Z</time>
      </trkpt>
      <trkpt lat="44.77287" lon="6.3575">
        <ele>2747.758</ele>
        <time>2020-04-06T00:45:10Z</time>
      </trkpt>
      <trkpt lat="44.77288" lon="6.3573">
        <ele>2755.742</ele>
        <time>2020-04-06T00:45:30Z</time>
      </trkpt>
      <trkpt lat="44.77271" lon="6.3573">
        <ele>2748.469</ele>
        <time>2020-04-06T00:45:50Z</time>
      </trkpt>
      <trkpt lat="44.77259" lon="6.35719">
        <ele>2748.268</ele>
        <time>2020-04-06T00:46:10Z</time>
      </trkpt>
      <trkpt lat="44.77256" lon="6.35704">
        <ele>2752.842</ele>
        <time>2020-04-06T00:46:30Z</time>
      </trkpt>
      <trkpt lat="44.77237" lon="6.3571">
        <ele>2745.126</ele>
        <time>2020-04-06T00:46:50Z</time>
      </trkpt>
      <trkpt lat="44.77224" lon="6.35705">
        <ele>2743.608</ele>
        <time>2020-04-06T00:47:10Z</time>
      </trkpt>
      <trkpt lat="44.77204" lon="6.35685">
        <ele>2747.652</ele>
        <time>2020-04-06T00:47:30Z</time>
      </trkpt>
      <trkpt lat="44.77185" lon="6.35689">
        <ele>2739.33</ele>
        <time>2020-04-06T00:47:50Z</time>
      </trkpt>
      <trkpt lat="44.77175" lon="6.35685">
        <ele>2738.168</ele>
        <time>2020-04-06T00:48:10Z</time>
      </trkpt>
      <trkpt lat="44.77164" lon="6.35674">
        <ele>2741.042</ele>
        <time>2020-04-06T00:48:30Z</time>
      </trkpt>
      <trkpt lat="44.77152" lon="6.35675">
        <ele>2735.653</ele>
        <time>2020-04-06T00:48:50Z</time>
      </trkpt>
      <trkpt lat="44.77141" lon="6.35665">
        <ele>2736.58</ele>
        <time>2020-04-06T00:49:10Z</time>
      </trkpt>
      <trkpt lat="44.77126" lon="6.35643">
        <ele>2746.714</ele>
        <time>2020-04-06T00:49:30Z</time>
      </trkpt>
      <trkpt lat="44.77119" lon="6.35639">
        <ele>2747.171</ele>
        <time>2020-04-06T00:49:50Z</time>
      </trkpt>
      <trkpt lat="44.77106" lon="6.35616">
        <ele>2759.536</ele>
        <time>2020-04-06T00:50:10Z</time>
      </trkpt>
      <trkpt lat="44.77095" lon="6.35614">
        <ele>2757.117</ele>
        <time>2020-04-06T00:50:30Z</time>
      </trkpt>
      <trkpt lat="44.77046" lon="6.35613">
        <ele>2740.518</ele>
        <time>2020-04-06T00:50:50Z</time>
      </trkpt>
      <trkpt lat="44.77029" lon="6.35608">
        <ele>2737.408</ele>
        <time>2020-04-06T00:51:10Z</time>
      </trkpt>
      <trkpt lat="44.77019" lon="6.35589">
        <ele>2743.239</ele>
        <time>2020-04-06T00:51:30Z</time>
      </trkpt>
      <trkpt lat="44.77005" lon="6.35588">
        <ele>2737.377</ele>
        <time>2020-04-06T00:51:50Z</time>
      </trkpt>
      <trkpt lat="44.76984" lon="6.35564">
        <ele>2738.955</ele>
        <time>2020-04-06T00:52:10Z</time>
      </trkpt>
      <trkpt lat="44.76979" lon="6.35555">
        <ele>2741.349</ele>
        <time>2020-04-06T00:52:30Z</time>
      </trkpt>
      <trkpt lat="44.76974" lon="6.35555">
        <ele>2738.47</ele>
        <time>2020-04-06T00:52:50Z</time>
      </trkpt>
      <trkpt lat="44.76964" lon="6.35529">
        <ele>2746.257</ele>
        <time>2020-04-06T00:53:10Z</time>
      </trkpt>
      <trkpt lat="44.76944" lon="6.35505">
        <ele>2746.941</ele>
        <time>2020-04-06T00:53:30Z</time>
      </trkpt>
      <trkpt lat="44.76917" lon="6.35462">
        <ele>2750.068</ele>
        <time>2020-04-06T00:53:50Z</time>
      </trkpt>
      <trkpt lat="44.76893" lon="6.35446">
        <ele>2744.591</ele>
        <time>2020-04-06T00:54:10Z</time>
      </trkpt>
      <trkpt lat="44.76887" lon="6.3543">
        <ele>2747.681</ele>
        <time>2020-04-06T00:54:30Z</time>
      </trkpt>
      <trkpt lat="44.76867" lon="6.35418">
        <ele>2743.119</ele>
        <time>2020-04-06T00:54:50Z</time>
      </trkpt>
      <trkpt lat="44.76844" lon="6.35393">
        <ele>2735.508</ele>
        <time>2020-04-06T00:55:10Z</time>
      </trkpt>
      <trkpt lat="44.76847" lon="6.3531">
        <ele>2726.155</ele>
        <time>2020-04-06T00:55:30Z</time>
      </trkpt>
      <trkpt lat="44.76844" lon="6.35291">
        <ele>2723.283</ele>
        <time>2020-04-06T00:55:50Z</time>
      </trkpt>
      <trkpt lat="44.76844" lon="6.35275">
        <ele>2722.581</ele>
        <time>2020-04-06T00:56:10Z</time>
      </trkpt>
      <trkpt lat="44.76829" lon="6.35302">
        <ele>2715.845</ele>
        <time>2020-04-06T00:56:30Z</time>
      </trkpt>
      <trkpt lat="44.76828" lon="6.3532">
        <ele>2716.896</ele>
        <time>2020-04-06T00:56:50Z</time>
      </trkpt>
      <trkpt lat="44.76812" lon="6.35335">
        <ele>2711.483</ele>
        <time>2020-04-06T00:57:10Z</time>
      </trkpt>
      <trkpt lat="44.76803" lon="6.35349">
        <ele>2710.477</ele>
        <time>2020-04-06T00:57:30Z</time>
      </trkpt>
      <trkpt lat="44.76809" lon="6.35309">
        <ele>2706.974</ele>
        <time>2020-04-06T00:57:50Z</time>
      </trkpt>
      <trkpt lat="44.76796" lon="6.35292">
        <ele>2698.685</ele>
        <time>2020-04-06T00:58:10Z</time>
      </trkpt>
      <trkpt lat="44.76796" lon="6.35278">
        <ele>2696.489</ele>
        <time>2020-04-06T00:58:30Z</time>
      </trkpt>
      <trkpt lat="44.76803" lon="6.35255">
        <ele>2698.717</ele>
        <time>2020-04-06T00:58:50Z</time>
      </trkpt>
      <trkpt lat="44.76796" lon="6.3523">
        <ele>2693.808</ele>
        <time>2020-04-06T00:59:10Z</time>
      </trkpt>
      <trkpt lat="44.76795" lon="6.35209">
        <ele>2691.364</ele>
        <time>2020-04-06T00:59:30Z</time>
      </trkpt>
      <trkpt lat="44.76787" lon="6.35182">
        <ele>2684.862</ele>
        <time>2020-04-06T00:59:50Z</time>
      </trkpt>
      <trkpt lat="44.76774" lon="6.35215">
        <ele>2681.59</ele>
        <time>2020-04-06T01:00:10Z</time>
      </trkpt>
      <trkpt lat="44.76771" lon="6.35241">
        <ele>2682.364</ele>
        <time>2020-04-06T01:00:30Z</time>
      </trkpt>
      <trkpt lat="44.76752" lon="6.35271">
        <ele>2676.335</ele>
        <time>2020-04-06T01:00:50Z</time>
      </trkpt>
      <trkpt lat="44.76744" lon="6.35286">
        <ele>2674.752</ele>
        <time>2020-04-06T01:01:10Z</time>
      </trkpt>
      <trkpt lat="44.76726" lon="6.35302">
        <ele>2669.866</ele>
        <time>2020-04-06T01:01:30Z</time>
      </trkpt>
      <trkpt lat="44.76705" lon="6.35302">
        <ele>2664.523</ele>
        <time>2020-04-06T01:01:50Z</time>
      </trkpt>
      <trkpt lat="44.76697" lon="6.35295">
        <ele>2661.263</ele>
        <time>2020-04-06T01:02:10Z</time>
      </trkpt>
      <trkpt lat="44.76684" lon="6.353">
        <ele>2660.144</ele>
        <time>2020-04-06T01:02:30Z</time>
      </trkpt>
      <trkpt lat="44.76667" lon="6.35301">
        <ele>2657.418</ele>
        <time>2020-04-06T01:02:50Z</time>
      </trkpt>
      <trkpt lat="44.76668" lon="6.35291">
        <ele>2654.708</ele>
        <time>2020-04-06T01:03:10Z</time>
      </trkpt>
      <trkpt lat="44.76663" lon="6.35279">
        <ele>2649.742</ele>
        <time>2020-04-06T01:03:30Z</time>
      </trkpt>
      <trkpt lat="44.7667" lon="6.35255">
        <ele>2646.76</ele>
        <time>2020-04-06T01:03:50Z</time>
      </trkpt>
      <trkpt lat="44.76681" lon="6.35243">
        <ele>2647.738</ele>
        <time>2020-04-06T01:04:10Z</time>
      </trkpt>
      <trkpt lat="44.76677" lon="6.35214">
        <ele>2642.812</ele>
        <time>2020-04-06T01:04:30Z</time>
      </trkpt>
      <trkpt lat="44.76678" lon="6.35197">
        <ele>2641.073</ele>
        <time>2020-04-06T01:04:50Z</time>
      </trkpt>
      <trkpt lat="44.76671" lon="6.35174">
        <ele>2635.51</ele>
        <time>2020-04-06T01:05:10Z</time>
      </trkpt>
      <trkpt lat="44.76665" lon="6.35208">
        <ele>2638.494</ele>
        <time>2020-04-06T01:05:30Z</time>
      </trkpt>
      <trkpt lat="44.76652" lon="6.35182">
        <ele>2630.521</ele>
        <time>2020-04-06T01:05:50Z</time>
      </trkpt>
      <trkpt lat="44.76637" lon="6.35172">
        <ele>2623.778</ele>
        <time>2020-04-06T01:06:10Z</time>
      </trkpt>
      <trkpt lat="44.76637" lon="6.35195">
        <ele>2628.733</ele>
        <time>2020-04-06T01:06:30Z</time>
      </trkpt>
      <trkpt lat="44.76629" lon="6.35205">
        <ele>2628.626</ele>
        <time>2020-04-06T01:06:50Z</time>
      </trkpt>
      <trkpt lat="44.76617" lon="6.35209">
        <ele>2626.508</ele>
        <time>2020-04-06T01:07:10Z</time>
      </trkpt>
      <trkpt lat="44.76618" lon="6.3519">
        <ele>2623.583</ele>
        <time>2020-04-06T01:07:30Z</time>
      </trkpt>
      <trkpt lat="44.76611" lon="6.35178">
        <ele>2619.971</ele>
        <time>2020-04-06T01:07:50Z</time>
      </trkpt>
      <trkpt lat="44.766" lon="6.35168">
        <ele>2615.269</ele>
        <time>2020-04-06T01:08:10Z</time>
      </trkpt>
      <trkpt lat="44.76595" lon="6.35152">
        <ele>2608.233</ele>
        <time>2020-04-06T01:08:30Z</time>
      </trkpt>
      <trkpt lat="44.76557" lon="6.35179">
        <ele>2607.434</ele>
        <time>2020-04-06T01:08:50Z</time>
      </trkpt>
      <trkpt lat="44.76544" lon="6.35172">
        <ele>2602.571</ele>
        <time>2020-04-06T01:09:10Z</time>
      </trkpt>
      <trkpt lat="44.76535" lon="6.35181">
        <ele>2602.035</ele>
        <time>2020-04-06T01:09:30Z</time>
      </trkpt>
      <trkpt lat="44.76539" lon="6.35168">
        <ele>2599.972</ele>
        <time>2020-04-06T01:09:50Z</time>
      </trkpt>
      <trkpt lat="44.76547" lon="6.35162">
        <ele>2600.273</ele>
        <time>2020-04-06T01:10:10Z</time>
      </trkpt>
      <trkpt lat="44.76537" lon="6.35155">
        <ele>2595.685</ele>
        <time>2020-04-06T01:10:30Z</time>
      </trkpt>
      <trkpt lat="44.7653" lon="6.35158">
        <ele>2595.113</ele>
        <time>2020-04-06T01:10:50Z</time>
      </trkpt>
      <trkpt lat="44.76535" lon="6.35148">
        <ele>2593.208</ele>
        <time>2020-04-06T01:11:10Z</time>
      </trkpt>
      <trkpt lat="44.76545" lon="6.35145">
        <ele>2594.113</ele>
        <time>2020-04-06T01:11:30Z</time>
      </trkpt>
      <trkpt lat="44.76549" lon="6.35128">
        <ele>2588.251</ele>
        <time>2020-04-06T01:11:50Z</time>
      </trkpt>
      <trkpt lat="44.76524" lon="6.3513">
        <ele>2584.779</ele>
        <time>2020-04-06T01:12:10Z</time>
      </trkpt>
      <trkpt lat="44.76542" lon="6.3511">
        <ele>2579.593</ele>
        <time>2020-04-06T01:12:30Z</time>
      </trkpt>
      <trkpt lat="44.76533" lon="6.35109">
        <ele>2577.684</ele>
        <time>2020-04-06T01:12:50Z</time>
      </trkpt>
      <trkpt lat="44.76518" lon="6.35115">
        <ele>2577.251</ele>
        <time>2020-04-06T01:13:10Z</time>
      </trkpt>
      <trkpt lat="44.76497" lon="6.35115">
        <ele>2572.845</ele>
        <time>2020-04-06T01:13:30Z</time>
      </trkpt>
      <trkpt lat="44.76472" lon="6.35128">
        <ele>2570.212</ele>
        <time>2020-04-06T01:13:50Z</time>
      </trkpt>
      <trkpt lat="44.76506" lon="6.35087">
        <ele>2560.273</ele>
        <time>2020-04-06T01:14:10Z</time>
      </trkpt>
      <trkpt lat="44.76541" lon="6.35055">
        <ele>2543.585</ele>
        <time>2020-04-06T01:14:30Z</time>
      </trkpt>
      <trkpt lat="44.76525" lon="6.3505">
        <ele>2535.213</ele>
        <time>2020-04-06T01:14:50Z</time>
      </trkpt>
      <trkpt lat="44.76502" lon="6.35053">
        <ele>2532.408</ele>
        <time>2020-04-06T01:15:10Z</time>
      </trkpt>
      <trkpt lat="44.76483" lon="6.35045">
        <ele>2523.553</ele>
        <time>2020-04-06T01:15:30Z</time>
      </trkpt>
      <trkpt lat="44.76459" lon="6.35063">
        <ele>2532.231</ele>
        <time>2020-04-06T01:15:50Z</time>
      </trkpt>
      <trkpt lat="44.76476" lon="6.35017">
        <ele>2504.759</ele>
        <time>2020-04-06T01:16:10Z</time>
      </trkpt>
      <trkpt lat="44.76488" lon="6.35017">
        <ele>2505.533</ele>
        <time>2020-04-06T01:16:30Z</time>
      </trkpt>
      <trkpt lat="44.76475" lon="6.35003">
        <ele>2496.674</ele>
        <time>2020-04-06T01:16:50Z</time>
      </trkpt>
      <trkpt lat="44.76454" lon="6.35022">
        <ele>2506.681</ele>
        <time>2020-04-06T01:17:10Z</time>
      </trkpt>
      <trkpt lat="44.76459" lon="6.3499">
        <ele>2487.635</ele>
        <time>2020-04-06T01:17:30Z</time>
      </trkpt>
      <trkpt lat="44.7647" lon="6.34976">
        <ele>2479.162</ele>
        <time>2020-04-06T01:17:50Z</time>
      </trkpt>
      <trkpt lat="44.76449" lon="6.34973">
        <ele>2476.153</ele>
        <time>2020-04-06T01:18:10Z</time>
      </trkpt>
      <trkpt lat="44.76448" lon="6.34969">
        <ele>2473.104</ele>
        <time>2020-04-06T01:18:30Z</time>
      </trkpt>
      <trkpt lat="44.76459" lon="6.34958">
        <ele>2465.714</ele>
        <time>2020-04-06T01:18:50Z</time>
      </trkpt>
      <trkpt lat="44.76495" lon="6.34972">
        <ele>2476.708</ele>
        <time>2020-04-06T01:19:10Z</time>
      </trkpt>
      <trkpt lat="44.76502" lon="6.34962">
        <ele>2472.081</ele>
        <time>2020-04-06T01:19:30Z</time>
      </trkpt>
      <trkpt lat="44.76514" lon="6.34954">
        <ele>2469.749</ele>
        <time>2020-04-06T01:19:50Z</time>
      </trkpt>
      <trkpt lat="44.76495" lon="6.34948">
        <ele>2464.017</ele>
        <time>2020-04-06T01:20:10Z</time>
      </trkpt>
      <trkpt lat="44.76518" lon="6.34938">
        <ele>2461.861</ele>
        <time>2020-04-06T01:20:30Z</time>
      </trkpt>
      <trkpt lat="44.76502" lon="6.34931">
        <ele>2455.932</ele>
        <time>2020-04-06T01:20:50Z</time>
      </trkpt>
      <trkpt lat="44.76485" lon="6.3493">
        <ele>2452.629</ele>
        <time>2020-04-06T01:21:10Z</time>
      </trkpt>
      <trkpt lat="44.76517" lon="6.34906">
        <ele>2445.913</ele>
        <time>2020-04-06T01:21:30Z</time>
      </trkpt>
      <trkpt lat="44.76489" lon="6.34891">
        <ele>2433.93</ele>
        <time>2020-04-06T01:21:50Z</time>
      </trkpt>
      <trkpt lat="44.76477" lon="6.34891">
        <ele>2432.319</ele>
        <time>2020-04-06T01:22:10Z</time>
      </trkpt>
      <trkpt lat="44.76492" lon="6.34866">
        <ele>2424.809</ele>
        <time>2020-04-06T01:22:30Z</time>
      </trkpt>
      <trkpt lat="44.76476" lon="6.34867">
        <ele>2422.819</ele>
        <time>2020-04-06T01:22:50Z</time>
      </trkpt>
      <trkpt lat="44.7646" lon="6.34872">
        <ele>2419.508</ele>
        <time>2020-04-06T01:23:10Z</time>
      </trkpt>
      <trkpt lat="44.76469" lon="6.34853">
        <ele>2415.077</ele>
        <time>2020-04-06T01:23:30Z</time>
      </trkpt>
      <trkpt lat="44.76487" lon="6.34833">
        <ele>2411.455</ele>
        <time>2020-04-06T01:23:50Z</time>
      </trkpt>
      <trkpt lat="44.76438" lon="6.34838">
        <ele>2397.553</ele>
        <time>2020-04-06T01:24:10Z</time>
      </trkpt>
      <trkpt lat="44.76457" lon="6.34808">
        <ele>2393.337</ele>
        <time>2020-04-06T01:24:30Z</time>
      </trkpt>
      <trkpt lat="44.76464" lon="6.34785">
        <ele>2389.148</ele>
        <time>2020-04-06T01:24:50Z</time>
      </trkpt>
      <trkpt lat="44.76446" lon="6.34802">
        <ele>2388.525</ele>
        <time>2020-04-06T01:25:10Z</time>
      </trkpt>
      <trkpt lat="44.76428" lon="6.34807">
        <ele>2383.389</ele>
        <time>2020-04-06T01:25:30Z</time>
      </trkpt>
      <trkpt lat="44.76439" lon="6.34792">
        <ele>2383.276</ele>
        <time>2020-04-06T01:25:50Z</time>
      </trkpt>
      <trkpt lat="44.76443" lon="6.34776">
        <ele>2380.118</ele>
        <time>2020-04-06T01:26:10Z</time>
      </trkpt>
      <trkpt lat="44.76429" lon="6.34787">
        <ele>2378.598</ele>
        <time>2020-04-06T01:26:30Z</time>
      </trkpt>
      <trkpt lat="44.76418" lon="6.34791">
        <ele>2375.717</ele>
        <time>2020-04-06T01:26:50Z</time>
      </trkpt>
      <trkpt lat="44.7643" lon="6.34767">
        <ele>2373.808</ele>
        <time>2020-04-06T01:27:10Z</time>
      </trkpt>
      <trkpt lat="44.76413" lon="6.34779">
        <ele>2371.287</ele>
        <time>2020-04-06T01:27:30Z</time>
      </trkpt>
      <trkpt lat="44.76419" lon="6.3476">
        <ele>2368.045</ele>
        <time>2020-04-06T01:27:50Z</time>
      </trkpt>
      <trkpt lat="44.76407" lon="6.34768">
        <ele>2366.443</ele>
        <time>2020-04-06T01:28:10Z</time>
      </trkpt>
      <trkpt lat="44.76413" lon="6.3475">
        <ele>2363.787</ele>
        <time>2020-04-06T01:28:30Z</time>
      </trkpt>
      <trkpt lat="44.76402" lon="6.34762">
        <ele>2363.188</ele>
        <time>2020-04-06T01:28:50Z</time>
      </trkpt>
      <trkpt lat="44.76405" lon="6.34742">
        <ele>2358.215</ele>
        <time>2020-04-06T01:29:10Z</time>
      </trkpt>
      <trkpt lat="44.76395" lon="6.34755">
        <ele>2358.629</ele>
        <time>2020-04-06T01:29:30Z</time>
      </trkpt>
      <trkpt lat="44.76394" lon="6.34744">
        <ele>2354.846</ele>
        <time>2020-04-06T01:29:50Z</time>
      </trkpt>
      <trkpt lat="44.76388" lon="6.34749">
        <ele>2354.433</ele>
        <time>2020-04-06T01:30:10Z</time>
      </trkpt>
      <trkpt lat="44.7639" lon="6.34735">
        <ele>2349.523</ele>
        <time>2020-04-06T01:30:30Z</time>
      </trkpt>
      <trkpt lat="44.76382" lon="6.34741">
        <ele>2347.915</ele>
        <time>2020-04-06T01:30:50Z</time>
      </trkpt>
      <trkpt lat="44.76385" lon="6.34724">
        <ele>2343.008</ele>
        <time>2020-04-06T01:31:10Z</time>
      </trkpt>
      <trkpt lat="44.76375" lon="6.34732">
        <ele>2341.279</ele>
        <time>2020-04-06T01:31:30Z</time>
      </trkpt>
      <trkpt lat="44.76379" lon="6.34715">
        <ele>2337.647</ele>
        <time>2020-04-06T01:31:50Z</time>
      </trkpt>
      <trkpt lat="44.7637" lon="6.34719">
        <ele>2335.075</ele>
        <time>2020-04-06T01:32:10Z</time>
      </trkpt>
      <trkpt lat="44.76369" lon="6.34709">
        <ele>2332.019</ele>
        <time>2020-04-06T01:32:30Z</time>
      </trkpt>
      <trkpt lat="44.76376" lon="6.34701">
        <ele>2332.76</ele>
        <time>2020-04-06T01:32:50Z</time>
      </trkpt>
      <trkpt lat="44.76363" lon="6.34707">
        <ele>2328.717</ele>
        <time>2020-04-06T01:33:10Z</time>
      </trkpt>
      <trkpt lat="44.76369" lon="6.34679">
        <ele>2323.411</ele>
        <time>2020-04-06T01:33:30Z</time>
      </trkpt>
      <trkpt lat="44.76359" lon="6.34683">
        <ele>2320.238</ele>
        <time>2020-04-06T01:33:50Z</time>
      </trkpt>
      <trkpt lat="44.76367" lon="6.34668">
        <ele>2319.426</ele>
        <time>2020-04-06T01:34:10Z</time>
      </trkpt>
      <trkpt lat="44.76359" lon="6.34672">
        <ele>2317.147</ele>
        <time>2020-04-06T01:34:30Z</time>
      </trkpt>
      <trkpt lat="44.7635" lon="6.3468">
        <ele>2314.311</ele>
        <time>2020-04-06T01:34:50Z</time>
      </trkpt>
      <trkpt lat="44.76342" lon="6.34685">
        <ele>2310.308</ele>
        <time>2020-04-06T01:35:10Z</time>
      </trkpt>
      <trkpt lat="44.76335" lon="6.34703">
        <ele>2309.418</ele>
        <time>2020-04-06T01:35:30Z</time>
      </trkpt>
      <trkpt lat="44.76326" lon="6.34701">
        <ele>2302.456</ele>
        <time>2020-04-06T01:35:50Z</time>
      </trkpt>
      <trkpt lat="44.76314" lon="6.34687">
        <ele>2290.254</ele>
        <time>2020-04-06T01:36:10Z</time>
      </trkpt>
      <trkpt lat="44.76295" lon="6.34711">
        <ele>2282.028</ele>
        <time>2020-04-06T01:36:30Z</time>
      </trkpt>
      <trkpt lat="44.76288" lon="6.3473">
        <ele>2284.819</ele>
        <time>2020-04-06T01:36:50Z</time>
      </trkpt>
      <trkpt lat="44.76257" lon="6.34707">
        <ele>2269.996</ele>
        <time>2020-04-06T01:37:10Z</time>
      </trkpt>
      <trkpt lat="44.76248" lon="6.34708">
        <ele>2269.26</ele>
        <time>2020-04-06T01:37:30Z</time>
      </trkpt>
      <trkpt lat="44.76236" lon="6.34714">
        <ele>2270.447</ele>
        <time>2020-04-06T01:37:50Z</time>
      </trkpt>
      <trkpt lat="44.76223" lon="6.34707">
        <ele>2266.121</ele>
        <time>2020-04-06T01:38:10Z</time>
      </trkpt>
      <trkpt lat="44.76214" lon="6.34678">
        <ele>2252.241</ele>
        <time>2020-04-06T01:38:30Z</time>
      </trkpt>
      <trkpt lat="44.76193" lon="6.34665">
        <ele>2251.005</ele>
        <time>2020-04-06T01:38:50Z</time>
      </trkpt>
      <trkpt lat="44.76161" lon="6.34671">
        <ele>2251.508</ele>
        <time>2020-04-06T01:39:10Z</time>
      </trkpt>
      <trkpt lat="44.76156" lon="6.34656">
        <ele>2245.518</ele>
        <time>2020-04-06T01:39:30Z</time>
      </trkpt>
      <trkpt lat="44.76157" lon="6.34637">
        <ele>2236.856</ele>
        <time>2020-04-06T01:39:50Z</time>
      </trkpt>
      <trkpt lat="44.76152" lon="6.34631">
        <ele>2235.564</ele>
        <time>2020-04-06T01:40:10Z</time>
      </trkpt>
      <trkpt lat="44.76139" lon="6.34625">
        <ele>2235.068</ele>
        <time>2020-04-06T01:40:30Z</time>
      </trkpt>
      <trkpt lat="44.76154" lon="6.34615">
        <ele>2229.659</ele>
        <time>2020-04-06T01:40:50Z</time>
      </trkpt>
      <trkpt lat="44.76172" lon="6.34611">
        <ele>2226.586</ele>
        <time>2020-04-06T01:41:10Z</time>
      </trkpt>
      <trkpt lat="44.76159" lon="6.34598">
        <ele>2224.21</ele>
        <time>2020-04-06T01:41:30Z</time>
      </trkpt>
      <trkpt lat="44.76134" lon="6.34586">
        <ele>2221.627</ele>
        <time>2020-04-06T01:41:50Z</time>
      </trkpt>
      <trkpt lat="44.76159" lon="6.34573">
        <ele>2216.758</ele>
        <time>2020-04-06T01:42:10Z</time>
      </trkpt>
      <trkpt lat="44.76191" lon="6.34559">
        <ele>2207.952</ele>
        <time>2020-04-06T01:42:30Z</time>
      </trkpt>
      <trkpt lat="44.76183" lon="6.3455">
        <ele>2205.917</ele>
        <time>2020-04-06T01:42:50Z</time>
      </trkpt>
      <trkpt lat="44.7613" lon="6.34526">
        <ele>2198.808</ele>
        <time>2020-04-06T01:43:10Z</time>
      </trkpt>
      <trkpt lat="44.76177" lon="6.34488">
        <ele>2187.221</ele>
        <time>2020-04-06T01:43:30Z</time>
      </trkpt>
      <trkpt lat="44.76212" lon="6.34474">
        <ele>2178.559</ele>
        <time>2020-04-06T01:43:50Z</time>
      </trkpt>
      <trkpt lat="44.76194" lon="6.34443">
        <ele>2171.447</ele>
        <time>2020-04-06T01:44:10Z</time>
      </trkpt>
      <trkpt lat="44.76184" lon="6.34421">
        <ele>2164.521</ele>
        <time>2020-04-06T01:44:30Z</time>
      </trkpt>
      <trkpt lat="44.76163" lon="6.34412">
        <ele>2161.372</ele>
        <time>2020-04-06T01:44:50Z</time>
      </trkpt>
      <trkpt lat="44.76139" lon="6.34397">
        <ele>2155.799</ele>
        <time>2020-04-06T01:45:10Z</time>
      </trkpt>
      <trkpt lat="44.76163" lon="6.34384">
        <ele>2152.573</ele>
        <time>2020-04-06T01:45:30Z</time>
      </trkpt>
      <trkpt lat="44.76136" lon="6.34366">
        <ele>2146.34</ele>
        <time>2020-04-06T01:45:50Z</time>
      </trkpt>
      <trkpt lat="44.76124" lon="6.34347">
        <ele>2140.729</ele>
        <time>2020-04-06T01:46:10Z</time>
      </trkpt>
      <trkpt lat="44.76113" lon="6.34342">
        <ele>2138.9</ele>
        <time>2020-04-06T01:46:30Z</time>
      </trkpt>
      <trkpt lat="44.76103" lon="6.34327">
        <ele>2134.72</ele>
        <time>2020-04-06T01:46:50Z</time>
      </trkpt>
      <trkpt lat="44.761" lon="6.3431">
        <ele>2130.208</ele>
        <time>2020-04-06T01:47:10Z</time>
      </trkpt>
      <trkpt lat="44.76111" lon="6.34298">
        <ele>2127.988</ele>
        <time>2020-04-06T01:47:30Z</time>
      </trkpt>
      <trkpt lat="44.76108" lon="6.3429">
        <ele>2125.236</ele>
        <time>2020-04-06T01:47:50Z</time>
      </trkpt>
      <trkpt lat="44.76097" lon="6.34289">
        <ele>2124.364</ele>
        <time>2020-04-06T01:48:10Z</time>
      </trkpt>
      <trkpt lat="44.76085" lon="6.34297">
        <ele>2125.658</ele>
        <time>2020-04-06T01:48:30Z</time>
      </trkpt>
      <trkpt lat="44.76047" lon="6.34304">
        <ele>2121.859</ele>
        <time>2020-04-06T01:48:50Z</time>
      </trkpt>
      <trkpt lat="44.7603" lon="6.3429">
        <ele>2116.676</ele>
        <time>2020-04-06T01:49:10Z</time>
      </trkpt>
      <trkpt lat="44.76007" lon="6.34277">
        <ele>2112.01</ele>
        <time>2020-04-06T01:49:30Z</time>
      </trkpt>
      <trkpt lat="44.76036" lon="6.34226">
        <ele>2100.977</ele>
        <time>2020-04-06T01:49:50Z</time>
      </trkpt>
      <trkpt lat="44.7606" lon="6.34198">
        <ele>2094.398</ele>
        <time>2020-04-06T01:50:10Z</time>
      </trkpt>
      <trkpt lat="44.76067" lon="6.34199">
        <ele>2094.015</ele>
        <time>2020-04-06T01:50:30Z</time>
      </trkpt>
      <trkpt lat="44.76081" lon="6.34186">
        <ele>2090.626</ele>
        <time>2020-04-06T01:50:50Z</time>
      </trkpt>
      <trkpt lat="44.76095" lon="6.3415">
        <ele>2085.008</ele>
        <time>2020-04-06T01:51:10Z</time>
      </trkpt>
      <trkpt lat="44.76119" lon="6.34132">
        <ele>2082.175</ele>
        <time>2020-04-06T01:51:30Z</time>
      </trkpt>
      <trkpt lat="44.76132" lon="6.34117">
        <ele>2079.473</ele>
        <time>2020-04-06T01:51:50Z</time>
      </trkpt>
      <trkpt lat="44.76139" lon="6.34113">
        <ele>2078.321</ele>
        <time>2020-04-06T01:52:10Z</time>
      </trkpt>
      <trkpt lat="44.76146" lon="6.34098">
        <ele>2076.695</ele>
        <time>2020-04-06T01:52:30Z</time>
      </trkpt>
      <trkpt lat="44.76181" lon="6.34075">
        <ele>2073.486</ele>
        <time>2020-04-06T01:52:50Z</time>
      </trkpt>
      <trkpt lat="44.76192" lon="6.34072">
        <ele>2072.623</ele>
        <time>2020-04-06T01:53:10Z</time>
      </trkpt>
      <trkpt lat="44.76198" lon="6.34059">
        <ele>2069.497</ele>
        <time>2020-04-06T01:53:30Z</time>
      </trkpt>
      <trkpt lat="44.76197" lon="6.34031">
        <ele>2062.754</ele>
        <time>2020-04-06T01:53:50Z</time>
      </trkpt>
      <trkpt lat="44.76212" lon="6.34027">
        <ele>2060.498</ele>
        <time>2020-04-06T01:54:10Z</time>
      </trkpt>
      <trkpt lat="44.76231" lon="6.34032">
        <ele>2060.915</ele>
        <time>2020-04-06T01:54:30Z</time>
      </trkpt>
      <trkpt lat="44.76252" lon="6.34023">
        <ele>2058.426</ele>
        <time>2020-04-06T01:54:50Z</time>
      </trkpt>
      <trkpt lat="44.76251" lon="6.34003">
        <ele>2053.608</ele>
        <time>2020-04-06T01:55:10Z</time>
      </trkpt>
      <trkpt lat="44.7626" lon="6.34006">
        <ele>2053.345</ele>
        <time>2020-04-06T01:55:30Z</time>
      </trkpt>
      <trkpt lat="44.7627" lon="6.34019">
        <ele>2054.623</ele>
        <time>2020-04-06T01:55:50Z</time>
      </trkpt>
      <trkpt lat="44.76282" lon="6.3401">
        <ele>2050.531</ele>
        <time>2020-04-06T01:56:10Z</time>
      </trkpt>
      <trkpt lat="44.76287" lon="6.34022">
        <ele>2051.435</ele>
        <time>2020-04-06T01:56:30Z</time>
      </trkpt>
      <trkpt lat="44.76299" lon="6.3402">
        <ele>2047.756</ele>
        <time>2020-04-06T01:56:50Z</time>
      </trkpt>
      <trkpt lat="44.7631" lon="6.34023">
        <ele>2045.823</ele>
        <time>2020-04-06T01:57:10Z</time>
      </trkpt>
      <trkpt lat="44.76325" lon="6.34016">
        <ele>2041.467</ele>
        <time>2020-04-06T01:57:30Z</time>
      </trkpt>
      <trkpt lat="44.76313" lon="6.34006">
        <ele>2040.754</ele>
        <time>2020-04-06T01:57:50Z</time>
      </trkpt>
      <trkpt lat="44.76304" lon="6.33979">
        <ele>2034.785</ele>
        <time>2020-04-06T01:58:10Z</time>
      </trkpt>
      <trkpt lat="44.76317" lon="6.33979">
        <ele>2033.089</ele>
        <time>2020-04-06T01:58:30Z</time>
      </trkpt>
      <trkpt lat="44.76326" lon="6.33959">
        <ele>2027.717</ele>
        <time>2020-04-06T01:58:50Z</time>
      </trkpt>
      <trkpt lat="44.76335" lon="6.33954">
        <ele>2025.308</ele>
        <time>2020-04-06T01:59:10Z</time>
      </trkpt>
      <trkpt lat="44.76322" lon="6.33933">
        <ele>2021.414</ele>
        <time>2020-04-06T01:59:30Z</time>
      </trkpt>
      <trkpt lat="44.76317" lon="6.33909">
        <ele>2014.982</ele>
        <time>2020-04-06T01:59:50Z</time>
      </trkpt>
      <trkpt lat="44.76328" lon="6.33907">
        <ele>2014.54</ele>
        <time>2020-04-06T02:00:10Z</time>
      </trkpt>
      <trkpt lat="44.76338" lon="6.33893">
        <ele>2009.314</ele>
        <time>2020-04-06T02:00:30Z</time>
      </trkpt>
      <trkpt lat="44.76323" lon="6.33881">
        <ele>2008.255</ele>
        <time>2020-04-06T02:00:50Z</time>
      </trkpt>
      <trkpt lat="44.76327" lon="6.33862">
        <ele>2004.372</ele>
        <time>2020-04-06T02:01:10Z</time>
      </trkpt>
      <trkpt lat="44.7634" lon="6.33851">
        <ele>2000.176</ele>
        <time>2020-04-06T02:01:30Z</time>
      </trkpt>
      <trkpt lat="44.76342" lon="6.33839">
        <ele>1997.193</ele>
        <time>2020-04-06T02:01:50Z</time>
      </trkpt>
      <trkpt lat="44.7634" lon="6.3383">
        <ele>1996.135</ele>
        <time>2020-04-06T02:02:10Z</time>
      </trkpt>
      <trkpt lat="44.76352" lon="6.33823">
        <ele>1991.086</ele>
        <time>2020-04-06T02:02:30Z</time>
      </trkpt>
      <trkpt lat="44.76345" lon="6.33806">
        <ele>1989.714</ele>
        <time>2020-04-06T02:02:50Z</time>
      </trkpt>
      <trkpt lat="44.76353" lon="6.33801">
        <ele>1986.308</ele>
        <time>2020-04-06T02:03:10Z</time>
      </trkpt>
      <trkpt lat="44.76348" lon="6.3379">
        <ele>1985.579</ele>
        <time>2020-04-06T02:03:30Z</time>
      </trkpt>
      <trkpt lat="44.76356" lon="6.33779">
        <ele>1981.527</ele>
        <time>2020-04-06T02:03:50Z</time>
      </trkpt>
      <trkpt lat="44.76348" lon="6.33768">
        <ele>1980.315</ele>
        <time>2020-04-06T02:04:10Z</time>
      </trkpt>
      <trkpt lat="44.76348" lon="6.33754">
        <ele>1976.459</ele>
        <time>2020-04-06T02:04:30Z</time>
      </trkpt>
      <trkpt lat="44.76354" lon="6.33745">
        <ele>1973.76</ele>
        <time>2020-04-06T02:04:50Z</time>
      </trkpt>
      <trkpt lat="44.76353" lon="6.33737">
        <ele>1971.647</ele>
        <time>2020-04-06T02:05:10Z</time>
      </trkpt>
      <trkpt lat="44.76359" lon="6.33729">
        <ele>1969.431</ele>
        <time>2020-04-06T02:05:30Z</time>
      </trkpt>
      <trkpt lat="44.76359" lon="6.33716">
        <ele>1966.648</ele>
        <time>2020-04-06T02:05:50Z</time>
      </trkpt>
      <trkpt lat="44.76345" lon="6.33724">
        <ele>1968.552</ele>
        <time>2020-04-06T02:06:10Z</time>
      </trkpt>
      <trkpt lat="44.76333" lon="6.33718">
        <ele>1967.753</ele>
        <time>2020-04-06T02:06:30Z</time>
      </trkpt>
      <trkpt lat="44.76322" lon="6.33722">
        <ele>1970.108</ele>
        <time>2020-04-06T02:06:50Z</time>
      </trkpt>
      <trkpt lat="44.76319" lon="6.33705">
        <ele>1970.108</ele>
        <time>2020-04-06T02:07:10Z</time>
      </trkpt>
      <trkpt lat="44.76324" lon="6.3369">
        <ele>1968.391</ele>
        <time>2020-04-06T02:07:30Z</time>
      </trkpt>
      <trkpt lat="44.76339" lon="6.33669">
        <ele>1963.179</ele>
        <time>2020-04-06T02:07:50Z</time>
      </trkpt>
      <trkpt lat="44.7634" lon="6.33654">
        <ele>1963.937</ele>
        <time>2020-04-06T02:08:10Z</time>
      </trkpt>
      <trkpt lat="44.76349" lon="6.33624">
        <ele>1963.521</ele>
        <time>2020-04-06T02:08:30Z</time>
      </trkpt>
      <trkpt lat="44.7636" lon="6.33616">
        <ele>1961.022</ele>
        <time>2020-04-06T02:08:50Z</time>
      </trkpt>
      <trkpt lat="44.76374" lon="6.3361">
        <ele>1957.299</ele>
        <time>2020-04-06T02:09:10Z</time>
      </trkpt>
      <trkpt lat="44.76386" lon="6.33589">
        <ele>1953.833</ele>
        <time>2020-04-06T02:09:30Z</time>
      </trkpt>
      <trkpt lat="44.76399" lon="6.33583">
        <ele>1949.23</ele>
        <time>2020-04-06T02:09:50Z</time>
      </trkpt>
      <trkpt lat="44.764" lon="6.3356">
        <ele>1946.637</ele>
        <time>2020-04-06T02:10:10Z</time>
      </trkpt>
      <trkpt lat="44.76407" lon="6.33554">
        <ele>1943.149</ele>
        <time>2020-04-06T02:10:30Z</time>
      </trkpt>
      <trkpt lat="44.76405" lon="6.33517">
        <ele>1938.613</ele>
        <time>2020-04-06T02:10:50Z</time>
      </trkpt>
      <trkpt lat="44.76408" lon="6.33496">
        <ele>1935.608</ele>
        <time>2020-04-06T02:11:10Z</time>
      </trkpt>
      <trkpt lat="44.7642" lon="6.33458">
        <ele>1932.339</ele>
        <time>2020-04-06T02:11:30Z</time>
      </trkpt>
      <trkpt lat="44.76435" lon="6.33433">
        <ele>1923.157</ele>
        <time>2020-04-06T02:11:50Z</time>
      </trkpt>
      <trkpt lat="44.76453" lon="6.33437">
        <ele>1911.455</ele>
        <time>2020-04-06T02:12:10Z</time>
      </trkpt>
      <trkpt lat="44.76441" lon="6.33419">
        <ele>1918.239</ele>
        <time>2020-04-06T02:12:30Z</time>
      </trkpt>
      <trkpt lat="44.76444" lon="6.33377">
        <ele>1908.18</ele>
        <time>2020-04-06T02:12:50Z</time>
      </trkpt>
      <trkpt lat="44.76467" lon="6.3339">
        <ele>1894.257</ele>
        <time>2020-04-06T02:13:10Z</time>
      </trkpt>
      <trkpt lat="44.76453" lon="6.33346">
        <ele>1891.231</ele>
        <time>2020-04-06T02:13:30Z</time>
      </trkpt>
      <trkpt lat="44.76477" lon="6.33371">
        <ele>1882.788</ele>
        <time>2020-04-06T02:13:50Z</time>
      </trkpt>
      <trkpt lat="44.76471" lon="6.33348">
        <ele>1880.031</ele>
        <time>2020-04-06T02:14:10Z</time>
      </trkpt>
      <trkpt lat="44.76484" lon="6.33355">
        <ele>1874.761</ele>
        <time>2020-04-06T02:14:30Z</time>
      </trkpt>
      <trkpt lat="44.76471" lon="6.33323">
        <ele>1869.807</ele>
        <time>2020-04-06T02:14:50Z</time>
      </trkpt>
      <trkpt lat="44.76498" lon="6.33343">
        <ele>1861.108</ele>
        <time>2020-04-06T02:15:10Z</time>
      </trkpt>
      <trkpt lat="44.7649" lon="6.33327">
        <ele>1860.449</ele>
        <time>2020-04-06T02:15:30Z</time>
      </trkpt>
      <trkpt lat="44.76504" lon="6.33333">
        <ele>1855.597</ele>
        <time>2020-04-06T02:15:50Z</time>
      </trkpt>
      <trkpt lat="44.76489" lon="6.33312">
        <ele>1855.395</ele>
        <time>2020-04-06T02:16:10Z</time>
      </trkpt>
      <trkpt lat="44.76501" lon="6.33321">
        <ele>1852.779</ele>
        <time>2020-04-06T02:16:30Z</time>
      </trkpt>
      <trkpt lat="44.76492" lon="6.333">
        <ele>1850.21</ele>
        <time>2020-04-06T02:16:50Z</time>
      </trkpt>
      <trkpt lat="44.7649" lon="6.33277">
        <ele>1845.117</ele>
        <time>2020-04-06T02:17:10Z</time>
      </trkpt>
      <trkpt lat="44.76468" lon="6.33236">
        <ele>1839.851</ele>
        <time>2020-04-06T02:17:30Z</time>
      </trkpt>
      <trkpt lat="44.76458" lon="6.33206">
        <ele>1837.078</ele>
        <time>2020-04-06T02:17:50Z</time>
      </trkpt>
      <trkpt lat="44.76457" lon="6.33159">
        <ele>1830.047</ele>
        <time>2020-04-06T02:18:10Z</time>
      </trkpt>
      <trkpt lat="44.76449" lon="6.33129">
        <ele>1826.529</ele>
        <time>2020-04-06T02:18:30Z</time>
      </trkpt>
      <trkpt lat="44.76448" lon="6.33101">
        <ele>1823.221</ele>
        <time>2020-04-06T02:18:50Z</time>
      </trkpt>
      <trkpt lat="44.7645" lon="6.33071">
        <ele>1819.308</ele>
        <time>2020-04-06T02:19:10Z</time>
      </trkpt>
      <trkpt lat="44.76429" lon="6.33027">
        <ele>1819.23</ele>
        <time>2020-04-06T02:19:30Z</time>
      </trkpt>
      <trkpt lat="44.76432" lon="6.33006">
        <ele>1816.438</ele>
        <time>2020-04-06T02:19:50Z</time>
      </trkpt>
      <trkpt lat="44.7643" lon="6.32983">
        <ele>1814.686</ele>
        <time>2020-04-06T02:20:10Z</time>
      </trkpt>
      <trkpt lat="44.76433" lon="6.32962">
        <ele>1811.83</ele>
        <time>2020-04-06T02:20:30Z</time>
      </trkpt>
      <trkpt lat="44.76429" lon="6.32946">
        <ele>1810.541</ele>
        <time>2020-04-06T02:20:50Z</time>
      </trkpt>
      <trkpt lat="44.76437" lon="6.32912">
        <ele>1805.828</ele>
        <time>2020-04-06T02:21:10Z</time>
      </trkpt>
      <trkpt lat="44.76432" lon="6.32874">
        <ele>1802.842</ele>
        <time>2020-04-06T02:21:30Z</time>
      </trkpt>
      <trkpt lat="44.76433" lon="6.32864">
        <ele>1801.599</ele>
        <time>2020-04-06T02:21:50Z</time>
      </trkpt>
      <trkpt lat="44.76439" lon="6.32875">
        <ele>1802.052</ele>
        <time>2020-04-06T02:22:10Z</time>
      </trkpt>
      <trkpt lat="44.76447" lon="6.32877">
        <ele>1801.653</ele>
        <time>2020-04-06T02:22:30Z</time>
      </trkpt>
      <trkpt lat="44.76451" lon="6.32862">
        <ele>1800.108</ele>
        <time>2020-04-06T02:22:50Z</time>
      </trkpt>
      <trkpt lat="44.76457" lon="6.32862">
        <ele>1800.108</ele>
        <time>2020-04-06T02:23:10Z</time>
      </trkpt>
      <trkpt lat="44.76469" lon="6.32875">
        <ele>1801.061</ele>
        <time>2020-04-06T02:23:30Z</time>
      </trkpt>
      <trkpt lat="44.7649" lon="6.32875">
        <ele>1802.669</ele>
        <time>2020-04-06T02:23:50Z</time>
      </trkpt>
      <trkpt lat="44.76513" lon="6.32856">
        <ele>1803.657</ele>
        <time>2020-04-06T02:24:10Z</time>
      </trkpt>
      <trkpt lat="44.76522" lon="6.32833">
        <ele>1803.451</ele>
        <time>2020-04-06T02:24:30Z</time>
      </trkpt>
      <trkpt lat="44.76521" lon="6.32778">
        <ele>1800.822</ele>
        <time>2020-04-06T02:24:50Z</time>
      </trkpt>
      <trkpt lat="44.76515" lon="6.32733">
        <ele>1799.579</ele>
        <time>2020-04-06T02:25:10Z</time>
      </trkpt>
      <trkpt lat="44.76544" lon="6.32718">
        <ele>1801.843</ele>
        <time>2020-04-06T02:25:30Z</time>
      </trkpt>
      <trkpt lat="44.7659" lon="6.32757">
        <ele>1807.74</ele>
        <time>2020-04-06T02:25:50Z</time>
      </trkpt>
      <trkpt lat="44.76604" lon="6.32782">
        <ele>1809.694</ele>
        <time>2020-04-06T02:26:10Z</time>
      </trkpt>
      <trkpt lat="44.76702" lon="6.32865">
        <ele>1825.357</ele>
        <time>2020-04-06T02:26:30Z</time>
      </trkpt>
      <trkpt lat="44.76738" lon="6.32887">
        <ele>1830.922</ele>
        <time>2020-04-06T02:26:50Z</time>
      </trkpt>
      <trkpt lat="44.76782" lon="6.32929">
        <ele>1839.008</ele>
        <time>2020-04-06T02:27:10Z</time>
      </trkpt>
      <trkpt lat="44.7682" lon="6.32947">
        <ele>1849.625</ele>
        <time>2020-04-06T02:27:30Z</time>
      </trkpt>
      <trkpt lat="44.7684" lon="6.32964">
        <ele>1853.263</ele>
        <time>2020-04-06T02:27:50Z</time>
      </trkpt>
      <trkpt lat="44.76921" lon="6.32956">
        <ele>1872.591</ele>
        <time>2020-04-06T02:28:10Z</time>
      </trkpt>
      <trkpt lat="44.76931" lon="6.3296">
        <ele>1871.545</ele>
        <time>2020-04-06T02:28:30Z</time>
      </trkpt>
      <trkpt lat="44.7694" lon="6.3295">
        <ele>1874.536</ele>
        <time>2020-04-06T02:28:50Z</time>
      </trkpt>
      <trkpt lat="44.76965" lon="6.32942">
        <ele>1878.193</ele>
        <time>2020-04-06T02:29:10Z</time>
      </trkpt>
      <trkpt lat="44.77" lon="6.3295">
        <ele>1884.427</ele>
        <time>2020-04-06T02:29:30Z</time>
      </trkpt>
      <trkpt lat="44.77051" lon="6.32953">
        <ele>1893.934</ele>
        <time>2020-04-06T02:29:50Z</time>
      </trkpt>
      <trkpt lat="44.77077" lon="6.32957">
        <ele>1896.011</ele>
        <time>2020-04-06T02:30:10Z</time>
      </trkpt>
      <trkpt lat="44.77121" lon="6.32949">
        <ele>1905.921</ele>
        <time>2020-04-06T02:30:30Z</time>
      </trkpt>
      <trkpt lat="44.77164" lon="6.32913">
        <ele>1914.803</ele>
        <time>2020-04-06T02:30:50Z</time>
      </trkpt>
      <trkpt lat="44.77194" lon="6.32899">
        <ele>1919.608</ele>
        <time>2020-04-06T02:31:10Z</time>
      </trkpt>
      <trkpt lat="44.77237" lon="6.32861">
        <ele>1931.417</ele>
        <time>2020-04-06T02:31:30Z</time>
      </trkpt>
      <trkpt lat="44.77271" lon="6.32846">
        <ele>1936.815</ele>
        <time>2020-04-06T02:31:50Z</time>
      </trkpt>
      <trkpt lat="44.77289" lon="6.32832">
        <ele>1941.343</ele>
        <time>2020-04-06T02:32:10Z</time>
      </trkpt>
      <trkpt lat="44.77302" lon="6.32827">
        <ele>1944.757</ele>
        <time>2020-04-06T02:32:30Z</time>
      </trkpt>
      <trkpt lat="44.77328" lon="6.32811">
        <ele>1951.478</ele>
        <time>2020-04-06T02:32:50Z</time>
      </trkpt>
      <trkpt lat="44.7734" lon="6.32814">
        <ele>1952.215</ele>
        <time>2020-04-06T02:33:10Z</time>
      </trkpt>
      <trkpt lat="44.77354" lon="6.32799">
        <ele>1958.259</ele>
        <time>2020-04-06T02:33:30Z</time>
      </trkpt>
      <trkpt lat="44.7737" lon="6.32791">
        <ele>1962.266</ele>
        <time>2020-04-06T02:33:50Z</time>
      </trkpt>
      <trkpt lat="44.77362" lon="6.3277">
        <ele>1968.638</ele>
        <time>2020-04-06T02:34:10Z</time>
      </trkpt>
      <trkpt lat="44.77363" lon="6.32756">
        <ele>1974.37</ele>
        <time>2020-04-06T02:34:30Z</time>
      </trkpt>
      <trkpt lat="44.77383" lon="6.32762">
        <ele>1971.617</ele>
        <time>2020-04-06T02:34:50Z</time>
      </trkpt>
      <trkpt lat="44.77407" lon="6.32758">
        <ele>1974.508</ele>
        <time>2020-04-06T02:35:10Z</time>
      </trkpt>
      <trkpt lat="44.7742" lon="6.32745">
        <ele>1980.199</ele>
        <time>2020-04-06T02:35:30Z</time>
      </trkpt>
      <trkpt lat="44.77433" lon="6.32742">
        <ele>1982.167</ele>
        <time>2020-04-06T02:35:50Z</time>
      </trkpt>
      <trkpt lat="44.77437" lon="6.32726">
        <ele>1987.595</ele>
        <time>2020-04-06T02:36:10Z</time>
      </trkpt>
      <trkpt lat="44.77453" lon="6.32734">
        <ele>1986.769</ele>
        <time>2020-04-06T02:36:30Z</time>
      </trkpt>
      <trkpt lat="44.77457" lon="6.32728">
        <ele>1988.73</ele>
        <time>2020-04-06T02:36:50Z</time>
      </trkpt>
      <trkpt lat="44.77529" lon="6.32787">
        <ele>1994.277</ele>
        <time>2020-04-06T02:37:10Z</time>
      </trkpt>
      <trkpt lat="44.77553" lon="6.32816">
        <ele>1999.031</ele>
        <time>2020-04-06T02:37:30Z</time>
      </trkpt>
      <trkpt lat="44.77561" lon="6.32801">
        <ele>2003.128</ele>
        <time>2020-04-06T02:37:50Z</time>
      </trkpt>
      <trkpt lat="44.77561" lon="6.3278">
        <ele>2004.547</ele>
        <time>2020-04-06T02:38:10Z</time>
      </trkpt>
      <trkpt lat="44.77575" lon="6.32748">
        <ele>2012.429</ele>
        <time>2020-04-06T02:38:30Z</time>
      </trkpt>
      <trkpt lat="44.77582" lon="6.32712">
        <ele>2019.021</ele>
        <time>2020-04-06T02:38:50Z</time>
      </trkpt>
      <trkpt lat="44.77608" lon="6.32731">
        <ele>2024.108</ele>
        <time>2020-04-06T02:39:10Z</time>
      </trkpt>
      <trkpt lat="44.7762" lon="6.32755">
        <ele>2025.19</ele>
        <time>2020-04-06T02:39:30Z</time>
      </trkpt>
      <trkpt lat="44.77629" lon="6.32725">
        <ele>2030.928</ele>
        <time>2020-04-06T02:39:50Z</time>
      </trkpt>
      <trkpt lat="44.77627" lon="6.32706">
        <ele>2032.496</ele>
        <time>2020-04-06T02:40:10Z</time>
      </trkpt>
      <trkpt lat="44.7763" lon="6.32695">
        <ele>2034.45</ele>
        <time>2020-04-06T02:40:30Z</time>
      </trkpt>
      <trkpt lat="44.77662" lon="6.32719">
        <ele>2040.911</ele>
        <time>2020-04-06T02:40:50Z</time>
      </trkpt>
      <trkpt lat="44.77662" lon="6.32685">
        <ele>2044.948</ele>
        <time>2020-04-06T02:41:10Z</time>
      </trkpt>
      <trkpt lat="44.77696" lon="6.32712">
        <ele>2050.642</ele>
        <time>2020-04-06T02:41:30Z</time>
      </trkpt>
      <trkpt lat="44.77701" lon="6.32691">
        <ele>2054.699</ele>
        <time>2020-04-06T02:41:50Z</time>
      </trkpt>
      <trkpt lat="44.77698" lon="6.32662">
        <ele>2057.817</ele>
        <time>2020-04-06T02:42:10Z</time>
      </trkpt>
      <trkpt lat="44.77716" lon="6.32607">
        <ele>2074.787</ele>
        <time>2020-04-06T02:42:30Z</time>
      </trkpt>
      <trkpt lat="44.77677" lon="6.32571">
        <ele>2080.515</ele>
        <time>2020-04-06T02:42:50Z</time>
      </trkpt>
      <trkpt lat="44.77714" lon="6.32567">
        <ele>2086.508</ele>
        <time>2020-04-06T02:43:10Z</time>
      </trkpt>
      <trkpt lat="44.77692" lon="6.32546">
        <ele>2089.427</ele>
        <time>2020-04-06T02:43:30Z</time>
      </trkpt>
      <trkpt lat="44.77674" lon="6.3251">
        <ele>2106.495</ele>
        <time>2020-04-06T02:43:50Z</time>
      </trkpt>
      <trkpt lat="44.77621" lon="6.32533">
        <ele>2107.733</ele>
        <time>2020-04-06T02:44:10Z</time>
      </trkpt>
      <trkpt lat="44.77557" lon="6.32497">
        <ele>2127.937</ele>
        <time>2020-04-06T02:44:30Z</time>
      </trkpt>
      <trkpt lat="44.7754" lon="6.32508">
        <ele>2123.868</ele>
        <time>2020-04-06T02:44:50Z</time>
      </trkpt>
      <trkpt lat="44.77498" lon="6.32481">
        <ele>2140.725</ele>
        <time>2020-04-06T02:45:10Z</time>
      </trkpt>
      <trkpt lat="44.77474" lon="6.3248">
        <ele>2143.519</ele>
        <time>2020-04-06T02:45:30Z</time>
      </trkpt>
      <trkpt lat="44.77431" lon="6.32464">
        <ele>2146.776</ele>
        <time>2020-04-06T02:45:50Z</time>
      </trkpt>
      <trkpt lat="44.77443" lon="6.32457">
        <ele>2153.426</ele>
        <time>2020-04-06T02:46:10Z</time>
      </trkpt>
      <trkpt lat="44.77437" lon="6.32432">
        <ele>2159.247</ele>
        <time>2020-04-06T02:46:30Z</time>
      </trkpt>
      <trkpt lat="44.77449" lon="6.32369">
        <ele>2173.511</ele>
        <time>2020-04-06T02:46:50Z</time>
      </trkpt>
      <trkpt lat="44.77421" lon="6.32282">
        <ele>2190.608</ele>
        <time>2020-04-06T02:47:10Z</time>
      </trkpt>
      <trkpt lat="44.77385" lon="6.32218">
        <ele>2204.868</ele>
        <time>2020-04-06T02:47:30Z</time>
      </trkpt>
      <trkpt lat="44.77366" lon="6.32205">
        <ele>2205.986</ele>
        <time>2020-04-06T02:47:50Z</time>
      </trkpt>
      <trkpt lat="44.77361" lon="6.32181">
        <ele>2212.254</ele>
        <time>2020-04-06T02:48:10Z</time>
      </trkpt>
      <trkpt lat="44.77413" lon="6.32187">
        <ele>2223.438</ele>
        <time>2020-04-06T02:48:30Z</time>
      </trkpt>
      <trkpt lat="44.77366" lon="6.32125">
        <ele>2235.139</ele>
        <time>2020-04-06T02:48:50Z</time>
      </trkpt>
      <trkpt lat="44.77421" lon="6.32144">
        <ele>2241.976</ele>
        <time>2020-04-06T02:49:10Z</time>
      </trkpt>
      <trkpt lat="44.77483" lon="6.3215">
        <ele>2257.06</ele>
        <time>2020-04-06T02:49:30Z</time>
      </trkpt>
      <trkpt lat="44.77528" lon="6.32171">
        <ele>2262.067</ele>
        <time>2020-04-06T02:49:50Z</time>
      </trkpt>
      <trkpt lat="44.7749" lon="6.32113">
        <ele>2275.132</ele>
        <time>2020-04-06T02:50:10Z</time>
      </trkpt>
      <trkpt lat="44.77528" lon="6.32135">
        <ele>2277.692</ele>
        <time>2020-04-06T02:50:30Z</time>
      </trkpt>
      <trkpt lat="44.77505" lon="6.32093">
        <ele>2287.711</ele>
        <time>2020-04-06T02:50:50Z</time>
      </trkpt>
      <trkpt lat="44.77526" lon="6.32105">
        <ele>2289.608</ele>
        <time>2020-04-06T02:51:10Z</time>
      </trkpt>
      <trkpt lat="44.77491" lon="6.3204">
        <ele>2302.399</ele>
        <time>2020-04-06T02:51:30Z</time>
      </trkpt>
      <trkpt lat="44.77463" lon="6.3201">
        <ele>2305.217</ele>
        <time>2020-04-06T02:51:50Z</time>
      </trkpt>
      <trkpt lat="44.77451" lon="6.31973">
        <ele>2314.485</ele>
        <time>2020-04-06T02:52:10Z</time>
      </trkpt>
      <trkpt lat="44.77476" lon="6.31981">
        <ele>2317.759</ele>
        <time>2020-04-06T02:52:30Z</time>
      </trkpt>
      <trkpt lat="44.77431" lon="6.31893">
        <ele>2339.11</ele>
        <time>2020-04-06T02:52:50Z</time>
      </trkpt>
      <trkpt lat="44.77392" lon="6.31912">
        <ele>2341.637</ele>
        <time>2020-04-06T02:53:10Z</time>
      </trkpt>
      <trkpt lat="44.77358" lon="6.31904">
        <ele>2344.731</ele>
        <time>2020-04-06T02:53:30Z</time>
      </trkpt>
      <trkpt lat="44.77367" lon="6.31848">
        <ele>2356.968</ele>
        <time>2020-04-06T02:53:50Z</time>
      </trkpt>
      <trkpt lat="44.77369" lon="6.31772">
        <ele>2370.183</ele>
        <time>2020-04-06T02:54:10Z</time>
      </trkpt>
      <trkpt lat="44.77361" lon="6.31748">
        <ele>2372.425</ele>
        <time>2020-04-06T02:54:30Z</time>
      </trkpt>
      <trkpt lat="44.77369" lon="6.31708">
        <ele>2382.617</ele>
        <time>2020-04-06T02:54:50Z</time>
      </trkpt>
      <trkpt lat="44.77362" lon="6.31679">
        <ele>2385.508</ele>
        <time>2020-04-06T02:55:10Z</time>
      </trkpt>
      <trkpt lat="44.77383" lon="6.31644">
        <ele>2395.264</ele>
        <time>2020-04-06T02:55:30Z</time>
      </trkpt>
      <trkpt lat="44.77394" lon="6.31594">
        <ele>2404.612</ele>
        <time>2020-04-06T02:55:50Z</time>
      </trkpt>
      <trkpt lat="44.77392" lon="6.31517">
        <ele>2418.33</ele>
        <time>2020-04-06T02:56:10Z</time>
      </trkpt>
      <trkpt lat="44.77401" lon="6.31529">
        <ele>2418.234</ele>
        <time>2020-04-06T02:56:30Z</time>
      </trkpt>
      <trkpt lat="44.77399" lon="6.31492">
        <ele>2425.755</ele>
        <time>2020-04-06T02:56:50Z</time>
      </trkpt>
      <trkpt lat="44.7741" lon="6.31502">
        <ele>2425.962</ele>
        <time>2020-04-06T02:57:10Z</time>
      </trkpt>
      <trkpt lat="44.77402" lon="6.31464">
        <ele>2433.236</ele>
        <time>2020-04-06T02:57:30Z</time>
      </trkpt>
      <trkpt lat="44.77402" lon="6.31447">
        <ele>2437.263</ele>
        <time>2020-04-06T02:57:50Z</time>
      </trkpt>
      <trkpt lat="44.77369" lon="6.31284">
        <ele>2464.074</ele>
        <time>2020-04-06T02:58:10Z</time>
      </trkpt>
      <trkpt lat="44.77349" lon="6.313">
        <ele>2464.856</ele>
        <time>2020-04-06T02:58:30Z</time>
      </trkpt>
      <trkpt lat="44.77349" lon="6.31277">
        <ele>2470.421</ele>
        <time>2020-04-06T02:58:50Z</time>
      </trkpt>
      <trkpt lat="44.77314" lon="6.31312">
        <ele>2477.708</ele>
        <time>2020-04-06T02:59:10Z</time>
      </trkpt>
      <trkpt lat="44.77319" lon="6.31226">
        <ele>2494.483</ele>
        <time>2020-04-06T02:59:30Z</time>
      </trkpt>
      <trkpt lat="44.77295" lon="6.31258">
        <ele>2505.821</ele>
        <time>2020-04-06T02:59:50Z</time>
      </trkpt>
      <trkpt lat="44.77316" lon="6.31195">
        <ele>2501.899</ele>
        <time>2020-04-06T03:00:10Z</time>
      </trkpt>
      <trkpt lat="44.77302" lon="6.31193">
        <ele>2511.273</ele>
        <time>2020-04-06T03:00:30Z</time>
      </trkpt>
      <trkpt lat="44.77292" lon="6.31142">
        <ele>2521.194</ele>
        <time>2020-04-06T03:00:50Z</time>
      </trkpt>
      <trkpt lat="44.77301" lon="6.31088">
        <ele>2520.881</ele>
        <time>2020-04-06T03:01:10Z</time>
      </trkpt>
      <trkpt lat="44.77296" lon="6.31056">
        <ele>2527.375</ele>
        <time>2020-04-06T03:01:30Z</time>
      </trkpt>
      <trkpt lat="44.77305" lon="6.30993">
        <ele>2540.052</ele>
        <time>2020-04-06T03:01:50Z</time>
      </trkpt>
      <trkpt lat="44.77292" lon="6.30934">
        <ele>2564.459</ele>
        <time>2020-04-06T03:02:10Z</time>
      </trkpt>
      <trkpt lat="44.77271" lon="6.30979">
        <ele>2564.303</ele>
        <time>2020-04-06T03:02:30Z</time>
      </trkpt>
      <trkpt lat="44.77265" lon="6.30967">
        <ele>2567.523</ele>
        <time>2020-04-06T03:02:50Z</time>
      </trkpt>
      <trkpt lat="44.77259" lon="6.30916">
        <ele>2583.908</ele>
        <time>2020-04-06T03:03:10Z</time>
      </trkpt>
      <trkpt lat="44.77248" lon="6.30897">
        <ele>2592.871</ele>
        <time>2020-04-06T03:03:30Z</time>
      </trkpt>
      <trkpt lat="44.77263" lon="6.30858">
        <ele>2597.369</ele>
        <time>2020-04-06T03:03:50Z</time>
      </trkpt>
      <trkpt lat="44.77268" lon="6.30769">
        <ele>2617.297</ele>
        <time>2020-04-06T03:04:10Z</time>
      </trkpt>
      <trkpt lat="44.77292" lon="6.30668">
        <ele>2635.171</ele>
        <time>2020-04-06T03:04:30Z</time>
      </trkpt>
      <trkpt lat="44.77318" lon="6.30611">
        <ele>2646.592</ele>
        <time>2020-04-06T03:04:50Z</time>
      </trkpt>
      <trkpt lat="44.77289" lon="6.30624">
        <ele>2650.969</ele>
        <time>2020-04-06T03:05:10Z</time>
      </trkpt>
      <trkpt lat="44.77336" lon="6.30542">
        <ele>2667.673</ele>
        <time>2020-04-06T03:05:30Z</time>
      </trkpt>
      <trkpt lat="44.77362" lon="6.30536">
        <ele>2660.87</ele>
        <time>2020-04-06T03:05:50Z</time>
      </trkpt>
      <trkpt lat="44.77385" lon="6.30505">
        <ele>2654.187</ele>
        <time>2020-04-06T03:06:10Z</time>
      </trkpt>
      <trkpt lat="44.7737" lon="6.305">
        <ele>2654.742</ele>
        <time>2020-04-06T03:06:30Z</time>
      </trkpt>
      <trkpt lat="44.77397" lon="6.30495">
        <ele>2646.826</ele>
        <time>2020-04-06T03:06:50Z</time>
      </trkpt>
      <trkpt lat="44.77385" lon="6.30481">
        <ele>2642.608</ele>
        <time>2020-04-06T03:07:10Z</time>
      </trkpt>
      <trkpt lat="44.77404" lon="6.30466">
        <ele>2629.174</ele>
        <time>2020-04-06T03:07:30Z</time>
      </trkpt>
      <trkpt lat="44.77398" lon="6.30449">
        <ele>2623.232</ele>
        <time>2020-04-06T03:07:50Z</time>
      </trkpt>
      <trkpt lat="44.77416" lon="6.30447">
        <ele>2615.89</ele>
        <time>2020-04-06T03:08:10Z</time>
      </trkpt>
      <trkpt lat="44.7741" lon="6.30433">
        <ele>2614.274</ele>
        <time>2020-04-06T03:08:30Z</time>
      </trkpt>
      <trkpt lat="44.77443" lon="6.30441">
        <ele>2605.715</ele>
        <time>2020-04-06T03:08:50Z</time>
      </trkpt>
      <trkpt lat="44.77423" lon="6.30406">
        <ele>2601.442</ele>
        <time>2020-04-06T03:09:10Z</time>
      </trkpt>
      <trkpt lat="44.77424" lon="6.30372">
        <ele>2595.976</ele>
        <time>2020-04-06T03:09:30Z</time>
      </trkpt>
      <trkpt lat="44.77442" lon="6.30389">
        <ele>2586.313</ele>
        <time>2020-04-06T03:09:50Z</time>
      </trkpt>
      <trkpt lat="44.77439" lon="6.30344">
        <ele>2579.932</ele>
        <time>2020-04-06T03:10:10Z</time>
      </trkpt>
      <trkpt lat="44.77466" lon="6.30352">
        <ele>2573.092</ele>
        <time>2020-04-06T03:10:30Z</time>
      </trkpt>
      <trkpt lat="44.77478" lon="6.30343">
        <ele>2569.511</ele>
        <time>2020-04-06T03:10:50Z</time>
      </trkpt>
      <trkpt lat="44.77487" lon="6.30314">
        <ele>2560.008</ele>
        <time>2020-04-06T03:11:10Z</time>
      </trkpt>
      <trkpt lat="44.77485" lon="6.30293">
        <ele>2551.029</ele>
        <time>2020-04-06T03:11:30Z</time>
      </trkpt>
      <trkpt lat="44.77498" lon="6.30279">
        <ele>2546.297</ele>
        <time>2020-04-06T03:11:50Z</time>
      </trkpt>
      <trkpt lat="44.77501" lon="6.30232">
        <ele>2522.995</ele>
        <time>2020-04-06T03:12:10Z</time>
      </trkpt>
      <trkpt lat="44.77514" lon="6.30255">
        <ele>2533.849</ele>
        <time>2020-04-06T03:12:30Z</time>
      </trkpt>
      <trkpt lat="44.77535" lon="6.30257">
        <ele>2533.57</ele>
        <time>2020-04-06T03:12:50Z</time>
      </trkpt>
      <trkpt lat="44.77527" lon="6.30227">
        <ele>2519.957</ele>
        <time>2020-04-06T03:13:10Z</time>
      </trkpt>
      <trkpt lat="44.77545" lon="6.30222">
        <ele>2521.151</ele>
        <time>2020-04-06T03:13:30Z</time>
      </trkpt>
      <trkpt lat="44.77561" lon="6.30185">
        <ele>2513.638</ele>
        <time>2020-04-06T03:13:50Z</time>
      </trkpt>
      <trkpt lat="44.77562" lon="6.30148">
        <ele>2506.021</ele>
        <time>2020-04-06T03:14:10Z</time>
      </trkpt>
      <trkpt lat="44.77583" lon="6.30076">
        <ele>2492.241</ele>
        <time>2020-04-06T03:14:30Z</time>
      </trkpt>
      <trkpt lat="44.77584" lon="6.30006">
        <ele>2486.505</ele>
        <time>2020-04-06T03:14:50Z</time>
      </trkpt>
      <trkpt lat="44.77622" lon="6.29951">
        <ele>2489.408</ele>
        <time>2020-04-06T03:15:10Z</time>
      </trkpt>
      <trkpt lat="44.77658" lon="6.29831">
        <ele>2490.018</ele>
        <time>2020-04-06T03:15:30Z</time>
      </trkpt>
      <trkpt lat="44.77694" lon="6.29636">
        <ele>2485.936</ele>
        <time>2020-04-06T03:15:50Z</time>
      </trkpt>
      <trkpt lat="44.77699" lon="6.29585">
        <ele>2488.834</ele>
        <time>2020-04-06T03:16:10Z</time>
      </trkpt>
      <trkpt lat="44.77712" lon="6.29522">
        <ele>2493.118</ele>
        <time>2020-04-06T03:16:30Z</time>
      </trkpt>
      <trkpt lat="44.77707" lon="6.2946">
        <ele>2498.919</ele>
        <time>2020-04-06T03:16:50Z</time>
      </trkpt>
      <trkpt lat="44.77711" lon="6.29431">
        <ele>2501.826</ele>
        <time>2020-04-06T03:17:10Z</time>
      </trkpt>
      <trkpt lat="44.77711" lon="6.29327">
        <ele>2516.22</ele>
        <time>2020-04-06T03:17:30Z</time>
      </trkpt>
      <trkpt lat="44.77707" lon="6.2931">
        <ele>2518.867</ele>
        <time>2020-04-06T03:17:50Z</time>
      </trkpt>
      <trkpt lat="44.77715" lon="6.29293">
        <ele>2524.214</ele>
        <time>2020-04-06T03:18:10Z</time>
      </trkpt>
      <trkpt lat="44.77725" lon="6.2925">
        <ele>2537.754</ele>
        <time>2020-04-06T03:18:30Z</time>
      </trkpt>
      <trkpt lat="44.77716" lon="6.29206">
        <ele>2549.809</ele>
        <time>2020-04-06T03:18:50Z</time>
      </trkpt>
      <trkpt lat="44.77729" lon="6.29205">
        <ele>2553.808</ele>
        <time>2020-04-06T03:19:10Z</time>
      </trkpt>
      <trkpt lat="44.77721" lon="6.29178">
        <ele>2559.897</ele>
        <time>2020-04-06T03:19:30Z</time>
      </trkpt>
      <trkpt lat="44.77732" lon="6.29173">
        <ele>2564.845</ele>
        <time>2020-04-06T03:19:50Z</time>
      </trkpt>
      <trkpt lat="44.77752" lon="6.2919">
        <ele>2566.543</ele>
        <time>2020-04-06T03:20:10Z</time>
      </trkpt>
      <trkpt lat="44.77733" lon="6.29119">
        <ele>2583.347</ele>
        <time>2020-04-06T03:20:30Z</time>
      </trkpt>
      <trkpt lat="44.77722" lon="6.29104">
        <ele>2585.898</ele>
        <time>2020-04-06T03:20:50Z</time>
      </trkpt>
      <trkpt lat="44.77744" lon="6.291">
        <ele>2589.635</ele>
        <time>2020-04-06T03:21:10Z</time>
      </trkpt>
      <trkpt lat="44.77759" lon="6.2912">
        <ele>2591.599</ele>
        <time>2020-04-06T03:21:30Z</time>
      </trkpt>
      <trkpt lat="44.77752" lon="6.2907">
        <ele>2588.626</ele>
        <time>2020-04-06T03:21:50Z</time>
      </trkpt>
      <trkpt lat="44.77716" lon="6.29054">
        <ele>2596.757</ele>
        <time>2020-04-06T03:22:10Z</time>
      </trkpt>
      <trkpt lat="44.77727" lon="6.29039">
        <ele>2591.4</ele>
        <time>2020-04-06T03:22:30Z</time>
      </trkpt>
      <trkpt lat="44.77727" lon="6.29018">
        <ele>2588.72</ele>
        <time>2020-04-06T03:22:50Z</time>
      </trkpt>
      <trkpt lat="44.77759" lon="6.29041">
        <ele>2581.208</ele>
        <time>2020-04-06T03:23:10Z</time>
      </trkpt>
      <trkpt lat="44.77793" lon="6.28994">
        <ele>2561.191</ele>
        <time>2020-04-06T03:23:30Z</time>
      </trkpt>
      <trkpt lat="44.77809" lon="6.28988">
        <ele>2559.189</ele>
        <time>2020-04-06T03:23:50Z</time>
      </trkpt>
      <trkpt lat="44.77859" lon="6.2896">
        <ele>2547.347</ele>
        <time>2020-04-06T03:24:10Z</time>
      </trkpt>
      <trkpt lat="44.77892" lon="6.28961">
        <ele>2544.781</ele>
        <time>2020-04-06T03:24:30Z</time>
      </trkpt>
      <trkpt lat="44.77903" lon="6.28947">
        <ele>2540.532</ele>
        <time>2020-04-06T03:24:50Z</time>
      </trkpt>
      <trkpt lat="44.77913" lon="6.28928">
        <ele>2534.729</ele>
        <time>2020-04-06T03:25:10Z</time>
      </trkpt>
      <trkpt lat="44.77954" lon="6.28905">
        <ele>2528.353</ele>
        <time>2020-04-06T03:25:30Z</time>
      </trkpt>
      <trkpt lat="44.77964" lon="6.2889">
        <ele>2523.13</ele>
        <time>2020-04-06T03:25:50Z</time>
      </trkpt>
      <trkpt lat="44.78025" lon="6.28876">
        <ele>2508.184</ele>
        <time>2020-04-06T03:26:10Z</time>
      </trkpt>
      <trkpt lat="44.78051" lon="6.28872">
        <ele>2501.707</ele>
        <time>2020-04-06T03:26:30Z</time>
      </trkpt>
      <trkpt lat="44.78069" lon="6.28879">
        <ele>2500.717</ele>
        <time>2020-04-06T03:26:50Z</time>
      </trkpt>
      <trkpt lat="44.78084" lon="6.2887">
        <ele>2493.508</ele>
        <time>2020-04-06T03:27:10Z</time>
      </trkpt>
      <trkpt lat="44.78126" lon="6.28872">
        <ele>2484.284</ele>
        <time>2020-04-06T03:27:30Z</time>
      </trkpt>
      <trkpt lat="44.78104" lon="6.28844">
        <ele>2477.612</ele>
        <time>2020-04-06T03:27:50Z</time>
      </trkpt>
      <trkpt lat="44.7815" lon="6.28848">
        <ele>2469.47</ele>
        <time>2020-04-06T03:28:10Z</time>
      </trkpt>
      <trkpt lat="44.78175" lon="6.28839">
        <ele>2465.074</ele>
        <time>2020-04-06T03:28:30Z</time>
      </trkpt>
      <trkpt lat="44.78184" lon="6.2882">
        <ele>2458.485</ele>
        <time>2020-04-06T03:28:50Z</time>
      </trkpt>
      <trkpt lat="44.78207" lon="6.28813">
        <ele>2460.692</ele>
        <time>2020-04-06T03:29:10Z</time>
      </trkpt>
      <trkpt lat="44.78209" lon="6.28796">
        <ele>2455.946</ele>
        <time>2020-04-06T03:29:30Z</time>
      </trkpt>
      <trkpt lat="44.78214" lon="6.28787">
        <ele>2454.833</ele>
        <time>2020-04-06T03:29:50Z</time>
      </trkpt>
      <trkpt lat="44.78215" lon="6.28764">
        <ele>2448.568</ele>
        <time>2020-04-06T03:30:10Z</time>
      </trkpt>
      <trkpt lat="44.78243" lon="6.28716">
        <ele>2442.842</ele>
        <time>2020-04-06T03:30:30Z</time>
      </trkpt>
      <trkpt lat="44.78257" lon="6.28689">
        <ele>2434.226</ele>
        <time>2020-04-06T03:30:50Z</time>
      </trkpt>
      <trkpt lat="44.78277" lon="6.28683">
        <ele>2433.308</ele>
        <time>2020-04-06T03:31:10Z</time>
      </trkpt>
      <trkpt lat="44.78284" lon="6.28688">
        <ele>2434.952</ele>
        <time>2020-04-06T03:31:30Z</time>
      </trkpt>
      <trkpt lat="44.78293" lon="6.28684">
        <ele>2433.71</ele>
        <time>2020-04-06T03:31:50Z</time>
      </trkpt>
      <trkpt lat="44.78313" lon="6.28694">
        <ele>2437.858</ele>
        <time>2020-04-06T03:32:10Z</time>
      </trkpt>
      <trkpt lat="44.78318" lon="6.28677">
        <ele>2435.332</ele>
        <time>2020-04-06T03:32:30Z</time>
      </trkpt>
      <trkpt lat="44.78323" lon="6.2865">
        <ele>2431.033</ele>
        <time>2020-04-06T03:32:50Z</time>
      </trkpt>
      <trkpt lat="44.78332" lon="6.2865">
        <ele>2433.17</ele>
        <time>2020-04-06T03:33:10Z</time>
      </trkpt>
      <trkpt lat="44.78335" lon="6.28623">
        <ele>2427.964</ele>
        <time>2020-04-06T03:33:30Z</time>
      </trkpt>
      <trkpt lat="44.78335" lon="6.28599">
        <ele>2422.621</ele>
        <time>2020-04-06T03:33:50Z</time>
      </trkpt>
      <trkpt lat="44.78343" lon="6.28592">
        <ele>2421.775</ele>
        <time>2020-04-06T03:34:10Z</time>
      </trkpt>
      <trkpt lat="44.78352" lon="6.28589">
        <ele>2421.628</ele>
        <time>2020-04-06T03:34:30Z</time>
      </trkpt>
      <trkpt lat="44.78357" lon="6.28579">
        <ele>2419.82</ele>
        <time>2020-04-06T03:34:50Z</time>
      </trkpt>
      <trkpt lat="44.78374" lon="6.28586">
        <ele>2423.808</ele>
        <time>2020-04-06T03:35:10Z</time>
      </trkpt>
      <trkpt lat="44.78391" lon="6.28573">
        <ele>2424.013</ele>
        <time>2020-04-06T03:35:30Z</time>
      </trkpt>
      <trkpt lat="44.78383" lon="6.28553">
        <ele>2417.671</ele>
        <time>2020-04-06T03:35:50Z</time>
      </trkpt>
      <trkpt lat="44.78392" lon="6.28527">
        <ele>2412.039</ele>
        <time>2020-04-06T03:36:10Z</time>
      </trkpt>
      <trkpt lat="44.78407" lon="6.2853">
        <ele>2414.143</ele>
        <time>2020-04-06T03:36:30Z</time>
      </trkpt>
      <trkpt lat="44.78416" lon="6.28525">
        <ele>2413.274</ele>
        <time>2020-04-06T03:36:50Z</time>
      </trkpt>
      <trkpt lat="44.78449" lon="6.2853">
        <ele>2416.151</ele>
        <time>2020-04-06T03:37:10Z</time>
      </trkpt>
      <trkpt lat="44.7845" lon="6.28523">
        <ele>2414.765</ele>
        <time>2020-04-06T03:37:30Z</time>
      </trkpt>
      <trkpt lat="44.78468" lon="6.28508">
        <ele>2418.952</ele>
        <time>2020-04-06T03:37:50Z</time>
      </trkpt>
      <trkpt lat="44.78454" lon="6.28462">
        <ele>2417.213</ele>
        <time>2020-04-06T03:38:10Z</time>
      </trkpt>
      <trkpt lat="44.78463" lon="6.28411">
        <ele>2414.543</ele>
        <time>2020-04-06T03:38:30Z</time>
      </trkpt>
      <trkpt lat="44.7848" lon="6.28376">
        <ele>2412.907</ele>
        <time>2020-04-06T03:38:50Z</time>
      </trkpt>
      <trkpt lat="44.78504" lon="6.28352">
        <ele>2414.708</ele>
        <time>2020-04-06T03:39:10Z</time>
      </trkpt>
      <trkpt lat="44.78526" lon="6.28351">
        <ele>2420.887</ele>
        <time>2020-04-06T03:39:30Z</time>
      </trkpt>
      <trkpt lat="44.78514" lon="6.28307">
        <ele>2418.145</ele>
        <time>2020-04-06T03:39:50Z</time>
      </trkpt>
      <trkpt lat="44.78531" lon="6.28286">
        <ele>2420.273</ele>
        <time>2020-04-06T03:40:10Z</time>
      </trkpt>
      <trkpt lat="44.78533" lon="6.28305">
        <ele>2426.787</ele>
        <time>2020-04-06T03:40:30Z</time>
      </trkpt>
      <trkpt lat="44.78547" lon="6.28287">
        <ele>2427.928</ele>
        <time>2020-04-06T03:40:50Z</time>
      </trkpt>
      <trkpt lat="44.78551" lon="6.28316">
        <ele>2436.125</ele>
        <time>2020-04-06T03:41:10Z</time>
      </trkpt>
      <trkpt lat="44.78558" lon="6.28333">
        <ele>2440.619</ele>
        <time>2020-04-06T03:41:30Z</time>
      </trkpt>
      <trkpt lat="44.78562" lon="6.283">
        <ele>2439.266</ele>
        <time>2020-04-06T03:41:50Z</time>
      </trkpt>
      <trkpt lat="44.78578" lon="6.28292">
        <ele>2444.768</ele>
        <time>2020-04-06T03:42:10Z</time>
      </trkpt>
      <trkpt lat="44.78595" lon="6.2827">
        <ele>2448.642</ele>
        <time>2020-04-06T03:42:30Z</time>
      </trkpt>
      <trkpt lat="44.78615" lon="6.28273">
        <ele>2459.626</ele>
        <time>2020-04-06T03:42:50Z</time>
      </trkpt>
      <trkpt lat="44.78629" lon="6.28264">
        <ele>2466.808</ele>
        <time>2020-04-06T03:43:10Z</time>
      </trkpt>
      <trkpt lat="44.78606" lon="6.28232">
        <ele>2454.432</ele>
        <time>2020-04-06T03:43:30Z</time>
      </trkpt>
      <trkpt lat="44.78661" lon="6.28219">
        <ele>2480.49</ele>
        <time>2020-04-06T03:43:50Z</time>
      </trkpt>
      <trkpt lat="44.78651" lon="6.282">
        <ele>2477.038</ele>
        <time>2020-04-06T03:44:10Z</time>
      </trkpt>
      <trkpt lat="44.78671" lon="6.28195">
        <ele>2485.442</ele>
        <time>2020-04-06T03:44:30Z</time>
      </trkpt>
      <trkpt lat="44.78677" lon="6.28186">
        <ele>2489.293</ele>
        <time>2020-04-06T03:44:50Z</time>
      </trkpt>
      <trkpt lat="44.78653" lon="6.28175">
        <ele>2481.89</ele>
        <time>2020-04-06T03:45:10Z</time>
      </trkpt>
      <trkpt lat="44.78653" lon="6.28154">
        <ele>2480.714</ele>
        <time>2020-04-06T03:45:30Z</time>
      </trkpt>
      <trkpt lat="44.78683" lon="6.28125">
        <ele>2484.311</ele>
        <time>2020-04-06T03:45:50Z</time>
      </trkpt>
      <trkpt lat="44.78705" lon="6.2812">
        <ele>2491.291</ele>
        <time>2020-04-06T03:46:10Z</time>
      </trkpt>
      <trkpt lat="44.7872" lon="6.28132">
        <ele>2498.881</ele>
        <time>2020-04-06T03:46:30Z</time>
      </trkpt>
      <trkpt lat="44.78724" lon="6.28113">
        <ele>2497.619</ele>
        <time>2020-04-06T03:46:50Z</time>
      </trkpt>
      <trkpt lat="44.78731" lon="6.28101">
        <ele>2502.608</ele>
        <time>2020-04-06T03:47:10Z</time>
      </trkpt>
      <trkpt lat="44.78723" lon="6.2808">
        <ele>2500.885</ele>
        <time>2020-04-06T03:47:30Z</time>
      </trkpt>
      <trkpt lat="44.78729" lon="6.28043">
        <ele>2510.063</ele>
        <time>2020-04-06T03:47:50Z</time>
      </trkpt>
      <trkpt lat="44.78745" lon="6.28064">
        <ele>2515.251</ele>
        <time>2020-04-06T03:48:10Z</time>
      </trkpt>
      <trkpt lat="44.78753" lon="6.28046">
        <ele>2521.435</ele>
        <time>2020-04-06T03:48:30Z</time>
      </trkpt>
      <trkpt lat="44.78763" lon="6.28058">
        <ele>2527.196</ele>
        <time>2020-04-06T03:48:50Z</time>
      </trkpt>
      <trkpt lat="44.78763" lon="6.28034">
        <ele>2528.253</ele>
        <time>2020-04-06T03:49:10Z</time>
      </trkpt>
      <trkpt lat="44.7877" lon="6.28023">
        <ele>2532.027</ele>
        <time>2020-04-06T03:49:30Z</time>
      </trkpt>
      <trkpt lat="44.78777" lon="6.28051">
        <ele>2536.464</ele>
        <time>2020-04-06T03:49:50Z</time>
      </trkpt>
      <trkpt lat="44.78786" lon="6.2804">
        <ele>2541.726</ele>
        <time>2020-04-06T03:50:10Z</time>
      </trkpt>
      <trkpt lat="44.78797" lon="6.2805">
        <ele>2549.247</ele>
        <time>2020-04-06T03:50:30Z</time>
      </trkpt>
      <trkpt lat="44.78801" lon="6.28035">
        <ele>2550.511</ele>
        <time>2020-04-06T03:50:50Z</time>
      </trkpt>
      <trkpt lat="44.78808" lon="6.28064">
        <ele>2556.308</ele>
        <time>2020-04-06T03:51:10Z</time>
      </trkpt>
      <trkpt lat="44.78836" lon="6.27994">
        <ele>2566.518</ele>
        <time>2020-04-06T03:51:30Z</time>
      </trkpt>
      <trkpt lat="44.7884" lon="6.28009">
        <ele>2569.346</ele>
        <time>2020-04-06T03:51:50Z</time>
      </trkpt>
      <trkpt lat="44.7886" lon="6.27985">
        <ele>2579.414</ele>
        <time>2020-04-06T03:52:10Z</time>
      </trkpt>
      <trkpt lat="44.78855" lon="6.28013">
        <ele>2578.388</ele>
        <time>2020-04-06T03:52:30Z</time>
      </trkpt>
      <trkpt lat="44.78864" lon="6.27999">
        <ele>2582.039</ele>
        <time>2020-04-06T03:52:50Z</time>
      </trkpt>
      <trkpt lat="44.78866" lon="6.28023">
        <ele>2586.716</ele>
        <time>2020-04-06T03:53:10Z</time>
      </trkpt>
      <trkpt lat="44.78865" lon="6.28047">
        <ele>2588.49</ele>
        <time>2020-04-06T03:53:30Z</time>
      </trkpt>
      <trkpt lat="44.78875" lon="6.28094">
        <ele>2600.637</ele>
        <time>2020-04-06T03:53:50Z</time>
      </trkpt>
      <trkpt lat="44.78876" lon="6.28155">
        <ele>2606.794</ele>
        <time>2020-04-06T03:54:10Z</time>
      </trkpt>
      <trkpt lat="44.78881" lon="6.28181">
        <ele>2609.357</ele>
        <time>2020-04-06T03:54:30Z</time>
      </trkpt>
      <trkpt lat="44.78913" lon="6.28168">
        <ele>2614.322</ele>
        <time>2020-04-06T03:54:50Z</time>
      </trkpt>
      <trkpt lat="44.78907" lon="6.28186">
        <ele>2609.308</ele>
        <time>2020-04-06T03:55:10Z</time>
      </trkpt>
      <trkpt lat="44.78952" lon="6.28177">
        <ele>2602.235</ele>
        <time>2020-04-06T03:55:30Z</time>
      </trkpt>
      <trkpt lat="44.78968" lon="6.28164">
        <ele>2604.173</ele>
        <time>2020-04-06T03:55:50Z</time>
      </trkpt>
      <trkpt lat="44.78983" lon="6.2817">
        <ele>2596.851</ele>
        <time>2020-04-06T03:56:10Z</time>
      </trkpt>
      <trkpt lat="44.79001" lon="6.28163">
        <ele>2593.525</ele>
        <time>2020-04-06T03:56:30Z</time>
      </trkpt>
      <trkpt lat="44.79009" lon="6.28172">
        <ele>2587.496</ele>
        <time>2020-04-06T03:56:50Z</time>
      </trkpt>
      <trkpt lat="44.79024" lon="6.28174">
        <ele>2583.113</ele>
        <time>2020-04-06T03:57:10Z</time>
      </trkpt>
      <trkpt lat="44.79018" lon="6.28213">
        <ele>2567.987</ele>
        <time>2020-04-06T03:57:30Z</time>
      </trkpt>
      <trkpt lat="44.79028" lon="6.282">
        <ele>2571.324</ele>
        <time>2020-04-06T03:57:50Z</time>
      </trkpt>
      <trkpt lat="44.79028" lon="6.28224">
        <ele>2559.464</ele>
        <time>2020-04-06T03:58:10Z</time>
      </trkpt>
      <trkpt lat="44.79039" lon="6.28215">
        <ele>2560.206</ele>
        <time>2020-04-06T03:58:30Z</time>
      </trkpt>
      <trkpt lat="44.79038" lon="6.28262">
        <ele>2542.616</ele>
        <time>2020-04-06T03:58:50Z</time>
      </trkpt>
      <trkpt lat="44.79054" lon="6.2824">
        <ele>2545.508</ele>
        <time>2020-04-06T03:59:10Z</time>
      </trkpt>
      <trkpt lat="44.79061" lon="6.28247">
        <ele>2540.872</ele>
        <time>2020-04-06T03:59:30Z</time>
      </trkpt>
      <trkpt lat="44.79073" lon="6.28249">
        <ele>2537.77</ele>
        <time>2020-04-06T03:59:50Z</time>
      </trkpt>
      <trkpt lat="44.79104" lon="6.28253">
        <ele>2533.068</ele>
        <time>2020-04-06T04:00:10Z</time>
      </trkpt>
      <trkpt lat="44.79118" lon="6.28252">
        <ele>2533.982</ele>
        <time>2020-04-06T04:00:30Z</time>
      </trkpt>
      <trkpt lat="44.79122" lon="6.28282">
        <ele>2530.143</ele>
        <time>2020-04-06T04:00:50Z</time>
      </trkpt>
      <trkpt lat="44.79114" lon="6.28296">
        <ele>2526.72</ele>
        <time>2020-04-06T04:01:10Z</time>
      </trkpt>
      <trkpt lat="44.79108" lon="6.28319">
        <ele>2522.334</ele>
        <time>2020-04-06T04:01:30Z</time>
      </trkpt>
      <trkpt lat="44.79099" lon="6.28345">
        <ele>2514.981</ele>
        <time>2020-04-06T04:01:50Z</time>
      </trkpt>
      <trkpt lat="44.79107" lon="6.28363">
        <ele>2510.233</ele>
        <time>2020-04-06T04:02:10Z</time>
      </trkpt>
      <trkpt lat="44.79125" lon="6.28384">
        <ele>2504.623</ele>
        <time>2020-04-06T04:02:30Z</time>
      </trkpt>
      <trkpt lat="44.79132" lon="6.28373">
        <ele>2510.615</ele>
        <time>2020-04-06T04:02:50Z</time>
      </trkpt>
      <trkpt lat="44.79148" lon="6.28385">
        <ele>2505.908</ele>
        <time>2020-04-06T04:03:10Z</time>
      </trkpt>
      <trkpt lat="44.79165" lon="6.28388">
        <ele>2501.669</ele>
        <time>2020-04-06T04:03:30Z</time>
      </trkpt>
      <trkpt lat="44.79141" lon="6.28411">
        <ele>2495.067</ele>
        <time>2020-04-06T04:03:50Z</time>
      </trkpt>
      <trkpt lat="44.79139" lon="6.2842">
        <ele>2490.785</ele>
        <time>2020-04-06T04:04:10Z</time>
      </trkpt>
      <trkpt lat="44.79127" lon="6.28424">
        <ele>2487.019</ele>
        <time>2020-04-06T04:04:30Z</time>
      </trkpt>
      <trkpt lat="44.7914" lon="6.2843">
        <ele>2487.35</ele>
        <time>2020-04-06T04:04:50Z</time>
      </trkpt>
      <trkpt lat="44.79125" lon="6.28433">
        <ele>2483.567</ele>
        <time>2020-04-06T04:05:10Z</time>
      </trkpt>
      <trkpt lat="44.79137" lon="6.2844">
        <ele>2483.221</ele>
        <time>2020-04-06T04:05:30Z</time>
      </trkpt>
      <trkpt lat="44.79124" lon="6.28448">
        <ele>2477.578</ele>
        <time>2020-04-06T04:05:50Z</time>
      </trkpt>
      <trkpt lat="44.79137" lon="6.28457">
        <ele>2476.821</ele>
        <time>2020-04-06T04:06:10Z</time>
      </trkpt>
      <trkpt lat="44.79113" lon="6.28459">
        <ele>2470.741</ele>
        <time>2020-04-06T04:06:30Z</time>
      </trkpt>
      <trkpt lat="44.79127" lon="6.28473">
        <ele>2468.105</ele>
        <time>2020-04-06T04:06:50Z</time>
      </trkpt>
      <trkpt lat="44.79149" lon="6.28477">
        <ele>2470.508</ele>
        <time>2020-04-06T04:07:10Z</time>
      </trkpt>
      <trkpt lat="44.79162" lon="6.28468">
        <ele>2474.938</ele>
        <time>2020-04-06T04:07:30Z</time>
      </trkpt>
      <trkpt lat="44.79176" lon="6.28482">
        <ele>2471.616</ele>
        <time>2020-04-06T04:07:50Z</time>
      </trkpt>
      <trkpt lat="44.79161" lon="6.28483">
        <ele>2469.464</ele>
        <time>2020-04-06T04:08:10Z</time>
      </trkpt>
      <trkpt lat="44.79125" lon="6.28516">
        <ele>2453.528</ele>
        <time>2020-04-06T04:08:30Z</time>
      </trkpt>
      <trkpt lat="44.79099" lon="6.28519">
        <ele>2449.339</ele>
        <time>2020-04-06T04:08:50Z</time>
      </trkpt>
      <trkpt lat="44.79117" lon="6.28535">
        <ele>2444.646</ele>
        <time>2020-04-06T04:09:10Z</time>
      </trkpt>
      <trkpt lat="44.79144" lon="6.28537">
        <ele>2450.81</ele>
        <time>2020-04-06T04:09:30Z</time>
      </trkpt>
      <trkpt lat="44.79146" lon="6.28556">
        <ele>2443.747</ele>
        <time>2020-04-06T04:09:50Z</time>
      </trkpt>
      <trkpt lat="44.79173" lon="6.28574">
        <ele>2441.026</ele>
        <time>2020-04-06T04:10:10Z</time>
      </trkpt>
      <trkpt lat="44.7918" lon="6.28594">
        <ele>2435.247</ele>
        <time>2020-04-06T04:10:30Z</time>
      </trkpt>
      <trkpt lat="44.79196" lon="6.28601">
        <ele>2435.311</ele>
        <time>2020-04-06T04:10:50Z</time>
      </trkpt>
      <trkpt lat="44.79197" lon="6.28613">
        <ele>2432.208</ele>
        <time>2020-04-06T04:11:10Z</time>
      </trkpt>
      <trkpt lat="44.79223" lon="6.28643">
        <ele>2428.368</ele>
        <time>2020-04-06T04:11:30Z</time>
      </trkpt>
      <trkpt lat="44.7923" lon="6.28662">
        <ele>2421.646</ele>
        <time>2020-04-06T04:11:50Z</time>
      </trkpt>
      <trkpt lat="44.79245" lon="6.28666">
        <ele>2420.864</ele>
        <time>2020-04-06T04:12:10Z</time>
      </trkpt>
      <trkpt lat="44.79251" lon="6.28695">
        <ele>2410.718</ele>
        <time>2020-04-06T04:12:30Z</time>
      </trkpt>
      <trkpt lat="44.79275" lon="6.28715">
        <ele>2404.659</ele>
        <time>2020-04-06T04:12:50Z</time>
      </trkpt>
      <trkpt lat="44.79289" lon="6.28719">
        <ele>2404.176</ele>
        <time>2020-04-06T04:13:10Z</time>
      </trkpt>
      <trkpt lat="44.79303" lon="6.28718">
        <ele>2405.67</ele>
        <time>2020-04-06T04:13:30Z</time>
      </trkpt>
      <trkpt lat="44.79329" lon="6.2873">
        <ele>2398.467</ele>
        <time>2020-04-06T04:13:50Z</time>
      </trkpt>
      <trkpt lat="44.79344" lon="6.28726">
        <ele>2396.029</ele>
        <time>2020-04-06T04:14:10Z</time>
      </trkpt>
      <trkpt lat="44.79353" lon="6.28716">
        <ele>2397.2</ele>
        <time>2020-04-06T04:14:30Z</time>
      </trkpt>
      <trkpt lat="44.79385" lon="6.28706">
        <ele>2387.42</ele>
        <time>2020-04-06T04:14:50Z</time>
      </trkpt>
      <trkpt lat="44.79457" lon="6.28657">
        <ele>2375.608</ele>
        <time>2020-04-06T04:15:10Z</time>
      </trkpt>
      <trkpt lat="44.79473" lon="6.28659">
        <ele>2369.348</ele>
        <time>2020-04-06T04:15:30Z</time>
      </trkpt>
      <trkpt lat="44.79465" lon="6.2867">
        <ele>2368.526</ele>
        <time>2020-04-06T04:15:50Z</time>
      </trkpt>
      <trkpt lat="44.79453" lon="6.28679">
        <ele>2369.374</ele>
        <time>2020-04-06T04:16:10Z</time>
      </trkpt>
      <trkpt lat="44.7945" lon="6.28699">
        <ele>2363.048</ele>
        <time>2020-04-06T04:16:30Z</time>
      </trkpt>
      <trkpt lat="44.79422" lon="6.28735">
        <ele>2359.729</ele>
        <time>2020-04-06T04:16:50Z</time>
      </trkpt>
      <trkpt lat="44.79421" lon="6.28746">
        <ele>2357.056</ele>
        <time>2020-04-06T04:17:10Z</time>
      </trkpt>
      <trkpt lat="44.79479" lon="6.28731">
        <ele>2346.15</ele>
        <time>2020-04-06T04:17:30Z</time>
      </trkpt>
      <trkpt lat="44.795" lon="6.28737">
        <ele>2340.387</ele>
        <time>2020-04-06T04:17:50Z</time>
      </trkpt>
      <trkpt lat="44.7951" lon="6.28735">
        <ele>2339.081</ele>
        <time>2020-04-06T04:18:10Z</time>
      </trkpt>
      <trkpt lat="44.79523" lon="6.28751">
        <ele>2332.761</ele>
        <time>2020-04-06T04:18:30Z</time>
      </trkpt>
      <trkpt lat="44.79558" lon="6.28743">
        <ele>2330.217</ele>
        <time>2020-04-06T04:18:50Z</time>
      </trkpt>
      <trkpt lat="44.79572" lon="6.28747">
        <ele>2325.608</ele>
        <time>2020-04-06T04:19:10Z</time>
      </trkpt>
      <trkpt lat="44.79599" lon="6.2874">
        <ele>2319.134</ele>
        <time>2020-04-06T04:19:30Z</time>
      </trkpt>
      <trkpt lat="44.79579" lon="6.28782">
        <ele>2317.382</ele>
        <time>2020-04-06T04:19:50Z</time>
      </trkpt>
      <trkpt lat="44.79579" lon="6.28809">
        <ele>2312.11</ele>
        <time>2020-04-06T04:20:10Z</time>
      </trkpt>
      <trkpt lat="44.79574" lon="6.28849">
        <ele>2305.784</ele>
        <time>2020-04-06T04:20:30Z</time>
      </trkpt>
      <trkpt lat="44.79579" lon="6.28872">
        <ele>2302.525</ele>
        <time>2020-04-06T04:20:50Z</time>
      </trkpt>
      <trkpt lat="44.79596" lon="6.28854">
        <ele>2302.462</ele>
        <time>2020-04-06T04:21:10Z</time>
      </trkpt>
      <trkpt lat="44.79625" lon="6.28858">
        <ele>2295.986</ele>
        <time>2020-04-06T04:21:30Z</time>
      </trkpt>
      <trkpt lat="44.79641" lon="6.28854">
        <ele>2293.583</ele>
        <time>2020-04-06T04:21:50Z</time>
      </trkpt>
      <trkpt lat="44.79665" lon="6.28857">
        <ele>2290.452</ele>
        <time>2020-04-06T04:22:10Z</time>
      </trkpt>
      <trkpt lat="44.7967" lon="6.28869">
        <ele>2288.353</ele>
        <time>2020-04-06T04:22:30Z</time>
      </trkpt>
      <trkpt lat="44.79683" lon="6.28864">
        <ele>2286.708</ele>
        <time>2020-04-06T04:22:50Z</time>
      </trkpt>
      <trkpt lat="44.797" lon="6.28846">
        <ele>2286.508</ele>
        <time>2020-04-06T04:23:10Z</time>
      </trkpt>
      <trkpt lat="44.79729" lon="6.28868">
        <ele>2281.381</ele>
        <time>2020-04-06T04:23:30Z</time>
      </trkpt>
      <trkpt lat="44.79732" lon="6.28897">
        <ele>2279.239</ele>
        <time>2020-04-06T04:23:50Z</time>
      </trkpt>
      <trkpt lat="44.79769" lon="6.28932">
        <ele>2277.437</ele>
        <time>2020-04-06T04:24:10Z</time>
      </trkpt>
      <trkpt lat="44.79785" lon="6.28922">
        <ele>2277.881</ele>
        <time>2020-04-06T04:24:30Z</time>
      </trkpt>
      <trkpt lat="44.79795" lon="6.28924">
        <ele>2277.762</ele>
        <time>2020-04-06T04:24:50Z</time>
      </trkpt>
      <trkpt lat="44.79828" lon="6.28923">
        <ele>2279.439</ele>
        <time>2020-04-06T04:25:10Z</time>
      </trkpt>
      <trkpt lat="44.79845" lon="6.28936">
        <ele>2280.143</ele>
        <time>2020-04-06T04:25:30Z</time>
      </trkpt>
      <trkpt lat="44.7985" lon="6.2899">
        <ele>2279.29</ele>
        <time>2020-04-06T04:25:50Z</time>
      </trkpt>
      <trkpt lat="44.79843" lon="6.29012">
        <ele>2278.418</ele>
        <time>2020-04-06T04:26:10Z</time>
      </trkpt>
      <trkpt lat="44.79829" lon="6.29027">
        <ele>2276.598</ele>
        <time>2020-04-06T04:26:30Z</time>
      </trkpt>
      <trkpt lat="44.79812" lon="6.29042">
        <ele>2274.117</ele>
        <time>2020-04-06T04:26:50Z</time>
      </trkpt>
      <trkpt lat="44.79795" lon="6.29108">
        <ele>2270.108</ele>
        <time>2020-04-06T04:27:10Z</time>
      </trkpt>
      <trkpt lat="44.79796" lon="6.29142">
        <ele>2269.637</ele>
        <time>2020-04-06T04:27:30Z</time>
      </trkpt>
      <trkpt lat="44.79804" lon="6.29168">
        <ele>2269.915</ele>
        <time>2020-04-06T04:27:50Z</time>
      </trkpt>
      <trkpt lat="44.79839" lon="6.29204">
        <ele>2269.573</ele>
        <time>2020-04-06T04:28:10Z</time>
      </trkpt>
      <trkpt lat="44.7986" lon="6.29189">
        <ele>2268.597</ele>
        <time>2020-04-06T04:28:30Z</time>
      </trkpt>
      <trkpt lat="44.79858" lon="6.29205">
        <ele>2267.928</ele>
        <time>2020-04-06T04:28:50Z</time>
      </trkpt>
      <trkpt lat="44.79908" lon="6.29192">
        <ele>2257.895</ele>
        <time>2020-04-06T04:29:10Z</time>
      </trkpt>
      <trkpt lat="44.79939" lon="6.29175">
        <ele>2252.739</ele>
        <time>2020-04-06T04:29:30Z</time>
      </trkpt>
      <trkpt lat="44.80013" lon="6.29157">
        <ele>2238.746</ele>
        <time>2020-04-06T04:29:50Z</time>
      </trkpt>
      <trkpt lat="44.80026" lon="6.29169">
        <ele>2235.888</ele>
        <time>2020-04-06T04:30:10Z</time>
      </trkpt>
      <trkpt lat="44.80077" lon="6.29192">
        <ele>2224.924</ele>
        <time>2020-04-06T04:30:30Z</time>
      </trkpt>
      <trkpt lat="44.80075" lon="6.29222">
        <ele>2223.126</ele>
        <time>2020-04-06T04:30:50Z</time>
      </trkpt>
      <trkpt lat="44.80107" lon="6.29184">
        <ele>2212.008</ele>
        <time>2020-04-06T04:31:10Z</time>
      </trkpt>
      <trkpt lat="44.80097" lon="6.29171">
        <ele>2213.884</ele>
        <time>2020-04-06T04:31:30Z</time>
      </trkpt>
      <trkpt lat="44.80125" lon="6.29176">
        <ele>2203.142</ele>
        <time>2020-04-06T04:31:50Z</time>
      </trkpt>
      <trkpt lat="44.80125" lon="6.29223">
        <ele>2201.05</ele>
        <time>2020-04-06T04:32:10Z</time>
      </trkpt>
      <trkpt lat="44.80142" lon="6.29215">
        <ele>2192.864</ele>
        <time>2020-04-06T04:32:30Z</time>
      </trkpt>
      <trkpt lat="44.80139" lon="6.29196">
        <ele>2197.625</ele>
        <time>2020-04-06T04:32:50Z</time>
      </trkpt>
      <trkpt lat="44.80149" lon="6.29202">
        <ele>2190.942</ele>
        <time>2020-04-06T04:33:10Z</time>
      </trkpt>
      <trkpt lat="44.80155" lon="6.29214">
        <ele>2186.316</ele>
        <time>2020-04-06T04:33:30Z</time>
      </trkpt>
      <trkpt lat="44.80157" lon="6.29202">
        <ele>2186.333</ele>
        <time>2020-04-06T04:33:50Z</time>
      </trkpt>
      <trkpt lat="44.80161" lon="6.29212">
        <ele>2183.158</ele>
        <time>2020-04-06T04:34:10Z</time>
      </trkpt>
      <trkpt lat="44.80164" lon="6.29188">
        <ele>2183.352</ele>
        <time>2020-04-06T04:34:30Z</time>
      </trkpt>
      <trkpt lat="44.80174" lon="6.29195">
        <ele>2177.917</ele>
        <time>2020-04-06T04:34:50Z</time>
      </trkpt>
      <trkpt lat="44.8017" lon="6.29215">
        <ele>2177.908</ele>
        <time>2020-04-06T04:35:10Z</time>
      </trkpt>
      <trkpt lat="44.80193" lon="6.29187">
        <ele>2167.491</ele>
        <time>2020-04-06T04:35:30Z</time>
      </trkpt>
      <trkpt lat="44.80185" lon="6.29239">
        <ele>2167.569</ele>
        <time>2020-04-06T04:35:50Z</time>
      </trkpt>
      <trkpt lat="44.80212" lon="6.29204">
        <ele>2157.467</ele>
        <time>2020-04-06T04:36:10Z</time>
      </trkpt>
      <trkpt lat="44.80214" lon="6.29252">
        <ele>2151.811</ele>
        <time>2020-04-06T04:36:30Z</time>
      </trkpt>
      <trkpt lat="44.80232" lon="6.29198">
        <ele>2146.882</ele>
        <time>2020-04-06T04:36:50Z</time>
      </trkpt>
      <trkpt lat="44.80248" lon="6.29171">
        <ele>2135.489</ele>
        <time>2020-04-06T04:37:10Z</time>
      </trkpt>
      <trkpt lat="44.80249" lon="6.29155">
        <ele>2132.733</ele>
        <time>2020-04-06T04:37:30Z</time>
      </trkpt>
      <trkpt lat="44.8026" lon="6.29161">
        <ele>2128.22</ele>
        <time>2020-04-06T04:37:50Z</time>
      </trkpt>
      <trkpt lat="44.80257" lon="6.29191">
        <ele>2131.645</ele>
        <time>2020-04-06T04:38:10Z</time>
      </trkpt>
      <trkpt lat="44.8027" lon="6.2923">
        <ele>2121.947</ele>
        <time>2020-04-06T04:38:30Z</time>
      </trkpt>
      <trkpt lat="44.80268" lon="6.29239">
        <ele>2122.311</ele>
        <time>2020-04-06T04:38:50Z</time>
      </trkpt>
      <trkpt lat="44.80284" lon="6.2923">
        <ele>2114.608</ele>
        <time>2020-04-06T04:39:10Z</time>
      </trkpt>
      <trkpt lat="44.80312" lon="6.29184">
        <ele>2104.74</ele>
        <time>2020-04-06T04:39:30Z</time>
      </trkpt>
      <trkpt lat="44.80315" lon="6.29157">
        <ele>2101.738</ele>
        <time>2020-04-06T04:39:50Z</time>
      </trkpt>
      <trkpt lat="44.80303" lon="6.29134">
        <ele>2103.316</ele>
        <time>2020-04-06T04:40:10Z</time>
      </trkpt>
      <trkpt lat="44.80308" lon="6.29112">
        <ele>2097.97</ele>
        <time>2020-04-06T04:40:30Z</time>
      </trkpt>
      <trkpt lat="44.80316" lon="6.29136">
        <ele>2098.291</ele>
        <time>2020-04-06T04:40:50Z</time>
      </trkpt>
      <trkpt lat="44.8034" lon="6.29144">
        <ele>2089.818</ele>
        <time>2020-04-06T04:41:10Z</time>
      </trkpt>
      <trkpt lat="44.80362" lon="6.29145">
        <ele>2083.672</ele>
        <time>2020-04-06T04:41:30Z</time>
      </trkpt>
      <trkpt lat="44.80385" lon="6.29156">
        <ele>2078.469</ele>
        <time>2020-04-06T04:41:50Z</time>
      </trkpt>
      <trkpt lat="44.80383" lon="6.29168">
        <ele>2079.744</ele>
        <time>2020-04-06T04:42:10Z</time>
      </trkpt>
      <trkpt lat="44.80389" lon="6.29191">
        <ele>2077.005</ele>
        <time>2020-04-06T04:42:30Z</time>
      </trkpt>
      <trkpt lat="44.80379" lon="6.29212">
        <ele>2078.715</ele>
        <time>2020-04-06T04:42:50Z</time>
      </trkpt>
      <trkpt lat="44.80383" lon="6.29234">
        <ele>2076.408</ele>
        <time>2020-04-06T04:43:10Z</time>
      </trkpt>
      <trkpt lat="44.80412" lon="6.29227">
        <ele>2065.77</ele>
        <time>2020-04-06T04:43:30Z</time>
      </trkpt>
      <trkpt lat="44.8042" lon="6.29234">
        <ele>2064.588</ele>
        <time>2020-04-06T04:43:50Z</time>
      </trkpt>
      <trkpt lat="44.80438" lon="6.29237">
        <ele>2060.686</ele>
        <time>2020-04-06T04:44:10Z</time>
      </trkpt>
      <trkpt lat="44.80474" lon="6.2925">
        <ele>2053.65</ele>
        <time>2020-04-06T04:44:30Z</time>
      </trkpt>
      <trkpt lat="44.80498" lon="6.29272">
        <ele>2051.531</ele>
        <time>2020-04-06T04:44:50Z</time>
      </trkpt>
      <trkpt lat="44.80498" lon="6.29292">
        <ele>2054.338</ele>
        <time>2020-04-06T04:45:10Z</time>
      </trkpt>
      <trkpt lat="44.80523" lon="6.29311">
        <ele>2043.052</ele>
        <time>2020-04-06T04:45:30Z</time>
      </trkpt>
      <trkpt lat="44.80515" lon="6.29336">
        <ele>2044.979</ele>
        <time>2020-04-06T04:45:50Z</time>
      </trkpt>
      <trkpt lat="44.80508" lon="6.29352">
        <ele>2047.864</ele>
        <time>2020-04-06T04:46:10Z</time>
      </trkpt>
      <trkpt lat="44.80527" lon="6.2941">
        <ele>2035.606</ele>
        <time>2020-04-06T04:46:30Z</time>
      </trkpt>
      <trkpt lat="44.8053" lon="6.29368">
        <ele>2031.916</ele>
        <time>2020-04-06T04:46:50Z</time>
      </trkpt>
      <trkpt lat="44.80535" lon="6.29361">
        <ele>2029.308</ele>
        <time>2020-04-06T04:47:10Z</time>
      </trkpt>
      <trkpt lat="44.80545" lon="6.29393">
        <ele>2022.582</ele>
        <time>2020-04-06T04:47:30Z</time>
      </trkpt>
      <trkpt lat="44.80597" lon="6.29532">
        <ele>1996.97</ele>
        <time>2020-04-06T04:47:50Z</time>
      </trkpt>
      <trkpt lat="44.80596" lon="6.29446">
        <ele>1989.238</ele>
        <time>2020-04-06T04:48:10Z</time>
      </trkpt>
      <trkpt lat="44.80606" lon="6.29406">
        <ele>1983.892</ele>
        <time>2020-04-06T04:48:30Z</time>
      </trkpt>
      <trkpt lat="44.80617" lon="6.29461">
        <ele>1975.713</ele>
        <time>2020-04-06T04:48:50Z</time>
      </trkpt>
      <trkpt lat="44.80641" lon="6.29518">
        <ele>1964.14</ele>
        <time>2020-04-06T04:49:10Z</time>
      </trkpt>
      <trkpt lat="44.80663" lon="6.29574">
        <ele>1951.254</ele>
        <time>2020-04-06T04:49:30Z</time>
      </trkpt>
      <trkpt lat="44.80662" lon="6.29546">
        <ele>1951.171</ele>
        <time>2020-04-06T04:49:50Z</time>
      </trkpt>
      <trkpt lat="44.80664" lon="6.2951">
        <ele>1945.171</ele>
        <time>2020-04-06T04:50:10Z</time>
      </trkpt>
      <trkpt lat="44.80667" lon="6.29464">
        <ele>1940.741</ele>
        <time>2020-04-06T04:50:30Z</time>
      </trkpt>
      <trkpt lat="44.80683" lon="6.29423">
        <ele>1933.315</ele>
        <time>2020-04-06T04:50:50Z</time>
      </trkpt>
      <trkpt lat="44.80693" lon="6.29484">
        <ele>1926.808</ele>
        <time>2020-04-06T04:51:10Z</time>
      </trkpt>
      <trkpt lat="44.80714" lon="6.29531">
        <ele>1915.963</ele>
        <time>2020-04-06T04:51:30Z</time>
      </trkpt>
      <trkpt lat="44.80724" lon="6.29566">
        <ele>1910.621</ele>
        <time>2020-04-06T04:51:50Z</time>
      </trkpt>
      <trkpt lat="44.80729" lon="6.29495">
        <ele>1906.889</ele>
        <time>2020-04-06T04:52:10Z</time>
      </trkpt>
      <trkpt lat="44.80744" lon="6.29459">
        <ele>1901.273</ele>
        <time>2020-04-06T04:52:30Z</time>
      </trkpt>
      <trkpt lat="44.80751" lon="6.29498">
        <ele>1895.954</ele>
        <time>2020-04-06T04:52:50Z</time>
      </trkpt>
      <trkpt lat="44.80762" lon="6.29516">
        <ele>1890.231</ele>
        <time>2020-04-06T04:53:10Z</time>
      </trkpt>
      <trkpt lat="44.80777" lon="6.29567">
        <ele>1880.485</ele>
        <time>2020-04-06T04:53:30Z</time>
      </trkpt>
      <trkpt lat="44.80792" lon="6.29504">
        <ele>1874.892</ele>
        <time>2020-04-06T04:53:50Z</time>
      </trkpt>
      <trkpt lat="44.808" lon="6.29557">
        <ele>1866.337</ele>
        <time>2020-04-06T04:54:10Z</time>
      </trkpt>
      <trkpt lat="44.80833" lon="6.29485">
        <ele>1856.049</ele>
        <time>2020-04-06T04:54:30Z</time>
      </trkpt>
      <trkpt lat="44.80857" lon="6.29465">
        <ele>1848.813</ele>
        <time>2020-04-06T04:54:50Z</time>
      </trkpt>
      <trkpt lat="44.80853" lon="6.29486">
        <ele>1847.608</ele>
        <time>2020-04-06T04:55:10Z</time>
      </trkpt>
      <trkpt lat="44.80861" lon="6.29571">
        <ele>1833.349</ele>
        <time>2020-04-06T04:55:30Z</time>
      </trkpt>
      <trkpt lat="44.80881" lon="6.29557">
        <ele>1827.127</ele>
        <time>2020-04-06T04:55:50Z</time>
      </trkpt>
      <trkpt lat="44.80897" lon="6.29532">
        <ele>1824.695</ele>
        <time>2020-04-06T04:56:10Z</time>
      </trkpt>
      <trkpt lat="44.80928" lon="6.29518">
        <ele>1814.619</ele>
        <time>2020-04-06T04:56:30Z</time>
      </trkpt>
      <trkpt lat="44.80936" lon="6.29521">
        <ele>1810.02</ele>
        <time>2020-04-06T04:56:50Z</time>
      </trkpt>
      <trkpt lat="44.80929" lon="6.29533">
        <ele>1811.167</ele>
        <time>2020-04-06T04:57:10Z</time>
      </trkpt>
      <trkpt lat="44.80942" lon="6.29531">
        <ele>1805.661</ele>
        <time>2020-04-06T04:57:30Z</time>
      </trkpt>
      <trkpt lat="44.80937" lon="6.29553">
        <ele>1803.768</ele>
        <time>2020-04-06T04:57:50Z</time>
      </trkpt>
      <trkpt lat="44.80938" lon="6.29564">
        <ele>1799.717</ele>
        <time>2020-04-06T04:58:10Z</time>
      </trkpt>
      <trkpt lat="44.80932" lon="6.29577">
        <ele>1798.287</ele>
        <time>2020-04-06T04:58:30Z</time>
      </trkpt>
      <trkpt lat="44.80964" lon="6.29559">
        <ele>1789.315</ele>
        <time>2020-04-06T04:58:50Z</time>
      </trkpt>
      <trkpt lat="44.80961" lon="6.29577">
        <ele>1786.108</ele>
        <time>2020-04-06T04:59:10Z</time>
      </trkpt>
      <trkpt lat="44.80981" lon="6.29567">
        <ele>1778.587</ele>
        <time>2020-04-06T04:59:30Z</time>
      </trkpt>
      <trkpt lat="44.80987" lon="6.29525">
        <ele>1782.145</ele>
        <time>2020-04-06T04:59:50Z</time>
      </trkpt>
      <trkpt lat="44.80992" lon="6.29543">
        <ele>1776.613</ele>
        <time>2020-04-06T05:00:10Z</time>
      </trkpt>
      <trkpt lat="44.81008" lon="6.29522">
        <ele>1771.287</ele>
        <time>2020-04-06T05:00:30Z</time>
      </trkpt>
      <trkpt lat="44.81029" lon="6.29522">
        <ele>1759.348</ele>
        <time>2020-04-06T05:00:50Z</time>
      </trkpt>
      <trkpt lat="44.81019" lon="6.29538">
        <ele>1762.155</ele>
        <time>2020-04-06T05:01:10Z</time>
      </trkpt>
      <trkpt lat="44.8103" lon="6.29537">
        <ele>1756.359</ele>
        <time>2020-04-06T05:01:30Z</time>
      </trkpt>
      <trkpt lat="44.81036" lon="6.29545">
        <ele>1751.316</ele>
        <time>2020-04-06T05:01:50Z</time>
      </trkpt>
      <trkpt lat="44.81061" lon="6.29509">
        <ele>1742.926</ele>
        <time>2020-04-06T05:02:10Z</time>
      </trkpt>
      <trkpt lat="44.81077" lon="6.29499">
        <ele>1733.947</ele>
        <time>2020-04-06T05:02:30Z</time>
      </trkpt>
      <trkpt lat="44.81076" lon="6.29515">
        <ele>1733.711</ele>
        <time>2020-04-06T05:02:50Z</time>
      </trkpt>
      <trkpt lat="44.8108" lon="6.29522">
        <ele>1730.908</ele>
        <time>2020-04-06T05:03:10Z</time>
      </trkpt>
      <trkpt lat="44.81083" lon="6.2955">
        <ele>1729.058</ele>
        <time>2020-04-06T05:03:30Z</time>
      </trkpt>
      <trkpt lat="44.81093" lon="6.29571">
        <ele>1723.846</ele>
        <time>2020-04-06T05:03:50Z</time>
      </trkpt>
      <trkpt lat="44.81116" lon="6.29611">
        <ele>1715.214</ele>
        <time>2020-04-06T05:04:10Z</time>
      </trkpt>
      <trkpt lat="44.81116" lon="6.29647">
        <ele>1708.468</ele>
        <time>2020-04-06T05:04:30Z</time>
      </trkpt>
      <trkpt lat="44.81123" lon="6.29656">
        <ele>1704.569</ele>
        <time>2020-04-06T05:04:50Z</time>
      </trkpt>
      <trkpt lat="44.81143" lon="6.29623">
        <ele>1703.766</ele>
        <time>2020-04-06T05:05:10Z</time>
      </trkpt>
      <trkpt lat="44.81149" lon="6.296">
        <ele>1706.82</ele>
        <time>2020-04-06T05:05:30Z</time>
      </trkpt>
      <trkpt lat="44.8116" lon="6.29597">
        <ele>1706.257</ele>
        <time>2020-04-06T05:05:50Z</time>
      </trkpt>
      <trkpt lat="44.81183" lon="6.29613">
        <ele>1701.435</ele>
        <time>2020-04-06T05:06:10Z</time>
      </trkpt>
      <trkpt lat="44.81214" lon="6.29625">
        <ele>1698.486</ele>
        <time>2020-04-06T05:06:30Z</time>
      </trkpt>
      <trkpt lat="44.81247" lon="6.29651">
        <ele>1691.614</ele>
        <time>2020-04-06T05:06:50Z</time>
      </trkpt>
      <trkpt lat="44.81273" lon="6.29643">
        <ele>1689.508</ele>
        <time>2020-04-06T05:07:10Z</time>
      </trkpt>
      <trkpt lat="44.81313" lon="6.29638">
        <ele>1682.929</ele>
        <time>2020-04-06T05:07:30Z</time>
      </trkpt>
      <trkpt lat="44.81403" lon="6.29611">
        <ele>1670.187</ele>
        <time>2020-04-06T05:07:50Z</time>
      </trkpt>
      <trkpt lat="44.81503" lon="6.29572">
        <ele>1661.935</ele>
        <time>2020-04-06T05:08:10Z</time>
      </trkpt>
      <trkpt lat="44.8156" lon="6.2956">
        <ele>1657.649</ele>
        <time>2020-04-06T05:08:30Z</time>
      </trkpt>
      <trkpt lat="44.81618" lon="6.2956">
        <ele>1648.22</ele>
        <time>2020-04-06T05:08:50Z</time>
      </trkpt>
      <trkpt lat="44.81672" lon="6.29552">
        <ele>1644.047</ele>
        <time>2020-04-06T05:09:10Z</time>
      </trkpt>
      <trkpt lat="44.81703" lon="6.29555">
        <ele>1641.531</ele>
        <time>2020-04-06T05:09:30Z</time>
      </trkpt>
      <trkpt lat="44.81728" lon="6.2957">
        <ele>1635.718</ele>
        <time>2020-04-06T05:09:50Z</time>
      </trkpt>
      <trkpt lat="44.81783" lon="6.29565">
        <ele>1623.117</ele>
        <time>2020-04-06T05:10:10Z</time>
      </trkpt>
      <trkpt lat="44.81809" lon="6.29556">
        <ele>1621.187</ele>
        <time>2020-04-06T05:10:30Z</time>
      </trkpt>
      <trkpt lat="44.81851" lon="6.29556">
        <ele>1623.915</ele>
        <time>2020-04-06T05:10:50Z</time>
      </trkpt>
      <trkpt lat="44.8188" lon="6.2956">
        <ele>1618.508</ele>
        <time>2020-04-06T05:11:10Z</time>
      </trkpt>
      <trkpt lat="44.81924" lon="6.29558">
        <ele>1612.357</ele>
        <time>2020-04-06T05:11:30Z</time>
      </trkpt>
      <trkpt lat="44.81996" lon="6.29537">
        <ele>1605.845</ele>
        <time>2020-04-06T05:11:50Z</time>
      </trkpt>
      <trkpt lat="44.82021" lon="6.2953">
        <ele>1602.983</ele>
        <time>2020-04-06T05:12:10Z</time>
      </trkpt>
      <trkpt lat="44.82046" lon="6.29524">
        <ele>1600.417</ele>
        <time>2020-04-06T05:12:30Z</time>
      </trkpt>
      <trkpt lat="44.82073" lon="6.29525">
        <ele>1595.598</ele>
        <time>2020-04-06T05:12:50Z</time>
      </trkpt>
      <trkpt lat="44.82094" lon="6.29505">
        <ele>1595.795</ele>
        <time>2020-04-06T05:13:10Z</time>
      </trkpt>
      <trkpt lat="44.82122" lon="6.29504">
        <ele>1589.129</ele>
        <time>2020-04-06T05:13:30Z</time>
      </trkpt>
      <trkpt lat="44.8218" lon="6.29451">
        <ele>1581.756</ele>
        <time>2020-04-06T05:13:50Z</time>
      </trkpt>
      <trkpt lat="44.82223" lon="6.29401">
        <ele>1578.598</ele>
        <time>2020-04-06T05:14:10Z</time>
      </trkpt>
      <trkpt lat="44.82331" lon="6.29353">
        <ele>1570.015</ele>
        <time>2020-04-06T05:14:30Z</time>
      </trkpt>
      <trkpt lat="44.82361" lon="6.29357">
        <ele>1570.026</ele>
        <time>2020-04-06T05:14:50Z</time>
      </trkpt>
      <trkpt lat="44.82391" lon="6.29343">
        <ele>1569.308</ele>
        <time>2020-04-06T05:15:10Z</time>
      </trkpt>
      <trkpt lat="44.8242" lon="6.29343">
        <ele>1569.315</ele>
        <time>2020-04-06T05:15:30Z</time>
      </trkpt>
      <trkpt lat="44.82444" lon="6.29329">
        <ele>1568.073</ele>
        <time>2020-04-06T05:15:50Z</time>
      </trkpt>
      <trkpt lat="44.8246" lon="6.29345">
        <ele>1569.661</ele>
        <time>2020-04-06T05:16:10Z</time>
      </trkpt>
      <trkpt lat="44.82488" lon="6.29341">
        <ele>1571.015</ele>
        <time>2020-04-06T05:16:30Z</time>
      </trkpt>
      <trkpt lat="44.82525" lon="6.29313">
        <ele>1565.066</ele>
        <time>2020-04-06T05:16:50Z</time>
      </trkpt>
      <trkpt lat="44.82537" lon="6.2932">
        <ele>1566.783</ele>
        <time>2020-04-06T05:17:10Z</time>
      </trkpt>
      <trkpt lat="44.82557" lon="6.29312">
        <ele>1564.057</ele>
        <time>2020-04-06T05:17:30Z</time>
      </trkpt>
      <trkpt lat="44.82578" lon="6.29315">
        <ele>1565.334</ele>
        <time>2020-04-06T05:17:50Z</time>
      </trkpt>
      <trkpt lat="44.82614" lon="6.29278">
        <ele>1563.311</ele>
        <time>2020-04-06T05:18:10Z</time>
      </trkpt>
      <trkpt lat="44.82672" lon="6.29238">
        <ele>1562.221</ele>
        <time>2020-04-06T05:18:30Z</time>
      </trkpt>
      <trkpt lat="44.82693" lon="6.29218">
        <ele>1559.203</ele>
        <time>2020-04-06T05:18:50Z</time>
      </trkpt>
      <trkpt lat="44.82719" lon="6.29225">
        <ele>1557.708</ele>
        <time>2020-04-06T05:19:10Z</time>
      </trkpt>
      <trkpt lat="44.82736" lon="6.29208">
        <ele>1550.547</ele>
        <time>2020-04-06T05:19:30Z</time>
      </trkpt>
      <trkpt lat="44.82748" lon="6.29214">
        <ele>1549.395</ele>
        <time>2020-04-06T05:19:50Z</time>
      </trkpt>
      <trkpt lat="44.82767" lon="6.29194">
        <ele>1544.743</ele>
        <time>2020-04-06T05:20:10Z</time>
      </trkpt>
      <trkpt lat="44.82792" lon="6.29216">
        <ele>1549.477</ele>
        <time>2020-04-06T05:20:30Z</time>
      </trkpt>
      <trkpt lat="44.82827" lon="6.2916">
        <ele>1538.938</ele>
        <time>2020-04-06T05:20:50Z</time>
      </trkpt>
      <trkpt lat="44.82853" lon="6.29147">
        <ele>1536.465</ele>
        <time>2020-04-06T05:21:10Z</time>
      </trkpt>
      <trkpt lat="44.82874" lon="6.29113">
        <ele>1526.689</ele>
        <time>2020-04-06T05:21:30Z</time>
      </trkpt>
      <trkpt lat="44.82915" lon="6.29096">
        <ele>1523.846</ele>
        <time>2020-04-06T05:21:50Z</time>
      </trkpt>
      <trkpt lat="44.82984" lon="6.29055">
        <ele>1532.743</ele>
        <time>2020-04-06T05:22:10Z</time>
      </trkpt>
      <trkpt lat="44.83016" lon="6.29">
        <ele>1526.064</ele>
        <time>2020-04-06T05:22:30Z</time>
      </trkpt>
      <trkpt lat="44.8306" lon="6.28859">
        <ele>1494.01</ele>
        <time>2020-04-06T05:22:50Z</time>
      </trkpt>
      <trkpt lat="44.83087" lon="6.28792">
        <ele>1490.808</ele>
        <time>2020-04-06T05:23:10Z</time>
      </trkpt>
      <trkpt lat="44.83084" lon="6.28748">
        <ele>1482.12</ele>
        <time>2020-04-06T05:23:30Z</time>
      </trkpt>
      <trkpt lat="44.83099" lon="6.28663">
        <ele>1473.728</ele>
        <time>2020-04-06T05:23:50Z</time>
      </trkpt>
      <trkpt lat="44.83095" lon="6.2863">
        <ele>1466.536</ele>
        <time>2020-04-06T05:24:10Z</time>
      </trkpt>
      <trkpt lat="44.83104" lon="6.28546">
        <ele>1454.74</ele>
        <time>2020-04-06T05:24:30Z</time>
      </trkpt>
      <trkpt lat="44.83126" lon="6.28485">
        <ele>1449.911</ele>
        <time>2020-04-06T05:24:50Z</time>
      </trkpt>
      <trkpt lat="44.83137" lon="6.28472">
        <ele>1448.968</ele>
        <time>2020-04-06T05:25:10Z</time>
      </trkpt>
      <trkpt lat="44.83152" lon="6.28438">
        <ele>1446.012</ele>
        <time>2020-04-06T05:25:30Z</time>
      </trkpt>
      <trkpt lat="44.83151" lon="6.284">
        <ele>1440.619</ele>
        <time>2020-04-06T05:25:50Z</time>
      </trkpt>
      <trkpt lat="44.83198" lon="6.28361">
        <ele>1432.675</ele>
        <time>2020-04-06T05:26:10Z</time>
      </trkpt>
      <trkpt lat="44.8318" lon="6.28262">
        <ele>1429.728</ele>
        <time>2020-04-06T05:26:30Z</time>
      </trkpt>
      <trkpt lat="44.83166" lon="6.2821">
        <ele>1427.52</ele>
        <time>2020-04-06T05:26:50Z</time>
      </trkpt>
      <trkpt lat="44.8315" lon="6.28168">
        <ele>1423.708</ele>
        <time>2020-04-06T05:27:10Z</time>
      </trkpt>
      <trkpt lat="44.83166" lon="6.28124">
        <ele>1424.953</ele>
        <time>2020-04-06T05:27:30Z</time>
      </trkpt>
      <trkpt lat="44.83128" lon="6.28051">
        <ele>1422.781</ele>
        <time>2020-04-06T05:27:50Z</time>
      </trkpt>
      <trkpt lat="44.83064" lon="6.27984">
        <ele>1415.169</ele>
        <time>2020-04-06T05:28:10Z</time>
      </trkpt>
      <trkpt lat="44.82991" lon="6.2793">
        <ele>1410.793</ele>
        <time>2020-04-06T05:28:30Z</time>
      </trkpt>
      <trkpt lat="44.82987" lon="6.27888">
        <ele>1413.464</ele>
        <time>2020-04-06T05:28:50Z</time>
      </trkpt>
      <trkpt lat="44.82968" lon="6.27852">
        <ele>1411.411</ele>
        <time>2020-04-06T05:29:10Z</time>
      </trkpt>
      <trkpt lat="44.82954" lon="6.27789">
        <ele>1412.395</ele>
        <time>2020-04-06T05:29:30Z</time>
      </trkpt>
      <trkpt lat="44.82942" lon="6.27764">
        <ele>1409.542</ele>
        <time>2020-04-06T05:29:50Z</time>
      </trkpt>
      <trkpt lat="44.82938" lon="6.27663">
        <ele>1406.358</ele>
        <time>2020-04-06T05:30:10Z</time>
      </trkpt>
      <trkpt lat="44.82921" lon="6.276">
        <ele>1401.052</ele>
        <time>2020-04-06T05:30:30Z</time>
      </trkpt>
      <trkpt lat="44.82899" lon="6.27242">
        <ele>1412.617</ele>
        <time>2020-04-06T05:30:50Z</time>
      </trkpt>
      <trkpt lat="44.82903" lon="6.27171">
        <ele>1425.908</ele>
        <time>2020-04-06T05:31:10Z</time>
      </trkpt>
      <trkpt lat="44.82897" lon="6.27111">
        <ele>1433.081</ele>
        <time>2020-04-06T05:31:30Z</time>
      </trkpt>
      <trkpt lat="44.8291" lon="6.27081">
        <ele>1440.649</ele>
        <time>2020-04-06T05:31:50Z</time>
      </trkpt>
      <trkpt lat="44.82881" lon="6.2706">
        <ele>1428.697</ele>
        <time>2020-04-06T05:32:10Z</time>
      </trkpt>
      <trkpt lat="44.82891" lon="6.27015">
        <ele>1443.281</ele>
        <time>2020-04-06T05:32:30Z</time>
      </trkpt>
      <trkpt lat="44.82863" lon="6.26972">
        <ele>1435.042</ele>
        <time>2020-04-06T05:32:50Z</time>
      </trkpt>
      <trkpt lat="44.82851" lon="6.26904">
        <ele>1438.169</ele>
        <time>2020-04-06T05:33:10Z</time>
      </trkpt>
      <trkpt lat="44.82852" lon="6.26872">
        <ele>1443.813</ele>
        <time>2020-04-06T05:33:30Z</time>
      </trkpt>
      <trkpt lat="44.82825" lon="6.26855">
        <ele>1431.07</ele>
        <time>2020-04-06T05:33:50Z</time>
      </trkpt>
      <trkpt lat="44.82817" lon="6.26803">
        <ele>1434.343</ele>
        <time>2020-04-06T05:34:10Z</time>
      </trkpt>
      <trkpt lat="44.82827" lon="6.26776">
        <ele>1436.664</ele>
        <time>2020-04-06T05:34:30Z</time>
      </trkpt>
      <trkpt lat="44.82803" lon="6.26761">
        <ele>1424.11</ele>
        <time>2020-04-06T05:34:50Z</time>
      </trkpt>
      <trkpt lat="44.82766" lon="6.26646">
        <ele>1412.508</ele>
        <time>2020-04-06T05:35:10Z</time>
      </trkpt>
      <trkpt lat="44.82763" lon="6.26595">
        <ele>1410.37</ele>
        <time>2020-04-06T05:35:30Z</time>
      </trkpt>
      <trkpt lat="44.82748" lon="6.26561">
        <ele>1405.898</ele>
        <time>2020-04-06T05:35:50Z</time>
      </trkpt>
      <trkpt lat="44.82737" lon="6.26491">
        <ele>1406.066</ele>
        <time>2020-04-06T05:36:10Z</time>
      </trkpt>
      <trkpt lat="44.82742" lon="6.26418">
        <ele>1413.55</ele>
        <time>2020-04-06T05:36:30Z</time>
      </trkpt>
      <trkpt lat="44.82703" lon="6.2634">
        <ele>1410.451</ele>
        <time>2020-04-06T05:36:50Z</time>
      </trkpt>
      <trkpt lat="44.82697" lon="6.26299">
        <ele>1414.568</ele>
        <time>2020-04-06T05:37:10Z</time>
      </trkpt>
      <trkpt lat="44.82683" lon="6.26257">
        <ele>1413.752</ele>
        <time>2020-04-06T05:37:30Z</time>
      </trkpt>
      <trkpt lat="44.82683" lon="6.26221">
        <ele>1416.119</ele>
        <time>2020-04-06T05:37:50Z</time>
      </trkpt>
      <trkpt lat="44.8267" lon="6.26187">
        <ele>1413.159</ele>
        <time>2020-04-06T05:38:10Z</time>
      </trkpt>
      <trkpt lat="44.82661" lon="6.26161">
        <ele>1411.503</ele>
        <time>2020-04-06T05:38:30Z</time>
      </trkpt>
      <trkpt lat="44.82676" lon="6.26096">
        <ele>1416.323</ele>
        <time>2020-04-06T05:38:50Z</time>
      </trkpt>
      <trkpt lat="44.82662" lon="6.26093">
        <ele>1410.708</ele>
        <time>2020-04-06T05:39:10Z</time>
      </trkpt>
      <trkpt lat="44.82655" lon="6.26039">
        <ele>1397.141</ele>
        <time>2020-04-06T05:39:30Z</time>
      </trkpt>
      <trkpt lat="44.82663" lon="6.26028">
        <ele>1397.369</ele>
        <time>2020-04-06T05:39:50Z</time>
      </trkpt>
      <trkpt lat="44.8269" lon="6.26006">
        <ele>1400.397</ele>
        <time>2020-04-06T05:40:10Z</time>
      </trkpt>
      <trkpt lat="44.8269" lon="6.25988">
        <ele>1399.131</ele>
        <time>2020-04-06T05:40:30Z</time>
      </trkpt>
      <trkpt lat="44.82658" lon="6.25979">
        <ele>1384.052</ele>
        <time>2020-04-06T05:40:50Z</time>
      </trkpt>
      <trkpt lat="44.82638" lon="6.25958">
        <ele>1377.299</ele>
        <time>2020-04-06T05:41:10Z</time>
      </trkpt>
      <trkpt lat="44.82601" lon="6.25881">
        <ele>1368.853</ele>
        <time>2020-04-06T05:41:30Z</time>
      </trkpt>
      <trkpt lat="44.82586" lon="6.2589">
        <ele>1361.15</ele>
        <time>2020-04-06T05:41:50Z</time>
      </trkpt>
      <trkpt lat="44.82587" lon="6.25851">
        <ele>1364.072</ele>
        <time>2020-04-06T05:42:10Z</time>
      </trkpt>
      <trkpt lat="44.8256" lon="6.25871">
        <ele>1352.213</ele>
        <time>2020-04-06T05:42:30Z</time>
      </trkpt>
      <trkpt lat="44.82549" lon="6.25816">
        <ele>1345.914</ele>
        <time>2020-04-06T05:42:50Z</time>
      </trkpt>
      <trkpt lat="44.82546" lon="6.25773">
        <ele>1339.608</ele>
        <time>2020-04-06T05:43:10Z</time>
      </trkpt>
      <trkpt lat="44.82539" lon="6.25724">
        <ele>1331.033</ele>
        <time>2020-04-06T05:43:30Z</time>
      </trkpt>
      <trkpt lat="44.82543" lon="6.25705">
        <ele>1330.621</ele>
        <time>2020-04-06T05:43:50Z</time>
      </trkpt>
      <trkpt lat="44.82545" lon="6.25678">
        <ele>1326.829</ele>
        <time>2020-04-06T05:44:10Z</time>
      </trkpt>
      <trkpt lat="44.82562" lon="6.25653">
        <ele>1331.783</ele>
        <time>2020-04-06T05:44:30Z</time>
      </trkpt>
      <trkpt lat="44.82572" lon="6.25623">
        <ele>1327.354</ele>
        <time>2020-04-06T05:44:50Z</time>
      </trkpt>
      <trkpt lat="44.82574" lon="6.25604">
        <ele>1322.661</ele>
        <time>2020-04-06T05:45:10Z</time>
      </trkpt>
      <trkpt lat="44.82583" lon="6.2559">
        <ele>1324.635</ele>
        <time>2020-04-06T05:45:30Z</time>
      </trkpt>
      <trkpt lat="44.82566" lon="6.25551">
        <ele>1310.782</ele>
        <time>2020-04-06T05:45:50Z</time>
      </trkpt>
      <trkpt lat="44.82556" lon="6.25497">
        <ele>1305.215</ele>
        <time>2020-04-06T05:46:10Z</time>
      </trkpt>
      <trkpt lat="44.82548" lon="6.25471">
        <ele>1298.265</ele>
        <time>2020-04-06T05:46:30Z</time>
      </trkpt>
      <trkpt lat="44.82558" lon="6.25413">
        <ele>1296.111</ele>
        <time>2020-04-06T05:46:50Z</time>
      </trkpt>
      <trkpt lat="44.82573" lon="6.25345">
        <ele>1291.508</ele>
        <time>2020-04-06T05:47:10Z</time>
      </trkpt>
      <trkpt lat="44.82573" lon="6.25307">
        <ele>1283.947</ele>
        <time>2020-04-06T05:47:30Z</time>
      </trkpt>
      <trkpt lat="44.82593" lon="6.25242">
        <ele>1283.485</ele>
        <time>2020-04-06T05:47:50Z</time>
      </trkpt>
      <trkpt lat="44.8259" lon="6.25044">
        <ele>1254.713</ele>
        <time>2020-04-06T05:48:10Z</time>
      </trkpt>
      <trkpt lat="44.82583" lon="6.24935">
        <ele>1243.657</ele>
        <time>2020-04-06T05:48:30Z</time>
      </trkpt>
      <trkpt lat="44.82555" lon="6.24805">
        <ele>1230.658</ele>
        <time>2020-04-06T05:48:50Z</time>
      </trkpt>
      <trkpt lat="44.82557" lon="6.24753">
        <ele>1227.975</ele>
        <time>2020-04-06T05:49:10Z</time>
      </trkpt>
      <trkpt lat="44.82531" lon="6.24536">
        <ele>1208.339</ele>
        <time>2020-04-06T05:49:30Z</time>
      </trkpt>
      <trkpt lat="44.82517" lon="6.24387">
        <ele>1200.746</ele>
        <time>2020-04-06T05:49:50Z</time>
      </trkpt>
      <trkpt lat="44.82519" lon="6.24307">
        <ele>1198.544</ele>
        <time>2020-04-06T05:50:10Z</time>
      </trkpt>
      <trkpt lat="44.82501" lon="6.24226">
        <ele>1194.105</ele>
        <time>2020-04-06T05:50:30Z</time>
      </trkpt>
      <trkpt lat="44.82482" lon="6.24143">
        <ele>1191.215</ele>
        <time>2020-04-06T05:50:50Z</time>
      </trkpt>
      <trkpt lat="44.8248" lon="6.23874">
        <ele>1178.908</ele>
        <time>2020-04-06T05:51:10Z</time>
      </trkpt>
      <trkpt lat="44.82485" lon="6.2379">
        <ele>1178.67</ele>
        <time>2020-04-06T05:51:30Z</time>
      </trkpt>
      <trkpt lat="44.825" lon="6.23733">
        <ele>1181.518</ele>
        <time>2020-04-06T05:51:50Z</time>
      </trkpt>
      <trkpt lat="44.82483" lon="6.23644">
        <ele>1180.776</ele>
        <time>2020-04-06T05:52:10Z</time>
      </trkpt>
      <trkpt lat="44.82487" lon="6.23593">
        <ele>1183.03</ele>
        <time>2020-04-06T05:52:30Z</time>
      </trkpt>
      <trkpt lat="44.82474" lon="6.23552">
        <ele>1176.031</ele>
        <time>2020-04-06T05:52:50Z</time>
      </trkpt>
      <trkpt lat="44.82474" lon="6.23515">
        <ele>1175.448</ele>
        <time>2020-04-06T05:53:10Z</time>
      </trkpt>
      <trkpt lat="44.82488" lon="6.23465">
        <ele>1180.242</ele>
        <time>2020-04-06T05:53:30Z</time>
      </trkpt>
      <trkpt lat="44.82481" lon="6.23348">
        <ele>1174.469</ele>
        <time>2020-04-06T05:53:50Z</time>
      </trkpt>
      <trkpt lat="44.82463" lon="6.23297">
        <ele>1170.487</ele>
        <time>2020-04-06T05:54:10Z</time>
      </trkpt>
      <trkpt lat="44.82434" lon="6.23313">
        <ele>1166.642</ele>
        <time>2020-04-06T05:54:30Z</time>
      </trkpt>
      <trkpt lat="44.82375" lon="6.23322">
        <ele>1169.126</ele>
        <time>2020-04-06T05:54:50Z</time>
      </trkpt>
      <trkpt lat="44.82351" lon="6.23268">
        <ele>1177.408</ele>
        <time>2020-04-06T05:55:10Z</time>
      </trkpt>
      <trkpt lat="44.82351" lon="6.23222">
        <ele>1175.154</ele>
        <time>2020-04-06T05:55:30Z</time>
      </trkpt>
      <trkpt lat="44.82336" lon="6.23146">
        <ele>1166.382</ele>
        <time>2020-04-06T05:55:50Z</time>
      </trkpt>
      <trkpt lat="44.82298" lon="6.23047">
        <ele>1163.85</ele>
        <time>2020-04-06T05:56:10Z</time>
      </trkpt>
      <trkpt lat="44.8229" lon="6.23">
        <ele>1159.614</ele>
        <time>2020-04-06T05:56:30Z</time>
      </trkpt>
      <trkpt lat="44.82247" lon="6.22949">
        <ele>1160.615</ele>
        <time>2020-04-06T05:56:50Z</time>
      </trkpt>
      <trkpt lat="44.82204" lon="6.2283">
        <ele>1165.162</ele>
        <time>2020-04-06T05:57:10Z</time>
      </trkpt>
      <trkpt lat="44.82156" lon="6.22725">
        <ele>1165.486</ele>
        <time>2020-04-06T05:57:30Z</time>
      </trkpt>
      <trkpt lat="44.82119" lon="6.22682">
        <ele>1169.473</ele>
        <time>2020-04-06T05:57:50Z</time>
      </trkpt>
      <trkpt lat="44.8208" lon="6.22645">
        <ele>1171.517</ele>
        <time>2020-04-06T05:58:10Z</time>
      </trkpt>
      <trkpt lat="44.8208" lon="6.22557">
        <ele>1169.587</ele>
        <time>2020-04-06T05:58:30Z</time>
      </trkpt>
      <trkpt lat="44.82074" lon="6.22486">
        <ele>1168.715</ele>
        <time>2020-04-06T05:58:50Z</time>
      </trkpt>
      <trkpt lat="44.82026" lon="6.22328">
        <ele>1169.608</ele>
        <time>2020-04-06T05:59:10Z</time>
      </trkpt>
      <trkpt lat="44.82031" lon="6.22289">
        <ele>1163.417</ele>
        <time>2020-04-06T05:59:30Z</time>
      </trkpt>
      <trkpt lat="44.82021" lon="6.22252">
        <ele>1165.145</ele>
        <time>2020-04-06T05:59:50Z</time>
      </trkpt>
      <trkpt lat="44.82024" lon="6.22195">
        <ele>1157.643</ele>
        <time>2020-04-06T06:00:10Z</time>
      </trkpt>
      <trkpt lat="44.82012" lon="6.22087">
        <ele>1151.417</ele>
        <time>2020-04-06T06:00:30Z</time>
      </trkpt>
      <trkpt lat="44.81989" lon="6.2203">
        <ele>1154.028</ele>
        <time>2020-04-06T06:00:50Z</time>
      </trkpt>
      <trkpt lat="44.81983" lon="6.21923">
        <ele>1145.165</ele>
        <time>2020-04-06T06:01:10Z</time>
      </trkpt>
      <trkpt lat="44.81967" lon="6.21882">
        <ele>1149.869</ele>
        <time>2020-04-06T06:01:30Z</time>
      </trkpt>
      <trkpt lat="44.81967" lon="6.21834">
        <ele>1145.376</ele>
        <time>2020-04-06T06:01:50Z</time>
      </trkpt>
      <trkpt lat="44.81971" lon="6.21785">
        <ele>1137.343</ele>
        <time>2020-04-06T06:02:10Z</time>
      </trkpt>
      <trkpt lat="44.81969" lon="6.21744">
        <ele>1135.264</ele>
        <time>2020-04-06T06:02:30Z</time>
      </trkpt>
      <trkpt lat="44.81963" lon="6.2171">
        <ele>1136.11</ele>
        <time>2020-04-06T06:02:50Z</time>
      </trkpt>
      <trkpt lat="44.81964" lon="6.21611">
        <ele>1132.008</ele>
        <time>2020-04-06T06:03:10Z</time>
      </trkpt>
      <trkpt lat="44.81927" lon="6.2152">
        <ele>1130.65</ele>
        <time>2020-04-06T06:03:30Z</time>
      </trkpt>
      <trkpt lat="44.81886" lon="6.21463">
        <ele>1130.268</ele>
        <time>2020-04-06T06:03:50Z</time>
      </trkpt>
      <trkpt lat="44.81886" lon="6.2136">
        <ele>1129.276</ele>
        <time>2020-04-06T06:04:10Z</time>
      </trkpt>
      <trkpt lat="44.81866" lon="6.21303">
        <ele>1134.98</ele>
        <time>2020-04-06T06:04:30Z</time>
      </trkpt>
      <trkpt lat="44.81879" lon="6.21282">
        <ele>1129.621</ele>
        <time>2020-04-06T06:04:50Z</time>
      </trkpt>
      <trkpt lat="44.81891" lon="6.21195">
        <ele>1122.788</ele>
        <time>2020-04-06T06:05:10Z</time>
      </trkpt>
      <trkpt lat="44.81876" lon="6.21118">
        <ele>1124.032</ele>
        <time>2020-04-06T06:05:30Z</time>
      </trkpt>
      <trkpt lat="44.81882" lon="6.21062">
        <ele>1121.769</ele>
        <time>2020-04-06T06:05:50Z</time>
      </trkpt>
      <trkpt lat="44.81876" lon="6.20996">
        <ele>1126.581</ele>
        <time>2020-04-06T06:06:10Z</time>
      </trkpt>
      <trkpt lat="44.81888" lon="6.20953">
        <ele>1124.061</ele>
        <time>2020-04-06T06:06:30Z</time>
      </trkpt>
      <trkpt lat="44.81889" lon="6.20824">
        <ele>1119.217</ele>
        <time>2020-04-06T06:06:50Z</time>
      </trkpt>
      <trkpt lat="44.81899" lon="6.20781">
        <ele>1112.808</ele>
        <time>2020-04-06T06:07:10Z</time>
      </trkpt>
      <trkpt lat="44.81871" lon="6.20704">
        <ele>1113.994</ele>
        <time>2020-04-06T06:07:30Z</time>
      </trkpt>
      <trkpt lat="44.81867" lon="6.20631">
        <ele>1111.562</ele>
        <time>2020-04-06T06:07:50Z</time>
      </trkpt>
      <trkpt lat="44.81873" lon="6.205">
        <ele>1104.37</ele>
        <time>2020-04-06T06:08:10Z</time>
      </trkpt>
      <trkpt lat="44.81839" lon="6.20393">
        <ele>1105.744</ele>
        <time>2020-04-06T06:08:30Z</time>
      </trkpt>
      <trkpt lat="44.81845" lon="6.20337">
        <ele>1100.565</ele>
        <time>2020-04-06T06:08:50Z</time>
      </trkpt>
      <trkpt lat="44.81867" lon="6.20266">
        <ele>1097.552</ele>
        <time>2020-04-06T06:09:10Z</time>
      </trkpt>
      <trkpt lat="44.81841" lon="6.20234">
        <ele>1103.696</ele>
        <time>2020-04-06T06:09:30Z</time>
      </trkpt>
      <trkpt lat="44.81833" lon="6.20198">
        <ele>1102.583</ele>
        <time>2020-04-06T06:09:50Z</time>
      </trkpt>
      <trkpt lat="44.81791" lon="6.20157">
        <ele>1113.096</ele>
        <time>2020-04-06T06:10:10Z</time>
      </trkpt>
      <trkpt lat="44.81752" lon="6.2005">
        <ele>1101.131</ele>
        <time>2020-04-06T06:10:30Z</time>
      </trkpt>
      <trkpt lat="44.81719" lon="6.20009">
        <ele>1105.024</ele>
        <time>2020-04-06T06:10:50Z</time>
      </trkpt>
      <trkpt lat="44.81716" lon="6.19908">
        <ele>1100.808</ele>
        <time>2020-04-06T06:11:10Z</time>
      </trkpt>
      <trkpt lat="44.81673" lon="6.19822">
        <ele>1107.565</ele>
        <time>2020-04-06T06:11:30Z</time>
      </trkpt>
      <trkpt lat="44.81666" lon="6.197">
        <ele>1101.883</ele>
        <time>2020-04-06T06:11:50Z</time>
      </trkpt>
      <trkpt lat="44.8165" lon="6.19628">
        <ele>1105.851</ele>
        <time>2020-04-06T06:12:10Z</time>
      </trkpt>
      <trkpt lat="44.81648" lon="6.19585">
        <ele>1098.615</ele>
        <time>2020-04-06T06:12:30Z</time>
      </trkpt>
      <trkpt lat="44.81658" lon="6.19583">
        <ele>1097.676</ele>
        <time>2020-04-06T06:12:50Z</time>
      </trkpt>
      <trkpt lat="44.81657" lon="6.19561">
        <ele>1097.453</ele>
        <time>2020-04-06T06:13:10Z</time>
      </trkpt>
      <trkpt lat="44.81639" lon="6.19536">
        <ele>1097.347</ele>
        <time>2020-04-06T06:13:30Z</time>
      </trkpt>
      <trkpt lat="44.81639" lon="6.19496">
        <ele>1096.974</ele>
        <time>2020-04-06T06:13:50Z</time>
      </trkpt>
      <trkpt lat="44.81718" lon="6.19388">
        <ele>1090.195</ele>
        <time>2020-04-06T06:14:10Z</time>
      </trkpt>
      <trkpt lat="44.81752" lon="6.1933">
        <ele>1090.049</ele>
        <time>2020-04-06T06:14:30Z</time>
      </trkpt>
      <trkpt lat="44.81757" lon="6.1928">
        <ele>1089.123</ele>
        <time>2020-04-06T06:14:50Z</time>
      </trkpt>
      <trkpt lat="44.81757" lon="6.19218">
        <ele>1088.608</ele>
        <time>2020-04-06T06:15:10Z</time>
      </trkpt>
      <trkpt lat="44.81789" lon="6.19014">
        <ele>1080.455</ele>
        <time>2020-04-06T06:15:30Z</time>
      </trkpt>
      <trkpt lat="44.81828" lon="6.18952">
        <ele>1078.163</ele>
        <time>2020-04-06T06:15:50Z</time>
      </trkpt>
      <trkpt lat="44.81892" lon="6.18922">
        <ele>1077.051</ele>
        <time>2020-04-06T06:16:10Z</time>
      </trkpt>
      <trkpt lat="44.81934" lon="6.18793">
        <ele>1075.015</ele>
        <time>2020-04-06T06:16:30Z</time>
      </trkpt>
      <trkpt lat="44.81937" lon="6.18753">
        <ele>1075.026</ele>
        <time>2020-04-06T06:16:50Z</time>
      </trkpt>
      <trkpt lat="44.81974" lon="6.18749">
        <ele>1078.893</ele>
        <time>2020-04-06T06:17:10Z</time>
      </trkpt>
      <trkpt lat="44.81947" lon="6.18563">
        <ele>1074.337</ele>
        <time>2020-04-06T06:17:30Z</time>
      </trkpt>
      <trkpt lat="44.81953" lon="6.18461">
        <ele>1070.434</ele>
        <time>2020-04-06T06:17:50Z</time>
      </trkpt>
      <trkpt lat="44.81975" lon="6.18381">
        <ele>1070.199</ele>
        <time>2020-04-06T06:18:10Z</time>
      </trkpt>
      <trkpt lat="44.81981" lon="6.18321">
        <ele>1070.007</ele>
        <time>2020-04-06T06:18:30Z</time>
      </trkpt>
      <trkpt lat="44.8199" lon="6.18309">
        <ele>1070.027</ele>
        <time>2020-04-06T06:18:50Z</time>
      </trkpt>
      <trkpt lat="44.82007" lon="6.18207">
        <ele>1070.108</ele>
        <time>2020-04-06T06:19:10Z</time>
      </trkpt>
      <trkpt lat="44.82001" lon="6.18165">
        <ele>1070.085</ele>
        <time>2020-04-06T06:19:30Z</time>
      </trkpt>
      <trkpt lat="44.82002" lon="6.18053">
        <ele>1070.073</ele>
        <time>2020-04-06T06:19:50Z</time>
      </trkpt>
      <trkpt lat="44.82018" lon="6.18037">
        <ele>1070.031</ele>
        <time>2020-04-06T06:20:10Z</time>
      </trkpt>
      <trkpt lat="44.82032" lon="6.17973">
        <ele>1070.245</ele>
        <time>2020-04-06T06:20:30Z</time>
      </trkpt>
      <trkpt lat="44.82049" lon="6.17933">
        <ele>1070.056</ele>
        <time>2020-04-06T06:20:50Z</time>
      </trkpt>
      <trkpt lat="44.82048" lon="6.17887">
        <ele>1070.113</ele>
        <time>2020-04-06T06:21:10Z</time>
      </trkpt>
      <trkpt lat="44.82048" lon="6.17856">
        <ele>1070.777</ele>
        <time>2020-04-06T06:21:30Z</time>
      </trkpt>
      <trkpt lat="44.82026" lon="6.17776">
        <ele>1070.024</ele>
        <time>2020-04-06T06:21:50Z</time>
      </trkpt>
      <trkpt lat="44.82029" lon="6.17748">
        <ele>1070.072</ele>
        <time>2020-04-06T06:22:10Z</time>
      </trkpt>
      <trkpt lat="44.82051" lon="6.17658">
        <ele>1063.813</ele>
        <time>2020-04-06T06:22:30Z</time>
      </trkpt>
      <trkpt lat="44.82106" lon="6.17436">
        <ele>1061.614</ele>
        <time>2020-04-06T06:22:50Z</time>
      </trkpt>
      <trkpt lat="44.821" lon="6.17402">
        <ele>1059.308</ele>
        <time>2020-04-06T06:23:10Z</time>
      </trkpt>
      <trkpt lat="44.82133" lon="6.17314">
        <ele>1061.653</ele>
        <time>2020-04-06T06:23:30Z</time>
      </trkpt>
      <trkpt lat="44.8209" lon="6.17294">
        <ele>1056.491</ele>
        <time>2020-04-06T06:23:50Z</time>
      </trkpt>
      <trkpt lat="44.82109" lon="6.17144">
        <ele>1054.129</ele>
        <time>2020-04-06T06:24:10Z</time>
      </trkpt>
      <trkpt lat="44.82134" lon="6.1707">
        <ele>1053.313</ele>
        <time>2020-04-06T06:24:30Z</time>
      </trkpt>
      <trkpt lat="44.82187" lon="6.16984">
        <ele>1050.184</ele>
        <time>2020-04-06T06:24:50Z</time>
      </trkpt>
      <trkpt lat="44.82212" lon="6.16905">
        <ele>1050.041</ele>
        <time>2020-04-06T06:25:10Z</time>
      </trkpt>
      <trkpt lat="44.82235" lon="6.16751">
        <ele>1050.045</ele>
        <time>2020-04-06T06:25:30Z</time>
      </trkpt>
      <trkpt lat="44.82235" lon="6.16713">
        <ele>1050.032</ele>
        <time>2020-04-06T06:25:50Z</time>
      </trkpt>
      <trkpt lat="44.82183" lon="6.16465">
        <ele>1050.043</ele>
        <time>2020-04-06T06:26:10Z</time>
      </trkpt>
      <trkpt lat="44.82096" lon="6.16237">
        <ele>1049.064</ele>
        <time>2020-04-06T06:26:30Z</time>
      </trkpt>
      <trkpt lat="44.82085" lon="6.16239">
        <ele>1049.01</ele>
        <time>2020-04-06T06:26:50Z</time>
      </trkpt>
      <trkpt lat="44.82116" lon="6.16141">
        <ele>1049.108</ele>
        <time>2020-04-06T06:27:10Z</time>
      </trkpt>
      <trkpt lat="44.82139" lon="6.16009">
        <ele>1042.13</ele>
        <time>2020-04-06T06:27:30Z</time>
      </trkpt>
      <trkpt lat="44.82144" lon="6.1587">
        <ele>1039.898</ele>
        <time>2020-04-06T06:27:50Z</time>
      </trkpt>
      <trkpt lat="44.82166" lon="6.15732">
        <ele>1038.496</ele>
        <time>2020-04-06T06:28:10Z</time>
      </trkpt>
      <trkpt lat="44.8217" lon="6.15666">
        <ele>1038.07</ele>
        <time>2020-04-06T06:28:30Z</time>
      </trkpt>
      <trkpt lat="44.82238" lon="6.15602">
        <ele>1036.841</ele>
        <time>2020-04-06T06:28:50Z</time>
      </trkpt>
      <trkpt lat="44.82288" lon="6.1554">
        <ele>1035.378</ele>
        <time>2020-04-06T06:29:10Z</time>
      </trkpt>
      <trkpt lat="44.8232" lon="6.15458">
        <ele>1033.522</ele>
        <time>2020-04-06T06:29:30Z</time>
      </trkpt>
      <trkpt lat="44.82326" lon="6.1541">
        <ele>1032.399</ele>
        <time>2020-04-06T06:29:50Z</time>
      </trkpt>
      <trkpt lat="44.82313" lon="6.15282">
        <ele>1030.122</ele>
        <time>2020-04-06T06:30:10Z</time>
      </trkpt>
      <trkpt lat="44.82345" lon="6.1523">
        <ele>1030.062</ele>
        <time>2020-04-06T06:30:30Z</time>
      </trkpt>
      <trkpt lat="44.82359" lon="6.1503">
        <ele>1030.008</ele>
        <time>2020-04-06T06:30:50Z</time>
      </trkpt>
      <trkpt lat="44.82425" lon="6.15022">
        <ele>1030.008</ele>
        <time>2020-04-06T06:31:10Z</time>
      </trkpt>
      <trkpt lat="44.8241" lon="6.14949">
        <ele>1030.058</ele>
        <time>2020-04-06T06:31:30Z</time>
      </trkpt>
      <trkpt lat="44.82416" lon="6.14921">
        <ele>1030.026</ele>
        <time>2020-04-06T06:31:50Z</time>
      </trkpt>
      <trkpt lat="44.82433" lon="6.14919">
        <ele>1030.044</ele>
        <time>2020-04-06T06:32:10Z</time>
      </trkpt>
      <trkpt lat="44.82484" lon="6.14877">
        <ele>1056.558</ele>
        <time>2020-04-06T06:32:30Z</time>
      </trkpt>
      <trkpt lat="44.82484" lon="6.14701">
        <ele>1045.059</ele>
        <time>2020-04-06T06:32:50Z</time>
      </trkpt>
      <trkpt lat="44.82477" lon="6.14615">
        <ele>1033.576</ele>
        <time>2020-04-06T06:33:10Z</time>
      </trkpt>
      <trkpt lat="44.82506" lon="6.14523">
        <ele>1033.85</ele>
        <time>2020-04-06T06:33:30Z</time>
      </trkpt>
      <trkpt lat="44.82548" lon="6.14483">
        <ele>1037.117</ele>
        <time>2020-04-06T06:33:50Z</time>
      </trkpt>
      <trkpt lat="44.82565" lon="6.14472">
        <ele>1037.177</ele>
        <time>2020-04-06T06:34:10Z</time>
      </trkpt>
      <trkpt lat="44.82576" lon="6.14479">
        <ele>1039.861</ele>
        <time>2020-04-06T06:34:30Z</time>
      </trkpt>
      <trkpt lat="44.82593" lon="6.14479">
        <ele>1041.027</ele>
        <time>2020-04-06T06:34:50Z</time>
      </trkpt>
      <trkpt lat="44.82612" lon="6.14486">
        <ele>1043.008</ele>
        <time>2020-04-06T06:35:10Z</time>
      </trkpt>
      <trkpt lat="44.82612" lon="6.14508">
        <ele>1047.163</ele>
        <time>2020-04-06T06:35:30Z</time>
      </trkpt>
      <trkpt lat="44.82621" lon="6.14518">
        <ele>1050.731</ele>
        <time>2020-04-06T06:35:50Z</time>
      </trkpt>
      <trkpt lat="44.82633" lon="6.14517">
        <ele>1051.979</ele>
        <time>2020-04-06T06:36:10Z</time>
      </trkpt>
      <trkpt lat="44.8264" lon="6.14522">
        <ele>1053.883</ele>
        <time>2020-04-06T06:36:30Z</time>
      </trkpt>
      <trkpt lat="44.82634" lon="6.14545">
        <ele>1060.074</ele>
        <time>2020-04-06T06:36:50Z</time>
      </trkpt>
      <trkpt lat="44.82615" lon="6.14566">
        <ele>1064.341</ele>
        <time>2020-04-06T06:37:10Z</time>
      </trkpt>
      <trkpt lat="44.82633" lon="6.14565">
        <ele>1067.685</ele>
        <time>2020-04-06T06:37:30Z</time>
      </trkpt>
      <trkpt lat="44.82656" lon="6.14549">
        <ele>1065.292</ele>
        <time>2020-04-06T06:37:50Z</time>
      </trkpt>
      <trkpt lat="44.82668" lon="6.14562">
        <ele>1070.912</ele>
        <time>2020-04-06T06:38:10Z</time>
      </trkpt>
      <trkpt lat="44.82679" lon="6.14604">
        <ele>1077.932</ele>
        <time>2020-04-06T06:38:30Z</time>
      </trkpt>
      <trkpt lat="44.82694" lon="6.14624">
        <ele>1078.005</ele>
        <time>2020-04-06T06:38:50Z</time>
      </trkpt>
      <trkpt lat="44.82714" lon="6.1462">
        <ele>1085.408</ele>
        <time>2020-04-06T06:39:10Z</time>
      </trkpt>
      <trkpt lat="44.82731" lon="6.14592">
        <ele>1090.797</ele>
        <time>2020-04-06T06:39:30Z</time>
      </trkpt>
      <trkpt lat="44.82738" lon="6.14653">
        <ele>1103.815</ele>
        <time>2020-04-06T06:39:50Z</time>
      </trkpt>
      <trkpt lat="44.82734" lon="6.14698">
        <ele>1109.583</ele>
        <time>2020-04-06T06:40:10Z</time>
      </trkpt>
      <trkpt lat="44.82752" lon="6.1468">
        <ele>1119.197</ele>
        <time>2020-04-06T06:40:30Z</time>
      </trkpt>
      <trkpt lat="44.82792" lon="6.14599">
        <ele>1133.538</ele>
        <time>2020-04-06T06:40:50Z</time>
      </trkpt>
      <trkpt lat="44.82915" lon="6.14413">
        <ele>1169.325</ele>
        <time>2020-04-06T06:41:10Z</time>
      </trkpt>
      <trkpt lat="44.82919" lon="6.14353">
        <ele>1169.019</ele>
        <time>2020-04-06T06:41:30Z</time>
      </trkpt>
      <trkpt lat="44.82955" lon="6.14364">
        <ele>1185.636</ele>
        <time>2020-04-06T06:41:50Z</time>
      </trkpt>
      <trkpt lat="44.82992" lon="6.14334">
        <ele>1182.088</ele>
        <time>2020-04-06T06:42:10Z</time>
      </trkpt>
      <trkpt lat="44.83021" lon="6.14345">
        <ele>1191.924</ele>
        <time>2020-04-06T06:42:30Z</time>
      </trkpt>
      <trkpt lat="44.83109" lon="6.14304">
        <ele>1204.826</ele>
        <time>2020-04-06T06:42:50Z</time>
      </trkpt>
      <trkpt lat="44.83134" lon="6.1428">
        <ele>1208.408</ele>
        <time>2020-04-06T06:43:10Z</time>
      </trkpt>
      <trkpt lat="44.83155" lon="6.14272">
        <ele>1222.154</ele>
        <time>2020-04-06T06:43:30Z</time>
      </trkpt>
      <trkpt lat="44.83169" lon="6.14243">
        <ele>1217.742</ele>
        <time>2020-04-06T06:43:50Z</time>
      </trkpt>
      <trkpt lat="44.83186" lon="6.14236">
        <ele>1223.59</ele>
        <time>2020-04-06T06:44:10Z</time>
      </trkpt>
      <trkpt lat="44.83181" lon="6.14253">
        <ele>1228.814</ele>
        <time>2020-04-06T06:44:30Z</time>
      </trkpt>
      <trkpt lat="44.83196" lon="6.14246">
        <ele>1233.415</ele>
        <time>2020-04-06T06:44:50Z</time>
      </trkpt>
      <trkpt lat="44.83193" lon="6.1426">
        <ele>1239.112</ele>
        <time>2020-04-06T06:45:10Z</time>
      </trkpt>
      <trkpt lat="44.83203" lon="6.14259">
        <ele>1243.456</ele>
        <time>2020-04-06T06:45:30Z</time>
      </trkpt>
      <trkpt lat="44.83198" lon="6.14268">
        <ele>1245.993</ele>
        <time>2020-04-06T06:45:50Z</time>
      </trkpt>
      <trkpt lat="44.83208" lon="6.14266">
        <ele>1249.659</ele>
        <time>2020-04-06T06:46:10Z</time>
      </trkpt>
      <trkpt lat="44.83209" lon="6.14277">
        <ele>1256.003</ele>
        <time>2020-04-06T06:46:30Z</time>
      </trkpt>
      <trkpt lat="44.83221" lon="6.1427">
        <ele>1259.023</ele>
        <time>2020-04-06T06:46:50Z</time>
      </trkpt>
      <trkpt lat="44.83219" lon="6.14291">
        <ele>1268.208</ele>
        <time>2020-04-06T06:47:10Z</time>
      </trkpt>
      <trkpt lat="44.83229" lon="6.14287">
        <ele>1270.021</ele>
        <time>2020-04-06T06:47:30Z</time>
      </trkpt>
      <trkpt lat="44.83226" lon="6.14306">
        <ele>1277.749</ele>
        <time>2020-04-06T06:47:50Z</time>
      </trkpt>
      <trkpt lat="44.83237" lon="6.143">
        <ele>1280.837</ele>
        <time>2020-04-06T06:48:10Z</time>
      </trkpt>
      <trkpt lat="44.83235" lon="6.14311">
        <ele>1285.891</ele>
        <time>2020-04-06T06:48:30Z</time>
      </trkpt>
      <trkpt lat="44.8325" lon="6.14328">
        <ele>1302.572</ele>
        <time>2020-04-06T06:48:50Z</time>
      </trkpt>
      <trkpt lat="44.8326" lon="6.14324">
        <ele>1304.099</ele>
        <time>2020-04-06T06:49:10Z</time>
      </trkpt>
      <trkpt lat="44.8328" lon="6.14332">
        <ele>1318.723</ele>
        <time>2020-04-06T06:49:30Z</time>
      </trkpt>
      <trkpt lat="44.8329" lon="6.14317">
        <ele>1315.42</ele>
        <time>2020-04-06T06:49:50Z</time>
      </trkpt>
      <trkpt lat="44.83305" lon="6.14302">
        <ele>1316.428</ele>
        <time>2020-04-06T06:50:10Z</time>
      </trkpt>
      <trkpt lat="44.83309" lon="6.14272">
        <ele>1303.389</ele>
        <time>2020-04-06T06:50:30Z</time>
      </trkpt>
      <trkpt lat="44.83332" lon="6.14261">
        <ele>1314.717</ele>
        <time>2020-04-06T06:50:50Z</time>
      </trkpt>
      <trkpt lat="44.83348" lon="6.14246">
        <ele>1328.208</ele>
        <time>2020-04-06T06:51:10Z</time>
      </trkpt>
      <trkpt lat="44.83335" lon="6.14233">
        <ele>1315.118</ele>
        <time>2020-04-06T06:51:30Z</time>
      </trkpt>
      <trkpt lat="44.83347" lon="6.14203">
        <ele>1322.086</ele>
        <time>2020-04-06T06:51:50Z</time>
      </trkpt>
      <trkpt lat="44.83363" lon="6.14213">
        <ele>1336.154</ele>
        <time>2020-04-06T06:52:10Z</time>
      </trkpt>
      <trkpt lat="44.83391" lon="6.14145">
        <ele>1317.518</ele>
        <time>2020-04-06T06:52:30Z</time>
      </trkpt>
      <trkpt lat="44.83441" lon="6.14106">
        <ele>1319.779</ele>
        <time>2020-04-06T06:52:50Z</time>
      </trkpt>
      <trkpt lat="44.83462" lon="6.1411">
        <ele>1332.696</ele>
        <time>2020-04-06T06:53:10Z</time>
      </trkpt>
      <trkpt lat="44.83477" lon="6.14084">
        <ele>1329.06</ele>
        <time>2020-04-06T06:53:30Z</time>
      </trkpt>
      <trkpt lat="44.83484" lon="6.14053">
        <ele>1326.157</ele>
        <time>2020-04-06T06:53:50Z</time>
      </trkpt>
      <trkpt lat="44.83492" lon="6.14074">
        <ele>1338.433</ele>
        <time>2020-04-06T06:54:10Z</time>
      </trkpt>
      <trkpt lat="44.83508" lon="6.14066">
        <ele>1348.423</ele>
        <time>2020-04-06T06:54:30Z</time>
      </trkpt>
      <trkpt lat="44.83522" lon="6.14027">
        <ele>1349.115</ele>
        <time>2020-04-06T06:54:50Z</time>
      </trkpt>
      <trkpt lat="44.83524" lon="6.14055">
        <ele>1356.908</ele>
        <time>2020-04-06T06:55:10Z</time>
      </trkpt>
      <trkpt lat="44.83597" lon="6.13981">
        <ele>1372.979</ele>
        <time>2020-04-06T06:55:30Z</time>
      </trkpt>
      <trkpt lat="44.8354" lon="6.14149">
        <ele>1401.747</ele>
        <time>2020-04-06T06:55:50Z</time>
      </trkpt>
      <trkpt lat="44.83522" lon="6.14183">
        <ele>1406.375</ele>
        <time>2020-04-06T06:56:10Z</time>
      </trkpt>
      <trkpt lat="44.83505" lon="6.14194">
        <ele>1404.599</ele>
        <time>2020-04-06T06:56:30Z</time>
      </trkpt>
      <trkpt lat="44.83465" lon="6.14278">
        <ele>1419.28</ele>
        <time>2020-04-06T06:56:50Z</time>
      </trkpt>
      <trkpt lat="44.8349" lon="6.14267">
        <ele>1426.747</ele>
        <time>2020-04-06T06:57:10Z</time>
      </trkpt>
      <trkpt lat="44.83514" lon="6.14244">
        <ele>1430.681</ele>
        <time>2020-04-06T06:57:30Z</time>
      </trkpt>
      <trkpt lat="44.83542" lon="6.14235">
        <ele>1439.398</ele>
        <time>2020-04-06T06:57:50Z</time>
      </trkpt>
      <trkpt lat="44.83519" lon="6.14285">
        <ele>1451.552</ele>
        <time>2020-04-06T06:58:10Z</time>
      </trkpt>
      <trkpt lat="44.83544" lon="6.14269">
        <ele>1456.653</ele>
        <time>2020-04-06T06:58:30Z</time>
      </trkpt>
      <trkpt lat="44.83562" lon="6.14261">
        <ele>1461.008</ele>
        <time>2020-04-06T06:58:50Z</time>
      </trkpt>
      <trkpt lat="44.83544" lon="6.14291">
        <ele>1468.608</ele>
        <time>2020-04-06T06:59:10Z</time>
      </trkpt>
      <trkpt lat="44.83571" lon="6.14277">
        <ele>1472.841</ele>
        <time>2020-04-06T06:59:30Z</time>
      </trkpt>
      <trkpt lat="44.83588" lon="6.14282">
        <ele>1484.239</ele>
        <time>2020-04-06T06:59:50Z</time>
      </trkpt>
      <trkpt lat="44.836" lon="6.14253">
        <ele>1479.817</ele>
        <time>2020-04-06T07:00:10Z</time>
      </trkpt>
      <trkpt lat="44.8363" lon="6.14247">
        <ele>1492.781</ele>
        <time>2020-04-06T07:00:30Z</time>
      </trkpt>
      <trkpt lat="44.83704" lon="6.14214">
        <ele>1513.082</ele>
        <time>2020-04-06T07:00:50Z</time>
      </trkpt>
      <trkpt lat="44.8367" lon="6.14257">
        <ele>1519.329</ele>
        <time>2020-04-06T07:01:10Z</time>
      </trkpt>
      <trkpt lat="44.8373" lon="6.14227">
        <ele>1533.753</ele>
        <time>2020-04-06T07:01:30Z</time>
      </trkpt>
      <trkpt lat="44.83763" lon="6.14192">
        <ele>1539.24</ele>
        <time>2020-04-06T07:01:50Z</time>
      </trkpt>
      <trkpt lat="44.83791" lon="6.14182">
        <ele>1549.636</ele>
        <time>2020-04-06T07:02:10Z</time>
      </trkpt>
      <trkpt lat="44.83761" lon="6.14251">
        <ele>1564.217</ele>
        <time>2020-04-06T07:02:30Z</time>
      </trkpt>
      <trkpt lat="44.83748" lon="6.14266">
        <ele>1565.318</ele>
        <time>2020-04-06T07:02:50Z</time>
      </trkpt>
      <trkpt lat="44.83795" lon="6.14235">
        <ele>1574.608</ele>
        <time>2020-04-06T07:03:10Z</time>
      </trkpt>
      <trkpt lat="44.83837" lon="6.14208">
        <ele>1579.939</ele>
        <time>2020-04-06T07:03:30Z</time>
      </trkpt>
      <trkpt lat="44.83855" lon="6.14216">
        <ele>1592.027</ele>
        <time>2020-04-06T07:03:50Z</time>
      </trkpt>
      <trkpt lat="44.8387" lon="6.14196">
        <ele>1587.365</ele>
        <time>2020-04-06T07:04:10Z</time>
      </trkpt>
      <trkpt lat="44.83915" lon="6.1419">
        <ele>1602.329</ele>
        <time>2020-04-06T07:04:30Z</time>
      </trkpt>
      <trkpt lat="44.83977" lon="6.14161">
        <ele>1614.63</ele>
        <time>2020-04-06T07:04:50Z</time>
      </trkpt>
      <trkpt lat="44.83933" lon="6.14234">
        <ele>1629.217</ele>
        <time>2020-04-06T07:05:10Z</time>
      </trkpt>
      <trkpt lat="44.8389" lon="6.14278">
        <ele>1635.531</ele>
        <time>2020-04-06T07:05:30Z</time>
      </trkpt>
      <trkpt lat="44.83939" lon="6.14267">
        <ele>1647.718</ele>
        <time>2020-04-06T07:05:50Z</time>
      </trkpt>
      <trkpt lat="44.83979" lon="6.14253">
        <ele>1656.475</ele>
        <time>2020-04-06T07:06:10Z</time>
      </trkpt>
      <trkpt lat="44.83957" lon="6.14286">
        <ele>1665.228</ele>
        <time>2020-04-06T07:06:30Z</time>
      </trkpt>
      <trkpt lat="44.83974" lon="6.14277">
        <ele>1666.02</ele>
        <time>2020-04-06T07:06:50Z</time>
      </trkpt>
      <trkpt lat="44.8397" lon="6.14292">
        <ele>1673.608</ele>
        <time>2020-04-06T07:07:10Z</time>
      </trkpt>
      <trkpt lat="44.84035" lon="6.14284">
        <ele>1691.473</ele>
        <time>2020-04-06T07:07:30Z</time>
      </trkpt>
      <trkpt lat="44.84046" lon="6.14271">
        <ele>1691.041</ele>
        <time>2020-04-06T07:07:50Z</time>
      </trkpt>
      <trkpt lat="44.84074" lon="6.14264">
        <ele>1695.439</ele>
        <time>2020-04-06T07:08:10Z</time>
      </trkpt>
      <trkpt lat="44.8405" lon="6.14289">
        <ele>1701.743</ele>
        <time>2020-04-06T07:08:30Z</time>
      </trkpt>
      <trkpt lat="44.8404" lon="6.14314">
        <ele>1708.714</ele>
        <time>2020-04-06T07:08:50Z</time>
      </trkpt>
      <trkpt lat="44.84002" lon="6.14352">
        <ele>1718.651</ele>
        <time>2020-04-06T07:09:10Z</time>
      </trkpt>
      <trkpt lat="44.84011" lon="6.14358">
        <ele>1723.645</ele>
        <time>2020-04-06T07:09:30Z</time>
      </trkpt>
      <trkpt lat="44.8404" lon="6.1435">
        <ele>1726.492</ele>
        <time>2020-04-06T07:09:50Z</time>
      </trkpt>
      <trkpt lat="44.84065" lon="6.14346">
        <ele>1734.876</ele>
        <time>2020-04-06T07:10:10Z</time>
      </trkpt>
      <trkpt lat="44.84074" lon="6.14329">
        <ele>1731.59</ele>
        <time>2020-04-06T07:10:30Z</time>
      </trkpt>
      <trkpt lat="44.84097" lon="6.14326">
        <ele>1733.319</ele>
        <time>2020-04-06T07:10:50Z</time>
      </trkpt>
      <trkpt lat="44.84115" lon="6.14344">
        <ele>1745.108</ele>
        <time>2020-04-06T07:11:10Z</time>
      </trkpt>
      <trkpt lat="44.8413" lon="6.14367">
        <ele>1754.433</ele>
        <time>2020-04-06T07:11:30Z</time>
      </trkpt>
      <trkpt lat="44.84139" lon="6.14369">
        <ele>1751.991</ele>
        <time>2020-04-06T07:11:50Z</time>
      </trkpt>
      <trkpt lat="44.84154" lon="6.14375">
        <ele>1761.199</ele>
        <time>2020-04-06T07:12:10Z</time>
      </trkpt>
      <trkpt lat="44.84195" lon="6.1431">
        <ele>1764.363</ele>
        <time>2020-04-06T07:12:30Z</time>
      </trkpt>
      <trkpt lat="44.84205" lon="6.14281">
        <ele>1760.344</ele>
        <time>2020-04-06T07:12:50Z</time>
      </trkpt>
      <trkpt lat="44.84254" lon="6.14285">
        <ele>1773.861</ele>
        <time>2020-04-06T07:13:10Z</time>
      </trkpt>
      <trkpt lat="44.84291" lon="6.14278">
        <ele>1780.065</ele>
        <time>2020-04-06T07:13:30Z</time>
      </trkpt>
      <trkpt lat="44.84319" lon="6.14282">
        <ele>1786.932</ele>
        <time>2020-04-06T07:13:50Z</time>
      </trkpt>
      <trkpt lat="44.84308" lon="6.14297">
        <ele>1793.256</ele>
        <time>2020-04-06T07:14:10Z</time>
      </trkpt>
      <trkpt lat="44.8428" lon="6.14311">
        <ele>1794.759</ele>
        <time>2020-04-06T07:14:30Z</time>
      </trkpt>
      <trkpt lat="44.84254" lon="6.14349">
        <ele>1809.414</ele>
        <time>2020-04-06T07:14:50Z</time>
      </trkpt>
      <trkpt lat="44.84237" lon="6.14354">
        <ele>1805.808</ele>
        <time>2020-04-06T07:15:10Z</time>
      </trkpt>
      <trkpt lat="44.8423" lon="6.14369">
        <ele>1809.681</ele>
        <time>2020-04-06T07:15:30Z</time>
      </trkpt>
      <trkpt lat="44.84248" lon="6.1436">
        <ele>1813.749</ele>
        <time>2020-04-06T07:15:50Z</time>
      </trkpt>
      <trkpt lat="44.84281" lon="6.14361">
        <ele>1823.117</ele>
        <time>2020-04-06T07:16:10Z</time>
      </trkpt>
      <trkpt lat="44.84302" lon="6.14356">
        <ele>1827.451</ele>
        <time>2020-04-06T07:16:30Z</time>
      </trkpt>
      <trkpt lat="44.84261" lon="6.14398">
        <ele>1836.262</ele>
        <time>2020-04-06T07:16:50Z</time>
      </trkpt>
      <trkpt lat="44.8422" lon="6.14465">
        <ele>1846.359</ele>
        <time>2020-04-06T07:17:10Z</time>
      </trkpt>
      <trkpt lat="44.84223" lon="6.14473">
        <ele>1851.823</ele>
        <time>2020-04-06T07:17:30Z</time>
      </trkpt>
      <trkpt lat="44.84252" lon="6.14465">
        <ele>1858.99</ele>
        <time>2020-04-06T07:17:50Z</time>
      </trkpt>
      <trkpt lat="44.84284" lon="6.14468">
        <ele>1868.056</ele>
        <time>2020-04-06T07:18:10Z</time>
      </trkpt>
      <trkpt lat="44.84312" lon="6.14437">
        <ele>1870.259</ele>
        <time>2020-04-06T07:18:30Z</time>
      </trkpt>
      <trkpt lat="44.84344" lon="6.1442">
        <ele>1877.214</ele>
        <time>2020-04-06T07:18:50Z</time>
      </trkpt>
      <trkpt lat="44.84374" lon="6.14435">
        <ele>1887.008</ele>
        <time>2020-04-06T07:19:10Z</time>
      </trkpt>
      <trkpt lat="44.84404" lon="6.14426">
        <ele>1890.071</ele>
        <time>2020-04-06T07:19:30Z</time>
      </trkpt>
      <trkpt lat="44.84442" lon="6.14457">
        <ele>1901.619</ele>
        <time>2020-04-06T07:19:50Z</time>
      </trkpt>
      <trkpt lat="44.84455" lon="6.14475">
        <ele>1907.397</ele>
        <time>2020-04-06T07:20:10Z</time>
      </trkpt>
      <trkpt lat="44.84479" lon="6.14486">
        <ele>1910.121</ele>
        <time>2020-04-06T07:20:30Z</time>
      </trkpt>
      <trkpt lat="44.84473" lon="6.1449">
        <ele>1913.372</ele>
        <time>2020-04-06T07:20:50Z</time>
      </trkpt>
      <trkpt lat="44.84511" lon="6.14519">
        <ele>1920.949</ele>
        <time>2020-04-06T07:21:10Z</time>
      </trkpt>
      <trkpt lat="44.8449" lon="6.14518">
        <ele>1925.193</ele>
        <time>2020-04-06T07:21:30Z</time>
      </trkpt>
      <trkpt lat="44.84507" lon="6.14538">
        <ele>1931.69</ele>
        <time>2020-04-06T07:21:50Z</time>
      </trkpt>
      <trkpt lat="44.84485" lon="6.14534">
        <ele>1932.713</ele>
        <time>2020-04-06T07:22:10Z</time>
      </trkpt>
      <trkpt lat="44.84482" lon="6.14559">
        <ele>1940.543</ele>
        <time>2020-04-06T07:22:30Z</time>
      </trkpt>
      <trkpt lat="44.84462" lon="6.14593">
        <ele>1947.207</ele>
        <time>2020-04-06T07:22:50Z</time>
      </trkpt>
      <trkpt lat="44.84468" lon="6.14602">
        <ele>1950.008</ele>
        <time>2020-04-06T07:23:10Z</time>
      </trkpt>
      <trkpt lat="44.84498" lon="6.14606">
        <ele>1952.787</ele>
        <time>2020-04-06T07:23:30Z</time>
      </trkpt>
      <trkpt lat="44.84522" lon="6.14581">
        <ele>1945.485</ele>
        <time>2020-04-06T07:23:50Z</time>
      </trkpt>
      <trkpt lat="44.84552" lon="6.14584">
        <ele>1945.363</ele>
        <time>2020-04-06T07:24:10Z</time>
      </trkpt>
      <trkpt lat="44.84615" lon="6.14534">
        <ele>1944.157</ele>
        <time>2020-04-06T07:24:30Z</time>
      </trkpt>
      <trkpt lat="44.84615" lon="6.14485">
        <ele>1938.928</ele>
        <time>2020-04-06T07:24:50Z</time>
      </trkpt>
      <trkpt lat="44.84621" lon="6.14459">
        <ele>1937.325</ele>
        <time>2020-04-06T07:25:10Z</time>
      </trkpt>
      <trkpt lat="44.84656" lon="6.14431">
        <ele>1943.849</ele>
        <time>2020-04-06T07:25:30Z</time>
      </trkpt>
      <trkpt lat="44.84713" lon="6.14428">
        <ele>1955.276</ele>
        <time>2020-04-06T07:25:50Z</time>
      </trkpt>
      <trkpt lat="44.84723" lon="6.14394">
        <ele>1953.822</ele>
        <time>2020-04-06T07:26:10Z</time>
      </trkpt>
      <trkpt lat="44.84739" lon="6.14374">
        <ele>1959.662</ele>
        <time>2020-04-06T07:26:30Z</time>
      </trkpt>
      <trkpt lat="44.84755" lon="6.14324">
        <ele>1964.008</ele>
        <time>2020-04-06T07:26:50Z</time>
      </trkpt>
      <trkpt lat="44.8477" lon="6.14312">
        <ele>1973.208</ele>
        <time>2020-04-06T07:27:10Z</time>
      </trkpt>
      <trkpt lat="44.84779" lon="6.14273">
        <ele>1966.388</ele>
        <time>2020-04-06T07:27:30Z</time>
      </trkpt>
      <trkpt lat="44.84813" lon="6.14223">
        <ele>1967.566</ele>
        <time>2020-04-06T07:27:50Z</time>
      </trkpt>
      <trkpt lat="44.84812" lon="6.14203">
        <ele>1960.124</ele>
        <time>2020-04-06T07:28:10Z</time>
      </trkpt>
      <trkpt lat="44.84834" lon="6.14178">
        <ele>1968.588</ele>
        <time>2020-04-06T07:28:30Z</time>
      </trkpt>
      <trkpt lat="44.84839" lon="6.14127">
        <ele>1967.899</ele>
        <time>2020-04-06T07:28:50Z</time>
      </trkpt>
      <trkpt lat="44.84852" lon="6.14076">
        <ele>1972.216</ele>
        <time>2020-04-06T07:29:10Z</time>
      </trkpt>
      <trkpt lat="44.84899" lon="6.14002">
        <ele>1984.87</ele>
        <time>2020-04-06T07:29:30Z</time>
      </trkpt>
      <trkpt lat="44.84934" lon="6.13964">
        <ele>1996.947</ele>
        <time>2020-04-06T07:29:50Z</time>
      </trkpt>
      <trkpt lat="44.84944" lon="6.1393">
        <ele>1995.866</ele>
        <time>2020-04-06T07:30:10Z</time>
      </trkpt>
      <trkpt lat="44.84959" lon="6.13917">
        <ele>2001.229</ele>
        <time>2020-04-06T07:30:30Z</time>
      </trkpt>
      <trkpt lat="44.84954" lon="6.13949">
        <ele>2006.421</ele>
        <time>2020-04-06T07:30:50Z</time>
      </trkpt>
      <trkpt lat="44.84953" lon="6.13994">
        <ele>2016.708</ele>
        <time>2020-04-06T07:31:10Z</time>
      </trkpt>
      <trkpt lat="44.84948" lon="6.14024">
        <ele>2023.542</ele>
        <time>2020-04-06T07:31:30Z</time>
      </trkpt>
      <trkpt lat="44.84934" lon="6.14063">
        <ele>2037.58</ele>
        <time>2020-04-06T07:31:50Z</time>
      </trkpt>
      <trkpt lat="44.84988" lon="6.14009">
        <ele>2045.658</ele>
        <time>2020-04-06T07:32:10Z</time>
      </trkpt>
      <trkpt lat="44.85004" lon="6.13981">
        <ele>2046.572</ele>
        <time>2020-04-06T07:32:30Z</time>
      </trkpt>
      <trkpt lat="44.85028" lon="6.13955">
        <ele>2054.563</ele>
        <time>2020-04-06T07:32:50Z</time>
      </trkpt>
      <trkpt lat="44.85061" lon="6.13897">
        <ele>2067.82</ele>
        <time>2020-04-06T07:33:10Z</time>
      </trkpt>
      <trkpt lat="44.85065" lon="6.1387">
        <ele>2065.524</ele>
        <time>2020-04-06T07:33:30Z</time>
      </trkpt>
      <trkpt lat="44.85078" lon="6.13863">
        <ele>2074.211</ele>
        <time>2020-04-06T07:33:50Z</time>
      </trkpt>
      <trkpt lat="44.851" lon="6.13835">
        <ele>2086.651</ele>
        <time>2020-04-06T07:34:10Z</time>
      </trkpt>
      <trkpt lat="44.85104" lon="6.1382">
        <ele>2089.201</ele>
        <time>2020-04-06T07:34:30Z</time>
      </trkpt>
      <trkpt lat="44.85089" lon="6.13826">
        <ele>2080.011</ele>
        <time>2020-04-06T07:34:50Z</time>
      </trkpt>
      <trkpt lat="44.85068" lon="6.13822">
        <ele>2068.708</ele>
        <time>2020-04-06T07:35:10Z</time>
      </trkpt>
      <trkpt lat="44.85061" lon="6.13762">
        <ele>2066.211</ele>
        <time>2020-04-06T07:35:30Z</time>
      </trkpt>
      <trkpt lat="44.85073" lon="6.1371">
        <ele>2063.279</ele>
        <time>2020-04-06T07:35:50Z</time>
      </trkpt>
      <trkpt lat="44.8506" lon="6.13732">
        <ele>2060.827</ele>
        <time>2020-04-06T07:36:10Z</time>
      </trkpt>
      <trkpt lat="44.85041" lon="6.13738">
        <ele>2050.891</ele>
        <time>2020-04-06T07:36:30Z</time>
      </trkpt>
      <trkpt lat="44.85075" lon="6.13684">
        <ele>2055.662</ele>
        <time>2020-04-06T07:36:50Z</time>
      </trkpt>
      <trkpt lat="44.85074" lon="6.13637">
        <ele>2040.259</ele>
        <time>2020-04-06T07:37:10Z</time>
      </trkpt>
      <trkpt lat="44.8508" lon="6.13617">
        <ele>2035.313</ele>
        <time>2020-04-06T07:37:30Z</time>
      </trkpt>
      <trkpt lat="44.851" lon="6.13598">
        <ele>2051.31</ele>
        <time>2020-04-06T07:37:50Z</time>
      </trkpt>
      <trkpt lat="44.85107" lon="6.13584">
        <ele>2052.322</ele>
        <time>2020-04-06T07:38:10Z</time>
      </trkpt>
      <trkpt lat="44.85084" lon="6.13584">
        <ele>2043.162</ele>
        <time>2020-04-06T07:38:30Z</time>
      </trkpt>
      <trkpt lat="44.85054" lon="6.13571">
        <ele>2038.608</ele>
        <time>2020-04-06T07:38:50Z</time>
      </trkpt>
      <trkpt lat="44.85049" lon="6.13553">
        <ele>2047.108</ele>
        <time>2020-04-06T07:39:10Z</time>
      </trkpt>
      <trkpt lat="44.85038" lon="6.13547">
        <ele>2040.888</ele>
        <time>2020-04-06T07:39:30Z</time>
      </trkpt>
      <trkpt lat="44.85042" lon="6.13522">
        <ele>2051.826</ele>
        <time>2020-04-06T07:39:50Z</time>
      </trkpt>
      <trkpt lat="44.85034" lon="6.13502">
        <ele>2051.654</ele>
        <time>2020-04-06T07:40:10Z</time>
      </trkpt>
      <trkpt lat="44.85007" lon="6.13497">
        <ele>2047.978</ele>
        <time>2020-04-06T07:40:30Z</time>
      </trkpt>
      <trkpt lat="44.84993" lon="6.13482">
        <ele>2049.019</ele>
        <time>2020-04-06T07:40:50Z</time>
      </trkpt>
      <trkpt lat="44.84978" lon="6.13483">
        <ele>2045.746</ele>
        <time>2020-04-06T07:41:10Z</time>
      </trkpt>
      <trkpt lat="44.84973" lon="6.13476">
        <ele>2045.85</ele>
        <time>2020-04-06T07:41:30Z</time>
      </trkpt>
      <trkpt lat="44.8497" lon="6.1346">
        <ele>2046.577</ele>
        <time>2020-04-06T07:41:50Z</time>
      </trkpt>
      <trkpt lat="44.84966" lon="6.13446">
        <ele>2046.112</ele>
        <time>2020-04-06T07:42:10Z</time>
      </trkpt>
      <trkpt lat="44.84966" lon="6.13428">
        <ele>2049.032</ele>
        <time>2020-04-06T07:42:30Z</time>
      </trkpt>
      <trkpt lat="44.84945" lon="6.13423">
        <ele>2042.605</ele>
        <time>2020-04-06T07:42:50Z</time>
      </trkpt>
      <trkpt lat="44.8494" lon="6.13398">
        <ele>2047.508</ele>
        <time>2020-04-06T07:43:10Z</time>
      </trkpt>
      <trkpt lat="44.84914" lon="6.13361">
        <ele>2045.917</ele>
        <time>2020-04-06T07:43:30Z</time>
      </trkpt>
      <trkpt lat="44.84907" lon="6.13332">
        <ele>2045.765</ele>
        <time>2020-04-06T07:43:50Z</time>
      </trkpt>
      <trkpt lat="44.84906" lon="6.13304">
        <ele>2047.823</ele>
        <time>2020-04-06T07:44:10Z</time>
      </trkpt>
      <trkpt lat="44.84876" lon="6.13274">
        <ele>2038.917</ele>
        <time>2020-04-06T07:44:30Z</time>
      </trkpt>
      <trkpt lat="44.84872" lon="6.13257">
        <ele>2041.998</ele>
        <time>2020-04-06T07:44:50Z</time>
      </trkpt>
      <trkpt lat="44.84839" lon="6.13229">
        <ele>2033.665</ele>
        <time>2020-04-06T07:45:10Z</time>
      </trkpt>
      <trkpt lat="44.84823" lon="6.13204">
        <ele>2027.999</ele>
        <time>2020-04-06T07:45:30Z</time>
      </trkpt>
      <trkpt lat="44.84823" lon="6.13183">
        <ele>2032.386</ele>
        <time>2020-04-06T07:45:50Z</time>
      </trkpt>
      <trkpt lat="44.84811" lon="6.13158">
        <ele>2023.192</ele>
        <time>2020-04-06T07:46:10Z</time>
      </trkpt>
      <trkpt lat="44.84803" lon="6.13127">
        <ele>2019.473</ele>
        <time>2020-04-06T07:46:30Z</time>
      </trkpt>
      <trkpt lat="44.84804" lon="6.13089">
        <ele>2024.22</ele>
        <time>2020-04-06T07:46:50Z</time>
      </trkpt>
      <trkpt lat="44.84798" lon="6.1306">
        <ele>2023.508</ele>
        <time>2020-04-06T07:47:10Z</time>
      </trkpt>
      <trkpt lat="44.84791" lon="6.13028">
        <ele>2027.285</ele>
        <time>2020-04-06T07:47:30Z</time>
      </trkpt>
      <trkpt lat="44.84773" lon="6.12999">
        <ele>2024.313</ele>
        <time>2020-04-06T07:47:50Z</time>
      </trkpt>
      <trkpt lat="44.84766" lon="6.12959">
        <ele>2028.471</ele>
        <time>2020-04-06T07:48:10Z</time>
      </trkpt>
      <trkpt lat="44.84765" lon="6.12944">
        <ele>2030.885</ele>
        <time>2020-04-06T07:48:30Z</time>
      </trkpt>
      <trkpt lat="44.84753" lon="6.12903">
        <ele>2031.896</ele>
        <time>2020-04-06T07:48:50Z</time>
      </trkpt>
      <trkpt lat="44.84759" lon="6.12843">
        <ele>2041.473</ele>
        <time>2020-04-06T07:49:10Z</time>
      </trkpt>
      <trkpt lat="44.84739" lon="6.12793">
        <ele>2040.927</ele>
        <time>2020-04-06T07:49:30Z</time>
      </trkpt>
      <trkpt lat="44.84736" lon="6.12767">
        <ele>2046.314</ele>
        <time>2020-04-06T07:49:50Z</time>
      </trkpt>
      <trkpt lat="44.8472" lon="6.12731">
        <ele>2046.834</ele>
        <time>2020-04-06T07:50:10Z</time>
      </trkpt>
      <trkpt lat="44.84712" lon="6.12687">
        <ele>2050.155</ele>
        <time>2020-04-06T07:50:30Z</time>
      </trkpt>
      <trkpt lat="44.84711" lon="6.12641">
        <ele>2055.01</ele>
        <time>2020-04-06T07:50:50Z</time>
      </trkpt>
      <trkpt lat="44.84714" lon="6.12603">
        <ele>2060.408</ele>
        <time>2020-04-06T07:51:10Z</time>
      </trkpt>
      <trkpt lat="44.84696" lon="6.12535">
        <ele>2065.099</ele>
        <time>2020-04-06T07:51:30Z</time>
      </trkpt>
      <trkpt lat="44.84679" lon="6.12519">
        <ele>2065.397</ele>
        <time>2020-04-06T07:51:50Z</time>
      </trkpt>
      <trkpt lat="44.84635" lon="6.12481">
        <ele>2067.835</ele>
        <time>2020-04-06T07:52:10Z</time>
      </trkpt>
      <trkpt lat="44.84629" lon="6.12462">
        <ele>2070.149</ele>
        <time>2020-04-06T07:52:30Z</time>
      </trkpt>
      <trkpt lat="44.84617" lon="6.12449">
        <ele>2070.23</ele>
        <time>2020-04-06T07:52:50Z</time>
      </trkpt>
      <trkpt lat="44.84613" lon="6.12415">
        <ele>2073.927</ele>
        <time>2020-04-06T07:53:10Z</time>
      </trkpt>
      <trkpt lat="44.84602" lon="6.12372">
        <ele>2076.931</ele>
        <time>2020-04-06T07:53:30Z</time>
      </trkpt>
      <trkpt lat="44.84603" lon="6.12335">
        <ele>2081.638</ele>
        <time>2020-04-06T07:53:50Z</time>
      </trkpt>
      <trkpt lat="44.84584" lon="6.12308">
        <ele>2080.735</ele>
        <time>2020-04-06T07:54:10Z</time>
      </trkpt>
      <trkpt lat="44.84558" lon="6.12302">
        <ele>2083.886</ele>
        <time>2020-04-06T07:54:30Z</time>
      </trkpt>
      <trkpt lat="44.84537" lon="6.12314">
        <ele>2087.714</ele>
        <time>2020-04-06T07:54:50Z</time>
      </trkpt>
      <trkpt lat="44.8452" lon="6.12345">
        <ele>2085.508</ele>
        <time>2020-04-06T07:55:10Z</time>
      </trkpt>
      <trkpt lat="44.84485" lon="6.12377">
        <ele>2087.389</ele>
        <time>2020-04-06T07:55:30Z</time>
      </trkpt>
      <trkpt lat="44.84459" lon="6.12389">
        <ele>2094.197</ele>
        <time>2020-04-06T07:55:50Z</time>
      </trkpt>
      <trkpt lat="44.84434" lon="6.12421">
        <ele>2097.215</ele>
        <time>2020-04-06T07:56:10Z</time>
      </trkpt>
      <trkpt lat="44.84408" lon="6.1244">
        <ele>2108.819</ele>
        <time>2020-04-06T07:56:30Z</time>
      </trkpt>
      <trkpt lat="44.84428" lon="6.12397">
        <ele>2109.85</ele>
        <time>2020-04-06T07:56:50Z</time>
      </trkpt>
      <trkpt lat="44.84432" lon="6.12373">
        <ele>2117.757</ele>
        <time>2020-04-06T07:57:10Z</time>
      </trkpt>
      <trkpt lat="44.8441" lon="6.12403">
        <ele>2120.241</ele>
        <time>2020-04-06T07:57:30Z</time>
      </trkpt>
      <trkpt lat="44.84424" lon="6.12356">
        <ele>2133.968</ele>
        <time>2020-04-06T07:57:50Z</time>
      </trkpt>
      <trkpt lat="44.84387" lon="6.12398">
        <ele>2144.672</ele>
        <time>2020-04-06T07:58:10Z</time>
      </trkpt>
      <trkpt lat="44.84393" lon="6.12366">
        <ele>2148.213</ele>
        <time>2020-04-06T07:58:30Z</time>
      </trkpt>
      <trkpt lat="44.84385" lon="6.1237">
        <ele>2152.814</ele>
        <time>2020-04-06T07:58:50Z</time>
      </trkpt>
      <trkpt lat="44.84398" lon="6.12343">
        <ele>2156.508</ele>
        <time>2020-04-06T07:59:10Z</time>
      </trkpt>
      <trkpt lat="44.84376" lon="6.12357">
        <ele>2164.833</ele>
        <time>2020-04-06T07:59:30Z</time>
      </trkpt>
      <trkpt lat="44.84399" lon="6.12322">
        <ele>2168.361</ele>
        <time>2020-04-06T07:59:50Z</time>
      </trkpt>
      <trkpt lat="44.84417" lon="6.12311">
        <ele>2169.329</ele>
        <time>2020-04-06T08:00:10Z</time>
      </trkpt>
      <trkpt lat="44.84387" lon="6.12316">
        <ele>2175.113</ele>
        <time>2020-04-06T08:00:30Z</time>
      </trkpt>
      <trkpt lat="44.84365" lon="6.12335">
        <ele>2181.934</ele>
        <time>2020-04-06T08:00:50Z</time>
      </trkpt>
      <trkpt lat="44.84383" lon="6.12299">
        <ele>2184.891</ele>
        <time>2020-04-06T08:01:10Z</time>
      </trkpt>
      <trkpt lat="44.84403" lon="6.12284">
        <ele>2186.245</ele>
        <time>2020-04-06T08:01:30Z</time>
      </trkpt>
      <trkpt lat="44.84418" lon="6.12282">
        <ele>2184.922</ele>
        <time>2020-04-06T08:01:50Z</time>
      </trkpt>
      <trkpt lat="44.84387" lon="6.12254">
        <ele>2195.655</ele>
        <time>2020-04-06T08:02:10Z</time>
      </trkpt>
      <trkpt lat="44.84359" lon="6.12276">
        <ele>2200.207</ele>
        <time>2020-04-06T08:02:30Z</time>
      </trkpt>
      <trkpt lat="44.84349" lon="6.12316">
        <ele>2199.317</ele>
        <time>2020-04-06T08:02:50Z</time>
      </trkpt>
      <trkpt lat="44.84347" lon="6.12274">
        <ele>2208.808</ele>
        <time>2020-04-06T08:03:10Z</time>
      </trkpt>
      <trkpt lat="44.84368" lon="6.12216">
        <ele>2211.381</ele>
        <time>2020-04-06T08:03:30Z</time>
      </trkpt>
      <trkpt lat="44.84372" lon="6.12181">
        <ele>2219.139</ele>
        <time>2020-04-06T08:03:50Z</time>
      </trkpt>
      <trkpt lat="44.8439" lon="6.12164">
        <ele>2219.497</ele>
        <time>2020-04-06T08:04:10Z</time>
      </trkpt>
      <trkpt lat="44.84409" lon="6.12164">
        <ele>2225.511</ele>
        <time>2020-04-06T08:04:30Z</time>
      </trkpt>
      <trkpt lat="44.84427" lon="6.12192">
        <ele>2222.632</ele>
        <time>2020-04-06T08:04:50Z</time>
      </trkpt>
      <trkpt lat="44.8441" lon="6.12127">
        <ele>2236.719</ele>
        <time>2020-04-06T08:05:10Z</time>
      </trkpt>
      <trkpt lat="44.84391" lon="6.1212">
        <ele>2234.413</ele>
        <time>2020-04-06T08:05:30Z</time>
      </trkpt>
      <trkpt lat="44.84346" lon="6.12151">
        <ele>2241.82</ele>
        <time>2020-04-06T08:05:50Z</time>
      </trkpt>
      <trkpt lat="44.84369" lon="6.12103">
        <ele>2247.279</ele>
        <time>2020-04-06T08:06:10Z</time>
      </trkpt>
      <trkpt lat="44.84388" lon="6.1208">
        <ele>2248.505</ele>
        <time>2020-04-06T08:06:30Z</time>
      </trkpt>
      <trkpt lat="44.84404" lon="6.1205">
        <ele>2258.825</ele>
        <time>2020-04-06T08:06:50Z</time>
      </trkpt>
      <trkpt lat="44.84435" lon="6.12046">
        <ele>2264.008</ele>
        <time>2020-04-06T08:07:10Z</time>
      </trkpt>
      <trkpt lat="44.84453" lon="6.12035">
        <ele>2263.793</ele>
        <time>2020-04-06T08:07:30Z</time>
      </trkpt>
      <trkpt lat="44.84474" lon="6.12001">
        <ele>2266.511</ele>
        <time>2020-04-06T08:07:50Z</time>
      </trkpt>
      <trkpt lat="44.84517" lon="6.11984">
        <ele>2267.669</ele>
        <time>2020-04-06T08:08:10Z</time>
      </trkpt>
      <trkpt lat="44.84528" lon="6.11967">
        <ele>2272.313</ele>
        <time>2020-04-06T08:08:30Z</time>
      </trkpt>
      <trkpt lat="44.84556" lon="6.11973">
        <ele>2274.194</ele>
        <time>2020-04-06T08:08:50Z</time>
      </trkpt>
      <trkpt lat="44.84578" lon="6.11993">
        <ele>2274.821</ele>
        <time>2020-04-06T08:09:10Z</time>
      </trkpt>
      <trkpt lat="44.84596" lon="6.11998">
        <ele>2277.875</ele>
        <time>2020-04-06T08:09:30Z</time>
      </trkpt>
      <trkpt lat="44.84611" lon="6.12003">
        <ele>2279.132</ele>
        <time>2020-04-06T08:09:50Z</time>
      </trkpt>
      <trkpt lat="44.84595" lon="6.11975">
        <ele>2288.049</ele>
        <time>2020-04-06T08:10:10Z</time>
      </trkpt>
      <trkpt lat="44.84576" lon="6.11969">
        <ele>2286.202</ele>
        <time>2020-04-06T08:10:30Z</time>
      </trkpt>
      <trkpt lat="44.84616" lon="6.11966">
        <ele>2292.022</ele>
        <time>2020-04-06T08:10:50Z</time>
      </trkpt>
      <trkpt lat="44.84635" lon="6.11941">
        <ele>2299.908</ele>
        <time>2020-04-06T08:11:10Z</time>
      </trkpt>
      <trkpt lat="44.8467" lon="6.11927">
        <ele>2303.48</ele>
        <time>2020-04-06T08:11:30Z</time>
      </trkpt>
      <trkpt lat="44.84704" lon="6.11926">
        <ele>2306.618</ele>
        <time>2020-04-06T08:11:50Z</time>
      </trkpt>
      <trkpt lat="44.8467" lon="6.11897">
        <ele>2318.576</ele>
        <time>2020-04-06T08:12:10Z</time>
      </trkpt>
      <trkpt lat="44.84622" lon="6.11904">
        <ele>2320.89</ele>
        <time>2020-04-06T08:12:30Z</time>
      </trkpt>
      <trkpt lat="44.84565" lon="6.1186">
        <ele>2332.691</ele>
        <time>2020-04-06T08:12:50Z</time>
      </trkpt>
      <trkpt lat="44.84543" lon="6.11827">
        <ele>2340.458</ele>
        <time>2020-04-06T08:13:10Z</time>
      </trkpt>
      <trkpt lat="44.84526" lon="6.11823">
        <ele>2339.482</ele>
        <time>2020-04-06T08:13:30Z</time>
      </trkpt>
      <trkpt lat="44.8451" lon="6.11813">
        <ele>2343.759</ele>
        <time>2020-04-06T08:13:50Z</time>
      </trkpt>
      <trkpt lat="44.84467" lon="6.11815">
        <ele>2352.338</ele>
        <time>2020-04-06T08:14:10Z</time>
      </trkpt>
      <trkpt lat="44.84481" lon="6.11793">
        <ele>2357.97</ele>
        <time>2020-04-06T08:14:30Z</time>
      </trkpt>
      <trkpt lat="44.84508" lon="6.11773">
        <ele>2364.617</ele>
        <time>2020-04-06T08:14:50Z</time>
      </trkpt>
      <trkpt lat="44.84554" lon="6.11763">
        <ele>2372.308</ele>
        <time>2020-04-06T08:15:10Z</time>
      </trkpt>
      <trkpt lat="44.84606" lon="6.11776">
        <ele>2376.179</ele>
        <time>2020-04-06T08:15:30Z</time>
      </trkpt>
      <trkpt lat="44.8463" lon="6.11764">
        <ele>2378.167</ele>
        <time>2020-04-06T08:15:50Z</time>
      </trkpt>
      <trkpt lat="44.84652" lon="6.11734">
        <ele>2385.735</ele>
        <time>2020-04-06T08:16:10Z</time>
      </trkpt>
      <trkpt lat="44.84637" lon="6.11732">
        <ele>2389.429</ele>
        <time>2020-04-06T08:16:30Z</time>
      </trkpt>
      <trkpt lat="44.84615" lon="6.11752">
        <ele>2387.75</ele>
        <time>2020-04-06T08:16:50Z</time>
      </trkpt>
      <trkpt lat="44.84606" lon="6.1175">
        <ele>2388.987</ele>
        <time>2020-04-06T08:17:10Z</time>
      </trkpt>
      <trkpt lat="44.846" lon="6.11736">
        <ele>2392.541</ele>
        <time>2020-04-06T08:17:30Z</time>
      </trkpt>
      <trkpt lat="44.8458" lon="6.1173">
        <ele>2393.018</ele>
        <time>2020-04-06T08:17:50Z</time>
      </trkpt>
      <trkpt lat="44.84551" lon="6.11707">
        <ele>2400.348</ele>
        <time>2020-04-06T08:18:10Z</time>
      </trkpt>
      <trkpt lat="44.84515" lon="6.11699">
        <ele>2404.561</ele>
        <time>2020-04-06T08:18:30Z</time>
      </trkpt>
      <trkpt lat="44.84546" lon="6.1169">
        <ele>2408.317</ele>
        <time>2020-04-06T08:18:50Z</time>
      </trkpt>
      <trkpt lat="44.84547" lon="6.11652">
        <ele>2419.808</ele>
        <time>2020-04-06T08:19:10Z</time>
      </trkpt>
      <trkpt lat="44.84599" lon="6.11584">
        <ele>2432.72</ele>
        <time>2020-04-06T08:19:30Z</time>
      </trkpt>
      <trkpt lat="44.84638" lon="6.11569">
        <ele>2440.888</ele>
        <time>2020-04-06T08:19:50Z</time>
      </trkpt>
      <trkpt lat="44.84729" lon="6.11645">
        <ele>2448.836</ele>
        <time>2020-04-06T08:20:10Z</time>
      </trkpt>
      <trkpt lat="44.84752" lon="6.11645">
        <ele>2457.68</ele>
        <time>2020-04-06T08:20:30Z</time>
      </trkpt>
      <trkpt lat="44.84729" lon="6.11617">
        <ele>2461.071</ele>
        <time>2020-04-06T08:20:50Z</time>
      </trkpt>
      <trkpt lat="44.84695" lon="6.11531">
        <ele>2485.848</ele>
        <time>2020-04-06T08:21:10Z</time>
      </trkpt>
      <trkpt lat="44.84656" lon="6.11484">
        <ele>2496.312</ele>
        <time>2020-04-06T08:21:30Z</time>
      </trkpt>
      <trkpt lat="44.84685" lon="6.11486">
        <ele>2496.139</ele>
        <time>2020-04-06T08:21:50Z</time>
      </trkpt>
      <trkpt lat="44.84692" lon="6.11391">
        <ele>2464.421</ele>
        <time>2020-04-06T08:22:10Z</time>
      </trkpt>
      <trkpt lat="44.84699" lon="6.11377">
        <ele>2457.141</ele>
        <time>2020-04-06T08:22:30Z</time>
      </trkpt>
      <trkpt lat="44.84703" lon="6.11352">
        <ele>2450.905</ele>
        <time>2020-04-06T08:22:50Z</time>
      </trkpt>
      <trkpt lat="44.8471" lon="6.11356">
        <ele>2446.208</ele>
        <time>2020-04-06T08:23:10Z</time>
      </trkpt>
      <trkpt lat="44.84711" lon="6.11325">
        <ele>2443.728</ele>
        <time>2020-04-06T08:23:30Z</time>
      </trkpt>
      <trkpt lat="44.84718" lon="6.11305">
        <ele>2438.646</ele>
        <time>2020-04-06T08:23:50Z</time>
      </trkpt>
      <trkpt lat="44.84725" lon="6.11335">
        <ele>2434.394</ele>
        <time>2020-04-06T08:24:10Z</time>
      </trkpt>
      <trkpt lat="44.84735" lon="6.11303">
        <ele>2426.758</ele>
        <time>2020-04-06T08:24:30Z</time>
      </trkpt>
      <trkpt lat="44.84749" lon="6.11366">
        <ele>2423.029</ele>
        <time>2020-04-06T08:24:50Z</time>
      </trkpt>
      <trkpt lat="44.84755" lon="6.11355">
        <ele>2417.696</ele>
        <time>2020-04-06T08:25:10Z</time>
      </trkpt>
      <trkpt lat="44.84763" lon="6.11369">
        <ele>2414.46</ele>
        <time>2020-04-06T08:25:30Z</time>
      </trkpt>
      <trkpt lat="44.84784" lon="6.11297">
        <ele>2393.387</ele>
        <time>2020-04-06T08:25:50Z</time>
      </trkpt>
      <trkpt lat="44.8479" lon="6.11311">
        <ele>2390.926</ele>
        <time>2020-04-06T08:26:10Z</time>
      </trkpt>
      <trkpt lat="44.84796" lon="6.11291">
        <ele>2384.647</ele>
        <time>2020-04-06T08:26:30Z</time>
      </trkpt>
      <trkpt lat="44.84802" lon="6.11312">
        <ele>2383.311</ele>
        <time>2020-04-06T08:26:50Z</time>
      </trkpt>
      <trkpt lat="44.84807" lon="6.11282">
        <ele>2375.708</ele>
        <time>2020-04-06T08:27:10Z</time>
      </trkpt>
      <trkpt lat="44.84818" lon="6.11305">
        <ele>2373.298</ele>
        <time>2020-04-06T08:27:30Z</time>
      </trkpt>
      <trkpt lat="44.84818" lon="6.11281">
        <ele>2369.886</ele>
        <time>2020-04-06T08:27:50Z</time>
      </trkpt>
      <trkpt lat="44.84829" lon="6.11303">
        <ele>2367.254</ele>
        <time>2020-04-06T08:28:10Z</time>
      </trkpt>
      <trkpt lat="44.84831" lon="6.11277">
        <ele>2361.938</ele>
        <time>2020-04-06T08:28:30Z</time>
      </trkpt>
      <trkpt lat="44.84845" lon="6.11296">
        <ele>2357.489</ele>
        <time>2020-04-06T08:28:50Z</time>
      </trkpt>
      <trkpt lat="44.84846" lon="6.11277">
        <ele>2353.286</ele>
        <time>2020-04-06T08:29:10Z</time>
      </trkpt>
      <trkpt lat="44.84856" lon="6.11293">
        <ele>2350.38</ele>
        <time>2020-04-06T08:29:30Z</time>
      </trkpt>
      <trkpt lat="44.84859" lon="6.11275">
        <ele>2345.877</ele>
        <time>2020-04-06T08:29:50Z</time>
      </trkpt>
      <trkpt lat="44.84871" lon="6.11288">
        <ele>2341.843</ele>
        <time>2020-04-06T08:30:10Z</time>
      </trkpt>
      <trkpt lat="44.84873" lon="6.11266">
        <ele>2335.364</ele>
        <time>2020-04-06T08:30:30Z</time>
      </trkpt>
      <trkpt lat="44.84883" lon="6.1127">
        <ele>2331.01</ele>
        <time>2020-04-06T08:30:50Z</time>
      </trkpt>
      <trkpt lat="44.84885" lon="6.11254">
        <ele>2325.908</ele>
        <time>2020-04-06T08:31:10Z</time>
      </trkpt>
      <trkpt lat="44.84895" lon="6.1126">
        <ele>2323.01</ele>
        <time>2020-04-06T08:31:30Z</time>
      </trkpt>
      <trkpt lat="44.84895" lon="6.11247">
        <ele>2319.258</ele>
        <time>2020-04-06T08:31:50Z</time>
      </trkpt>
      <trkpt lat="44.84902" lon="6.11256">
        <ele>2318.816</ele>
        <time>2020-04-06T08:32:10Z</time>
      </trkpt>
      <trkpt lat="44.84901" lon="6.1124">
        <ele>2313.94</ele>
        <time>2020-04-06T08:32:30Z</time>
      </trkpt>
      <trkpt lat="44.84908" lon="6.11246">
        <ele>2313.221</ele>
        <time>2020-04-06T08:32:50Z</time>
      </trkpt>
      <trkpt lat="44.84909" lon="6.11237">
        <ele>2309.588</ele>
        <time>2020-04-06T08:33:10Z</time>
      </trkpt>
      <trkpt lat="44.84915" lon="6.11242">
        <ele>2308.852</ele>
        <time>2020-04-06T08:33:30Z</time>
      </trkpt>
      <trkpt lat="44.84918" lon="6.11231">
        <ele>2303.729</ele>
        <time>2020-04-06T08:33:50Z</time>
      </trkpt>
      <trkpt lat="44.84927" lon="6.11234">
        <ele>2302.377</ele>
        <time>2020-04-06T08:34:10Z</time>
      </trkpt>
      <trkpt lat="44.84934" lon="6.11226">
        <ele>2297.461</ele>
        <time>2020-04-06T08:34:30Z</time>
      </trkpt>
      <trkpt lat="44.84935" lon="6.11213">
        <ele>2290.527</ele>
        <time>2020-04-06T08:34:50Z</time>
      </trkpt>
      <trkpt lat="44.84954" lon="6.11213">
        <ele>2285.908</ele>
        <time>2020-04-06T08:35:10Z</time>
      </trkpt>
      <trkpt lat="44.84978" lon="6.11206">
        <ele>2277.893</ele>
        <time>2020-04-06T08:35:30Z</time>
      </trkpt>
      <trkpt lat="44.8499" lon="6.11197">
        <ele>2273.041</ele>
        <time>2020-04-06T08:35:50Z</time>
      </trkpt>
      <trkpt lat="44.84983" lon="6.11186">
        <ele>2266.989</ele>
        <time>2020-04-06T08:36:10Z</time>
      </trkpt>
      <trkpt lat="44.85023" lon="6.11163">
        <ele>2253.023</ele>
        <time>2020-04-06T08:36:30Z</time>
      </trkpt>
      <trkpt lat="44.85023" lon="6.11149">
        <ele>2246.024</ele>
        <time>2020-04-06T08:36:50Z</time>
      </trkpt>
      <trkpt lat="44.85045" lon="6.11145">
        <ele>2240.481</ele>
        <time>2020-04-06T08:37:10Z</time>
      </trkpt>
      <trkpt lat="44.85039" lon="6.11132">
        <ele>2235.245</ele>
        <time>2020-04-06T08:37:30Z</time>
      </trkpt>
      <trkpt lat="44.85048" lon="6.1113">
        <ele>2232.462</ele>
        <time>2020-04-06T08:37:50Z</time>
      </trkpt>
      <trkpt lat="44.8504" lon="6.11115">
        <ele>2226.582</ele>
        <time>2020-04-06T08:38:10Z</time>
      </trkpt>
      <trkpt lat="44.85048" lon="6.11109">
        <ele>2223.443</ele>
        <time>2020-04-06T08:38:30Z</time>
      </trkpt>
      <trkpt lat="44.85044" lon="6.11098">
        <ele>2218.217</ele>
        <time>2020-04-06T08:38:50Z</time>
      </trkpt>
      <trkpt lat="44.85057" lon="6.1109">
        <ele>2215.508</ele>
        <time>2020-04-06T08:39:10Z</time>
      </trkpt>
      <trkpt lat="44.85072" lon="6.1109">
        <ele>2212.654</ele>
        <time>2020-04-06T08:39:30Z</time>
      </trkpt>
      <trkpt lat="44.8507" lon="6.1108">
        <ele>2208.972</ele>
        <time>2020-04-06T08:39:50Z</time>
      </trkpt>
      <trkpt lat="44.85084" lon="6.11086">
        <ele>2208.68</ele>
        <time>2020-04-06T08:40:10Z</time>
      </trkpt>
      <trkpt lat="44.851" lon="6.11082">
        <ele>2201.024</ele>
        <time>2020-04-06T08:40:30Z</time>
      </trkpt>
      <trkpt lat="44.85128" lon="6.11062">
        <ele>2189.555</ele>
        <time>2020-04-06T08:40:50Z</time>
      </trkpt>
      <trkpt lat="44.8514" lon="6.11026">
        <ele>2178.262</ele>
        <time>2020-04-06T08:41:10Z</time>
      </trkpt>
      <trkpt lat="44.85186" lon="6.10936">
        <ele>2148.926</ele>
        <time>2020-04-06T08:41:30Z</time>
      </trkpt>
      <trkpt lat="44.85199" lon="6.10941">
        <ele>2151.513</ele>
        <time>2020-04-06T08:41:50Z</time>
      </trkpt>
      <trkpt lat="44.85263" lon="6.10929">
        <ele>2139.421</ele>
        <time>2020-04-06T08:42:10Z</time>
      </trkpt>
      <trkpt lat="44.85318" lon="6.10899">
        <ele>2125.041</ele>
        <time>2020-04-06T08:42:30Z</time>
      </trkpt>
      <trkpt lat="44.85352" lon="6.10911">
        <ele>2121.105</ele>
        <time>2020-04-06T08:42:50Z</time>
      </trkpt>
      <trkpt lat="44.85371" lon="6.10894">
        <ele>2106.208</ele>
        <time>2020-04-06T08:43:10Z</time>
      </trkpt>
      <trkpt lat="44.85389" lon="6.10895">
        <ele>2105.558</ele>
        <time>2020-04-06T08:43:30Z</time>
      </trkpt>
      <trkpt lat="44.85398" lon="6.10882">
        <ele>2099.346</ele>
        <time>2020-04-06T08:43:50Z</time>
      </trkpt>
      <trkpt lat="44.85405" lon="6.10867">
        <ele>2091.254</ele>
        <time>2020-04-06T08:44:10Z</time>
      </trkpt>
      <trkpt lat="44.8542" lon="6.10863">
        <ele>2090.278</ele>
        <time>2020-04-06T08:44:30Z</time>
      </trkpt>
      <trkpt lat="44.85433" lon="6.10852">
        <ele>2083.919</ele>
        <time>2020-04-06T08:44:50Z</time>
      </trkpt>
      <trkpt lat="44.85443" lon="6.1085">
        <ele>2083.076</ele>
        <time>2020-04-06T08:45:10Z</time>
      </trkpt>
      <trkpt lat="44.85456" lon="6.1084">
        <ele>2076.82</ele>
        <time>2020-04-06T08:45:30Z</time>
      </trkpt>
      <trkpt lat="44.85474" lon="6.10834">
        <ele>2071.667</ele>
        <time>2020-04-06T08:45:50Z</time>
      </trkpt>
      <trkpt lat="44.85496" lon="6.10809">
        <ele>2057.442</ele>
        <time>2020-04-06T08:46:10Z</time>
      </trkpt>
      <trkpt lat="44.85507" lon="6.10816">
        <ele>2061.522</ele>
        <time>2020-04-06T08:46:30Z</time>
      </trkpt>
      <trkpt lat="44.8553" lon="6.10806">
        <ele>2053.314</ele>
        <time>2020-04-06T08:46:50Z</time>
      </trkpt>
      <trkpt lat="44.85548" lon="6.10789">
        <ele>2048.008</ele>
        <time>2020-04-06T08:47:10Z</time>
      </trkpt>
      <trkpt lat="44.85556" lon="6.10787">
        <ele>2048.53</ele>
        <time>2020-04-06T08:47:30Z</time>
      </trkpt>
      <trkpt lat="44.85575" lon="6.1077">
        <ele>2040.218</ele>
        <time>2020-04-06T08:47:50Z</time>
      </trkpt>
      <trkpt lat="44.85619" lon="6.10765">
        <ele>2032.546</ele>
        <time>2020-04-06T08:48:10Z</time>
      </trkpt>
      <trkpt lat="44.85645" lon="6.10749">
        <ele>2017.71</ele>
        <time>2020-04-06T08:48:30Z</time>
      </trkpt>
      <trkpt lat="44.85663" lon="6.10748">
        <ele>2013.051</ele>
        <time>2020-04-06T08:48:50Z</time>
      </trkpt>
      <trkpt lat="44.85707" lon="6.10754">
        <ele>1996.628</ele>
        <time>2020-04-06T08:49:10Z</time>
      </trkpt>
      <trkpt lat="44.85758" lon="6.10756">
        <ele>1981.212</ele>
        <time>2020-04-06T08:49:30Z</time>
      </trkpt>
      <trkpt lat="44.85793" lon="6.1077">
        <ele>1978.269</ele>
        <time>2020-04-06T08:49:50Z</time>
      </trkpt>
      <trkpt lat="44.85832" lon="6.10751">
        <ele>1971.025</ele>
        <time>2020-04-06T08:50:10Z</time>
      </trkpt>
      <trkpt lat="44.85853" lon="6.10758">
        <ele>1972.626</ele>
        <time>2020-04-06T08:50:30Z</time>
      </trkpt>
      <trkpt lat="44.85891" lon="6.10738">
        <ele>1970.808</ele>
        <time>2020-04-06T08:50:50Z</time>
      </trkpt>
      <trkpt lat="44.85924" lon="6.107">
        <ele>1965.708</ele>
        <time>2020-04-06T08:51:10Z</time>
      </trkpt>
      <trkpt lat="44.85968" lon="6.10705">
        <ele>1962.068</ele>
        <time>2020-04-06T08:51:30Z</time>
      </trkpt>
      <trkpt lat="44.86" lon="6.10719">
        <ele>1948.776</ele>
        <time>2020-04-06T08:51:50Z</time>
      </trkpt>
      <trkpt lat="44.86034" lon="6.10744">
        <ele>1937.874</ele>
        <time>2020-04-06T08:52:10Z</time>
      </trkpt>
      <trkpt lat="44.86091" lon="6.10677">
        <ele>1913.558</ele>
        <time>2020-04-06T08:52:30Z</time>
      </trkpt>
      <trkpt lat="44.86116" lon="6.10679">
        <ele>1908.879</ele>
        <time>2020-04-06T08:52:50Z</time>
      </trkpt>
      <trkpt lat="44.8618" lon="6.10718">
        <ele>1894.276</ele>
        <time>2020-04-06T08:53:10Z</time>
      </trkpt>
      <trkpt lat="44.86204" lon="6.10742">
        <ele>1897.78</ele>
        <time>2020-04-06T08:53:30Z</time>
      </trkpt>
      <trkpt lat="44.86249" lon="6.10707">
        <ele>1886.727</ele>
        <time>2020-04-06T08:53:50Z</time>
      </trkpt>
      <trkpt lat="44.86265" lon="6.10719">
        <ele>1892.173</ele>
        <time>2020-04-06T08:54:10Z</time>
      </trkpt>
      <trkpt lat="44.86285" lon="6.10709">
        <ele>1887.285</ele>
        <time>2020-04-06T08:54:30Z</time>
      </trkpt>
      <trkpt lat="44.86309" lon="6.10714">
        <ele>1889.813</ele>
        <time>2020-04-06T08:54:50Z</time>
      </trkpt>
      <trkpt lat="44.86335" lon="6.10695">
        <ele>1884.408</ele>
        <time>2020-04-06T08:55:10Z</time>
      </trkpt>
      <trkpt lat="44.86356" lon="6.10691">
        <ele>1887.723</ele>
        <time>2020-04-06T08:55:30Z</time>
      </trkpt>
      <trkpt lat="44.86404" lon="6.10618">
        <ele>1882.421</ele>
        <time>2020-04-06T08:55:50Z</time>
      </trkpt>
      <trkpt lat="44.86458" lon="6.10587">
        <ele>1882.219</ele>
        <time>2020-04-06T08:56:10Z</time>
      </trkpt>
      <trkpt lat="44.86483" lon="6.10555">
        <ele>1877.223</ele>
        <time>2020-04-06T08:56:30Z</time>
      </trkpt>
      <trkpt lat="44.86493" lon="6.10524">
        <ele>1871.924</ele>
        <time>2020-04-06T08:56:50Z</time>
      </trkpt>
      <trkpt lat="44.86476" lon="6.10427">
        <ele>1854.581</ele>
        <time>2020-04-06T08:57:10Z</time>
      </trkpt>
      <trkpt lat="44.86456" lon="6.1035">
        <ele>1828.815</ele>
        <time>2020-04-06T08:57:30Z</time>
      </trkpt>
      <trkpt lat="44.86409" lon="6.10351">
        <ele>1812.392</ele>
        <time>2020-04-06T08:57:50Z</time>
      </trkpt>
      <trkpt lat="44.86429" lon="6.10313">
        <ele>1798.393</ele>
        <time>2020-04-06T08:58:10Z</time>
      </trkpt>
      <trkpt lat="44.86393" lon="6.10284">
        <ele>1765.465</ele>
        <time>2020-04-06T08:58:30Z</time>
      </trkpt>
      <trkpt lat="44.86382" lon="6.10307">
        <ele>1768.421</ele>
        <time>2020-04-06T08:58:50Z</time>
      </trkpt>
      <trkpt lat="44.86359" lon="6.10309">
        <ele>1752.908</ele>
        <time>2020-04-06T08:59:10Z</time>
      </trkpt>
      <trkpt lat="44.86344" lon="6.10316">
        <ele>1747.045</ele>
        <time>2020-04-06T08:59:30Z</time>
      </trkpt>
      <trkpt lat="44.86357" lon="6.10275">
        <ele>1733.523</ele>
        <time>2020-04-06T08:59:50Z</time>
      </trkpt>
      <trkpt lat="44.86316" lon="6.10287">
        <ele>1718.061</ele>
        <time>2020-04-06T09:00:10Z</time>
      </trkpt>
      <trkpt lat="44.86323" lon="6.10265">
        <ele>1711.835</ele>
        <time>2020-04-06T09:00:30Z</time>
      </trkpt>
      <trkpt lat="44.86278" lon="6.10298">
        <ele>1703.666</ele>
        <time>2020-04-06T09:00:50Z</time>
      </trkpt>
      <trkpt lat="44.86265" lon="6.10297">
        <ele>1697.133</ele>
        <time>2020-04-06T09:01:10Z</time>
      </trkpt>
      <trkpt lat="44.86283" lon="6.10243">
        <ele>1688.477</ele>
        <time>2020-04-06T09:01:30Z</time>
      </trkpt>
      <trkpt lat="44.86264" lon="6.10249">
        <ele>1682.634</ele>
        <time>2020-04-06T09:01:50Z</time>
      </trkpt>
      <trkpt lat="44.86268" lon="6.10227">
        <ele>1676.963</ele>
        <time>2020-04-06T09:02:10Z</time>
      </trkpt>
      <trkpt lat="44.86247" lon="6.10224">
        <ele>1668.344</ele>
        <time>2020-04-06T09:02:30Z</time>
      </trkpt>
      <trkpt lat="44.8626" lon="6.10201">
        <ele>1662.718</ele>
        <time>2020-04-06T09:02:50Z</time>
      </trkpt>
      <trkpt lat="44.86231" lon="6.10211">
        <ele>1655.908</ele>
        <time>2020-04-06T09:03:10Z</time>
      </trkpt>
      <trkpt lat="44.86236" lon="6.10184">
        <ele>1644.222</ele>
        <time>2020-04-06T09:03:30Z</time>
      </trkpt>
      <trkpt lat="44.86251" lon="6.10151">
        <ele>1633.65</ele>
        <time>2020-04-06T09:03:50Z</time>
      </trkpt>
      <trkpt lat="44.86262" lon="6.10115">
        <ele>1620.578</ele>
        <time>2020-04-06T09:04:10Z</time>
      </trkpt>
      <trkpt lat="44.86277" lon="6.10082">
        <ele>1610.372</ele>
        <time>2020-04-06T09:04:30Z</time>
      </trkpt>
      <trkpt lat="44.86263" lon="6.10082">
        <ele>1605.393</ele>
        <time>2020-04-06T09:04:50Z</time>
      </trkpt>
      <trkpt lat="44.86278" lon="6.10054">
        <ele>1595.38</ele>
        <time>2020-04-06T09:05:10Z</time>
      </trkpt>
      <trkpt lat="44.86273" lon="6.10048">
        <ele>1590.094</ele>
        <time>2020-04-06T09:05:30Z</time>
      </trkpt>
      <trkpt lat="44.86284" lon="6.10037">
        <ele>1587.591</ele>
        <time>2020-04-06T09:05:50Z</time>
      </trkpt>
      <trkpt lat="44.86289" lon="6.10023">
        <ele>1581.588</ele>
        <time>2020-04-06T09:06:10Z</time>
      </trkpt>
      <trkpt lat="44.86278" lon="6.10021">
        <ele>1576.124</ele>
        <time>2020-04-06T09:06:30Z</time>
      </trkpt>
      <trkpt lat="44.86287" lon="6.10011">
        <ele>1573.926</ele>
        <time>2020-04-06T09:06:50Z</time>
      </trkpt>
      <trkpt lat="44.8628" lon="6.10003">
        <ele>1566.508</ele>
        <time>2020-04-06T09:07:10Z</time>
      </trkpt>
      <trkpt lat="44.86297" lon="6.09983">
        <ele>1563.054</ele>
        <time>2020-04-06T09:07:30Z</time>
      </trkpt>
      <trkpt lat="44.86317" lon="6.09943">
        <ele>1549.432</ele>
        <time>2020-04-06T09:07:50Z</time>
      </trkpt>
      <trkpt lat="44.86293" lon="6.09948">
        <ele>1542.83</ele>
        <time>2020-04-06T09:08:10Z</time>
      </trkpt>
      <trkpt lat="44.86327" lon="6.09893">
        <ele>1524.384</ele>
        <time>2020-04-06T09:08:30Z</time>
      </trkpt>
      <trkpt lat="44.86351" lon="6.09871">
        <ele>1519.235</ele>
        <time>2020-04-06T09:08:50Z</time>
      </trkpt>
      <trkpt lat="44.86358" lon="6.0985">
        <ele>1510.072</ele>
        <time>2020-04-06T09:09:10Z</time>
      </trkpt>
      <trkpt lat="44.86374" lon="6.09813">
        <ele>1495.376</ele>
        <time>2020-04-06T09:09:30Z</time>
      </trkpt>
      <trkpt lat="44.86397" lon="6.09784">
        <ele>1484.333</ele>
        <time>2020-04-06T09:09:50Z</time>
      </trkpt>
      <trkpt lat="44.86413" lon="6.09755">
        <ele>1474.947</ele>
        <time>2020-04-06T09:10:10Z</time>
      </trkpt>
      <trkpt lat="44.86425" lon="6.09742">
        <ele>1470.829</ele>
        <time>2020-04-06T09:10:30Z</time>
      </trkpt>
      <trkpt lat="44.86436" lon="6.09723">
        <ele>1462.621</ele>
        <time>2020-04-06T09:10:50Z</time>
      </trkpt>
      <trkpt lat="44.86471" lon="6.09712">
        <ele>1450.608</ele>
        <time>2020-04-06T09:11:10Z</time>
      </trkpt>
      <trkpt lat="44.8648" lon="6.09724">
        <ele>1451.34</ele>
        <time>2020-04-06T09:11:30Z</time>
      </trkpt>
      <trkpt lat="44.86497" lon="6.09718">
        <ele>1438.928</ele>
        <time>2020-04-06T09:11:50Z</time>
      </trkpt>
      <trkpt lat="44.86512" lon="6.09731">
        <ele>1435.286</ele>
        <time>2020-04-06T09:12:10Z</time>
      </trkpt>
      <trkpt lat="44.86532" lon="6.09726">
        <ele>1419.31</ele>
        <time>2020-04-06T09:12:30Z</time>
      </trkpt>
      <trkpt lat="44.86528" lon="6.0969">
        <ele>1404.631</ele>
        <time>2020-04-06T09:12:50Z</time>
      </trkpt>
      <trkpt lat="44.86541" lon="6.09687">
        <ele>1397.168</ele>
        <time>2020-04-06T09:13:10Z</time>
      </trkpt>
      <trkpt lat="44.86551" lon="6.09678">
        <ele>1388.442</ele>
        <time>2020-04-06T09:13:30Z</time>
      </trkpt>
      <trkpt lat="44.86569" lon="6.09678">
        <ele>1377.919</ele>
        <time>2020-04-06T09:13:50Z</time>
      </trkpt>
      <trkpt lat="44.8658" lon="6.09692">
        <ele>1375.584</ele>
        <time>2020-04-06T09:14:10Z</time>
      </trkpt>
      <trkpt lat="44.86589" lon="6.0972">
        <ele>1376.207</ele>
        <time>2020-04-06T09:14:30Z</time>
      </trkpt>
      <trkpt lat="44.86621" lon="6.09758">
        <ele>1366.717</ele>
        <time>2020-04-06T09:14:50Z</time>
      </trkpt>
      <trkpt lat="44.86637" lon="6.09761">
        <ele>1360.708</ele>
        <time>2020-04-06T09:15:10Z</time>
      </trkpt>
      <trkpt lat="44.8667" lon="6.09759">
        <ele>1350.474</ele>
        <time>2020-04-06T09:15:30Z</time>
      </trkpt>
      <trkpt lat="44.86695" lon="6.09767">
        <ele>1346.412</ele>
        <time>2020-04-06T09:15:50Z</time>
      </trkpt>
      <trkpt lat="44.86682" lon="6.09732">
        <ele>1335.23</ele>
        <time>2020-04-06T09:16:10Z</time>
      </trkpt>
      <trkpt lat="44.86655" lon="6.097">
        <ele>1327.314</ele>
        <time>2020-04-06T09:16:30Z</time>
      </trkpt>
      <trkpt lat="44.86638" lon="6.09682">
        <ele>1323.025</ele>
        <time>2020-04-06T09:16:50Z</time>
      </trkpt>
      <trkpt lat="44.86628" lon="6.09657">
        <ele>1321.322</ele>
        <time>2020-04-06T09:17:10Z</time>
      </trkpt>
      <trkpt lat="44.86631" lon="6.09613">
        <ele>1316.896</ele>
        <time>2020-04-06T09:17:30Z</time>
      </trkpt>
      <trkpt lat="44.86645" lon="6.09575">
        <ele>1310.653</ele>
        <time>2020-04-06T09:17:50Z</time>
      </trkpt>
      <trkpt lat="44.86697" lon="6.09512">
        <ele>1293.994</ele>
        <time>2020-04-06T09:18:10Z</time>
      </trkpt>
      <trkpt lat="44.86729" lon="6.09461">
        <ele>1283.457</ele>
        <time>2020-04-06T09:18:30Z</time>
      </trkpt>
      <trkpt lat="44.86762" lon="6.09447">
        <ele>1276.422</ele>
        <time>2020-04-06T09:18:50Z</time>
      </trkpt>
      <trkpt lat="44.86796" lon="6.09408">
        <ele>1266.908</ele>
        <time>2020-04-06T09:19:10Z</time>
      </trkpt>
      <trkpt lat="44.86815" lon="6.0937">
        <ele>1259.865</ele>
        <time>2020-04-06T09:19:30Z</time>
      </trkpt>
      <trkpt lat="44.8683" lon="6.0929">
        <ele>1253.463</ele>
        <time>2020-04-06T09:19:50Z</time>
      </trkpt>
      <trkpt lat="44.86838" lon="6.09283">
        <ele>1255.251</ele>
        <time>2020-04-06T09:20:10Z</time>
      </trkpt>
      <trkpt lat="44.86841" lon="6.09255">
        <ele>1256.955</ele>
        <time>2020-04-06T09:20:30Z</time>
      </trkpt>
      <trkpt lat="44.86853" lon="6.09221">
        <ele>1260.236</ele>
        <time>2020-04-06T09:20:50Z</time>
      </trkpt>
      <trkpt lat="44.86866" lon="6.09211">
        <ele>1263.423</ele>
        <time>2020-04-06T09:21:10Z</time>
      </trkpt>
      <trkpt lat="44.86875" lon="6.09227">
        <ele>1264.757</ele>
        <time>2020-04-06T09:21:30Z</time>
      </trkpt>
      <trkpt lat="44.86899" lon="6.09234">
        <ele>1270.044</ele>
        <time>2020-04-06T09:21:50Z</time>
      </trkpt>
      <trkpt lat="44.86932" lon="6.09229">
        <ele>1276.652</ele>
        <time>2020-04-06T09:22:10Z</time>
      </trkpt>
      <trkpt lat="44.86985" lon="6.09194">
        <ele>1284.953</ele>
        <time>2020-04-06T09:22:30Z</time>
      </trkpt>
      <trkpt lat="44.87041" lon="6.09188">
        <ele>1295.208</ele>
        <time>2020-04-06T09:22:50Z</time>
      </trkpt>
      <trkpt lat="44.87083" lon="6.09197">
        <ele>1304.908</ele>
        <time>2020-04-06T09:23:10Z</time>
      </trkpt>
      <trkpt lat="44.8709" lon="6.09209">
        <ele>1307.021</ele>
        <time>2020-04-06T09:23:30Z</time>
      </trkpt>
      <trkpt lat="44.87091" lon="6.09216">
        <ele>1307.389</ele>
        <time>2020-04-06T09:23:50Z</time>
      </trkpt>
      <trkpt lat="44.87183" lon="6.09299">
        <ele>1330.017</ele>
        <time>2020-04-06T09:24:10Z</time>
      </trkpt>
      <trkpt lat="44.87223" lon="6.09301">
        <ele>1337.611</ele>
        <time>2020-04-06T09:24:30Z</time>
      </trkpt>
      <trkpt lat="44.87312" lon="6.09324">
        <ele>1358.332</ele>
        <time>2020-04-06T09:24:50Z</time>
      </trkpt>
      <trkpt lat="44.87338" lon="6.0929">
        <ele>1368.759</ele>
        <time>2020-04-06T09:25:10Z</time>
      </trkpt>
      <trkpt lat="44.87336" lon="6.09268">
        <ele>1372.953</ele>
        <time>2020-04-06T09:25:30Z</time>
      </trkpt>
      <trkpt lat="44.87346" lon="6.0926">
        <ele>1378.87</ele>
        <time>2020-04-06T09:25:50Z</time>
      </trkpt>
      <trkpt lat="44.87358" lon="6.09268">
        <ele>1380.097</ele>
        <time>2020-04-06T09:26:10Z</time>
      </trkpt>
      <trkpt lat="44.87363" lon="6.09282">
        <ele>1376.423</ele>
        <time>2020-04-06T09:26:30Z</time>
      </trkpt>
      <trkpt lat="44.8738" lon="6.09262">
        <ele>1386.625</ele>
        <time>2020-04-06T09:26:50Z</time>
      </trkpt>
      <trkpt lat="44.87397" lon="6.09269">
        <ele>1386.708</ele>
        <time>2020-04-06T09:27:10Z</time>
      </trkpt>
      <trkpt lat="44.87413" lon="6.09283">
        <ele>1384.555</ele>
        <time>2020-04-06T09:27:30Z</time>
      </trkpt>
      <trkpt lat="44.87425" lon="6.09281">
        <ele>1386.543</ele>
        <time>2020-04-06T09:27:50Z</time>
      </trkpt>
      <trkpt lat="44.87501" lon="6.09216">
        <ele>1414.481</ele>
        <time>2020-04-06T09:28:10Z</time>
      </trkpt>
      <trkpt lat="44.87528" lon="6.09202">
        <ele>1417.145</ele>
        <time>2020-04-06T09:28:30Z</time>
      </trkpt>
      <trkpt lat="44.87553" lon="6.09174">
        <ele>1425.816</ele>
        <time>2020-04-06T09:28:50Z</time>
      </trkpt>
      <trkpt lat="44.87569" lon="6.09175">
        <ele>1427.223</ele>
        <time>2020-04-06T09:29:10Z</time>
      </trkpt>
      <trkpt lat="44.87641" lon="6.09137">
        <ele>1444.077</ele>
        <time>2020-04-06T09:29:30Z</time>
      </trkpt>
      <trkpt lat="44.87679" lon="6.09112">
        <ele>1454.774</ele>
        <time>2020-04-06T09:29:50Z</time>
      </trkpt>
      <trkpt lat="44.87711" lon="6.09098">
        <ele>1465.613</ele>
        <time>2020-04-06T09:30:10Z</time>
      </trkpt>
      <trkpt lat="44.87747" lon="6.09067">
        <ele>1476.743</ele>
        <time>2020-04-06T09:30:30Z</time>
      </trkpt>
      <trkpt lat="44.87764" lon="6.09061">
        <ele>1483.607</ele>
        <time>2020-04-06T09:30:50Z</time>
      </trkpt>
      <trkpt lat="44.87803" lon="6.09029">
        <ele>1498.408</ele>
        <time>2020-04-06T09:31:10Z</time>
      </trkpt>
      <trkpt lat="44.87836" lon="6.0902">
        <ele>1510.887</ele>
        <time>2020-04-06T09:31:30Z</time>
      </trkpt>
      <trkpt lat="44.87874" lon="6.08997">
        <ele>1524.085</ele>
        <time>2020-04-06T09:31:50Z</time>
      </trkpt>
      <trkpt lat="44.87964" lon="6.08968">
        <ele>1553.173</ele>
        <time>2020-04-06T09:32:10Z</time>
      </trkpt>
      <trkpt lat="44.87999" lon="6.08947">
        <ele>1562.087</ele>
        <time>2020-04-06T09:32:30Z</time>
      </trkpt>
      <trkpt lat="44.88039" lon="6.08915">
        <ele>1573.658</ele>
        <time>2020-04-06T09:32:50Z</time>
      </trkpt>
      <trkpt lat="44.88055" lon="6.08916">
        <ele>1577.895</ele>
        <time>2020-04-06T09:33:10Z</time>
      </trkpt>
      <trkpt lat="44.88101" lon="6.08894">
        <ele>1593.259</ele>
        <time>2020-04-06T09:33:30Z</time>
      </trkpt>
      <trkpt lat="44.88129" lon="6.08868">
        <ele>1601.186</ele>
        <time>2020-04-06T09:33:50Z</time>
      </trkpt>
      <trkpt lat="44.8816" lon="6.08864">
        <ele>1609.681</ele>
        <time>2020-04-06T09:34:10Z</time>
      </trkpt>
      <trkpt lat="44.88236" lon="6.08824">
        <ele>1638.061</ele>
        <time>2020-04-06T09:34:30Z</time>
      </trkpt>
      <trkpt lat="44.88273" lon="6.08821">
        <ele>1648.717</ele>
        <time>2020-04-06T09:34:50Z</time>
      </trkpt>
      <trkpt lat="44.88362" lon="6.08773">
        <ele>1686.108</ele>
        <time>2020-04-06T09:35:10Z</time>
      </trkpt>
      <trkpt lat="44.88409" lon="6.08777">
        <ele>1706.724</ele>
        <time>2020-04-06T09:35:30Z</time>
      </trkpt>
      <trkpt lat="44.88423" lon="6.0877">
        <ele>1714.622</ele>
        <time>2020-04-06T09:35:50Z</time>
      </trkpt>
      <trkpt lat="44.8843" lon="6.08758">
        <ele>1718.28</ele>
        <time>2020-04-06T09:36:10Z</time>
      </trkpt>
      <trkpt lat="44.88462" lon="6.08729">
        <ele>1736.844</ele>
        <time>2020-04-06T09:36:30Z</time>
      </trkpt>
      <trkpt lat="44.88479" lon="6.08704">
        <ele>1745.785</ele>
        <time>2020-04-06T09:36:50Z</time>
      </trkpt>
      <trkpt lat="44.88504" lon="6.08694">
        <ele>1759.922</ele>
        <time>2020-04-06T09:37:10Z</time>
      </trkpt>
      <trkpt lat="44.8854" lon="6.08664">
        <ele>1781.746</ele>
        <time>2020-04-06T09:37:30Z</time>
      </trkpt>
      <trkpt lat="44.88547" lon="6.08664">
        <ele>1784.713</ele>
        <time>2020-04-06T09:37:50Z</time>
      </trkpt>
      <trkpt lat="44.88547" lon="6.08678">
        <ele>1786.442</ele>
        <time>2020-04-06T09:38:10Z</time>
      </trkpt>
      <trkpt lat="44.88569" lon="6.08663">
        <ele>1798.022</ele>
        <time>2020-04-06T09:38:30Z</time>
      </trkpt>
      <trkpt lat="44.88579" lon="6.08636">
        <ele>1806.714</ele>
        <time>2020-04-06T09:38:50Z</time>
      </trkpt>
      <trkpt lat="44.8859" lon="6.08626">
        <ele>1815.408</ele>
        <time>2020-04-06T09:39:10Z</time>
      </trkpt>
      <trkpt lat="44.88597" lon="6.0863">
        <ele>1817.79</ele>
        <time>2020-04-06T09:39:30Z</time>
      </trkpt>
      <trkpt lat="44.88602" lon="6.08653">
        <ele>1820.658</ele>
        <time>2020-04-06T09:39:50Z</time>
      </trkpt>
      <trkpt lat="44.88616" lon="6.08613">
        <ele>1827.576</ele>
        <time>2020-04-06T09:40:10Z</time>
      </trkpt>
      <trkpt lat="44.88616" lon="6.08655">
        <ele>1831.15</ele>
        <time>2020-04-06T09:40:30Z</time>
      </trkpt>
      <trkpt lat="44.88646" lon="6.08621">
        <ele>1850.281</ele>
        <time>2020-04-06T09:40:50Z</time>
      </trkpt>
      <trkpt lat="44.88656" lon="6.08587">
        <ele>1855.218</ele>
        <time>2020-04-06T09:41:10Z</time>
      </trkpt>
      <trkpt lat="44.887" lon="6.08565">
        <ele>1885.592</ele>
        <time>2020-04-06T09:41:30Z</time>
      </trkpt>
      <trkpt lat="44.8871" lon="6.08519">
        <ele>1898.659</ele>
        <time>2020-04-06T09:41:50Z</time>
      </trkpt>
      <trkpt lat="44.88724" lon="6.08535">
        <ele>1902.698</ele>
        <time>2020-04-06T09:42:10Z</time>
      </trkpt>
      <trkpt lat="44.88732" lon="6.08574">
        <ele>1913.215</ele>
        <time>2020-04-06T09:42:30Z</time>
      </trkpt>
      <trkpt lat="44.8875" lon="6.08547">
        <ele>1921.126</ele>
        <time>2020-04-06T09:42:50Z</time>
      </trkpt>
      <trkpt lat="44.88802" lon="6.0853">
        <ele>1948.408</ele>
        <time>2020-04-06T09:43:10Z</time>
      </trkpt>
      <trkpt lat="44.88801" lon="6.08548">
        <ele>1952.615</ele>
        <time>2020-04-06T09:43:30Z</time>
      </trkpt>
      <trkpt lat="44.88831" lon="6.08535">
        <ele>1964.463</ele>
        <time>2020-04-06T09:43:50Z</time>
      </trkpt>
      <trkpt lat="44.8886" lon="6.08548">
        <ele>1980.181</ele>
        <time>2020-04-06T09:44:10Z</time>
      </trkpt>
      <trkpt lat="44.88855" lon="6.08512">
        <ele>1985.325</ele>
        <time>2020-04-06T09:44:30Z</time>
      </trkpt>
      <trkpt lat="44.88856" lon="6.08474">
        <ele>1996.386</ele>
        <time>2020-04-06T09:44:50Z</time>
      </trkpt>
      <trkpt lat="44.88845" lon="6.08449">
        <ele>2000.033</ele>
        <time>2020-04-06T09:45:10Z</time>
      </trkpt>
      <trkpt lat="44.88856" lon="6.08435">
        <ele>2011.047</ele>
        <time>2020-04-06T09:45:30Z</time>
      </trkpt>
      <trkpt lat="44.88836" lon="6.08399">
        <ele>2015.794</ele>
        <time>2020-04-06T09:45:50Z</time>
      </trkpt>
      <trkpt lat="44.88852" lon="6.08397">
        <ele>2024.899</ele>
        <time>2020-04-06T09:46:10Z</time>
      </trkpt>
      <trkpt lat="44.8885" lon="6.08346">
        <ele>2038.507</ele>
        <time>2020-04-06T09:46:30Z</time>
      </trkpt>
      <trkpt lat="44.88855" lon="6.08318">
        <ele>2049.227</ele>
        <time>2020-04-06T09:46:50Z</time>
      </trkpt>
      <trkpt lat="44.88846" lon="6.08309">
        <ele>2048.608</ele>
        <time>2020-04-06T09:47:10Z</time>
      </trkpt>
      <trkpt lat="44.88859" lon="6.08297">
        <ele>2055.925</ele>
        <time>2020-04-06T09:47:30Z</time>
      </trkpt>
      <trkpt lat="44.8885" lon="6.08287">
        <ele>2057.553</ele>
        <time>2020-04-06T09:47:50Z</time>
      </trkpt>
      <trkpt lat="44.88857" lon="6.08282">
        <ele>2060.381</ele>
        <time>2020-04-06T09:48:10Z</time>
      </trkpt>
      <trkpt lat="44.88854" lon="6.08273">
        <ele>2063.135</ele>
        <time>2020-04-06T09:48:30Z</time>
      </trkpt>
      <trkpt lat="44.88866" lon="6.08266">
        <ele>2068.356</ele>
        <time>2020-04-06T09:48:50Z</time>
      </trkpt>
      <trkpt lat="44.88855" lon="6.08258">
        <ele>2069.163</ele>
        <time>2020-04-06T09:49:10Z</time>
      </trkpt>
      <trkpt lat="44.8887" lon="6.08242">
        <ele>2077.517</ele>
        <time>2020-04-06T09:49:30Z</time>
      </trkpt>
      <trkpt lat="44.88851" lon="6.08223">
        <ele>2081.824</ele>
        <time>2020-04-06T09:49:50Z</time>
      </trkpt>
      <trkpt lat="44.8887" lon="6.0822">
        <ele>2085.177</ele>
        <time>2020-04-06T09:50:10Z</time>
      </trkpt>
      <trkpt lat="44.88858" lon="6.08199">
        <ele>2092.061</ele>
        <time>2020-04-06T09:50:30Z</time>
      </trkpt>
      <trkpt lat="44.88885" lon="6.08169">
        <ele>2106.027</ele>
        <time>2020-04-06T09:50:50Z</time>
      </trkpt>
      <trkpt lat="44.88933" lon="6.08196">
        <ele>2114.508</ele>
        <time>2020-04-06T09:51:10Z</time>
      </trkpt>
      <trkpt lat="44.88954" lon="6.08262">
        <ele>2113.773</ele>
        <time>2020-04-06T09:51:30Z</time>
      </trkpt>
      <trkpt lat="44.89086" lon="6.08426">
        <ele>2134.131</ele>
        <time>2021-01-21T13:29:15Z</time>
      </trkpt>
      <trkpt lat="44.89097" lon="6.08506">
        <ele>2138.089</ele>
        <time>2021-01-21T13:29:35Z</time>
      </trkpt>
      <trkpt lat="44.89091" lon="6.08557">
        <ele>2137.873</ele>
        <time>2021-01-21T13:29:55Z</time>
      </trkpt>
      <trkpt lat="44.89135" lon="6.08505">
        <ele>2154.534</ele>
        <time>2021-01-21T13:30:15Z</time>
      </trkpt>
      <trkpt lat="44.89156" lon="6.08416">
        <ele>2167.241</ele>
        <time>2021-01-21T13:30:35Z</time>
      </trkpt>
      <trkpt lat="44.89204" lon="6.08552">
        <ele>2184.225</ele>
        <time>2021-01-21T13:30:55Z</time>
      </trkpt>
      <trkpt lat="44.89179" lon="6.0862">
        <ele>2174.722</ele>
        <time>2021-01-21T13:31:15Z</time>
      </trkpt>
      <trkpt lat="44.89189" lon="6.08646">
        <ele>2179.118</ele>
        <time>2021-01-21T13:31:35Z</time>
      </trkpt>
      <trkpt lat="44.89186" lon="6.08666">
        <ele>2177.898</ele>
        <time>2021-01-21T13:31:55Z</time>
      </trkpt>
      <trkpt lat="44.89195" lon="6.08662">
        <ele>2181.617</ele>
        <time>2021-01-21T13:32:15Z</time>
      </trkpt>
      <trkpt lat="44.8921" lon="6.08618">
        <ele>2187.108</ele>
        <time>2021-01-21T13:32:35Z</time>
      </trkpt>
      <trkpt lat="44.89255" lon="6.086">
        <ele>2204.877</ele>
        <time>2021-01-21T13:32:55Z</time>
      </trkpt>
      <trkpt lat="44.89272" lon="6.0858">
        <ele>2212.125</ele>
        <time>2021-01-21T13:33:15Z</time>
      </trkpt>
      <trkpt lat="44.89277" lon="6.08556">
        <ele>2216.653</ele>
        <time>2021-01-21T13:33:35Z</time>
      </trkpt>
      <trkpt lat="44.89289" lon="6.08595">
        <ele>2220.837</ele>
        <time>2021-01-21T13:33:55Z</time>
      </trkpt>
      <trkpt lat="44.89295" lon="6.08565">
        <ele>2224.918</ele>
        <time>2021-01-21T13:34:15Z</time>
      </trkpt>
      <trkpt lat="44.89302" lon="6.08442">
        <ele>2240.045</ele>
        <time>2021-01-21T13:34:35Z</time>
      </trkpt>
      <trkpt lat="44.89318" lon="6.08364">
        <ele>2255.119</ele>
        <time>2021-01-21T13:34:55Z</time>
      </trkpt>
      <trkpt lat="44.89311" lon="6.08293">
        <ele>2268.636</ele>
        <time>2021-01-21T13:35:15Z</time>
      </trkpt>
      <trkpt lat="44.89283" lon="6.08233">
        <ele>2279.355</ele>
        <time>2021-01-21T13:35:35Z</time>
      </trkpt>
      <trkpt lat="44.89235" lon="6.08195">
        <ele>2276.207</ele>
        <time>2021-01-21T13:35:55Z</time>
      </trkpt>
      <trkpt lat="44.89207" lon="6.08185">
        <ele>2267.817</ele>
        <time>2021-01-21T13:36:15Z</time>
      </trkpt>
      <trkpt lat="44.89183" lon="6.08159">
        <ele>2263.708</ele>
        <time>2021-01-21T13:36:35Z</time>
      </trkpt>
      <trkpt lat="44.89254" lon="6.0797">
        <ele>2300.621</ele>
        <time>2021-01-21T13:36:55Z</time>
      </trkpt>
      <trkpt lat="44.89254" lon="6.07932">
        <ele>2295.729</ele>
        <time>2021-01-21T13:37:15Z</time>
      </trkpt>
      <trkpt lat="44.89281" lon="6.07947">
        <ele>2283.927</ele>
        <time>2020-04-06T10:00:30Z</time>
      </trkpt>
      <trkpt lat="44.89279" lon="6.07903">
        <ele>2277.171</ele>
        <time>2020-04-06T10:00:50Z</time>
      </trkpt>
      <trkpt lat="44.89285" lon="6.07871">
        <ele>2270.322</ele>
        <time>2020-04-06T10:01:10Z</time>
      </trkpt>
      <trkpt lat="44.89314" lon="6.07899">
        <ele>2263.439</ele>
        <time>2020-04-06T10:01:30Z</time>
      </trkpt>
      <trkpt lat="44.89394" lon="6.07916">
        <ele>2247.033</ele>
        <time>2020-04-06T10:01:50Z</time>
      </trkpt>
      <trkpt lat="44.89427" lon="6.07917">
        <ele>2237.14</ele>
        <time>2020-04-06T10:02:10Z</time>
      </trkpt>
      <trkpt lat="44.89377" lon="6.07865">
        <ele>2232.072</ele>
        <time>2020-04-06T10:02:30Z</time>
      </trkpt>
      <trkpt lat="44.89361" lon="6.07792">
        <ele>2216.913</ele>
        <time>2020-04-06T10:02:50Z</time>
      </trkpt>
      <trkpt lat="44.89396" lon="6.07839">
        <ele>2215.714</ele>
        <time>2020-04-06T10:03:10Z</time>
      </trkpt>
      <trkpt lat="44.89464" lon="6.07863">
        <ele>2195.208</ele>
        <time>2020-04-06T10:03:30Z</time>
      </trkpt>
      <trkpt lat="44.89486" lon="6.07883">
        <ele>2193.213</ele>
        <time>2020-04-06T10:03:50Z</time>
      </trkpt>
      <trkpt lat="44.8952" lon="6.07898">
        <ele>2183.051</ele>
        <time>2020-04-06T10:04:10Z</time>
      </trkpt>
      <trkpt lat="44.89596" lon="6.07959">
        <ele>2173.349</ele>
        <time>2020-04-06T10:04:30Z</time>
      </trkpt>
      <trkpt lat="44.89611" lon="6.07959">
        <ele>2165.513</ele>
        <time>2020-04-06T10:04:50Z</time>
      </trkpt>
      <trkpt lat="44.89668" lon="6.08019">
        <ele>2154.864</ele>
        <time>2020-04-06T10:05:10Z</time>
      </trkpt>
      <trkpt lat="44.89649" lon="6.07969">
        <ele>2148.571</ele>
        <time>2020-04-06T10:05:30Z</time>
      </trkpt>
      <trkpt lat="44.8962" lon="6.0792">
        <ele>2139.065</ele>
        <time>2020-04-06T10:05:50Z</time>
      </trkpt>
      <trkpt lat="44.89653" lon="6.07937">
        <ele>2133.482</ele>
        <time>2020-04-06T10:06:10Z</time>
      </trkpt>
      <trkpt lat="44.8962" lon="6.07894">
        <ele>2121.519</ele>
        <time>2020-04-06T10:06:30Z</time>
      </trkpt>
      <trkpt lat="44.89684" lon="6.07907">
        <ele>2105.809</ele>
        <time>2020-04-06T10:06:50Z</time>
      </trkpt>
      <trkpt lat="44.89715" lon="6.07925">
        <ele>2098.819</ele>
        <time>2020-04-06T10:07:10Z</time>
      </trkpt>
      <trkpt lat="44.89732" lon="6.07947">
        <ele>2096.408</ele>
        <time>2020-04-06T10:07:30Z</time>
      </trkpt>
      <trkpt lat="44.8972" lon="6.07906">
        <ele>2086.887</ele>
        <time>2020-04-06T10:07:50Z</time>
      </trkpt>
      <trkpt lat="44.89683" lon="6.07861">
        <ele>2080.715</ele>
        <time>2020-04-06T10:08:10Z</time>
      </trkpt>
      <trkpt lat="44.89661" lon="6.07826">
        <ele>2069.683</ele>
        <time>2020-04-06T10:08:30Z</time>
      </trkpt>
      <trkpt lat="44.89705" lon="6.0785">
        <ele>2063.697</ele>
        <time>2020-04-06T10:08:50Z</time>
      </trkpt>
      <trkpt lat="44.89681" lon="6.07804">
        <ele>2048.898</ele>
        <time>2020-04-06T10:09:10Z</time>
      </trkpt>
      <trkpt lat="44.8973" lon="6.07826">
        <ele>2034.785</ele>
        <time>2020-04-06T10:09:30Z</time>
      </trkpt>
      <trkpt lat="44.89752" lon="6.07846">
        <ele>2032.859</ele>
        <time>2020-04-06T10:09:50Z</time>
      </trkpt>
      <trkpt lat="44.89768" lon="6.07851">
        <ele>2025.076</ele>
        <time>2020-04-06T10:10:10Z</time>
      </trkpt>
      <trkpt lat="44.89728" lon="6.07782">
        <ele>2009.939</ele>
        <time>2020-04-06T10:10:30Z</time>
      </trkpt>
      <trkpt lat="44.89768" lon="6.07802">
        <ele>2002.801</ele>
        <time>2020-04-06T10:10:50Z</time>
      </trkpt>
      <trkpt lat="44.89787" lon="6.07827">
        <ele>2001.221</ele>
        <time>2020-04-06T10:11:10Z</time>
      </trkpt>
      <trkpt lat="44.89815" lon="6.07851">
        <ele>1991.908</ele>
        <time>2020-04-06T10:11:30Z</time>
      </trkpt>
      <trkpt lat="44.89773" lon="6.07738">
        <ele>1969.199</ele>
        <time>2020-04-06T10:11:50Z</time>
      </trkpt>
      <trkpt lat="44.89809" lon="6.07767">
        <ele>1962.827</ele>
        <time>2020-04-06T10:12:10Z</time>
      </trkpt>
      <trkpt lat="44.89797" lon="6.07728">
        <ele>1951.885</ele>
        <time>2020-04-06T10:12:30Z</time>
      </trkpt>
      <trkpt lat="44.89876" lon="6.07805">
        <ele>1932.859</ele>
        <time>2020-04-06T10:12:50Z</time>
      </trkpt>
      <trkpt lat="44.89936" lon="6.07878">
        <ele>1922.15</ele>
        <time>2020-04-06T10:13:10Z</time>
      </trkpt>
      <trkpt lat="44.89991" lon="6.07893">
        <ele>1897.987</ele>
        <time>2020-04-06T10:13:30Z</time>
      </trkpt>
      <trkpt lat="44.90065" lon="6.07968">
        <ele>1885.921</ele>
        <time>2020-04-06T10:13:50Z</time>
      </trkpt>
      <trkpt lat="44.90114" lon="6.08063">
        <ele>1876.898</ele>
        <time>2020-04-06T10:14:10Z</time>
      </trkpt>
      <trkpt lat="44.90144" lon="6.08076">
        <ele>1860.645</ele>
        <time>2020-04-06T10:14:30Z</time>
      </trkpt>
      <trkpt lat="44.90171" lon="6.08103">
        <ele>1849.547</ele>
        <time>2020-04-06T10:14:50Z</time>
      </trkpt>
      <trkpt lat="44.90148" lon="6.08165">
        <ele>1844.311</ele>
        <time>2020-04-06T10:15:10Z</time>
      </trkpt>
      <trkpt lat="44.90125" lon="6.0819">
        <ele>1845.208</ele>
        <time>2020-04-06T10:15:30Z</time>
      </trkpt>
      <trkpt lat="44.90127" lon="6.08222">
        <ele>1843.58</ele>
        <time>2020-04-06T10:15:50Z</time>
      </trkpt>
      <trkpt lat="44.9019" lon="6.08267">
        <ele>1824.018</ele>
        <time>2020-04-06T10:16:10Z</time>
      </trkpt>
      <trkpt lat="44.90218" lon="6.08311">
        <ele>1816.696</ele>
        <time>2020-04-06T10:16:30Z</time>
      </trkpt>
      <trkpt lat="44.90233" lon="6.08321">
        <ele>1814.05</ele>
        <time>2020-04-06T10:16:50Z</time>
      </trkpt>
      <trkpt lat="44.90273" lon="6.08319">
        <ele>1801.241</ele>
        <time>2020-04-06T10:17:10Z</time>
      </trkpt>
      <trkpt lat="44.90315" lon="6.08349">
        <ele>1791.618</ele>
        <time>2020-04-06T10:17:30Z</time>
      </trkpt>
      <trkpt lat="44.90362" lon="6.08416">
        <ele>1787.112</ele>
        <time>2020-04-06T10:17:50Z</time>
      </trkpt>
      <trkpt lat="44.90327" lon="6.08303">
        <ele>1767.289</ele>
        <time>2020-04-06T10:18:10Z</time>
      </trkpt>
      <trkpt lat="44.90307" lon="6.08269">
        <ele>1764.356</ele>
        <time>2020-04-06T10:18:30Z</time>
      </trkpt>
      <trkpt lat="44.90331" lon="6.08279">
        <ele>1757.359</ele>
        <time>2020-04-06T10:18:50Z</time>
      </trkpt>
      <trkpt lat="44.90346" lon="6.0828">
        <ele>1749.314</ele>
        <time>2020-04-06T10:19:10Z</time>
      </trkpt>
      <trkpt lat="44.9033" lon="6.08246">
        <ele>1743.608</ele>
        <time>2020-04-06T10:19:30Z</time>
      </trkpt>
      <trkpt lat="44.90355" lon="6.08262">
        <ele>1736.851</ele>
        <time>2020-04-06T10:19:50Z</time>
      </trkpt>
      <trkpt lat="44.90364" lon="6.08274">
        <ele>1736.069</ele>
        <time>2020-04-06T10:20:10Z</time>
      </trkpt>
      <trkpt lat="44.90375" lon="6.08279">
        <ele>1732.257</ele>
        <time>2020-04-06T10:20:30Z</time>
      </trkpt>
      <trkpt lat="44.90367" lon="6.08247">
        <ele>1724.581</ele>
        <time>2020-04-06T10:20:50Z</time>
      </trkpt>
      <trkpt lat="44.9034" lon="6.08198">
        <ele>1717.912</ele>
        <time>2020-04-06T10:21:10Z</time>
      </trkpt>
      <trkpt lat="44.90336" lon="6.08169">
        <ele>1709.459</ele>
        <time>2020-04-06T10:21:30Z</time>
      </trkpt>
      <trkpt lat="44.90354" lon="6.08174">
        <ele>1701.863</ele>
        <time>2020-04-06T10:21:50Z</time>
      </trkpt>
      <trkpt lat="44.90359" lon="6.0816">
        <ele>1695.42</ele>
        <time>2020-04-06T10:22:10Z</time>
      </trkpt>
      <trkpt lat="44.90375" lon="6.08177">
        <ele>1692.225</ele>
        <time>2020-04-06T10:22:30Z</time>
      </trkpt>
      <trkpt lat="44.90412" lon="6.08188">
        <ele>1678.626</ele>
        <time>2020-04-06T10:22:50Z</time>
      </trkpt>
      <trkpt lat="44.90397" lon="6.08163">
        <ele>1676.408</ele>
        <time>2020-04-06T10:23:10Z</time>
      </trkpt>
      <trkpt lat="44.90394" lon="6.0812">
        <ele>1667.108</ele>
        <time>2020-04-06T10:23:30Z</time>
      </trkpt>
      <trkpt lat="44.90405" lon="6.08129">
        <ele>1663.978</ele>
        <time>2020-04-06T10:23:50Z</time>
      </trkpt>
      <trkpt lat="44.90402" lon="6.08101">
        <ele>1658.516</ele>
        <time>2020-04-06T10:24:10Z</time>
      </trkpt>
      <trkpt lat="44.9042" lon="6.08115">
        <ele>1653.024</ele>
        <time>2020-04-06T10:24:30Z</time>
      </trkpt>
      <trkpt lat="44.90413" lon="6.08075">
        <ele>1645.888</ele>
        <time>2020-04-06T10:24:50Z</time>
      </trkpt>
      <trkpt lat="44.90443" lon="6.081">
        <ele>1637.239</ele>
        <time>2020-04-06T10:25:10Z</time>
      </trkpt>
      <trkpt lat="44.9043" lon="6.08031">
        <ele>1624.256</ele>
        <time>2020-04-06T10:25:30Z</time>
      </trkpt>
      <trkpt lat="44.90469" lon="6.0806">
        <ele>1615.48</ele>
        <time>2020-04-06T10:25:50Z</time>
      </trkpt>
      <trkpt lat="44.90456" lon="6.08013">
        <ele>1608.017</ele>
        <time>2020-04-06T10:26:10Z</time>
      </trkpt>
      <trkpt lat="44.90488" lon="6.08035">
        <ele>1602.048</ele>
        <time>2020-04-06T10:26:30Z</time>
      </trkpt>
      <trkpt lat="44.90484" lon="6.08014">
        <ele>1598.161</ele>
        <time>2020-04-06T10:26:50Z</time>
      </trkpt>
      <trkpt lat="44.90496" lon="6.08019">
        <ele>1595.517</ele>
        <time>2020-04-06T10:27:10Z</time>
      </trkpt>
      <trkpt lat="44.90472" lon="6.07954">
        <ele>1586.108</ele>
        <time>2020-04-06T10:27:30Z</time>
      </trkpt>
      <trkpt lat="44.90472" lon="6.07927">
        <ele>1579.94</ele>
        <time>2020-04-06T10:27:50Z</time>
      </trkpt>
      <trkpt lat="44.90455" lon="6.07877">
        <ele>1572.598</ele>
        <time>2020-04-06T10:28:10Z</time>
      </trkpt>
      <trkpt lat="44.90441" lon="6.07861">
        <ele>1571.626</ele>
        <time>2020-04-06T10:28:30Z</time>
      </trkpt>
      <trkpt lat="44.90439" lon="6.07836">
        <ele>1565.02</ele>
        <time>2020-04-06T10:28:50Z</time>
      </trkpt>
      <trkpt lat="44.90425" lon="6.07816">
        <ele>1559.151</ele>
        <time>2020-04-06T10:29:10Z</time>
      </trkpt>
      <trkpt lat="44.90424" lon="6.07796">
        <ele>1549.968</ele>
        <time>2020-04-06T10:29:30Z</time>
      </trkpt>
      <trkpt lat="44.90405" lon="6.07797">
        <ele>1550.742</ele>
        <time>2020-04-06T10:29:50Z</time>
      </trkpt>
      <trkpt lat="44.90392" lon="6.07771">
        <ele>1539.919</ele>
        <time>2020-04-06T10:30:10Z</time>
      </trkpt>
      <trkpt lat="44.90399" lon="6.07759">
        <ele>1533.422</ele>
        <time>2020-04-06T10:30:30Z</time>
      </trkpt>
      <trkpt lat="44.9044" lon="6.07755">
        <ele>1527.962</ele>
        <time>2020-04-06T10:30:50Z</time>
      </trkpt>
      <trkpt lat="44.90417" lon="6.07727">
        <ele>1516.108</ele>
        <time>2020-04-06T10:31:10Z</time>
      </trkpt>
      <trkpt lat="44.90422" lon="6.07718">
        <ele>1513.508</ele>
        <time>2020-04-06T10:31:30Z</time>
      </trkpt>
      <trkpt lat="44.90462" lon="6.0771">
        <ele>1512.968</ele>
        <time>2020-04-06T10:31:50Z</time>
      </trkpt>
      <trkpt lat="44.90495" lon="6.07678">
        <ele>1505.286</ele>
        <time>2020-04-06T10:32:10Z</time>
      </trkpt>
      <trkpt lat="44.90537" lon="6.07606">
        <ele>1492.454</ele>
        <time>2020-04-06T10:32:30Z</time>
      </trkpt>
      <trkpt lat="44.90577" lon="6.07606">
        <ele>1491.728</ele>
        <time>2020-04-06T10:32:50Z</time>
      </trkpt>
      <trkpt lat="44.90606" lon="6.07632">
        <ele>1495.929</ele>
        <time>2020-04-06T10:33:10Z</time>
      </trkpt>
      <trkpt lat="44.90665" lon="6.07691">
        <ele>1504.526</ele>
        <time>2020-04-06T10:33:30Z</time>
      </trkpt>
      <trkpt lat="44.90681" lon="6.07751">
        <ele>1515.22</ele>
        <time>2020-04-06T10:33:50Z</time>
      </trkpt>
      <trkpt lat="44.90779" lon="6.07811">
        <ele>1530.857</ele>
        <time>2020-04-06T10:34:10Z</time>
      </trkpt>
      <trkpt lat="44.90802" lon="6.07856">
        <ele>1538.032</ele>
        <time>2020-04-06T10:34:30Z</time>
      </trkpt>
      <trkpt lat="44.9079" lon="6.07998">
        <ele>1560.092</ele>
        <time>2020-04-06T10:34:50Z</time>
      </trkpt>
      <trkpt lat="44.90824" lon="6.08002">
        <ele>1562.511</ele>
        <time>2020-04-06T10:35:10Z</time>
      </trkpt>
      <trkpt lat="44.90852" lon="6.08084">
        <ele>1575.708</ele>
        <time>2020-04-06T10:35:30Z</time>
      </trkpt>
      <trkpt lat="44.9086" lon="6.08125">
        <ele>1582.189</ele>
        <time>2020-04-06T10:35:50Z</time>
      </trkpt>
      <trkpt lat="44.90802" lon="6.08143">
        <ele>1589.177</ele>
        <time>2020-04-06T10:36:10Z</time>
      </trkpt>
      <trkpt lat="44.90771" lon="6.08145">
        <ele>1591.175</ele>
        <time>2020-04-06T10:36:30Z</time>
      </trkpt>
      <trkpt lat="44.90849" lon="6.08205">
        <ele>1602.869</ele>
        <time>2020-04-06T10:36:50Z</time>
      </trkpt>
      <trkpt lat="44.90919" lon="6.08308">
        <ele>1620.08</ele>
        <time>2020-04-06T10:37:10Z</time>
      </trkpt>
      <trkpt lat="44.90966" lon="6.08377">
        <ele>1629.587</ele>
        <time>2020-04-06T10:37:30Z</time>
      </trkpt>
      <trkpt lat="44.91003" lon="6.08403">
        <ele>1635.941</ele>
        <time>2020-04-06T10:37:50Z</time>
      </trkpt>
      <trkpt lat="44.91029" lon="6.08399">
        <ele>1638.768</ele>
        <time>2020-04-06T10:38:10Z</time>
      </trkpt>
      <trkpt lat="44.91034" lon="6.08368">
        <ele>1637.068</ele>
        <time>2020-04-06T10:38:30Z</time>
      </trkpt>
      <trkpt lat="44.91016" lon="6.08317">
        <ele>1633.642</ele>
        <time>2020-04-06T10:38:50Z</time>
      </trkpt>
      <trkpt lat="44.91021" lon="6.08278">
        <ele>1638.426</ele>
        <time>2020-04-06T10:39:10Z</time>
      </trkpt>
      <trkpt lat="44.91044" lon="6.0828">
        <ele>1647.708</ele>
        <time>2020-04-06T10:39:30Z</time>
      </trkpt>
      <trkpt lat="44.91077" lon="6.08302">
        <ele>1660.412</ele>
        <time>2020-04-06T10:39:50Z</time>
      </trkpt>
      <trkpt lat="44.91102" lon="6.08349">
        <ele>1664.87</ele>
        <time>2020-04-06T10:40:10Z</time>
      </trkpt>
      <trkpt lat="44.91151" lon="6.08386">
        <ele>1682.248</ele>
        <time>2020-04-06T10:40:30Z</time>
      </trkpt>
      <trkpt lat="44.9122" lon="6.08407">
        <ele>1703.292</ele>
        <time>2020-04-06T10:40:50Z</time>
      </trkpt>
      <trkpt lat="44.91253" lon="6.08426">
        <ele>1710.413</ele>
        <time>2020-04-06T10:41:10Z</time>
      </trkpt>
      <trkpt lat="44.91306" lon="6.08431">
        <ele>1725.34</ele>
        <time>2020-04-06T10:41:30Z</time>
      </trkpt>
      <trkpt lat="44.91349" lon="6.08441">
        <ele>1737.154</ele>
        <time>2020-04-06T10:41:50Z</time>
      </trkpt>
      <trkpt lat="44.91302" lon="6.08293">
        <ele>1777.221</ele>
        <time>2020-04-06T10:42:10Z</time>
      </trkpt>
      <trkpt lat="44.91377" lon="6.08295">
        <ele>1802.758</ele>
        <time>2020-04-06T10:42:30Z</time>
      </trkpt>
      <trkpt lat="44.91455" lon="6.0828">
        <ele>1831.952</ele>
        <time>2020-04-06T10:42:50Z</time>
      </trkpt>
      <trkpt lat="44.91517" lon="6.0828">
        <ele>1849.617</ele>
        <time>2020-04-06T10:43:10Z</time>
      </trkpt>
      <trkpt lat="44.91586" lon="6.08306">
        <ele>1867.308</ele>
        <time>2020-04-06T10:43:30Z</time>
      </trkpt>
      <trkpt lat="44.91634" lon="6.08334">
        <ele>1880.731</ele>
        <time>2020-04-06T10:43:50Z</time>
      </trkpt>
      <trkpt lat="44.91664" lon="6.0837">
        <ele>1883.699</ele>
        <time>2020-04-06T10:44:10Z</time>
      </trkpt>
      <trkpt lat="44.91693" lon="6.08379">
        <ele>1895.777</ele>
        <time>2020-04-06T10:44:30Z</time>
      </trkpt>
      <trkpt lat="44.91736" lon="6.08422">
        <ele>1902.611</ele>
        <time>2020-04-06T10:44:50Z</time>
      </trkpt>
      <trkpt lat="44.91769" lon="6.08426">
        <ele>1917.722</ele>
        <time>2020-04-06T10:45:10Z</time>
      </trkpt>
      <trkpt lat="44.91792" lon="6.0847">
        <ele>1925.129</ele>
        <time>2020-04-06T10:45:30Z</time>
      </trkpt>
      <trkpt lat="44.91804" lon="6.08407">
        <ele>1941.293</ele>
        <time>2020-04-06T10:45:50Z</time>
      </trkpt>
      <trkpt lat="44.91828" lon="6.08444">
        <ele>1945.62</ele>
        <time>2020-04-06T10:46:10Z</time>
      </trkpt>
      <trkpt lat="44.91872" lon="6.08454">
        <ele>1961.246</ele>
        <time>2020-04-06T10:46:30Z</time>
      </trkpt>
      <trkpt lat="44.91898" lon="6.08448">
        <ele>1973.388</ele>
        <time>2020-04-06T10:46:50Z</time>
      </trkpt>
      <trkpt lat="44.91919" lon="6.08454">
        <ele>1977.816</ele>
        <time>2020-04-06T10:47:10Z</time>
      </trkpt>
      <trkpt lat="44.91901" lon="6.08355">
        <ele>2000.308</ele>
        <time>2020-04-06T10:47:30Z</time>
      </trkpt>
      <trkpt lat="44.91949" lon="6.08366">
        <ele>2013.06</ele>
        <time>2020-04-06T10:47:50Z</time>
      </trkpt>
      <trkpt lat="44.92" lon="6.08345">
        <ele>2031.698</ele>
        <time>2020-04-06T10:48:10Z</time>
      </trkpt>
      <trkpt lat="44.92078" lon="6.08345">
        <ele>2050.756</ele>
        <time>2020-04-06T10:48:30Z</time>
      </trkpt>
      <trkpt lat="44.92106" lon="6.08351">
        <ele>2054.62</ele>
        <time>2020-04-06T10:48:50Z</time>
      </trkpt>
      <trkpt lat="44.92134" lon="6.08334">
        <ele>2065.521</ele>
        <time>2020-04-06T10:49:10Z</time>
      </trkpt>
      <trkpt lat="44.9214" lon="6.08371">
        <ele>2059.188</ele>
        <time>2020-04-06T10:49:30Z</time>
      </trkpt>
      <trkpt lat="44.92184" lon="6.08371">
        <ele>2074.912</ele>
        <time>2020-04-06T10:49:50Z</time>
      </trkpt>
      <trkpt lat="44.92213" lon="6.08392">
        <ele>2084.679</ele>
        <time>2020-04-06T10:50:10Z</time>
      </trkpt>
      <trkpt lat="44.92221" lon="6.08426">
        <ele>2087.081</ele>
        <time>2020-04-06T10:50:30Z</time>
      </trkpt>
      <trkpt lat="44.92318" lon="6.0847">
        <ele>2116.061</ele>
        <time>2020-04-06T10:50:50Z</time>
      </trkpt>
      <trkpt lat="44.92343" lon="6.0847">
        <ele>2122.817</ele>
        <time>2020-04-06T10:51:10Z</time>
      </trkpt>
      <trkpt lat="44.92369" lon="6.08489">
        <ele>2126.408</ele>
        <time>2020-04-06T10:51:30Z</time>
      </trkpt>
      <trkpt lat="44.9243" lon="6.08493">
        <ele>2141.544</ele>
        <time>2020-04-06T10:51:50Z</time>
      </trkpt>
      <trkpt lat="44.92478" lon="6.08495">
        <ele>2155.632</ele>
        <time>2020-04-06T10:52:10Z</time>
      </trkpt>
      <trkpt lat="44.92507" lon="6.08523">
        <ele>2161.01</ele>
        <time>2020-04-06T10:52:30Z</time>
      </trkpt>
      <trkpt lat="44.92701" lon="6.08624">
        <ele>2217.054</ele>
        <time>2020-04-06T10:52:50Z</time>
      </trkpt>
      <trkpt lat="44.92714" lon="6.08609">
        <ele>2224.595</ele>
        <time>2020-04-06T10:53:10Z</time>
      </trkpt>
      <trkpt lat="44.92728" lon="6.08635">
        <ele>2226.912</ele>
        <time>2020-04-06T10:53:30Z</time>
      </trkpt>
      <trkpt lat="44.92732" lon="6.08616">
        <ele>2230.886</ele>
        <time>2020-04-06T10:53:50Z</time>
      </trkpt>
      <trkpt lat="44.92742" lon="6.08627">
        <ele>2234.653</ele>
        <time>2020-04-06T10:54:10Z</time>
      </trkpt>
      <trkpt lat="44.92746" lon="6.08607">
        <ele>2238.542</ele>
        <time>2020-04-06T10:54:30Z</time>
      </trkpt>
      <trkpt lat="44.9277" lon="6.08635">
        <ele>2246.122</ele>
        <time>2020-04-06T10:54:50Z</time>
      </trkpt>
      <trkpt lat="44.92778" lon="6.08612">
        <ele>2252.814</ele>
        <time>2020-04-06T10:55:10Z</time>
      </trkpt>
      <trkpt lat="44.92811" lon="6.08663">
        <ele>2263.908</ele>
        <time>2020-04-06T10:55:30Z</time>
      </trkpt>
      <trkpt lat="44.92816" lon="6.08637">
        <ele>2271.81</ele>
        <time>2020-04-06T10:55:50Z</time>
      </trkpt>
      <trkpt lat="44.92825" lon="6.08665">
        <ele>2272.598</ele>
        <time>2020-04-06T10:56:10Z</time>
      </trkpt>
      <trkpt lat="44.92833" lon="6.08644">
        <ele>2281.016</ele>
        <time>2020-04-06T10:56:30Z</time>
      </trkpt>
      <trkpt lat="44.92864" lon="6.08674">
        <ele>2296.25</ele>
        <time>2020-04-06T10:56:50Z</time>
      </trkpt>
      <trkpt lat="44.92913" lon="6.08678">
        <ele>2325.321</ele>
        <time>2020-04-06T10:57:10Z</time>
      </trkpt>
      <trkpt lat="44.92929" lon="6.08698">
        <ele>2334.928</ele>
        <time>2020-04-06T10:57:30Z</time>
      </trkpt>
      <trkpt lat="44.92933" lon="6.0868">
        <ele>2339.342</ele>
        <time>2020-04-06T10:57:50Z</time>
      </trkpt>
      <trkpt lat="44.92943" lon="6.08689">
        <ele>2345.839</ele>
        <time>2020-04-06T10:58:10Z</time>
      </trkpt>
      <trkpt lat="44.92948" lon="6.0867">
        <ele>2352.129</ele>
        <time>2020-04-06T10:58:30Z</time>
      </trkpt>
      <trkpt lat="44.92962" lon="6.08683">
        <ele>2359.1</ele>
        <time>2020-04-06T10:58:50Z</time>
      </trkpt>
      <trkpt lat="44.9296" lon="6.08659">
        <ele>2361.42</ele>
        <time>2020-04-06T10:59:10Z</time>
      </trkpt>
      <trkpt lat="44.92974" lon="6.08672">
        <ele>2368.308</ele>
        <time>2020-04-06T10:59:30Z</time>
      </trkpt>
      <trkpt lat="44.92974" lon="6.08655">
        <ele>2370.538</ele>
        <time>2020-04-06T10:59:50Z</time>
      </trkpt>
      <trkpt lat="44.93015" lon="6.08706">
        <ele>2395.246</ele>
        <time>2020-04-06T11:00:10Z</time>
      </trkpt>
      <trkpt lat="44.93225" lon="6.08795">
        <ele>2580.554</ele>
        <time>2020-04-06T11:00:30Z</time>
      </trkpt>
      <trkpt lat="44.93283" lon="6.08827">
        <ele>2607.678</ele>
        <time>2020-04-06T11:00:50Z</time>
      </trkpt>
      <trkpt lat="44.93353" lon="6.08782">
        <ele>2573.799</ele>
        <time>2020-04-06T11:01:10Z</time>
      </trkpt>
      <trkpt lat="44.93413" lon="6.08769">
        <ele>2545.936</ele>
        <time>2020-04-06T11:01:30Z</time>
      </trkpt>
      <trkpt lat="44.93409" lon="6.08857">
        <ele>2525.77</ele>
        <time>2020-04-06T11:01:50Z</time>
      </trkpt>
      <trkpt lat="44.93415" lon="6.08902">
        <ele>2514.867</ele>
        <time>2020-04-06T11:02:10Z</time>
      </trkpt>
      <trkpt lat="44.93431" lon="6.08913">
        <ele>2507.372</ele>
        <time>2020-04-06T11:02:30Z</time>
      </trkpt>
      <trkpt lat="44.93447" lon="6.08915">
        <ele>2501.713</ele>
        <time>2020-04-06T11:02:50Z</time>
      </trkpt>
      <trkpt lat="44.93452" lon="6.08924">
        <ele>2499.514</ele>
        <time>2020-04-06T11:03:10Z</time>
      </trkpt>
      <trkpt lat="44.9353" lon="6.08921">
        <ele>2477.708</ele>
        <time>2020-04-06T11:03:30Z</time>
      </trkpt>
      <trkpt lat="44.9354" lon="6.08969">
        <ele>2464.563</ele>
        <time>2020-04-06T11:03:50Z</time>
      </trkpt>
      <trkpt lat="44.93575" lon="6.08947">
        <ele>2448.451</ele>
        <time>2020-04-06T11:04:10Z</time>
      </trkpt>
      <trkpt lat="44.936" lon="6.08964">
        <ele>2436.019</ele>
        <time>2020-04-06T11:04:30Z</time>
      </trkpt>
      <trkpt lat="44.93648" lon="6.08975">
        <ele>2416.153</ele>
        <time>2020-04-06T11:04:50Z</time>
      </trkpt>
      <trkpt lat="44.93705" lon="6.0898">
        <ele>2394.164</ele>
        <time>2020-04-06T11:05:10Z</time>
      </trkpt>
      <trkpt lat="44.93752" lon="6.08975">
        <ele>2378.591</ele>
        <time>2020-04-06T11:05:30Z</time>
      </trkpt>
      <trkpt lat="44.938" lon="6.08986">
        <ele>2367.065</ele>
        <time>2020-04-06T11:05:50Z</time>
      </trkpt>
      <trkpt lat="44.93867" lon="6.09014">
        <ele>2347.012</ele>
        <time>2020-04-06T11:06:10Z</time>
      </trkpt>
      <trkpt lat="44.93932" lon="6.09042">
        <ele>2328.882</ele>
        <time>2020-04-06T11:06:30Z</time>
      </trkpt>
      <trkpt lat="44.93977" lon="6.09025">
        <ele>2312.743</ele>
        <time>2020-04-06T11:06:50Z</time>
      </trkpt>
      <trkpt lat="44.94001" lon="6.09031">
        <ele>2306.017</ele>
        <time>2020-04-06T11:07:10Z</time>
      </trkpt>
      <trkpt lat="44.94012" lon="6.0904">
        <ele>2303.808</ele>
        <time>2020-04-06T11:07:30Z</time>
      </trkpt>
      <trkpt lat="44.9405" lon="6.09027">
        <ele>2294.414</ele>
        <time>2020-04-06T11:07:50Z</time>
      </trkpt>
      <trkpt lat="44.94083" lon="6.09044">
        <ele>2286.832</ele>
        <time>2020-04-06T11:08:10Z</time>
      </trkpt>
      <trkpt lat="44.94111" lon="6.09038">
        <ele>2282.48</ele>
        <time>2020-04-06T11:08:30Z</time>
      </trkpt>
      <trkpt lat="44.94174" lon="6.0907">
        <ele>2270.174</ele>
        <time>2020-04-06T11:08:50Z</time>
      </trkpt>
      <trkpt lat="44.94219" lon="6.09111">
        <ele>2255.965</ele>
        <time>2020-04-06T11:09:10Z</time>
      </trkpt>
      <trkpt lat="44.94247" lon="6.09106">
        <ele>2253.212</ele>
        <time>2020-04-06T11:09:30Z</time>
      </trkpt>
      <trkpt lat="44.94318" lon="6.09195">
        <ele>2214.596</ele>
        <time>2020-04-06T11:09:50Z</time>
      </trkpt>
      <trkpt lat="44.94362" lon="6.09208">
        <ele>2199.833</ele>
        <time>2020-04-06T11:10:10Z</time>
      </trkpt>
      <trkpt lat="44.94396" lon="6.09191">
        <ele>2195.557</ele>
        <time>2020-04-06T11:10:30Z</time>
      </trkpt>
      <trkpt lat="44.94424" lon="6.09221">
        <ele>2182.4</ele>
        <time>2020-04-06T11:10:50Z</time>
      </trkpt>
      <trkpt lat="44.9449" lon="6.09221">
        <ele>2168.72</ele>
        <time>2020-04-06T11:11:10Z</time>
      </trkpt>
      <trkpt lat="44.94519" lon="6.09264">
        <ele>2158.908</ele>
        <time>2020-04-06T11:11:30Z</time>
      </trkpt>
      <trkpt lat="44.94581" lon="6.09318">
        <ele>2141.891</ele>
        <time>2020-04-06T11:11:50Z</time>
      </trkpt>
      <trkpt lat="44.94633" lon="6.09343">
        <ele>2132.419</ele>
        <time>2020-04-06T11:12:10Z</time>
      </trkpt>
      <trkpt lat="44.94683" lon="6.09343">
        <ele>2125.627</ele>
        <time>2020-04-06T11:12:30Z</time>
      </trkpt>
      <trkpt lat="44.94744" lon="6.09354">
        <ele>2118.671</ele>
        <time>2020-04-06T11:12:50Z</time>
      </trkpt>
      <trkpt lat="44.94804" lon="6.09386">
        <ele>2115.362</ele>
        <time>2020-04-06T11:13:10Z</time>
      </trkpt>
      <trkpt lat="44.94863" lon="6.09399">
        <ele>2111.969</ele>
        <time>2020-04-06T11:13:30Z</time>
      </trkpt>
      <trkpt lat="44.94893" lon="6.09417">
        <ele>2109.893</ele>
        <time>2020-04-06T11:13:50Z</time>
      </trkpt>
      <trkpt lat="44.94933" lon="6.09444">
        <ele>2106.51</ele>
        <time>2020-04-06T11:14:10Z</time>
      </trkpt>
      <trkpt lat="44.94995" lon="6.09462">
        <ele>2104.336</ele>
        <time>2020-04-06T11:14:30Z</time>
      </trkpt>
      <trkpt lat="44.95018" lon="6.09479">
        <ele>2102.717</ele>
        <time>2020-04-06T11:14:50Z</time>
      </trkpt>
      <trkpt lat="44.9506" lon="6.09496">
        <ele>2101.318</ele>
        <time>2020-04-06T11:15:10Z</time>
      </trkpt>
      <trkpt lat="44.95084" lon="6.09525">
        <ele>2099.408</ele>
        <time>2020-04-06T11:15:30Z</time>
      </trkpt>
      <trkpt lat="44.95096" lon="6.09515">
        <ele>2100.499</ele>
        <time>2020-04-06T11:15:50Z</time>
      </trkpt>
      <trkpt lat="44.95071" lon="6.09481">
        <ele>2105.467</ele>
        <time>2020-04-06T11:16:10Z</time>
      </trkpt>
      <trkpt lat="44.95077" lon="6.09397">
        <ele>2112.385</ele>
        <time>2020-04-06T11:16:30Z</time>
      </trkpt>
      <trkpt lat="44.951" lon="6.09348">
        <ele>2117.399</ele>
        <time>2020-04-06T11:16:50Z</time>
      </trkpt>
      <trkpt lat="44.95136" lon="6.09315">
        <ele>2121.54</ele>
        <time>2020-04-06T11:17:10Z</time>
      </trkpt>
      <trkpt lat="44.95132" lon="6.09216">
        <ele>2131.197</ele>
        <time>2020-04-06T11:17:30Z</time>
      </trkpt>
      <trkpt lat="44.95141" lon="6.09164">
        <ele>2140.661</ele>
        <time>2020-04-06T11:17:50Z</time>
      </trkpt>
      <trkpt lat="44.9518" lon="6.09105">
        <ele>2148.378</ele>
        <time>2020-04-06T11:18:10Z</time>
      </trkpt>
      <trkpt lat="44.95213" lon="6.09024">
        <ele>2172.829</ele>
        <time>2020-04-06T11:18:30Z</time>
      </trkpt>
      <trkpt lat="44.95257" lon="6.08974">
        <ele>2180.3</ele>
        <time>2020-04-06T11:18:50Z</time>
      </trkpt>
      <trkpt lat="44.9524" lon="6.08969">
        <ele>2189.62</ele>
        <time>2020-04-06T11:19:10Z</time>
      </trkpt>
      <trkpt lat="44.95291" lon="6.08896">
        <ele>2204.608</ele>
        <time>2020-04-06T11:19:30Z</time>
      </trkpt>
      <trkpt lat="44.95319" lon="6.08876">
        <ele>2200.688</ele>
        <time>2020-04-06T11:19:50Z</time>
      </trkpt>
      <trkpt lat="44.95305" lon="6.08875">
        <ele>2207.846</ele>
        <time>2020-04-06T11:20:10Z</time>
      </trkpt>
      <trkpt lat="44.95313" lon="6.08869">
        <ele>2207.444</ele>
        <time>2020-04-06T11:20:30Z</time>
      </trkpt>
      <trkpt lat="44.95302" lon="6.08869">
        <ele>2212.498</ele>
        <time>2020-04-06T11:20:50Z</time>
      </trkpt>
      <trkpt lat="44.95306" lon="6.08863">
        <ele>2213.419</ele>
        <time>2020-04-06T11:21:10Z</time>
      </trkpt>
      <trkpt lat="44.95297" lon="6.08863">
        <ele>2218.066</ele>
        <time>2020-04-06T11:21:30Z</time>
      </trkpt>
      <trkpt lat="44.95306" lon="6.0885">
        <ele>2220.74</ele>
        <time>2020-04-06T11:21:50Z</time>
      </trkpt>
      <trkpt lat="44.95293" lon="6.08849">
        <ele>2226.387</ele>
        <time>2020-04-06T11:22:10Z</time>
      </trkpt>
      <trkpt lat="44.95302" lon="6.08836">
        <ele>2228.922</ele>
        <time>2020-04-06T11:22:30Z</time>
      </trkpt>
      <trkpt lat="44.95305" lon="6.08822">
        <ele>2233.362</ele>
        <time>2020-04-06T11:22:50Z</time>
      </trkpt>
      <trkpt lat="44.95288" lon="6.08829">
        <ele>2236.508</ele>
        <time>2020-04-06T11:23:10Z</time>
      </trkpt>
      <trkpt lat="44.95295" lon="6.08805">
        <ele>2243.008</ele>
        <time>2020-04-06T11:23:30Z</time>
      </trkpt>
      <trkpt lat="44.95288" lon="6.08811">
        <ele>2243.558</ele>
        <time>2020-04-06T11:23:50Z</time>
      </trkpt>
      <trkpt lat="44.95293" lon="6.08788">
        <ele>2249.796</ele>
        <time>2020-04-06T11:24:10Z</time>
      </trkpt>
      <trkpt lat="44.95274" lon="6.08794">
        <ele>2256.894</ele>
        <time>2020-04-06T11:24:30Z</time>
      </trkpt>
      <trkpt lat="44.95282" lon="6.08778">
        <ele>2258.418</ele>
        <time>2020-04-06T11:24:50Z</time>
      </trkpt>
      <trkpt lat="44.95286" lon="6.0874">
        <ele>2268.169</ele>
        <time>2020-04-06T11:25:10Z</time>
      </trkpt>
      <trkpt lat="44.95305" lon="6.08687">
        <ele>2280.976</ele>
        <time>2020-04-06T11:25:30Z</time>
      </trkpt>
      <trkpt lat="44.95328" lon="6.08649">
        <ele>2289.13</ele>
        <time>2020-04-06T11:25:50Z</time>
      </trkpt>
      <trkpt lat="44.95342" lon="6.08637">
        <ele>2291.987</ele>
        <time>2020-04-06T11:26:10Z</time>
      </trkpt>
      <trkpt lat="44.95356" lon="6.08634">
        <ele>2291.653</ele>
        <time>2020-04-06T11:26:30Z</time>
      </trkpt>
      <trkpt lat="44.95383" lon="6.08604">
        <ele>2301.204</ele>
        <time>2020-04-06T11:26:50Z</time>
      </trkpt>
      <trkpt lat="44.95394" lon="6.08596">
        <ele>2301.214</ele>
        <time>2020-04-06T11:27:10Z</time>
      </trkpt>
      <trkpt lat="44.95404" lon="6.08574">
        <ele>2305.808</ele>
        <time>2020-04-06T11:27:30Z</time>
      </trkpt>
      <trkpt lat="44.95423" lon="6.08553">
        <ele>2308.161</ele>
        <time>2020-04-06T11:27:50Z</time>
      </trkpt>
      <trkpt lat="44.95442" lon="6.08546">
        <ele>2307.829</ele>
        <time>2020-04-06T11:28:10Z</time>
      </trkpt>
      <trkpt lat="44.95437" lon="6.0854">
        <ele>2310.877</ele>
        <time>2020-04-06T11:28:30Z</time>
      </trkpt>
      <trkpt lat="44.9545" lon="6.08527">
        <ele>2314.261</ele>
        <time>2020-04-06T11:28:50Z</time>
      </trkpt>
      <trkpt lat="44.95426" lon="6.08518">
        <ele>2322.542</ele>
        <time>2020-04-06T11:29:10Z</time>
      </trkpt>
      <trkpt lat="44.9545" lon="6.08504">
        <ele>2323.899</ele>
        <time>2020-04-06T11:29:30Z</time>
      </trkpt>
      <trkpt lat="44.95441" lon="6.085">
        <ele>2326.463</ele>
        <time>2020-04-06T11:29:50Z</time>
      </trkpt>
      <trkpt lat="44.95453" lon="6.08491">
        <ele>2330.78</ele>
        <time>2020-04-06T11:30:10Z</time>
      </trkpt>
      <trkpt lat="44.95448" lon="6.08489">
        <ele>2331.286</ele>
        <time>2020-04-06T11:30:30Z</time>
      </trkpt>
      <trkpt lat="44.95447" lon="6.08478">
        <ele>2336.56</ele>
        <time>2020-04-06T11:30:50Z</time>
      </trkpt>
      <trkpt lat="44.95456" lon="6.0847">
        <ele>2341.726</ele>
        <time>2020-04-06T11:31:10Z</time>
      </trkpt>
      <trkpt lat="44.95443" lon="6.08462">
        <ele>2344.908</ele>
        <time>2020-04-06T11:31:30Z</time>
      </trkpt>
      <trkpt lat="44.95458" lon="6.08454">
        <ele>2350.324</ele>
        <time>2020-04-06T11:31:50Z</time>
      </trkpt>
      <trkpt lat="44.95442" lon="6.08438">
        <ele>2356.942</ele>
        <time>2020-04-06T11:32:10Z</time>
      </trkpt>
      <trkpt lat="44.95464" lon="6.08436">
        <ele>2359.44</ele>
        <time>2020-04-06T11:32:30Z</time>
      </trkpt>
      <trkpt lat="44.9544" lon="6.08411">
        <ele>2368.284</ele>
        <time>2020-04-06T11:32:50Z</time>
      </trkpt>
      <trkpt lat="44.95466" lon="6.08415">
        <ele>2369.945</ele>
        <time>2020-04-06T11:33:10Z</time>
      </trkpt>
      <trkpt lat="44.95447" lon="6.08388">
        <ele>2378.392</ele>
        <time>2020-04-06T11:33:30Z</time>
      </trkpt>
      <trkpt lat="44.95469" lon="6.08394">
        <ele>2380.796</ele>
        <time>2020-04-06T11:33:50Z</time>
      </trkpt>
      <trkpt lat="44.95444" lon="6.0835">
        <ele>2397.073</ele>
        <time>2020-04-06T11:34:10Z</time>
      </trkpt>
      <trkpt lat="44.95476" lon="6.0836">
        <ele>2400.536</ele>
        <time>2020-04-06T11:34:30Z</time>
      </trkpt>
      <trkpt lat="44.9545" lon="6.08318">
        <ele>2415.017</ele>
        <time>2020-04-06T11:34:50Z</time>
      </trkpt>
      <trkpt lat="44.95485" lon="6.08323">
        <ele>2422.918</ele>
        <time>2020-04-06T11:35:10Z</time>
      </trkpt>
      <trkpt lat="44.95447" lon="6.08271">
        <ele>2440.008</ele>
        <time>2020-04-06T11:35:30Z</time>
      </trkpt>
      <trkpt lat="44.95494" lon="6.08277">
        <ele>2452.079</ele>
        <time>2020-04-06T11:35:50Z</time>
      </trkpt>
      <trkpt lat="44.95492" lon="6.0826">
        <ele>2462.077</ele>
        <time>2020-04-06T11:36:10Z</time>
      </trkpt>
      <trkpt lat="44.95502" lon="6.08259">
        <ele>2466.365</ele>
        <time>2020-04-06T11:36:30Z</time>
      </trkpt>
      <trkpt lat="44.95485" lon="6.08246">
        <ele>2469.629</ele>
        <time>2020-04-06T11:36:50Z</time>
      </trkpt>
      <trkpt lat="44.95491" lon="6.08237">
        <ele>2478.24</ele>
        <time>2020-04-06T11:37:10Z</time>
      </trkpt>
      <trkpt lat="44.95475" lon="6.08225">
        <ele>2481.647</ele>
        <time>2020-04-06T11:37:30Z</time>
      </trkpt>
      <trkpt lat="44.95486" lon="6.08222">
        <ele>2486.811</ele>
        <time>2020-04-06T11:37:50Z</time>
      </trkpt>
      <trkpt lat="44.95479" lon="6.08214">
        <ele>2490.828</ele>
        <time>2020-04-06T11:38:10Z</time>
      </trkpt>
      <trkpt lat="44.95501" lon="6.08213">
        <ele>2499.342</ele>
        <time>2020-04-06T11:38:30Z</time>
      </trkpt>
      <trkpt lat="44.95493" lon="6.08205">
        <ele>2502.722</ele>
        <time>2020-04-06T11:38:50Z</time>
      </trkpt>
      <trkpt lat="44.95502" lon="6.08203">
        <ele>2507.114</ele>
        <time>2020-04-06T11:39:10Z</time>
      </trkpt>
      <trkpt lat="44.95441" lon="6.08137">
        <ele>2528.108</ele>
        <time>2020-04-06T11:39:30Z</time>
      </trkpt>
      <trkpt lat="44.95431" lon="6.08134">
        <ele>2528.36</ele>
        <time>2020-04-06T11:39:50Z</time>
      </trkpt>
      <trkpt lat="44.95435" lon="6.08113">
        <ele>2527.488</ele>
        <time>2020-04-06T11:40:10Z</time>
      </trkpt>
      <trkpt lat="44.95444" lon="6.08093">
        <ele>2521.066</ele>
        <time>2020-04-06T11:40:30Z</time>
      </trkpt>
      <trkpt lat="44.95455" lon="6.08077">
        <ele>2516.98</ele>
        <time>2020-04-06T11:40:50Z</time>
      </trkpt>
      <trkpt lat="44.95477" lon="6.0806">
        <ele>2511.851</ele>
        <time>2020-04-06T11:41:10Z</time>
      </trkpt>
      <trkpt lat="44.95514" lon="6.08055">
        <ele>2508.578</ele>
        <time>2020-04-06T11:41:30Z</time>
      </trkpt>
      <trkpt lat="44.9555" lon="6.08042">
        <ele>2504.112</ele>
        <time>2020-04-06T11:41:50Z</time>
      </trkpt>
      <trkpt lat="44.95568" lon="6.08042">
        <ele>2501.499</ele>
        <time>2020-04-06T11:42:10Z</time>
      </trkpt>
      <trkpt lat="44.95596" lon="6.08046">
        <ele>2496.945</ele>
        <time>2020-04-06T11:42:30Z</time>
      </trkpt>
      <trkpt lat="44.95638" lon="6.08043">
        <ele>2486.047</ele>
        <time>2020-04-06T11:42:50Z</time>
      </trkpt>
      <trkpt lat="44.9568" lon="6.08057">
        <ele>2477.511</ele>
        <time>2020-04-06T11:43:10Z</time>
      </trkpt>
      <trkpt lat="44.95693" lon="6.08071">
        <ele>2476.008</ele>
        <time>2020-04-06T11:43:30Z</time>
      </trkpt>
      <trkpt lat="44.95734" lon="6.08092">
        <ele>2463.49</ele>
        <time>2020-04-06T11:43:50Z</time>
      </trkpt>
      <trkpt lat="44.95748" lon="6.08093">
        <ele>2457.568</ele>
        <time>2020-04-06T11:44:10Z</time>
      </trkpt>
      <trkpt lat="44.95773" lon="6.08101">
        <ele>2450.616</ele>
        <time>2020-04-06T11:44:30Z</time>
      </trkpt>
      <trkpt lat="44.95779" lon="6.08107">
        <ele>2451.69</ele>
        <time>2020-04-06T11:44:50Z</time>
      </trkpt>
      <trkpt lat="44.95806" lon="6.0809">
        <ele>2436.741</ele>
        <time>2020-04-06T11:45:10Z</time>
      </trkpt>
      <trkpt lat="44.95829" lon="6.08089">
        <ele>2432.438</ele>
        <time>2020-04-06T11:45:30Z</time>
      </trkpt>
      <trkpt lat="44.95847" lon="6.08076">
        <ele>2425.872</ele>
        <time>2020-04-06T11:45:50Z</time>
      </trkpt>
      <trkpt lat="44.95836" lon="6.08071">
        <ele>2424.699</ele>
        <time>2020-04-06T11:46:10Z</time>
      </trkpt>
      <trkpt lat="44.95849" lon="6.08059">
        <ele>2419.666</ele>
        <time>2020-04-06T11:46:30Z</time>
      </trkpt>
      <trkpt lat="44.95844" lon="6.08052">
        <ele>2418.029</ele>
        <time>2020-04-06T11:46:50Z</time>
      </trkpt>
      <trkpt lat="44.95873" lon="6.08037">
        <ele>2410.021</ele>
        <time>2020-04-06T11:47:10Z</time>
      </trkpt>
      <trkpt lat="44.95868" lon="6.08024">
        <ele>2406.408</ele>
        <time>2020-04-06T11:47:30Z</time>
      </trkpt>
      <trkpt lat="44.959" lon="6.08002">
        <ele>2395.832</ele>
        <time>2020-04-06T11:47:50Z</time>
      </trkpt>
      <trkpt lat="44.95896" lon="6.07967">
        <ele>2386.16</ele>
        <time>2020-04-06T11:48:10Z</time>
      </trkpt>
      <trkpt lat="44.9591" lon="6.07966">
        <ele>2381.488</ele>
        <time>2020-04-06T11:48:30Z</time>
      </trkpt>
      <trkpt lat="44.95921" lon="6.0796">
        <ele>2375.872</ele>
        <time>2020-04-06T11:48:50Z</time>
      </trkpt>
      <trkpt lat="44.95932" lon="6.07963">
        <ele>2373.413</ele>
        <time>2020-04-06T11:49:10Z</time>
      </trkpt>
      <trkpt lat="44.9593" lon="6.07942">
        <ele>2367.08</ele>
        <time>2020-04-06T11:49:30Z</time>
      </trkpt>
      <trkpt lat="44.95918" lon="6.07923">
        <ele>2364.464</ele>
        <time>2020-04-06T11:49:50Z</time>
      </trkpt>
      <trkpt lat="44.95909" lon="6.0792">
        <ele>2366.511</ele>
        <time>2020-04-06T11:50:10Z</time>
      </trkpt>
      <trkpt lat="44.95902" lon="6.07894">
        <ele>2359.745</ele>
        <time>2020-04-06T11:50:30Z</time>
      </trkpt>
      <trkpt lat="44.95904" lon="6.07876">
        <ele>2353.547</ele>
        <time>2020-04-06T11:50:50Z</time>
      </trkpt>
      <trkpt lat="44.95885" lon="6.07866">
        <ele>2352.911</ele>
        <time>2020-04-06T11:51:10Z</time>
      </trkpt>
      <trkpt lat="44.9591" lon="6.07854">
        <ele>2344.008</ele>
        <time>2020-04-06T11:51:30Z</time>
      </trkpt>
      <trkpt lat="44.95901" lon="6.07845">
        <ele>2339.82</ele>
        <time>2020-04-06T11:51:50Z</time>
      </trkpt>
      <trkpt lat="44.95917" lon="6.07835">
        <ele>2332.988</ele>
        <time>2020-04-06T11:52:10Z</time>
      </trkpt>
      <trkpt lat="44.95917" lon="6.07825">
        <ele>2328.686</ele>
        <time>2020-04-06T11:52:30Z</time>
      </trkpt>
      <trkpt lat="44.95928" lon="6.07825">
        <ele>2326.08</ele>
        <time>2020-04-06T11:52:50Z</time>
      </trkpt>
      <trkpt lat="44.95915" lon="6.07793">
        <ele>2318.911</ele>
        <time>2020-04-06T11:53:10Z</time>
      </trkpt>
      <trkpt lat="44.95931" lon="6.07782">
        <ele>2313.388</ele>
        <time>2020-04-06T11:53:30Z</time>
      </trkpt>
      <trkpt lat="44.9594" lon="6.07793">
        <ele>2312.072</ele>
        <time>2020-04-06T11:53:50Z</time>
      </trkpt>
      <trkpt lat="44.95947" lon="6.0779">
        <ele>2309.329</ele>
        <time>2020-04-06T11:54:10Z</time>
      </trkpt>
      <trkpt lat="44.9596" lon="6.07794">
        <ele>2305.111</ele>
        <time>2020-04-06T11:54:30Z</time>
      </trkpt>
      <trkpt lat="44.95972" lon="6.078">
        <ele>2302.221</ele>
        <time>2020-04-06T11:54:50Z</time>
      </trkpt>
      <trkpt lat="44.95981" lon="6.07795">
        <ele>2299.003</ele>
        <time>2020-04-06T11:55:10Z</time>
      </trkpt>
      <trkpt lat="44.95973" lon="6.07775">
        <ele>2297.408</ele>
        <time>2020-04-06T11:55:30Z</time>
      </trkpt>
      <trkpt lat="44.96005" lon="6.07761">
        <ele>2287.277</ele>
        <time>2020-04-06T11:55:50Z</time>
      </trkpt>
      <trkpt lat="44.96017" lon="6.07761">
        <ele>2284.315</ele>
        <time>2020-04-06T11:56:10Z</time>
      </trkpt>
      <trkpt lat="44.96028" lon="6.0777">
        <ele>2282.753</ele>
        <time>2020-04-06T11:56:30Z</time>
      </trkpt>
      <trkpt lat="44.96048" lon="6.07769">
        <ele>2277.757</ele>
        <time>2020-04-06T11:56:50Z</time>
      </trkpt>
      <trkpt lat="44.96061" lon="6.07769">
        <ele>2274.188</ele>
        <time>2020-04-06T11:57:10Z</time>
      </trkpt>
      <trkpt lat="44.96072" lon="6.07751">
        <ele>2266.285</ele>
        <time>2020-04-06T11:57:30Z</time>
      </trkpt>
      <trkpt lat="44.96078" lon="6.07758">
        <ele>2265.539</ele>
        <time>2020-04-06T11:57:50Z</time>
      </trkpt>
      <trkpt lat="44.96089" lon="6.07756">
        <ele>2260.286</ele>
        <time>2020-04-06T11:58:10Z</time>
      </trkpt>
      <trkpt lat="44.96106" lon="6.07775">
        <ele>2256.956</ele>
        <time>2020-04-06T11:58:30Z</time>
      </trkpt>
      <trkpt lat="44.96114" lon="6.07788">
        <ele>2258.159</ele>
        <time>2020-04-06T11:58:50Z</time>
      </trkpt>
      <trkpt lat="44.96142" lon="6.07787">
        <ele>2248.014</ele>
        <time>2020-04-06T11:59:10Z</time>
      </trkpt>
      <trkpt lat="44.96154" lon="6.07794">
        <ele>2247.708</ele>
        <time>2020-04-06T11:59:30Z</time>
      </trkpt>
      <trkpt lat="44.96165" lon="6.07792">
        <ele>2244.251</ele>
        <time>2020-04-06T11:59:50Z</time>
      </trkpt>
      <trkpt lat="44.96189" lon="6.07773">
        <ele>2231.579</ele>
        <time>2020-04-06T12:00:10Z</time>
      </trkpt>
      <trkpt lat="44.96202" lon="6.07772">
        <ele>2228.117</ele>
        <time>2020-04-06T12:00:30Z</time>
      </trkpt>
      <trkpt lat="44.96215" lon="6.07778">
        <ele>2228.251</ele>
        <time>2020-04-06T12:00:50Z</time>
      </trkpt>
      <trkpt lat="44.96234" lon="6.07766">
        <ele>2220.482</ele>
        <time>2020-04-06T12:01:10Z</time>
      </trkpt>
      <trkpt lat="44.96223" lon="6.07756">
        <ele>2217.459</ele>
        <time>2020-04-06T12:01:30Z</time>
      </trkpt>
      <trkpt lat="44.96267" lon="6.07731">
        <ele>2199.973</ele>
        <time>2020-04-06T12:01:50Z</time>
      </trkpt>
      <trkpt lat="44.96305" lon="6.0773">
        <ele>2186.62</ele>
        <time>2020-04-06T12:02:10Z</time>
      </trkpt>
      <trkpt lat="44.96321" lon="6.07746">
        <ele>2187.455</ele>
        <time>2020-04-06T12:02:30Z</time>
      </trkpt>
      <trkpt lat="44.96351" lon="6.07736">
        <ele>2178.007</ele>
        <time>2020-04-06T12:02:50Z</time>
      </trkpt>
      <trkpt lat="44.96378" lon="6.07707">
        <ele>2165.217</ele>
        <time>2020-04-06T12:03:10Z</time>
      </trkpt>
      <trkpt lat="44.9637" lon="6.07706">
        <ele>2163.608</ele>
        <time>2020-04-06T12:03:30Z</time>
      </trkpt>
      <trkpt lat="44.96377" lon="6.07697">
        <ele>2159.641</ele>
        <time>2020-04-06T12:03:50Z</time>
      </trkpt>
      <trkpt lat="44.96363" lon="6.07694">
        <ele>2157.169</ele>
        <time>2020-04-06T12:04:10Z</time>
      </trkpt>
      <trkpt lat="44.96381" lon="6.07684">
        <ele>2153.037</ele>
        <time>2020-04-06T12:04:30Z</time>
      </trkpt>
      <trkpt lat="44.96364" lon="6.07677">
        <ele>2149.311</ele>
        <time>2020-04-06T12:04:50Z</time>
      </trkpt>
      <trkpt lat="44.9639" lon="6.07662">
        <ele>2140.062</ele>
        <time>2020-04-06T12:05:10Z</time>
      </trkpt>
      <trkpt lat="44.9639" lon="6.07655">
        <ele>2136.449</ele>
        <time>2020-04-06T12:05:30Z</time>
      </trkpt>
      <trkpt lat="44.96358" lon="6.0764">
        <ele>2131.673</ele>
        <time>2020-04-06T12:05:50Z</time>
      </trkpt>
      <trkpt lat="44.9637" lon="6.07631">
        <ele>2126.05</ele>
        <time>2020-04-06T12:06:10Z</time>
      </trkpt>
      <trkpt lat="44.96359" lon="6.07623">
        <ele>2123.663</ele>
        <time>2020-04-06T12:06:30Z</time>
      </trkpt>
      <trkpt lat="44.96369" lon="6.07619">
        <ele>2120.744</ele>
        <time>2020-04-06T12:06:50Z</time>
      </trkpt>
      <trkpt lat="44.96367" lon="6.07612">
        <ele>2117.818</ele>
        <time>2020-04-06T12:07:10Z</time>
      </trkpt>
      <trkpt lat="44.96385" lon="6.07599">
        <ele>2107.808</ele>
        <time>2020-04-06T12:07:30Z</time>
      </trkpt>
      <trkpt lat="44.9638" lon="6.07589">
        <ele>2102.752</ele>
        <time>2020-04-06T12:07:50Z</time>
      </trkpt>
      <trkpt lat="44.96413" lon="6.0758">
        <ele>2092.74</ele>
        <time>2020-04-06T12:08:10Z</time>
      </trkpt>
      <trkpt lat="44.96433" lon="6.0756">
        <ele>2080.318</ele>
        <time>2020-04-06T12:08:30Z</time>
      </trkpt>
      <trkpt lat="44.96412" lon="6.07543">
        <ele>2075.812</ele>
        <time>2020-04-06T12:08:50Z</time>
      </trkpt>
      <trkpt lat="44.96447" lon="6.07528">
        <ele>2063.743</ele>
        <time>2020-04-06T12:09:10Z</time>
      </trkpt>
      <trkpt lat="44.96415" lon="6.07489">
        <ele>2052.05</ele>
        <time>2020-04-06T12:09:30Z</time>
      </trkpt>
      <trkpt lat="44.96402" lon="6.07458">
        <ele>2043.944</ele>
        <time>2020-04-06T12:09:50Z</time>
      </trkpt>
      <trkpt lat="44.96402" lon="6.07423">
        <ele>2034.281</ele>
        <time>2020-04-06T12:10:10Z</time>
      </trkpt>
      <trkpt lat="44.96391" lon="6.07406">
        <ele>2031.925</ele>
        <time>2020-04-06T12:10:30Z</time>
      </trkpt>
      <trkpt lat="44.96391" lon="6.0739">
        <ele>2027.826</ele>
        <time>2020-04-06T12:10:50Z</time>
      </trkpt>
      <trkpt lat="44.96385" lon="6.07382">
        <ele>2027.308</ele>
        <time>2020-04-06T12:11:10Z</time>
      </trkpt>
      <trkpt lat="44.96391" lon="6.07369">
        <ele>2023.108</ele>
        <time>2020-04-06T12:11:30Z</time>
      </trkpt>
      <trkpt lat="44.96405" lon="6.07371">
        <ele>2019.118</ele>
        <time>2020-04-06T12:11:50Z</time>
      </trkpt>
      <trkpt lat="44.96416" lon="6.07384">
        <ele>2019.846</ele>
        <time>2020-04-06T12:12:10Z</time>
      </trkpt>
      <trkpt lat="44.9643" lon="6.07384">
        <ele>2015.134</ele>
        <time>2020-04-06T12:12:30Z</time>
      </trkpt>
      <trkpt lat="44.96464" lon="6.07389">
        <ele>2007.588</ele>
        <time>2020-04-06T12:12:50Z</time>
      </trkpt>
      <trkpt lat="44.96477" lon="6.07388">
        <ele>2003.339</ele>
        <time>2020-04-06T12:13:10Z</time>
      </trkpt>
      <trkpt lat="44.96497" lon="6.07402">
        <ele>2002.566</ele>
        <time>2020-04-06T12:13:30Z</time>
      </trkpt>
      <trkpt lat="44.96503" lon="6.074">
        <ele>2000.81</ele>
        <time>2020-04-06T12:13:50Z</time>
      </trkpt>
      <trkpt lat="44.96508" lon="6.07385">
        <ele>1995.347</ele>
        <time>2020-04-06T12:14:10Z</time>
      </trkpt>
      <trkpt lat="44.9652" lon="6.07375">
        <ele>1991.159</ele>
        <time>2020-04-06T12:14:30Z</time>
      </trkpt>
      <trkpt lat="44.96507" lon="6.07359">
        <ele>1985.003</ele>
        <time>2020-04-06T12:14:50Z</time>
      </trkpt>
      <trkpt lat="44.96511" lon="6.07337">
        <ele>1974.723</ele>
        <time>2020-04-06T12:15:10Z</time>
      </trkpt>
      <trkpt lat="44.96523" lon="6.07316">
        <ele>1964.208</ele>
        <time>2020-04-06T12:15:30Z</time>
      </trkpt>
      <trkpt lat="44.9652" lon="6.07305">
        <ele>1958.681</ele>
        <time>2020-04-06T12:15:50Z</time>
      </trkpt>
      <trkpt lat="44.96607" lon="6.07274">
        <ele>1928.869</ele>
        <time>2020-04-06T12:16:10Z</time>
      </trkpt>
      <trkpt lat="44.96642" lon="6.07276">
        <ele>1921.457</ele>
        <time>2020-04-06T12:16:30Z</time>
      </trkpt>
      <trkpt lat="44.9666" lon="6.07282">
        <ele>1919.231</ele>
        <time>2020-04-06T12:16:50Z</time>
      </trkpt>
      <trkpt lat="44.96665" lon="6.07287">
        <ele>1920.052</ele>
        <time>2020-04-06T12:17:10Z</time>
      </trkpt>
      <trkpt lat="44.96678" lon="6.0728">
        <ele>1915.469</ele>
        <time>2020-04-06T12:17:30Z</time>
      </trkpt>
      <trkpt lat="44.96691" lon="6.07283">
        <ele>1914.693</ele>
        <time>2020-04-06T12:17:50Z</time>
      </trkpt>
      <trkpt lat="44.96713" lon="6.0727">
        <ele>1909.26</ele>
        <time>2020-04-06T12:18:10Z</time>
      </trkpt>
      <trkpt lat="44.96734" lon="6.07238">
        <ele>1892.638</ele>
        <time>2020-04-06T12:18:30Z</time>
      </trkpt>
      <trkpt lat="44.96729" lon="6.07234">
        <ele>1891.17</ele>
        <time>2020-04-06T12:18:50Z</time>
      </trkpt>
      <trkpt lat="44.96732" lon="6.07224">
        <ele>1885.317</ele>
        <time>2020-04-06T12:19:10Z</time>
      </trkpt>
      <trkpt lat="44.96715" lon="6.07223">
        <ele>1885.408</ele>
        <time>2020-04-06T12:19:30Z</time>
      </trkpt>
      <trkpt lat="44.96731" lon="6.07208">
        <ele>1877.429</ele>
        <time>2020-04-06T12:19:50Z</time>
      </trkpt>
      <trkpt lat="44.96721" lon="6.07207">
        <ele>1877.487</ele>
        <time>2020-04-06T12:20:10Z</time>
      </trkpt>
      <trkpt lat="44.96732" lon="6.07197">
        <ele>1871.825</ele>
        <time>2020-04-06T12:20:30Z</time>
      </trkpt>
      <trkpt lat="44.96718" lon="6.07192">
        <ele>1869.589</ele>
        <time>2020-04-06T12:20:50Z</time>
      </trkpt>
      <trkpt lat="44.96706" lon="6.07199">
        <ele>1871.91</ele>
        <time>2020-04-06T12:21:10Z</time>
      </trkpt>
      <trkpt lat="44.96697" lon="6.07191">
        <ele>1867.527</ele>
        <time>2020-04-06T12:21:30Z</time>
      </trkpt>
      <trkpt lat="44.96707" lon="6.07182">
        <ele>1864.161</ele>
        <time>2020-04-06T12:21:50Z</time>
      </trkpt>
      <trkpt lat="44.96692" lon="6.07181">
        <ele>1863.348</ele>
        <time>2020-04-06T12:22:10Z</time>
      </trkpt>
      <trkpt lat="44.96717" lon="6.07162">
        <ele>1854.263</ele>
        <time>2020-04-06T12:22:30Z</time>
      </trkpt>
      <trkpt lat="44.96696" lon="6.0715">
        <ele>1847.144</ele>
        <time>2020-04-06T12:22:50Z</time>
      </trkpt>
      <trkpt lat="44.96716" lon="6.07141">
        <ele>1841.918</ele>
        <time>2020-04-06T12:23:10Z</time>
      </trkpt>
      <trkpt lat="44.96695" lon="6.07129">
        <ele>1836.608</ele>
        <time>2020-04-06T12:23:30Z</time>
      </trkpt>
      <trkpt lat="44.96696" lon="6.07123">
        <ele>1833.852</ele>
        <time>2020-04-06T12:23:50Z</time>
      </trkpt>
      <trkpt lat="44.96715" lon="6.0712">
        <ele>1829.96</ele>
        <time>2020-04-06T12:24:10Z</time>
      </trkpt>
      <trkpt lat="44.9671" lon="6.07108">
        <ele>1824.388</ele>
        <time>2020-04-06T12:24:30Z</time>
      </trkpt>
      <trkpt lat="44.96718" lon="6.07102">
        <ele>1818.982</ele>
        <time>2020-04-06T12:24:50Z</time>
      </trkpt>
      <trkpt lat="44.96731" lon="6.0707">
        <ele>1798.793</ele>
        <time>2020-04-06T12:25:10Z</time>
      </trkpt>
      <trkpt lat="44.96707" lon="6.07049">
        <ele>1794.58</ele>
        <time>2020-04-06T12:25:30Z</time>
      </trkpt>
      <trkpt lat="44.96714" lon="6.07038">
        <ele>1786.444</ele>
        <time>2020-04-06T12:25:50Z</time>
      </trkpt>
      <trkpt lat="44.96689" lon="6.07037">
        <ele>1791.921</ele>
        <time>2020-04-06T12:26:10Z</time>
      </trkpt>
      <trkpt lat="44.9669" lon="6.07029">
        <ele>1786.299</ele>
        <time>2020-04-06T12:26:30Z</time>
      </trkpt>
      <trkpt lat="44.96684" lon="6.07012">
        <ele>1779.307</ele>
        <time>2020-04-06T12:26:50Z</time>
      </trkpt>
      <trkpt lat="44.96725" lon="6.07">
        <ele>1762.027</ele>
        <time>2020-04-06T12:27:10Z</time>
      </trkpt>
      <trkpt lat="44.96729" lon="6.06991">
        <ele>1754.308</ele>
        <time>2020-04-06T12:27:30Z</time>
      </trkpt>
      <trkpt lat="44.96723" lon="6.06979">
        <ele>1748.995</ele>
        <time>2020-04-06T12:27:50Z</time>
      </trkpt>
      <trkpt lat="44.96729" lon="6.06973">
        <ele>1743.023</ele>
        <time>2020-04-06T12:28:10Z</time>
      </trkpt>
      <trkpt lat="44.96746" lon="6.06982">
        <ele>1742.561</ele>
        <time>2020-04-06T12:28:30Z</time>
      </trkpt>
      <trkpt lat="44.96768" lon="6.07013">
        <ele>1738.645</ele>
        <time>2020-04-06T12:28:50Z</time>
      </trkpt>
      <trkpt lat="44.96777" lon="6.0705">
        <ele>1750.026</ele>
        <time>2020-04-06T12:29:10Z</time>
      </trkpt>
      <trkpt lat="44.96799" lon="6.07089">
        <ele>1739.693</ele>
        <time>2020-04-06T12:29:30Z</time>
      </trkpt>
      <trkpt lat="44.96806" lon="6.0712">
        <ele>1745.437</ele>
        <time>2020-04-06T12:29:50Z</time>
      </trkpt>
      <trkpt lat="44.96818" lon="6.07122">
        <ele>1751.524</ele>
        <time>2020-04-06T12:30:10Z</time>
      </trkpt>
      <trkpt lat="44.96832" lon="6.07099">
        <ele>1741.746</ele>
        <time>2020-04-06T12:30:30Z</time>
      </trkpt>
      <trkpt lat="44.96847" lon="6.07089">
        <ele>1747.888</ele>
        <time>2020-04-06T12:30:50Z</time>
      </trkpt>
      <trkpt lat="44.96861" lon="6.07068">
        <ele>1747.016</ele>
        <time>2020-04-06T12:31:10Z</time>
      </trkpt>
      <trkpt lat="44.96885" lon="6.07063">
        <ele>1740.008</ele>
        <time>2020-04-06T12:31:30Z</time>
      </trkpt>
      <trkpt lat="44.96906" lon="6.07077">
        <ele>1739.71</ele>
        <time>2020-04-06T12:31:50Z</time>
      </trkpt>
      <trkpt lat="44.96925" lon="6.0708">
        <ele>1731.168</ele>
        <time>2020-04-06T12:32:10Z</time>
      </trkpt>
      <trkpt lat="44.96944" lon="6.07106">
        <ele>1732.456</ele>
        <time>2020-04-06T12:32:30Z</time>
      </trkpt>
      <trkpt lat="44.96971" lon="6.07112">
        <ele>1719.93</ele>
        <time>2020-04-06T12:32:50Z</time>
      </trkpt>
      <trkpt lat="44.96977" lon="6.07118">
        <ele>1716.781</ele>
        <time>2020-04-06T12:33:10Z</time>
      </trkpt>
      <trkpt lat="44.96983" lon="6.07145">
        <ele>1719.288</ele>
        <time>2020-04-06T12:33:30Z</time>
      </trkpt>
      <trkpt lat="44.96994" lon="6.07163">
        <ele>1715.232</ele>
        <time>2020-04-06T12:33:50Z</time>
      </trkpt>
      <trkpt lat="44.97046" lon="6.07192">
        <ele>1692.149</ele>
        <time>2020-04-06T12:34:10Z</time>
      </trkpt>
      <trkpt lat="44.97073" lon="6.07216">
        <ele>1687.014</ele>
        <time>2020-04-06T12:34:30Z</time>
      </trkpt>
      <trkpt lat="44.97087" lon="6.07215">
        <ele>1679.154</ele>
        <time>2020-04-06T12:34:50Z</time>
      </trkpt>
      <trkpt lat="44.97118" lon="6.07222">
        <ele>1672.909</ele>
        <time>2020-04-06T12:35:10Z</time>
      </trkpt>
      <trkpt lat="44.97126" lon="6.07219">
        <ele>1667.408</ele>
        <time>2020-04-06T12:35:30Z</time>
      </trkpt>
      <trkpt lat="44.97115" lon="6.07195">
        <ele>1656.757</ele>
        <time>2020-04-06T12:35:50Z</time>
      </trkpt>
      <trkpt lat="44.97102" lon="6.07183">
        <ele>1653.425</ele>
        <time>2020-04-06T12:36:10Z</time>
      </trkpt>
      <trkpt lat="44.97087" lon="6.07159">
        <ele>1646.463</ele>
        <time>2020-04-06T12:36:30Z</time>
      </trkpt>
      <trkpt lat="44.97096" lon="6.07163">
        <ele>1643.417</ele>
        <time>2020-04-06T12:36:50Z</time>
      </trkpt>
      <trkpt lat="44.971" lon="6.07158">
        <ele>1638.998</ele>
        <time>2020-04-06T12:37:10Z</time>
      </trkpt>
      <trkpt lat="44.97081" lon="6.07105">
        <ele>1628.225</ele>
        <time>2020-04-06T12:37:30Z</time>
      </trkpt>
      <trkpt lat="44.97146" lon="6.07139">
        <ele>1607.839</ele>
        <time>2020-04-06T12:37:50Z</time>
      </trkpt>
      <trkpt lat="44.97108" lon="6.07032">
        <ele>1583.996</ele>
        <time>2020-04-06T12:38:10Z</time>
      </trkpt>
      <trkpt lat="44.97179" lon="6.07073">
        <ele>1560.539</ele>
        <time>2020-04-06T12:38:30Z</time>
      </trkpt>
      <trkpt lat="44.97198" lon="6.0711">
        <ele>1560.101</ele>
        <time>2020-04-06T12:38:50Z</time>
      </trkpt>
      <trkpt lat="44.97215" lon="6.07105">
        <ele>1551.321</ele>
        <time>2020-04-06T12:39:10Z</time>
      </trkpt>
      <trkpt lat="44.9724" lon="6.07054">
        <ele>1534.408</ele>
        <time>2020-04-06T12:39:30Z</time>
      </trkpt>
      <trkpt lat="44.97264" lon="6.07027">
        <ele>1524.289</ele>
        <time>2020-04-06T12:39:50Z</time>
      </trkpt>
      <trkpt lat="44.97282" lon="6.06938">
        <ele>1504.587</ele>
        <time>2020-04-06T12:40:10Z</time>
      </trkpt>
      <trkpt lat="44.97334" lon="6.06969">
        <ele>1506.975</ele>
        <time>2020-04-06T12:40:30Z</time>
      </trkpt>
      <trkpt lat="44.9736" lon="6.06957">
        <ele>1509.959</ele>
        <time>2020-04-06T12:40:50Z</time>
      </trkpt>
      <trkpt lat="44.97367" lon="6.06942">
        <ele>1510.89</ele>
        <time>2020-04-06T12:41:10Z</time>
      </trkpt>
      <trkpt lat="44.97384" lon="6.06942">
        <ele>1512.777</ele>
        <time>2020-04-06T12:41:30Z</time>
      </trkpt>
      <trkpt lat="44.97382" lon="6.06913">
        <ele>1515.861</ele>
        <time>2020-04-06T12:41:50Z</time>
      </trkpt>
      <trkpt lat="44.97374" lon="6.06884">
        <ele>1516.468</ele>
        <time>2020-04-06T12:42:10Z</time>
      </trkpt>
      <trkpt lat="44.97385" lon="6.06821">
        <ele>1518.111</ele>
        <time>2020-04-06T12:42:30Z</time>
      </trkpt>
      <trkpt lat="44.97394" lon="6.06805">
        <ele>1518.221</ele>
        <time>2020-04-06T12:42:50Z</time>
      </trkpt>
      <trkpt lat="44.97377" lon="6.06729">
        <ele>1515.903</ele>
        <time>2020-04-06T12:43:10Z</time>
      </trkpt>
      <trkpt lat="44.97383" lon="6.06685">
        <ele>1515.808</ele>
        <time>2020-04-06T12:43:30Z</time>
      </trkpt>
      <trkpt lat="44.97395" lon="6.06655">
        <ele>1517.287</ele>
        <time>2020-04-06T12:43:50Z</time>
      </trkpt>
      <trkpt lat="44.97393" lon="6.06634">
        <ele>1516.715</ele>
        <time>2020-04-06T12:44:10Z</time>
      </trkpt>
      <trkpt lat="44.97394" lon="6.06613">
        <ele>1516.833</ele>
        <time>2020-04-06T12:44:30Z</time>
      </trkpt>
      <trkpt lat="44.9741" lon="6.06555">
        <ele>1524.957</ele>
        <time>2020-04-06T12:44:50Z</time>
      </trkpt>
      <trkpt lat="44.97413" lon="6.06523">
        <ele>1528.968</ele>
        <time>2020-04-06T12:45:10Z</time>
      </trkpt>
      <trkpt lat="44.97423" lon="6.06512">
        <ele>1532.885</ele>
        <time>2020-04-06T12:45:30Z</time>
      </trkpt>
      <trkpt lat="44.97433" lon="6.0649">
        <ele>1536.759</ele>
        <time>2020-04-06T12:45:50Z</time>
      </trkpt>
      <trkpt lat="44.97441" lon="6.0646">
        <ele>1540.136</ele>
        <time>2020-04-06T12:46:10Z</time>
      </trkpt>
      <trkpt lat="44.97458" lon="6.06463">
        <ele>1541.036</ele>
        <time>2020-04-06T12:46:30Z</time>
      </trkpt>
      <trkpt lat="44.97479" lon="6.06442">
        <ele>1541.417</ele>
        <time>2020-04-06T12:46:50Z</time>
      </trkpt>
      <trkpt lat="44.97486" lon="6.06416">
        <ele>1542.118</ele>
        <time>2020-04-06T12:47:10Z</time>
      </trkpt>
      <trkpt lat="44.975" lon="6.06421">
        <ele>1539.908</ele>
        <time>2020-04-06T12:47:30Z</time>
      </trkpt>
      <trkpt lat="44.9751" lon="6.06408">
        <ele>1538.099</ele>
        <time>2020-04-06T12:47:50Z</time>
      </trkpt>
      <trkpt lat="44.97503" lon="6.06387">
        <ele>1540.387</ele>
        <time>2020-04-06T12:48:10Z</time>
      </trkpt>
      <trkpt lat="44.97514" lon="6.06385">
        <ele>1538.365</ele>
        <time>2020-04-06T12:48:30Z</time>
      </trkpt>
      <trkpt lat="44.97527" lon="6.06391">
        <ele>1536.189</ele>
        <time>2020-04-06T12:48:50Z</time>
      </trkpt>
      <trkpt lat="44.97551" lon="6.06377">
        <ele>1539.09</ele>
        <time>2020-04-06T12:49:10Z</time>
      </trkpt>
      <trkpt lat="44.97571" lon="6.06382">
        <ele>1540.227</ele>
        <time>2020-04-06T12:49:30Z</time>
      </trkpt>
      <trkpt lat="44.97602" lon="6.06408">
        <ele>1534.781</ele>
        <time>2020-04-06T12:49:50Z</time>
      </trkpt>
      <trkpt lat="44.97621" lon="6.06434">
        <ele>1528.228</ele>
        <time>2020-04-06T12:50:10Z</time>
      </trkpt>
      <trkpt lat="44.97638" lon="6.06446">
        <ele>1525.417</ele>
        <time>2020-04-06T12:50:30Z</time>
      </trkpt>
      <trkpt lat="44.9763" lon="6.06463">
        <ele>1518.487</ele>
        <time>2020-04-06T12:50:50Z</time>
      </trkpt>
      <trkpt lat="44.9766" lon="6.06486">
        <ele>1512.515</ele>
        <time>2020-04-06T12:51:10Z</time>
      </trkpt>
      <trkpt lat="44.97677" lon="6.06491">
        <ele>1512.108</ele>
        <time>2020-04-06T12:51:30Z</time>
      </trkpt>
      <trkpt lat="44.97682" lon="6.06511">
        <ele>1507.657</ele>
        <time>2020-04-06T12:51:50Z</time>
      </trkpt>
      <trkpt lat="44.97695" lon="6.06521">
        <ele>1506.655</ele>
        <time>2020-04-06T12:52:10Z</time>
      </trkpt>
      <trkpt lat="44.97711" lon="6.0656">
        <ele>1500.073</ele>
        <time>2020-04-06T12:52:30Z</time>
      </trkpt>
      <trkpt lat="44.97711" lon="6.06583">
        <ele>1494.677</ele>
        <time>2020-04-06T12:52:50Z</time>
      </trkpt>
      <trkpt lat="44.97734" lon="6.06588">
        <ele>1491.188</ele>
        <time>2020-04-06T12:53:10Z</time>
      </trkpt>
      <trkpt lat="44.97772" lon="6.06624">
        <ele>1470.965</ele>
        <time>2020-04-06T12:53:30Z</time>
      </trkpt>
      <trkpt lat="44.97753" lon="6.06663">
        <ele>1466.699</ele>
        <time>2020-04-06T12:53:50Z</time>
      </trkpt>
      <trkpt lat="44.97766" lon="6.06663">
        <ele>1462.686</ele>
        <time>2020-04-06T12:54:10Z</time>
      </trkpt>
      <trkpt lat="44.97773" lon="6.06673">
        <ele>1457.225</ele>
        <time>2020-04-06T12:54:30Z</time>
      </trkpt>
      <trkpt lat="44.97761" lon="6.067">
        <ele>1452.926</ele>
        <time>2020-04-06T12:54:50Z</time>
      </trkpt>
      <trkpt lat="44.97789" lon="6.06683">
        <ele>1446.508</ele>
        <time>2020-04-06T12:55:10Z</time>
      </trkpt>
      <trkpt lat="44.97783" lon="6.06703">
        <ele>1444.008</ele>
        <time>2020-04-06T12:55:30Z</time>
      </trkpt>
      <trkpt lat="44.97787" lon="6.06704">
        <ele>1441.258</ele>
        <time>2020-04-06T12:55:50Z</time>
      </trkpt>
      <trkpt lat="44.97777" lon="6.06721">
        <ele>1440.716</ele>
        <time>2020-04-06T12:56:10Z</time>
      </trkpt>
      <trkpt lat="44.97788" lon="6.06717">
        <ele>1436.194</ele>
        <time>2020-04-06T12:56:30Z</time>
      </trkpt>
      <trkpt lat="44.97785" lon="6.06735">
        <ele>1432.198</ele>
        <time>2020-04-06T12:56:50Z</time>
      </trkpt>
      <trkpt lat="44.97811" lon="6.06722">
        <ele>1422.089</ele>
        <time>2020-04-06T12:57:10Z</time>
      </trkpt>
      <trkpt lat="44.97806" lon="6.06739">
        <ele>1420.136</ele>
        <time>2020-04-06T12:57:30Z</time>
      </trkpt>
      <trkpt lat="44.97832" lon="6.06719">
        <ele>1410.83</ele>
        <time>2020-04-06T12:57:50Z</time>
      </trkpt>
      <trkpt lat="44.97821" lon="6.06746">
        <ele>1410.327</ele>
        <time>2020-04-06T12:58:10Z</time>
      </trkpt>
      <trkpt lat="44.97846" lon="6.06736">
        <ele>1394.113</ele>
        <time>2020-04-06T12:58:30Z</time>
      </trkpt>
      <trkpt lat="44.97839" lon="6.0676">
        <ele>1394.943</ele>
        <time>2020-04-06T12:58:50Z</time>
      </trkpt>
      <trkpt lat="44.97838" lon="6.06787">
        <ele>1385.107</ele>
        <time>2020-04-06T12:59:10Z</time>
      </trkpt>
      <trkpt lat="44.97834" lon="6.06796">
        <ele>1383.908</ele>
        <time>2020-04-06T12:59:30Z</time>
      </trkpt>
      <trkpt lat="44.97836" lon="6.06805">
        <ele>1378.787</ele>
        <time>2020-04-06T12:59:50Z</time>
      </trkpt>
      <trkpt lat="44.97827" lon="6.06817">
        <ele>1379.395</ele>
        <time>2020-04-06T13:00:10Z</time>
      </trkpt>
      <trkpt lat="44.97823" lon="6.06835">
        <ele>1373.913</ele>
        <time>2020-04-06T13:00:30Z</time>
      </trkpt>
      <trkpt lat="44.97859" lon="6.06819">
        <ele>1360.857</ele>
        <time>2020-04-06T13:00:50Z</time>
      </trkpt>
      <trkpt lat="44.97872" lon="6.06801">
        <ele>1358.128</ele>
        <time>2020-04-06T13:01:10Z</time>
      </trkpt>
      <trkpt lat="44.97872" lon="6.06817">
        <ele>1353.975</ele>
        <time>2020-04-06T13:01:30Z</time>
      </trkpt>
      <trkpt lat="44.97896" lon="6.06787">
        <ele>1347.159</ele>
        <time>2020-04-06T13:01:50Z</time>
      </trkpt>
      <trkpt lat="44.97899" lon="6.06774">
        <ele>1347.586</ele>
        <time>2020-04-06T13:02:10Z</time>
      </trkpt>
      <trkpt lat="44.97908" lon="6.06777">
        <ele>1342.515</ele>
        <time>2020-04-06T13:02:30Z</time>
      </trkpt>
      <trkpt lat="44.9791" lon="6.06789">
        <ele>1339.765</ele>
        <time>2020-04-06T13:02:50Z</time>
      </trkpt>
      <trkpt lat="44.97923" lon="6.06777">
        <ele>1333.811</ele>
        <time>2020-04-06T13:03:10Z</time>
      </trkpt>
      <trkpt lat="44.9795" lon="6.06836">
        <ele>1317.208</ele>
        <time>2020-04-06T13:03:30Z</time>
      </trkpt>
      <trkpt lat="44.97932" lon="6.06847">
        <ele>1322.017</ele>
        <time>2020-04-06T13:03:50Z</time>
      </trkpt>
      <trkpt lat="44.9793" lon="6.06874">
        <ele>1316.925</ele>
        <time>2020-04-06T13:04:10Z</time>
      </trkpt>
      <trkpt lat="44.97934" lon="6.0692">
        <ele>1304.913</ele>
        <time>2020-04-06T13:04:30Z</time>
      </trkpt>
      <trkpt lat="44.9793" lon="6.06935">
        <ele>1304.077</ele>
        <time>2020-04-06T13:04:50Z</time>
      </trkpt>
      <trkpt lat="44.97929" lon="6.06968">
        <ele>1297.868</ele>
        <time>2020-04-06T13:05:10Z</time>
      </trkpt>
      <trkpt lat="44.97931" lon="6.06986">
        <ele>1293.985</ele>
        <time>2020-04-06T13:05:30Z</time>
      </trkpt>
      <trkpt lat="44.97915" lon="6.07015">
        <ele>1292.249</ele>
        <time>2020-04-06T13:05:50Z</time>
      </trkpt>
      <trkpt lat="44.97946" lon="6.07029">
        <ele>1281.816</ele>
        <time>2020-04-06T13:06:10Z</time>
      </trkpt>
      <trkpt lat="44.97941" lon="6.07044">
        <ele>1279.665</ele>
        <time>2020-04-06T13:06:30Z</time>
      </trkpt>
      <trkpt lat="44.97958" lon="6.07049">
        <ele>1269.168</ele>
        <time>2020-04-06T13:06:50Z</time>
      </trkpt>
      <trkpt lat="44.9798" lon="6.06979">
        <ele>1265.214</ele>
        <time>2020-04-06T13:07:10Z</time>
      </trkpt>
      <trkpt lat="44.98019" lon="6.0699">
        <ele>1247.308</ele>
        <time>2020-04-06T13:07:30Z</time>
      </trkpt>
      <trkpt lat="44.97997" lon="6.07021">
        <ele>1247.772</ele>
        <time>2020-04-06T13:07:50Z</time>
      </trkpt>
      <trkpt lat="44.98018" lon="6.07023">
        <ele>1239.61</ele>
        <time>2020-04-06T13:08:10Z</time>
      </trkpt>
      <trkpt lat="44.98014" lon="6.07035">
        <ele>1237.668</ele>
        <time>2020-04-06T13:08:30Z</time>
      </trkpt>
      <trkpt lat="44.98026" lon="6.07034">
        <ele>1233.962</ele>
        <time>2020-04-06T13:08:50Z</time>
      </trkpt>
      <trkpt lat="44.9804" lon="6.07046">
        <ele>1224.113</ele>
        <time>2020-04-06T13:09:10Z</time>
      </trkpt>
      <trkpt lat="44.98053" lon="6.0702">
        <ele>1223.62</ele>
        <time>2020-04-06T13:09:30Z</time>
      </trkpt>
      <trkpt lat="44.98058" lon="6.07022">
        <ele>1221.384</ele>
        <time>2020-04-06T13:09:50Z</time>
      </trkpt>
      <trkpt lat="44.98058" lon="6.07042">
        <ele>1217.281</ele>
        <time>2020-04-06T13:10:10Z</time>
      </trkpt>
      <trkpt lat="44.98072" lon="6.0704">
        <ele>1212.692</ele>
        <time>2020-04-06T13:10:30Z</time>
      </trkpt>
      <trkpt lat="44.98064" lon="6.07059">
        <ele>1210.873</ele>
        <time>2020-04-06T13:10:50Z</time>
      </trkpt>
      <trkpt lat="44.98067" lon="6.0707">
        <ele>1206.22</ele>
        <time>2020-04-06T13:11:10Z</time>
      </trkpt>
      <trkpt lat="44.98064" lon="6.071">
        <ele>1198.708</ele>
        <time>2020-04-06T13:11:30Z</time>
      </trkpt>
      <trkpt lat="44.98071" lon="6.07101">
        <ele>1196.765</ele>
        <time>2020-04-06T13:11:50Z</time>
      </trkpt>
      <trkpt lat="44.98067" lon="6.07115">
        <ele>1194.293</ele>
        <time>2020-04-06T13:12:10Z</time>
      </trkpt>
      <trkpt lat="44.98076" lon="6.07122">
        <ele>1190.461</ele>
        <time>2020-04-06T13:12:30Z</time>
      </trkpt>
      <trkpt lat="44.98081" lon="6.07113">
        <ele>1191.175</ele>
        <time>2020-04-06T13:12:50Z</time>
      </trkpt>
      <trkpt lat="44.98086" lon="6.07119">
        <ele>1189.496</ele>
        <time>2020-04-06T13:13:10Z</time>
      </trkpt>
      <trkpt lat="44.98108" lon="6.0716">
        <ele>1180.593</ele>
        <time>2020-04-06T13:13:30Z</time>
      </trkpt>
      <trkpt lat="44.98151" lon="6.07185">
        <ele>1166.247</ele>
        <time>2020-04-06T13:13:50Z</time>
      </trkpt>
      <trkpt lat="44.98183" lon="6.07225">
        <ele>1151.164</ele>
        <time>2020-04-06T13:14:10Z</time>
      </trkpt>
      <trkpt lat="44.98268" lon="6.07223">
        <ele>1126.799</ele>
        <time>2020-04-06T13:14:30Z</time>
      </trkpt>
      <trkpt lat="44.98311" lon="6.07263">
        <ele>1112.307</ele>
        <time>2020-04-06T13:14:50Z</time>
      </trkpt>
      <trkpt lat="44.98353" lon="6.07279">
        <ele>1102.627</ele>
        <time>2020-04-06T13:15:10Z</time>
      </trkpt>
      <trkpt lat="44.98383" lon="6.07275">
        <ele>1095.908</ele>
        <time>2020-04-06T13:15:30Z</time>
      </trkpt>
      <trkpt lat="44.98406" lon="6.07263">
        <ele>1095.565</ele>
        <time>2020-04-06T13:15:50Z</time>
      </trkpt>
      <trkpt lat="44.98433" lon="6.07317">
        <ele>1086.193</ele>
        <time>2020-04-06T13:16:10Z</time>
      </trkpt>
      <trkpt lat="44.9848" lon="6.07368">
        <ele>1074.921</ele>
        <time>2020-04-06T13:16:30Z</time>
      </trkpt>
      <trkpt lat="44.98494" lon="6.07394">
        <ele>1070.195</ele>
        <time>2020-04-06T13:16:50Z</time>
      </trkpt>
      <trkpt lat="44.98531" lon="6.07394">
        <ele>1069.276</ele>
        <time>2020-04-06T13:17:10Z</time>
      </trkpt>
      <trkpt lat="44.98563" lon="6.07416">
        <ele>1058.523</ele>
        <time>2020-04-06T13:17:30Z</time>
      </trkpt>
      <trkpt lat="44.9859" lon="6.07413">
        <ele>1053.587</ele>
        <time>2020-04-06T13:17:50Z</time>
      </trkpt>
      <trkpt lat="44.98622" lon="6.07418">
        <ele>1043.614</ele>
        <time>2020-04-06T13:18:10Z</time>
      </trkpt>
      <trkpt lat="44.98601" lon="6.07474">
        <ele>1036.896</ele>
        <time>2020-04-06T13:18:30Z</time>
      </trkpt>
      <trkpt lat="44.98598" lon="6.07511">
        <ele>1029.731</ele>
        <time>2020-04-06T13:18:50Z</time>
      </trkpt>
      <trkpt lat="44.98635" lon="6.07518">
        <ele>1020.824</ele>
        <time>2020-04-06T13:19:10Z</time>
      </trkpt>
      <trkpt lat="44.98665" lon="6.07512">
        <ele>1013.808</ele>
        <time>2020-04-06T13:19:30Z</time>
      </trkpt>
      <trkpt lat="44.98703" lon="6.07523">
        <ele>1000.885</ele>
        <time>2020-04-06T13:19:50Z</time>
      </trkpt>
      <trkpt lat="44.98876" lon="6.07502">
        <ele>965.073</ele>
        <time>2020-04-06T13:20:10Z</time>
      </trkpt>
      <trkpt lat="44.98912" lon="6.07469">
        <ele>963.461</ele>
        <time>2020-04-06T13:20:30Z</time>
      </trkpt>
      <trkpt lat="44.9894" lon="6.07476">
        <ele>952.145</ele>
        <time>2020-04-06T13:20:50Z</time>
      </trkpt>
      <trkpt lat="44.98995" lon="6.0746">
        <ele>938.916</ele>
        <time>2020-04-06T13:21:10Z</time>
      </trkpt>
      <trkpt lat="44.99058" lon="6.07474">
        <ele>916.223</ele>
        <time>2020-04-06T13:21:30Z</time>
      </trkpt>
      <trkpt lat="44.99109" lon="6.07437">
        <ele>905.277</ele>
        <time>2020-04-06T13:21:50Z</time>
      </trkpt>
      <trkpt lat="44.99117" lon="6.07451">
        <ele>901.654</ele>
        <time>2020-04-06T13:22:10Z</time>
      </trkpt>
      <trkpt lat="44.99221" lon="6.07436">
        <ele>883.343</ele>
        <time>2020-04-06T13:22:30Z</time>
      </trkpt>
      <trkpt lat="44.99313" lon="6.07315">
        <ele>857.664</ele>
        <time>2020-04-06T13:22:50Z</time>
      </trkpt>
      <trkpt lat="44.99338" lon="6.07312">
        <ele>853.11</ele>
        <time>2020-04-06T13:23:10Z</time>
      </trkpt>
      <trkpt lat="44.99343" lon="6.0727">
        <ele>853.008</ele>
        <time>2020-04-06T13:23:30Z</time>
      </trkpt>
      <trkpt lat="44.99354" lon="6.07243">
        <ele>851.58</ele>
        <time>2020-04-06T13:23:50Z</time>
      </trkpt>
      <trkpt lat="44.9939" lon="6.07225">
        <ele>844.838</ele>
        <time>2020-04-06T13:24:10Z</time>
      </trkpt>
      <trkpt lat="44.99399" lon="6.07208">
        <ele>844.456</ele>
        <time>2020-04-06T13:24:30Z</time>
      </trkpt>
      <trkpt lat="44.99405" lon="6.07208">
        <ele>843.87</ele>
        <time>2020-04-06T13:24:50Z</time>
      </trkpt>
      <trkpt lat="44.99411" lon="6.07223">
        <ele>842.691</ele>
        <time>2020-04-06T13:25:10Z</time>
      </trkpt>
      <trkpt lat="44.99438" lon="6.07234">
        <ele>837.548</ele>
        <time>2020-04-06T13:25:30Z</time>
      </trkpt>
      <trkpt lat="44.99488" lon="6.07199">
        <ele>831.462</ele>
        <time>2020-04-06T13:25:50Z</time>
      </trkpt>
      <trkpt lat="44.99506" lon="6.07197">
        <ele>827.889</ele>
        <time>2020-04-06T13:26:10Z</time>
      </trkpt>
      <trkpt lat="44.99578" lon="6.0714">
        <ele>819.054</ele>
        <time>2020-04-06T13:26:30Z</time>
      </trkpt>
      <trkpt lat="44.99606" lon="6.07109">
        <ele>815.356</ele>
        <time>2020-04-06T13:26:50Z</time>
      </trkpt>
      <trkpt lat="44.99656" lon="6.07086">
        <ele>807.511</ele>
        <time>2020-04-06T13:27:10Z</time>
      </trkpt>
      <trkpt lat="44.99713" lon="6.0697">
        <ele>807.108</ele>
        <time>2020-04-06T13:27:30Z</time>
      </trkpt>
      <trkpt lat="44.9977" lon="6.06948">
        <ele>806.041</ele>
        <time>2020-04-06T13:27:50Z</time>
      </trkpt>
      <trkpt lat="44.99811" lon="6.06922">
        <ele>804.669</ele>
        <time>2020-04-06T13:28:10Z</time>
      </trkpt>
      <trkpt lat="44.99823" lon="6.06898">
        <ele>807.567</ele>
        <time>2020-04-06T13:28:30Z</time>
      </trkpt>
      <trkpt lat="44.99871" lon="6.06894">
        <ele>799.871</ele>
        <time>2020-04-06T13:28:50Z</time>
      </trkpt>
      <trkpt lat="44.99944" lon="6.06898">
        <ele>785.812</ele>
        <time>2020-04-06T13:29:10Z</time>
      </trkpt>
      <trkpt lat="45.00009" lon="6.06817">
        <ele>781.519</ele>
        <time>2020-04-06T13:29:30Z</time>
      </trkpt>
      <trkpt lat="45.00055" lon="6.06813">
        <ele>776.963</ele>
        <time>2020-04-06T13:29:50Z</time>
      </trkpt>
      <trkpt lat="45.00117" lon="6.06789">
        <ele>783.48</ele>
        <time>2020-04-06T13:30:10Z</time>
      </trkpt>
      <trkpt lat="45.00174" lon="6.068">
        <ele>772.034</ele>
        <time>2020-04-06T13:30:30Z</time>
      </trkpt>
      <trkpt lat="45.00191" lon="6.0681">
        <ele>769.155</ele>
        <time>2020-04-06T13:30:50Z</time>
      </trkpt>
      <trkpt lat="45.00249" lon="6.0681">
        <ele>769.01</ele>
        <time>2020-04-06T13:31:10Z</time>
      </trkpt>
      <trkpt lat="45.00261" lon="6.06802">
        <ele>769.008</ele>
        <time>2020-04-06T13:31:30Z</time>
      </trkpt>
      <trkpt lat="45.00307" lon="6.06804">
        <ele>769.039</ele>
        <time>2020-04-06T13:31:50Z</time>
      </trkpt>
      <trkpt lat="45.00354" lon="6.06782">
        <ele>769.077</ele>
        <time>2020-04-06T13:32:10Z</time>
      </trkpt>
      <trkpt lat="45.00371" lon="6.06778">
        <ele>768.025</ele>
        <time>2020-04-06T13:32:30Z</time>
      </trkpt>
      <trkpt lat="45.0041" lon="6.06742">
        <ele>762.719</ele>
        <time>2020-04-06T13:32:50Z</time>
      </trkpt>
      <trkpt lat="45.00458" lon="6.06733">
        <ele>761.89</ele>
        <time>2020-04-06T13:33:10Z</time>
      </trkpt>
      <trkpt lat="45.00529" lon="6.06686">
        <ele>759.367</ele>
        <time>2020-04-06T13:33:30Z</time>
      </trkpt>
      <trkpt lat="45.00581" lon="6.06617">
        <ele>758.531</ele>
        <time>2020-04-06T13:33:50Z</time>
      </trkpt>
      <trkpt lat="45.00619" lon="6.06595">
        <ele>757.088</ele>
        <time>2020-04-06T13:34:10Z</time>
      </trkpt>
      <trkpt lat="45.00631" lon="6.06554">
        <ele>756.372</ele>
        <time>2020-04-06T13:34:30Z</time>
      </trkpt>
      <trkpt lat="45.00671" lon="6.0652">
        <ele>755.713</ele>
        <time>2020-04-06T13:34:50Z</time>
      </trkpt>
      <trkpt lat="45.00727" lon="6.06431">
        <ele>753.514</ele>
        <time>2020-04-06T13:35:10Z</time>
      </trkpt>
      <trkpt lat="45.00774" lon="6.06367">
        <ele>752.208</ele>
        <time>2020-04-06T13:35:30Z</time>
      </trkpt>
      <trkpt lat="45.00842" lon="6.06345">
        <ele>752.033</ele>
        <time>2020-04-06T13:35:50Z</time>
      </trkpt>
      <trkpt lat="45.00902" lon="6.06305">
        <ele>751.081</ele>
        <time>2020-04-06T13:36:10Z</time>
      </trkpt>
      <trkpt lat="45.00933" lon="6.06253">
        <ele>754.059</ele>
        <time>2020-04-06T13:36:30Z</time>
      </trkpt>
      <trkpt lat="45.0097" lon="6.0618">
        <ele>756.663</ele>
        <time>2020-04-06T13:36:50Z</time>
      </trkpt>
      <trkpt lat="45.01236" lon="6.0602">
        <ele>747.584</ele>
        <time>2020-04-06T13:37:10Z</time>
      </trkpt>
      <trkpt lat="45.01294" lon="6.06016">
        <ele>746.461</ele>
        <time>2020-04-06T13:37:30Z</time>
      </trkpt>
      <trkpt lat="45.01398" lon="6.05971">
        <ele>746.015</ele>
        <time>2020-04-06T13:37:50Z</time>
      </trkpt>
      <trkpt lat="45.01421" lon="6.05904">
        <ele>747.062</ele>
        <time>2020-04-06T13:38:10Z</time>
      </trkpt>
      <trkpt lat="45.0141" lon="6.05833">
        <ele>748.385</ele>
        <time>2020-04-06T13:38:30Z</time>
      </trkpt>
      <trkpt lat="45.01417" lon="6.05767">
        <ele>751.189</ele>
        <time>2020-04-06T13:38:50Z</time>
      </trkpt>
      <trkpt lat="45.01479" lon="6.05741">
        <ele>754.417</ele>
        <time>2020-04-06T13:39:10Z</time>
      </trkpt>
      <trkpt lat="45.01527" lon="6.0566">
        <ele>757.308</ele>
        <time>2020-04-06T13:39:30Z</time>
      </trkpt>
      <trkpt lat="45.01526" lon="6.05608">
        <ele>759.654</ele>
        <time>2020-04-06T13:39:50Z</time>
      </trkpt>
      <trkpt lat="45.01565" lon="6.05598">
        <ele>761.382</ele>
        <time>2020-04-06T13:40:10Z</time>
      </trkpt>
      <trkpt lat="45.01613" lon="6.05546">
        <ele>774.74</ele>
        <time>2020-04-06T13:40:30Z</time>
      </trkpt>
      <trkpt lat="45.01632" lon="6.05576">
        <ele>769.914</ele>
        <time>2020-04-06T13:40:50Z</time>
      </trkpt>
      <trkpt lat="45.01676" lon="6.05544">
        <ele>785.595</ele>
        <time>2020-04-06T13:41:10Z</time>
      </trkpt>
      <trkpt lat="45.01698" lon="6.05588">
        <ele>766.062</ele>
        <time>2020-04-06T13:41:30Z</time>
      </trkpt>
      <trkpt lat="45.01775" lon="6.05578">
        <ele>767.626</ele>
        <time>2020-04-06T13:41:50Z</time>
      </trkpt>
      <trkpt lat="45.01819" lon="6.05596">
        <ele>755.483</ele>
        <time>2020-04-06T13:42:10Z</time>
      </trkpt>
      <trkpt lat="45.01871" lon="6.0557">
        <ele>758.624</ele>
        <time>2020-04-06T13:42:30Z</time>
      </trkpt>
      <trkpt lat="45.01959" lon="6.05584">
        <ele>747.904</ele>
        <time>2020-04-06T13:42:50Z</time>
      </trkpt>
      <trkpt lat="45.01954" lon="6.05708">
        <ele>740.014</ele>
        <time>2020-04-06T13:43:10Z</time>
      </trkpt>
      <trkpt lat="45.01925" lon="6.05784">
        <ele>740.008</ele>
        <time>2020-04-06T13:43:30Z</time>
      </trkpt>
      <trkpt lat="45.01939" lon="6.0581">
        <ele>740.088</ele>
        <time>2020-04-06T13:43:50Z</time>
      </trkpt>
      <trkpt lat="45.01995" lon="6.05828">
        <ele>739.016</ele>
        <time>2020-04-06T13:44:10Z</time>
      </trkpt>
      <trkpt lat="45.02034" lon="6.05814">
        <ele>739.014</ele>
        <time>2020-04-06T13:44:30Z</time>
      </trkpt>
      <trkpt lat="45.02061" lon="6.05794">
        <ele>739.068</ele>
        <time>2020-04-06T13:44:50Z</time>
      </trkpt>
      <trkpt lat="45.02096" lon="6.05804">
        <ele>739.039</ele>
        <time>2020-04-06T13:45:10Z</time>
      </trkpt>
      <trkpt lat="45.02164" lon="6.05758">
        <ele>739.026</ele>
        <time>2020-04-06T13:45:30Z</time>
      </trkpt>
      <trkpt lat="45.0222" lon="6.0573">
        <ele>738.08</ele>
        <time>2020-04-06T13:45:50Z</time>
      </trkpt>
      <trkpt lat="45.02261" lon="6.05668">
        <ele>738.047</ele>
        <time>2020-04-06T13:46:10Z</time>
      </trkpt>
      <trkpt lat="45.02266" lon="6.05618">
        <ele>738.075</ele>
        <time>2020-04-06T13:46:30Z</time>
      </trkpt>
      <trkpt lat="45.02266" lon="6.05558">
        <ele>738.028</ele>
        <time>2020-04-06T13:46:50Z</time>
      </trkpt>
      <trkpt lat="45.02338" lon="6.05504">
        <ele>736.82</ele>
        <time>2020-04-06T13:47:10Z</time>
      </trkpt>
      <trkpt lat="45.02355" lon="6.05466">
        <ele>736.208</ele>
        <time>2020-04-06T13:47:30Z</time>
      </trkpt>
      <trkpt lat="45.0239" lon="6.05418">
        <ele>736.043</ele>
        <time>2020-04-06T13:47:50Z</time>
      </trkpt>
      <trkpt lat="45.02413" lon="6.05378">
        <ele>736.571</ele>
        <time>2020-04-06T13:48:10Z</time>
      </trkpt>
      <trkpt lat="45.02472" lon="6.05336">
        <ele>736.929</ele>
        <time>2020-04-06T13:48:30Z</time>
      </trkpt>
      <trkpt lat="45.02516" lon="6.05247">
        <ele>738.073</ele>
        <time>2020-04-06T13:48:50Z</time>
      </trkpt>
      <trkpt lat="45.02563" lon="6.05201">
        <ele>737.524</ele>
        <time>2020-04-06T13:49:10Z</time>
      </trkpt>
      <trkpt lat="45.02622" lon="6.05215">
        <ele>734.881</ele>
        <time>2020-04-06T13:49:30Z</time>
      </trkpt>
      <trkpt lat="45.0267" lon="6.05193">
        <ele>733.985</ele>
        <time>2020-04-06T13:49:50Z</time>
      </trkpt>
      <trkpt lat="45.02707" lon="6.05155">
        <ele>732.862</ele>
        <time>2020-04-06T13:50:10Z</time>
      </trkpt>
      <trkpt lat="45.02754" lon="6.05117">
        <ele>730.029</ele>
        <time>2020-04-06T13:50:30Z</time>
      </trkpt>
      <trkpt lat="45.02786" lon="6.05065">
        <ele>730</ele>
        <time>2020-04-06T13:50:50Z</time>
      </trkpt>
      <trkpt lat="45.02886" lon="6.05023">
        <ele>730.32</ele>
        <time>2020-04-06T13:51:10Z</time>
      </trkpt>
      <trkpt lat="45.02945" lon="6.04977">
        <ele>729.808</ele>
        <time>2020-04-06T13:51:30Z</time>
      </trkpt>
      <trkpt lat="45.03045" lon="6.04877">
        <ele>729.418</ele>
        <time>2020-04-06T13:51:50Z</time>
      </trkpt>
      <trkpt lat="45.03122" lon="6.04817">
        <ele>728.266</ele>
        <time>2020-04-06T13:52:10Z</time>
      </trkpt>
      <trkpt lat="45.03153" lon="6.04755">
        <ele>728.884</ele>
        <time>2020-04-06T13:52:30Z</time>
      </trkpt>
      <trkpt lat="45.03212" lon="6.04671">
        <ele>729.088</ele>
        <time>2020-04-06T13:52:50Z</time>
      </trkpt>
      <trkpt lat="45.03218" lon="6.04581">
        <ele>734.339</ele>
        <time>2020-04-06T13:53:10Z</time>
      </trkpt>
      <trkpt lat="45.03338" lon="6.04525">
        <ele>730.496</ele>
        <time>2020-04-06T13:53:30Z</time>
      </trkpt>
      <trkpt lat="45.03405" lon="6.04535">
        <ele>727.05</ele>
        <time>2020-04-06T13:53:50Z</time>
      </trkpt>
      <trkpt lat="45.03473" lon="6.04487">
        <ele>724.497</ele>
        <time>2020-04-06T13:54:10Z</time>
      </trkpt>
      <trkpt lat="45.03519" lon="6.04433">
        <ele>720.041</ele>
        <time>2020-04-06T13:54:30Z</time>
      </trkpt>
      <trkpt lat="45.03538" lon="6.04371">
        <ele>720.081</ele>
        <time>2020-04-06T13:54:50Z</time>
      </trkpt>
      <trkpt lat="45.03566" lon="6.04266">
        <ele>720.509</ele>
        <time>2020-04-06T13:55:10Z</time>
      </trkpt>
      <trkpt lat="45.03628" lon="6.04212">
        <ele>720.108</ele>
        <time>2020-04-06T13:55:30Z</time>
      </trkpt>
      <trkpt lat="45.03716" lon="6.04154">
        <ele>720.09</ele>
        <time>2020-04-06T13:55:50Z</time>
      </trkpt>
      <trkpt lat="45.03751" lon="6.0409">
        <ele>720.018</ele>
        <time>2020-04-06T13:56:10Z</time>
      </trkpt>
      <trkpt lat="45.03812" lon="6.04046">
        <ele>720.036</ele>
        <time>2020-04-06T13:56:30Z</time>
      </trkpt>
      <trkpt lat="45.03916" lon="6.03806">
        <ele>720.02</ele>
        <time>2020-04-06T13:56:50Z</time>
      </trkpt>
      <trkpt lat="45.03933" lon="6.03712">
        <ele>723.011</ele>
        <time>2020-04-06T13:57:10Z</time>
      </trkpt>
      <trkpt lat="45.03978" lon="6.03638">
        <ele>721.718</ele>
        <time>2020-04-06T13:57:30Z</time>
      </trkpt>
      <trkpt lat="45.03991" lon="6.03518">
        <ele>735.592</ele>
        <time>2020-04-06T13:57:50Z</time>
      </trkpt>
      <trkpt lat="45.04023" lon="6.03488">
        <ele>724.549</ele>
        <time>2020-04-06T13:58:10Z</time>
      </trkpt>
      <trkpt lat="45.04111" lon="6.03424">
        <ele>723.017</ele>
        <time>2020-04-06T13:58:30Z</time>
      </trkpt>
      <trkpt lat="45.04255" lon="6.03394">
        <ele>726.787</ele>
        <time>2020-04-06T13:58:50Z</time>
      </trkpt>
      <trkpt lat="45.04319" lon="6.03361">
        <ele>731.015</ele>
        <time>2020-04-06T13:59:10Z</time>
      </trkpt>
      <trkpt lat="45.04351" lon="6.03359">
        <ele>731.208</ele>
        <time>2020-04-06T13:59:30Z</time>
      </trkpt>
      <trkpt lat="45.04463" lon="6.03271">
        <ele>730.877</ele>
        <time>2020-04-06T13:59:50Z</time>
      </trkpt>
      <trkpt lat="45.04501" lon="6.03257">
        <ele>727.395</ele>
        <time>2020-04-06T14:00:10Z</time>
      </trkpt>
      <trkpt lat="45.04542" lon="6.03157">
        <ele>725.673</ele>
        <time>2020-04-06T14:00:30Z</time>
      </trkpt>
      <trkpt lat="45.04604" lon="6.03083">
        <ele>723.097</ele>
        <time>2020-04-06T14:00:50Z</time>
      </trkpt>
      <trkpt lat="45.04686" lon="6.02969">
        <ele>726.398</ele>
        <time>2020-04-06T14:01:10Z</time>
      </trkpt>
      <trkpt lat="45.04736" lon="6.02931">
        <ele>724.775</ele>
        <time>2020-04-06T14:01:30Z</time>
      </trkpt>
      <trkpt lat="45.04786" lon="6.02911">
        <ele>724.949</ele>
        <time>2020-04-06T14:01:50Z</time>
      </trkpt>
      <trkpt lat="45.04851" lon="6.02849">
        <ele>722.456</ele>
        <time>2020-04-06T14:02:10Z</time>
      </trkpt>
      <trkpt lat="45.04898" lon="6.02775">
        <ele>724.358</ele>
        <time>2020-04-06T14:02:30Z</time>
      </trkpt>
      <trkpt lat="45.04943" lon="6.02788">
        <ele>723.252</ele>
        <time>2020-04-06T14:02:50Z</time>
      </trkpt>
      <trkpt lat="45.05009" lon="6.0287">
        <ele>720.717</ele>
        <time>2020-04-06T14:03:10Z</time>
      </trkpt>
      <trkpt lat="45.0508" lon="6.02922">
        <ele>720.008</ele>
        <time>2020-04-06T14:03:30Z</time>
      </trkpt>
      <trkpt lat="45.0517" lon="6.0296">
        <ele>720.561</ele>
        <time>2020-04-06T14:03:50Z</time>
      </trkpt>
      <trkpt lat="45.05242" lon="6.02958">
        <ele>720.599</ele>
        <time>2020-04-06T14:04:10Z</time>
      </trkpt>
      <trkpt lat="45.05331" lon="6.02907">
        <ele>720.887</ele>
        <time>2020-04-06T14:04:30Z</time>
      </trkpt>
      <trkpt lat="45.05373" lon="6.02893">
        <ele>720.521</ele>
        <time>2020-04-06T14:04:50Z</time>
      </trkpt>
      <trkpt lat="45.05401" lon="6.02894">
        <ele>720.092</ele>
        <time>2020-04-06T14:05:10Z</time>
      </trkpt>
      <trkpt lat="45.05421" lon="6.03008">
        <ele>719.759</ele>
        <time>2020-04-06T14:05:30Z</time>
      </trkpt>
    </trkseg>
  </trk>
</gpx>